<?xml version="1.0" encoding="UTF-8" standalone="no" ?>
<gpx xmlns="http://www.topografix.com/GPX/1/1" xmlns:xsi="http://www.w3.org/2001/XMLSchema-instance" xsi:schemaLocation="http://www.topografix.com/GPX/1/1 http://www.topografix.com/GPX/1/1/gpx.xsd" version="1.1" creator="VisuGPX - https://www.visugpx.com">
  <metadata>
    <name>20 kms laubreçais le mercredi 20 aout 2014</name>
    <desc><![CDATA[preparation médoc , 20kms a laubreçcais]]></desc>
  </metadata>
  <trk>
    <name><![CDATA[mercredi_20aout]]></name>
    <trkseg>
      <trkpt lat="46.75306" lon="-0.38913">
        <ele>232.991194</ele>
        <time>2014-08-20T07:22:05Z</time>
      </trkpt>
      <trkpt lat="46.75304" lon="-0.38934">
        <ele>238.947253</ele>
        <time>2014-08-20T07:22:06Z</time>
      </trkpt>
      <trkpt lat="46.75295" lon="-0.38993">
        <ele>243.174492</ele>
        <time>2014-08-20T07:22:09Z</time>
      </trkpt>
      <trkpt lat="46.75287" lon="-0.39003">
        <ele>235.105974</ele>
        <time>2014-08-20T07:22:11Z</time>
      </trkpt>
      <trkpt lat="46.75282" lon="-0.39006">
        <ele>246.562237</ele>
        <time>2014-08-20T07:22:19Z</time>
      </trkpt>
      <trkpt lat="46.7528" lon="-0.39013">
        <ele>247.55786</ele>
        <time>2014-08-20T07:22:22Z</time>
      </trkpt>
      <trkpt lat="46.75276" lon="-0.39014">
        <ele>244.768564</ele>
        <time>2014-08-20T07:22:25Z</time>
      </trkpt>
      <trkpt lat="46.75271" lon="-0.39012">
        <ele>239.455951</ele>
        <time>2014-08-20T07:22:28Z</time>
      </trkpt>
      <trkpt lat="46.75266" lon="-0.39009">
        <ele>237.783164</ele>
        <time>2014-08-20T07:22:30Z</time>
      </trkpt>
      <trkpt lat="46.75262" lon="-0.39006">
        <ele>237.55479</ele>
        <time>2014-08-20T07:22:32Z</time>
      </trkpt>
      <trkpt lat="46.75257" lon="-0.39004">
        <ele>237.11258</ele>
        <time>2014-08-20T07:22:34Z</time>
      </trkpt>
      <trkpt lat="46.75252" lon="-0.38998">
        <ele>237.086064</ele>
        <time>2014-08-20T07:22:37Z</time>
      </trkpt>
      <trkpt lat="46.75248" lon="-0.38994">
        <ele>237.016585</ele>
        <time>2014-08-20T07:22:39Z</time>
      </trkpt>
      <trkpt lat="46.75244" lon="-0.38989">
        <ele>237.026291</ele>
        <time>2014-08-20T07:22:41Z</time>
      </trkpt>
      <trkpt lat="46.7524" lon="-0.38985">
        <ele>236.891513</ele>
        <time>2014-08-20T07:22:43Z</time>
      </trkpt>
      <trkpt lat="46.75236" lon="-0.38981">
        <ele>236.581595</ele>
        <time>2014-08-20T07:22:45Z</time>
      </trkpt>
      <trkpt lat="46.75232" lon="-0.38976">
        <ele>236.211026</ele>
        <time>2014-08-20T07:22:47Z</time>
      </trkpt>
      <trkpt lat="46.75228" lon="-0.38973">
        <ele>235.875621</ele>
        <time>2014-08-20T07:22:49Z</time>
      </trkpt>
      <trkpt lat="46.75223" lon="-0.38971">
        <ele>235.55518</ele>
        <time>2014-08-20T07:22:51Z</time>
      </trkpt>
      <trkpt lat="46.75217" lon="-0.38971">
        <ele>235.240271</ele>
        <time>2014-08-20T07:22:54Z</time>
      </trkpt>
      <trkpt lat="46.75212" lon="-0.38975">
        <ele>234.953855</ele>
        <time>2014-08-20T07:22:56Z</time>
      </trkpt>
      <trkpt lat="46.75209" lon="-0.3898">
        <ele>234.523345</ele>
        <time>2014-08-20T07:22:58Z</time>
      </trkpt>
      <trkpt lat="46.75205" lon="-0.38985">
        <ele>234.146241</ele>
        <time>2014-08-20T07:23:00Z</time>
      </trkpt>
      <trkpt lat="46.75199" lon="-0.38986">
        <ele>233.820629</ele>
        <time>2014-08-20T07:23:02Z</time>
      </trkpt>
      <trkpt lat="46.75194" lon="-0.38984">
        <ele>233.580147</ele>
        <time>2014-08-20T07:23:04Z</time>
      </trkpt>
      <trkpt lat="46.75188" lon="-0.38982">
        <ele>233.48086</ele>
        <time>2014-08-20T07:23:07Z</time>
      </trkpt>
      <trkpt lat="46.75183" lon="-0.38978">
        <ele>233.335511</ele>
        <time>2014-08-20T07:23:09Z</time>
      </trkpt>
      <trkpt lat="46.75178" lon="-0.38974">
        <ele>233.337307</ele>
        <time>2014-08-20T07:23:11Z</time>
      </trkpt>
      <trkpt lat="46.75173" lon="-0.38971">
        <ele>233.325728</ele>
        <time>2014-08-20T07:23:13Z</time>
      </trkpt>
      <trkpt lat="46.75169" lon="-0.38966">
        <ele>233.137517</ele>
        <time>2014-08-20T07:23:15Z</time>
      </trkpt>
      <trkpt lat="46.75165" lon="-0.38959">
        <ele>232.805089</ele>
        <time>2014-08-20T07:23:18Z</time>
      </trkpt>
      <trkpt lat="46.75162" lon="-0.38954">
        <ele>232.442678</ele>
        <time>2014-08-20T07:23:20Z</time>
      </trkpt>
      <trkpt lat="46.75157" lon="-0.38949">
        <ele>231.881373</ele>
        <time>2014-08-20T07:23:23Z</time>
      </trkpt>
      <trkpt lat="46.75153" lon="-0.38944">
        <ele>231.364735</ele>
        <time>2014-08-20T07:23:26Z</time>
      </trkpt>
      <trkpt lat="46.75149" lon="-0.38938">
        <ele>230.554519</ele>
        <time>2014-08-20T07:23:29Z</time>
      </trkpt>
      <trkpt lat="46.75145" lon="-0.38931">
        <ele>229.728411</ele>
        <time>2014-08-20T07:23:32Z</time>
      </trkpt>
      <trkpt lat="46.75141" lon="-0.38927">
        <ele>229.264494</ele>
        <time>2014-08-20T07:23:35Z</time>
      </trkpt>
      <trkpt lat="46.75136" lon="-0.38924">
        <ele>228.484072</ele>
        <time>2014-08-20T07:23:38Z</time>
      </trkpt>
      <trkpt lat="46.75132" lon="-0.38921">
        <ele>227.513278</ele>
        <time>2014-08-20T07:23:41Z</time>
      </trkpt>
      <trkpt lat="46.75125" lon="-0.38921">
        <ele>226.476767</ele>
        <time>2014-08-20T07:23:44Z</time>
      </trkpt>
      <trkpt lat="46.75119" lon="-0.38922">
        <ele>225.542204</ele>
        <time>2014-08-20T07:23:47Z</time>
      </trkpt>
      <trkpt lat="46.75113" lon="-0.38924">
        <ele>224.439333</ele>
        <time>2014-08-20T07:23:50Z</time>
      </trkpt>
      <trkpt lat="46.75106" lon="-0.38926">
        <ele>223.5823</ele>
        <time>2014-08-20T07:23:53Z</time>
      </trkpt>
      <trkpt lat="46.751" lon="-0.38929">
        <ele>222.59377</ele>
        <time>2014-08-20T07:23:56Z</time>
      </trkpt>
      <trkpt lat="46.75095" lon="-0.38931">
        <ele>221.818868</ele>
        <time>2014-08-20T07:23:58Z</time>
      </trkpt>
      <trkpt lat="46.75089" lon="-0.38934">
        <ele>221.021949</ele>
        <time>2014-08-20T07:24:01Z</time>
      </trkpt>
      <trkpt lat="46.75083" lon="-0.38937">
        <ele>220.124349</ele>
        <time>2014-08-20T07:24:04Z</time>
      </trkpt>
      <trkpt lat="46.75077" lon="-0.38939">
        <ele>219.273526</ele>
        <time>2014-08-20T07:24:07Z</time>
      </trkpt>
      <trkpt lat="46.75072" lon="-0.38941">
        <ele>218.783506</ele>
        <time>2014-08-20T07:24:09Z</time>
      </trkpt>
      <trkpt lat="46.75067" lon="-0.38942">
        <ele>218.271531</ele>
        <time>2014-08-20T07:24:11Z</time>
      </trkpt>
      <trkpt lat="46.75063" lon="-0.38943">
        <ele>217.636477</ele>
        <time>2014-08-20T07:24:14Z</time>
      </trkpt>
      <trkpt lat="46.75058" lon="-0.38936">
        <ele>217.659648</ele>
        <time>2014-08-20T07:24:17Z</time>
      </trkpt>
      <trkpt lat="46.75055" lon="-0.38931">
        <ele>218.000274</ele>
        <time>2014-08-20T07:24:19Z</time>
      </trkpt>
      <trkpt lat="46.75053" lon="-0.38922">
        <ele>218.343609</ele>
        <time>2014-08-20T07:24:22Z</time>
      </trkpt>
      <trkpt lat="46.75052" lon="-0.38916">
        <ele>218.548514</ele>
        <time>2014-08-20T07:24:24Z</time>
      </trkpt>
      <trkpt lat="46.75051" lon="-0.38905">
        <ele>218.78567</ele>
        <time>2014-08-20T07:24:27Z</time>
      </trkpt>
      <trkpt lat="46.75051" lon="-0.38898">
        <ele>218.865882</ele>
        <time>2014-08-20T07:24:29Z</time>
      </trkpt>
      <trkpt lat="46.7505" lon="-0.38891">
        <ele>218.924469</ele>
        <time>2014-08-20T07:24:31Z</time>
      </trkpt>
      <trkpt lat="46.7505" lon="-0.38881">
        <ele>218.946057</ele>
        <time>2014-08-20T07:24:34Z</time>
      </trkpt>
      <trkpt lat="46.75049" lon="-0.38872">
        <ele>219.302896</ele>
        <time>2014-08-20T07:24:37Z</time>
      </trkpt>
      <trkpt lat="46.7505" lon="-0.38862">
        <ele>219.715321</ele>
        <time>2014-08-20T07:24:40Z</time>
      </trkpt>
      <trkpt lat="46.75051" lon="-0.38853">
        <ele>220.095095</ele>
        <time>2014-08-20T07:24:43Z</time>
      </trkpt>
      <trkpt lat="46.75052" lon="-0.38844">
        <ele>220.435929</ele>
        <time>2014-08-20T07:24:46Z</time>
      </trkpt>
      <trkpt lat="46.75052" lon="-0.38834">
        <ele>220.658432</ele>
        <time>2014-08-20T07:24:49Z</time>
      </trkpt>
      <trkpt lat="46.75052" lon="-0.38827">
        <ele>220.791752</ele>
        <time>2014-08-20T07:24:51Z</time>
      </trkpt>
      <trkpt lat="46.75051" lon="-0.3882">
        <ele>220.963769</ele>
        <time>2014-08-20T07:24:53Z</time>
      </trkpt>
      <trkpt lat="46.7505" lon="-0.38812">
        <ele>221.253466</ele>
        <time>2014-08-20T07:24:55Z</time>
      </trkpt>
      <trkpt lat="46.7505" lon="-0.38805">
        <ele>221.540522</ele>
        <time>2014-08-20T07:24:57Z</time>
      </trkpt>
      <trkpt lat="46.75049" lon="-0.38797">
        <ele>221.836411</ele>
        <time>2014-08-20T07:24:59Z</time>
      </trkpt>
      <trkpt lat="46.75048" lon="-0.3879">
        <ele>222.291032</ele>
        <time>2014-08-20T07:25:01Z</time>
      </trkpt>
      <trkpt lat="46.75047" lon="-0.38781">
        <ele>222.813086</ele>
        <time>2014-08-20T07:25:04Z</time>
      </trkpt>
      <trkpt lat="46.75047" lon="-0.38773">
        <ele>223.323933</ele>
        <time>2014-08-20T07:25:07Z</time>
      </trkpt>
      <trkpt lat="46.75046" lon="-0.38766">
        <ele>223.585583</ele>
        <time>2014-08-20T07:25:09Z</time>
      </trkpt>
      <trkpt lat="46.75045" lon="-0.3876">
        <ele>223.790083</ele>
        <time>2014-08-20T07:25:11Z</time>
      </trkpt>
      <trkpt lat="46.75044" lon="-0.38752">
        <ele>223.950282</ele>
        <time>2014-08-20T07:25:13Z</time>
      </trkpt>
      <trkpt lat="46.75044" lon="-0.38746">
        <ele>224.072003</ele>
        <time>2014-08-20T07:25:15Z</time>
      </trkpt>
      <trkpt lat="46.75041" lon="-0.38739">
        <ele>224.172985</ele>
        <time>2014-08-20T07:25:17Z</time>
      </trkpt>
      <trkpt lat="46.7504" lon="-0.38731">
        <ele>224.232597</ele>
        <time>2014-08-20T07:25:19Z</time>
      </trkpt>
      <trkpt lat="46.75039" lon="-0.38722">
        <ele>224.332044</ele>
        <time>2014-08-20T07:25:21Z</time>
      </trkpt>
      <trkpt lat="46.75037" lon="-0.38713">
        <ele>224.465997</ele>
        <time>2014-08-20T07:25:23Z</time>
      </trkpt>
      <trkpt lat="46.75036" lon="-0.38706">
        <ele>224.634635</ele>
        <time>2014-08-20T07:25:25Z</time>
      </trkpt>
      <trkpt lat="46.75035" lon="-0.38698">
        <ele>225.044269</ele>
        <time>2014-08-20T07:25:28Z</time>
      </trkpt>
      <trkpt lat="46.75034" lon="-0.3869">
        <ele>225.358728</ele>
        <time>2014-08-20T07:25:31Z</time>
      </trkpt>
      <trkpt lat="46.75032" lon="-0.38683">
        <ele>225.494434</ele>
        <time>2014-08-20T07:25:33Z</time>
      </trkpt>
      <trkpt lat="46.75031" lon="-0.38676">
        <ele>225.522321</ele>
        <time>2014-08-20T07:25:35Z</time>
      </trkpt>
      <trkpt lat="46.7503" lon="-0.38669">
        <ele>225.737766</ele>
        <time>2014-08-20T07:25:37Z</time>
      </trkpt>
      <trkpt lat="46.75027" lon="-0.3866">
        <ele>225.982739</ele>
        <time>2014-08-20T07:25:40Z</time>
      </trkpt>
      <trkpt lat="46.75026" lon="-0.38654">
        <ele>226.114818</ele>
        <time>2014-08-20T07:25:42Z</time>
      </trkpt>
      <trkpt lat="46.75024" lon="-0.38645">
        <ele>226.314701</ele>
        <time>2014-08-20T07:25:45Z</time>
      </trkpt>
      <trkpt lat="46.75023" lon="-0.38638">
        <ele>226.634821</ele>
        <time>2014-08-20T07:25:47Z</time>
      </trkpt>
      <trkpt lat="46.75021" lon="-0.3863">
        <ele>227.086729</ele>
        <time>2014-08-20T07:25:49Z</time>
      </trkpt>
      <trkpt lat="46.7502" lon="-0.38622">
        <ele>227.474861</ele>
        <time>2014-08-20T07:25:51Z</time>
      </trkpt>
      <trkpt lat="46.75018" lon="-0.38615">
        <ele>227.838162</ele>
        <time>2014-08-20T07:25:53Z</time>
      </trkpt>
      <trkpt lat="46.75017" lon="-0.38608">
        <ele>228.214236</ele>
        <time>2014-08-20T07:25:55Z</time>
      </trkpt>
      <trkpt lat="46.75015" lon="-0.38602">
        <ele>228.47785</ele>
        <time>2014-08-20T07:25:57Z</time>
      </trkpt>
      <trkpt lat="46.75013" lon="-0.38595">
        <ele>228.723192</ele>
        <time>2014-08-20T07:25:59Z</time>
      </trkpt>
      <trkpt lat="46.75012" lon="-0.38587">
        <ele>229.009031</ele>
        <time>2014-08-20T07:26:01Z</time>
      </trkpt>
      <trkpt lat="46.7501" lon="-0.3858">
        <ele>229.111487</ele>
        <time>2014-08-20T07:26:03Z</time>
      </trkpt>
      <trkpt lat="46.75008" lon="-0.38573">
        <ele>229.208226</ele>
        <time>2014-08-20T07:26:05Z</time>
      </trkpt>
      <trkpt lat="46.75004" lon="-0.38565">
        <ele>229.492465</ele>
        <time>2014-08-20T07:26:08Z</time>
      </trkpt>
      <trkpt lat="46.75002" lon="-0.38556">
        <ele>229.723819</ele>
        <time>2014-08-20T07:26:10Z</time>
      </trkpt>
      <trkpt lat="46.74999" lon="-0.38548">
        <ele>230.00587</ele>
        <time>2014-08-20T07:26:12Z</time>
      </trkpt>
      <trkpt lat="46.74997" lon="-0.38542">
        <ele>230.233496</ele>
        <time>2014-08-20T07:26:14Z</time>
      </trkpt>
      <trkpt lat="46.74995" lon="-0.38535">
        <ele>230.478104</ele>
        <time>2014-08-20T07:26:16Z</time>
      </trkpt>
      <trkpt lat="46.74993" lon="-0.38528">
        <ele>230.756323</ele>
        <time>2014-08-20T07:26:18Z</time>
      </trkpt>
      <trkpt lat="46.7499" lon="-0.38519">
        <ele>231.168467</ele>
        <time>2014-08-20T07:26:21Z</time>
      </trkpt>
      <trkpt lat="46.74987" lon="-0.38512">
        <ele>231.389863</ele>
        <time>2014-08-20T07:26:24Z</time>
      </trkpt>
      <trkpt lat="46.74984" lon="-0.38506">
        <ele>231.558471</ele>
        <time>2014-08-20T07:26:27Z</time>
      </trkpt>
      <trkpt lat="46.7498" lon="-0.385">
        <ele>231.869347</ele>
        <time>2014-08-20T07:26:30Z</time>
      </trkpt>
      <trkpt lat="46.74976" lon="-0.38493">
        <ele>232.081975</ele>
        <time>2014-08-20T07:26:32Z</time>
      </trkpt>
      <trkpt lat="46.74974" lon="-0.38487">
        <ele>232.256986</ele>
        <time>2014-08-20T07:26:34Z</time>
      </trkpt>
      <trkpt lat="46.7497" lon="-0.38481">
        <ele>232.420218</ele>
        <time>2014-08-20T07:26:36Z</time>
      </trkpt>
      <trkpt lat="46.74967" lon="-0.38474">
        <ele>232.633948</ele>
        <time>2014-08-20T07:26:38Z</time>
      </trkpt>
      <trkpt lat="46.74965" lon="-0.38468">
        <ele>232.838884</ele>
        <time>2014-08-20T07:26:40Z</time>
      </trkpt>
      <trkpt lat="46.74961" lon="-0.38463">
        <ele>233.011027</ele>
        <time>2014-08-20T07:26:42Z</time>
      </trkpt>
      <trkpt lat="46.74958" lon="-0.38458">
        <ele>233.152636</ele>
        <time>2014-08-20T07:26:44Z</time>
      </trkpt>
      <trkpt lat="46.74955" lon="-0.38452">
        <ele>233.259629</ele>
        <time>2014-08-20T07:26:46Z</time>
      </trkpt>
      <trkpt lat="46.74953" lon="-0.38446">
        <ele>233.359926</ele>
        <time>2014-08-20T07:26:48Z</time>
      </trkpt>
      <trkpt lat="46.7495" lon="-0.3844">
        <ele>233.521852</ele>
        <time>2014-08-20T07:26:50Z</time>
      </trkpt>
      <trkpt lat="46.74947" lon="-0.38432">
        <ele>233.778741</ele>
        <time>2014-08-20T07:26:52Z</time>
      </trkpt>
      <trkpt lat="46.74944" lon="-0.38425">
        <ele>234.033749</ele>
        <time>2014-08-20T07:26:54Z</time>
      </trkpt>
      <trkpt lat="46.74941" lon="-0.38417">
        <ele>234.244959</ele>
        <time>2014-08-20T07:26:56Z</time>
      </trkpt>
      <trkpt lat="46.74939" lon="-0.38408">
        <ele>234.455128</ele>
        <time>2014-08-20T07:26:59Z</time>
      </trkpt>
      <trkpt lat="46.74936" lon="-0.38399">
        <ele>234.699767</ele>
        <time>2014-08-20T07:27:02Z</time>
      </trkpt>
      <trkpt lat="46.74934" lon="-0.38389">
        <ele>234.839087</ele>
        <time>2014-08-20T07:27:05Z</time>
      </trkpt>
      <trkpt lat="46.74932" lon="-0.38381">
        <ele>234.940786</ele>
        <time>2014-08-20T07:27:07Z</time>
      </trkpt>
      <trkpt lat="46.74931" lon="-0.38374">
        <ele>234.995807</ele>
        <time>2014-08-20T07:27:09Z</time>
      </trkpt>
      <trkpt lat="46.7493" lon="-0.38367">
        <ele>235.145425</ele>
        <time>2014-08-20T07:27:11Z</time>
      </trkpt>
      <trkpt lat="46.74929" lon="-0.38358">
        <ele>235.429274</ele>
        <time>2014-08-20T07:27:14Z</time>
      </trkpt>
      <trkpt lat="46.74928" lon="-0.38349">
        <ele>235.541985</ele>
        <time>2014-08-20T07:27:17Z</time>
      </trkpt>
      <trkpt lat="46.74928" lon="-0.38342">
        <ele>235.651355</ele>
        <time>2014-08-20T07:27:19Z</time>
      </trkpt>
      <trkpt lat="46.74927" lon="-0.38334">
        <ele>235.805552</ele>
        <time>2014-08-20T07:27:21Z</time>
      </trkpt>
      <trkpt lat="46.74926" lon="-0.38326">
        <ele>235.923603</ele>
        <time>2014-08-20T07:27:23Z</time>
      </trkpt>
      <trkpt lat="46.74926" lon="-0.38319">
        <ele>235.859043</ele>
        <time>2014-08-20T07:27:25Z</time>
      </trkpt>
      <trkpt lat="46.74925" lon="-0.38312">
        <ele>235.829387</ele>
        <time>2014-08-20T07:27:27Z</time>
      </trkpt>
      <trkpt lat="46.74924" lon="-0.38305">
        <ele>235.837381</ele>
        <time>2014-08-20T07:27:29Z</time>
      </trkpt>
      <trkpt lat="46.74923" lon="-0.38298">
        <ele>235.848635</ele>
        <time>2014-08-20T07:27:31Z</time>
      </trkpt>
      <trkpt lat="46.74922" lon="-0.38291">
        <ele>235.952187</ele>
        <time>2014-08-20T07:27:33Z</time>
      </trkpt>
      <trkpt lat="46.74922" lon="-0.38285">
        <ele>235.887302</ele>
        <time>2014-08-20T07:27:35Z</time>
      </trkpt>
      <trkpt lat="46.74921" lon="-0.38276">
        <ele>235.6618</ele>
        <time>2014-08-20T07:27:38Z</time>
      </trkpt>
      <trkpt lat="46.74921" lon="-0.38269">
        <ele>235.567016</ele>
        <time>2014-08-20T07:27:40Z</time>
      </trkpt>
      <trkpt lat="46.7492" lon="-0.38262">
        <ele>235.400324</ele>
        <time>2014-08-20T07:27:42Z</time>
      </trkpt>
      <trkpt lat="46.7492" lon="-0.38255">
        <ele>235.121065</ele>
        <time>2014-08-20T07:27:44Z</time>
      </trkpt>
      <trkpt lat="46.7492" lon="-0.38248">
        <ele>234.787185</ele>
        <time>2014-08-20T07:27:46Z</time>
      </trkpt>
      <trkpt lat="46.7492" lon="-0.38238">
        <ele>234.505809</ele>
        <time>2014-08-20T07:27:49Z</time>
      </trkpt>
      <trkpt lat="46.7492" lon="-0.38229">
        <ele>234.10912</ele>
        <time>2014-08-20T07:27:52Z</time>
      </trkpt>
      <trkpt lat="46.7492" lon="-0.38222">
        <ele>233.829701</ele>
        <time>2014-08-20T07:27:54Z</time>
      </trkpt>
      <trkpt lat="46.7492" lon="-0.38214">
        <ele>233.595419</ele>
        <time>2014-08-20T07:27:56Z</time>
      </trkpt>
      <trkpt lat="46.74919" lon="-0.38207">
        <ele>233.291921</ele>
        <time>2014-08-20T07:27:58Z</time>
      </trkpt>
      <trkpt lat="46.74917" lon="-0.382">
        <ele>233.109295</ele>
        <time>2014-08-20T07:28:00Z</time>
      </trkpt>
      <trkpt lat="46.74916" lon="-0.38192">
        <ele>233.057722</ele>
        <time>2014-08-20T07:28:02Z</time>
      </trkpt>
      <trkpt lat="46.74915" lon="-0.38185">
        <ele>233.139723</ele>
        <time>2014-08-20T07:28:04Z</time>
      </trkpt>
      <trkpt lat="46.74914" lon="-0.38178">
        <ele>233.306846</ele>
        <time>2014-08-20T07:28:06Z</time>
      </trkpt>
      <trkpt lat="46.74912" lon="-0.3817">
        <ele>233.458934</ele>
        <time>2014-08-20T07:28:08Z</time>
      </trkpt>
      <trkpt lat="46.7491" lon="-0.38161">
        <ele>233.610897</ele>
        <time>2014-08-20T07:28:10Z</time>
      </trkpt>
      <trkpt lat="46.74909" lon="-0.38153">
        <ele>233.735134</ele>
        <time>2014-08-20T07:28:12Z</time>
      </trkpt>
      <trkpt lat="46.74907" lon="-0.38146">
        <ele>233.796269</ele>
        <time>2014-08-20T07:28:14Z</time>
      </trkpt>
      <trkpt lat="46.74904" lon="-0.38139">
        <ele>233.725337</ele>
        <time>2014-08-20T07:28:16Z</time>
      </trkpt>
      <trkpt lat="46.74902" lon="-0.38132">
        <ele>233.757139</ele>
        <time>2014-08-20T07:28:18Z</time>
      </trkpt>
      <trkpt lat="46.749" lon="-0.38126">
        <ele>233.73419</ele>
        <time>2014-08-20T07:28:20Z</time>
      </trkpt>
      <trkpt lat="46.74898" lon="-0.38119">
        <ele>233.679424</ele>
        <time>2014-08-20T07:28:22Z</time>
      </trkpt>
      <trkpt lat="46.74896" lon="-0.38111">
        <ele>233.49742</ele>
        <time>2014-08-20T07:28:24Z</time>
      </trkpt>
      <trkpt lat="46.74893" lon="-0.38104">
        <ele>233.281431</ele>
        <time>2014-08-20T07:28:26Z</time>
      </trkpt>
      <trkpt lat="46.74891" lon="-0.38098">
        <ele>233.135278</ele>
        <time>2014-08-20T07:28:28Z</time>
      </trkpt>
      <trkpt lat="46.74889" lon="-0.38091">
        <ele>233.082055</ele>
        <time>2014-08-20T07:28:30Z</time>
      </trkpt>
      <trkpt lat="46.74886" lon="-0.38084">
        <ele>232.923986</ele>
        <time>2014-08-20T07:28:32Z</time>
      </trkpt>
      <trkpt lat="46.74883" lon="-0.38078">
        <ele>232.872241</ele>
        <time>2014-08-20T07:28:34Z</time>
      </trkpt>
      <trkpt lat="46.74882" lon="-0.38071">
        <ele>232.908508</ele>
        <time>2014-08-20T07:28:36Z</time>
      </trkpt>
      <trkpt lat="46.74881" lon="-0.38064">
        <ele>232.898949</ele>
        <time>2014-08-20T07:28:38Z</time>
      </trkpt>
      <trkpt lat="46.7488" lon="-0.38057">
        <ele>232.90015</ele>
        <time>2014-08-20T07:28:40Z</time>
      </trkpt>
      <trkpt lat="46.74879" lon="-0.38051">
        <ele>232.843741</ele>
        <time>2014-08-20T07:28:42Z</time>
      </trkpt>
      <trkpt lat="46.74877" lon="-0.38044">
        <ele>232.900719</ele>
        <time>2014-08-20T07:28:44Z</time>
      </trkpt>
      <trkpt lat="46.74875" lon="-0.38037">
        <ele>232.799427</ele>
        <time>2014-08-20T07:28:46Z</time>
      </trkpt>
      <trkpt lat="46.74873" lon="-0.38028">
        <ele>232.687964</ele>
        <time>2014-08-20T07:28:49Z</time>
      </trkpt>
      <trkpt lat="46.74871" lon="-0.38021">
        <ele>232.726277</ele>
        <time>2014-08-20T07:28:51Z</time>
      </trkpt>
      <trkpt lat="46.74869" lon="-0.38015">
        <ele>232.722756</ele>
        <time>2014-08-20T07:28:53Z</time>
      </trkpt>
      <trkpt lat="46.74865" lon="-0.38007">
        <ele>232.606448</ele>
        <time>2014-08-20T07:28:56Z</time>
      </trkpt>
      <trkpt lat="46.74863" lon="-0.38001">
        <ele>232.67353</ele>
        <time>2014-08-20T07:28:58Z</time>
      </trkpt>
      <trkpt lat="46.74861" lon="-0.37994">
        <ele>232.712947</ele>
        <time>2014-08-20T07:29:00Z</time>
      </trkpt>
      <trkpt lat="46.74858" lon="-0.37987">
        <ele>232.682</ele>
        <time>2014-08-20T07:29:02Z</time>
      </trkpt>
      <trkpt lat="46.74856" lon="-0.3798">
        <ele>232.822112</ele>
        <time>2014-08-20T07:29:04Z</time>
      </trkpt>
      <trkpt lat="46.74853" lon="-0.37974">
        <ele>233.01362</ele>
        <time>2014-08-20T07:29:06Z</time>
      </trkpt>
      <trkpt lat="46.74851" lon="-0.37967">
        <ele>233.104903</ele>
        <time>2014-08-20T07:29:08Z</time>
      </trkpt>
      <trkpt lat="46.74848" lon="-0.3796">
        <ele>233.177911</ele>
        <time>2014-08-20T07:29:10Z</time>
      </trkpt>
      <trkpt lat="46.74845" lon="-0.37953">
        <ele>233.250886</ele>
        <time>2014-08-20T07:29:12Z</time>
      </trkpt>
      <trkpt lat="46.74842" lon="-0.37945">
        <ele>233.34966</ele>
        <time>2014-08-20T07:29:14Z</time>
      </trkpt>
      <trkpt lat="46.7484" lon="-0.37937">
        <ele>233.413002</ele>
        <time>2014-08-20T07:29:16Z</time>
      </trkpt>
      <trkpt lat="46.74837" lon="-0.37931">
        <ele>233.381589</ele>
        <time>2014-08-20T07:29:18Z</time>
      </trkpt>
      <trkpt lat="46.74834" lon="-0.37925">
        <ele>233.418206</ele>
        <time>2014-08-20T07:29:20Z</time>
      </trkpt>
      <trkpt lat="46.74831" lon="-0.37918">
        <ele>233.612885</ele>
        <time>2014-08-20T07:29:22Z</time>
      </trkpt>
      <trkpt lat="46.74828" lon="-0.37913">
        <ele>233.68912</ele>
        <time>2014-08-20T07:29:24Z</time>
      </trkpt>
      <trkpt lat="46.74825" lon="-0.37907">
        <ele>233.666351</ele>
        <time>2014-08-20T07:29:26Z</time>
      </trkpt>
      <trkpt lat="46.74823" lon="-0.379">
        <ele>233.562412</ele>
        <time>2014-08-20T07:29:28Z</time>
      </trkpt>
      <trkpt lat="46.74821" lon="-0.37893">
        <ele>233.379163</ele>
        <time>2014-08-20T07:29:30Z</time>
      </trkpt>
      <trkpt lat="46.74818" lon="-0.37886">
        <ele>233.36265</ele>
        <time>2014-08-20T07:29:32Z</time>
      </trkpt>
      <trkpt lat="46.74816" lon="-0.3788">
        <ele>233.300595</ele>
        <time>2014-08-20T07:29:34Z</time>
      </trkpt>
      <trkpt lat="46.74815" lon="-0.37873">
        <ele>233.062832</ele>
        <time>2014-08-20T07:29:36Z</time>
      </trkpt>
      <trkpt lat="46.74813" lon="-0.37866">
        <ele>232.824425</ele>
        <time>2014-08-20T07:29:38Z</time>
      </trkpt>
      <trkpt lat="46.74811" lon="-0.37859">
        <ele>232.810086</ele>
        <time>2014-08-20T07:29:40Z</time>
      </trkpt>
      <trkpt lat="46.74808" lon="-0.37853">
        <ele>232.834605</ele>
        <time>2014-08-20T07:29:42Z</time>
      </trkpt>
      <trkpt lat="46.74804" lon="-0.37847">
        <ele>232.857646</ele>
        <time>2014-08-20T07:29:44Z</time>
      </trkpt>
      <trkpt lat="46.748" lon="-0.3784">
        <ele>232.831819</ele>
        <time>2014-08-20T07:29:47Z</time>
      </trkpt>
      <trkpt lat="46.74797" lon="-0.37833">
        <ele>232.774938</ele>
        <time>2014-08-20T07:29:49Z</time>
      </trkpt>
      <trkpt lat="46.74796" lon="-0.37827">
        <ele>232.798418</ele>
        <time>2014-08-20T07:29:51Z</time>
      </trkpt>
      <trkpt lat="46.74795" lon="-0.3782">
        <ele>232.851635</ele>
        <time>2014-08-20T07:29:53Z</time>
      </trkpt>
      <trkpt lat="46.74794" lon="-0.37813">
        <ele>232.879582</ele>
        <time>2014-08-20T07:29:55Z</time>
      </trkpt>
      <trkpt lat="46.74791" lon="-0.37807">
        <ele>232.918244</ele>
        <time>2014-08-20T07:29:57Z</time>
      </trkpt>
      <trkpt lat="46.74788" lon="-0.378">
        <ele>232.950489</ele>
        <time>2014-08-20T07:29:59Z</time>
      </trkpt>
      <trkpt lat="46.74786" lon="-0.37793">
        <ele>233.02804</ele>
        <time>2014-08-20T07:30:01Z</time>
      </trkpt>
      <trkpt lat="46.74784" lon="-0.37786">
        <ele>233.051102</ele>
        <time>2014-08-20T07:30:03Z</time>
      </trkpt>
      <trkpt lat="46.74781" lon="-0.3778">
        <ele>233.075957</ele>
        <time>2014-08-20T07:30:05Z</time>
      </trkpt>
      <trkpt lat="46.74779" lon="-0.37773">
        <ele>233.270216</ele>
        <time>2014-08-20T07:30:07Z</time>
      </trkpt>
      <trkpt lat="46.74776" lon="-0.37767">
        <ele>233.414517</ele>
        <time>2014-08-20T07:30:09Z</time>
      </trkpt>
      <trkpt lat="46.74773" lon="-0.37759">
        <ele>233.524015</ele>
        <time>2014-08-20T07:30:12Z</time>
      </trkpt>
      <trkpt lat="46.7477" lon="-0.37753">
        <ele>233.555002</ele>
        <time>2014-08-20T07:30:14Z</time>
      </trkpt>
      <trkpt lat="46.74767" lon="-0.37748">
        <ele>233.620826</ele>
        <time>2014-08-20T07:30:16Z</time>
      </trkpt>
      <trkpt lat="46.74765" lon="-0.37742">
        <ele>233.617163</ele>
        <time>2014-08-20T07:30:18Z</time>
      </trkpt>
      <trkpt lat="46.74762" lon="-0.37736">
        <ele>233.401731</ele>
        <time>2014-08-20T07:30:20Z</time>
      </trkpt>
      <trkpt lat="46.74759" lon="-0.3773">
        <ele>233.221015</ele>
        <time>2014-08-20T07:30:22Z</time>
      </trkpt>
      <trkpt lat="46.74756" lon="-0.37725">
        <ele>233.193462</ele>
        <time>2014-08-20T07:30:24Z</time>
      </trkpt>
      <trkpt lat="46.74753" lon="-0.37718">
        <ele>233.085033</ele>
        <time>2014-08-20T07:30:26Z</time>
      </trkpt>
      <trkpt lat="46.74751" lon="-0.37711">
        <ele>232.995653</ele>
        <time>2014-08-20T07:30:28Z</time>
      </trkpt>
      <trkpt lat="46.74751" lon="-0.37704">
        <ele>233.072917</ele>
        <time>2014-08-20T07:30:30Z</time>
      </trkpt>
      <trkpt lat="46.74749" lon="-0.37696">
        <ele>233.148726</ele>
        <time>2014-08-20T07:30:32Z</time>
      </trkpt>
      <trkpt lat="46.74747" lon="-0.37689">
        <ele>233.289543</ele>
        <time>2014-08-20T07:30:34Z</time>
      </trkpt>
      <trkpt lat="46.74744" lon="-0.37681">
        <ele>233.453518</ele>
        <time>2014-08-20T07:30:36Z</time>
      </trkpt>
      <trkpt lat="46.74742" lon="-0.37674">
        <ele>233.603378</ele>
        <time>2014-08-20T07:30:38Z</time>
      </trkpt>
      <trkpt lat="46.7474" lon="-0.37667">
        <ele>233.691351</ele>
        <time>2014-08-20T07:30:40Z</time>
      </trkpt>
      <trkpt lat="46.74738" lon="-0.3766">
        <ele>233.75697</ele>
        <time>2014-08-20T07:30:42Z</time>
      </trkpt>
      <trkpt lat="46.74736" lon="-0.37653">
        <ele>233.839416</ele>
        <time>2014-08-20T07:30:44Z</time>
      </trkpt>
      <trkpt lat="46.74733" lon="-0.37646">
        <ele>233.923078</ele>
        <time>2014-08-20T07:30:46Z</time>
      </trkpt>
      <trkpt lat="46.74731" lon="-0.3764">
        <ele>234.065684</ele>
        <time>2014-08-20T07:30:48Z</time>
      </trkpt>
      <trkpt lat="46.74728" lon="-0.37631">
        <ele>234.226049</ele>
        <time>2014-08-20T07:30:51Z</time>
      </trkpt>
      <trkpt lat="46.74726" lon="-0.37625">
        <ele>234.313506</ele>
        <time>2014-08-20T07:30:53Z</time>
      </trkpt>
      <trkpt lat="46.74724" lon="-0.37618">
        <ele>234.378863</ele>
        <time>2014-08-20T07:30:55Z</time>
      </trkpt>
      <trkpt lat="46.74722" lon="-0.37611">
        <ele>234.417598</ele>
        <time>2014-08-20T07:30:57Z</time>
      </trkpt>
      <trkpt lat="46.74719" lon="-0.37605">
        <ele>234.442535</ele>
        <time>2014-08-20T07:30:59Z</time>
      </trkpt>
      <trkpt lat="46.74717" lon="-0.37598">
        <ele>234.580814</ele>
        <time>2014-08-20T07:31:01Z</time>
      </trkpt>
      <trkpt lat="46.74715" lon="-0.37592">
        <ele>234.729079</ele>
        <time>2014-08-20T07:31:03Z</time>
      </trkpt>
      <trkpt lat="46.74712" lon="-0.37586">
        <ele>234.756248</ele>
        <time>2014-08-20T07:31:05Z</time>
      </trkpt>
      <trkpt lat="46.74709" lon="-0.3758">
        <ele>234.83566</ele>
        <time>2014-08-20T07:31:07Z</time>
      </trkpt>
      <trkpt lat="46.74706" lon="-0.37574">
        <ele>234.898458</ele>
        <time>2014-08-20T07:31:09Z</time>
      </trkpt>
      <trkpt lat="46.74703" lon="-0.37568">
        <ele>234.937968</ele>
        <time>2014-08-20T07:31:11Z</time>
      </trkpt>
      <trkpt lat="46.747" lon="-0.37561">
        <ele>234.976329</ele>
        <time>2014-08-20T07:31:14Z</time>
      </trkpt>
      <trkpt lat="46.74696" lon="-0.37555">
        <ele>235.04545</ele>
        <time>2014-08-20T07:31:16Z</time>
      </trkpt>
      <trkpt lat="46.74693" lon="-0.37548">
        <ele>235.097331</ele>
        <time>2014-08-20T07:31:18Z</time>
      </trkpt>
      <trkpt lat="46.7469" lon="-0.37542">
        <ele>235.11124</ele>
        <time>2014-08-20T07:31:20Z</time>
      </trkpt>
      <trkpt lat="46.74688" lon="-0.37536">
        <ele>235.192466</ele>
        <time>2014-08-20T07:31:22Z</time>
      </trkpt>
      <trkpt lat="46.74685" lon="-0.3753">
        <ele>235.297356</ele>
        <time>2014-08-20T07:31:24Z</time>
      </trkpt>
      <trkpt lat="46.74682" lon="-0.37524">
        <ele>235.290489</ele>
        <time>2014-08-20T07:31:26Z</time>
      </trkpt>
      <trkpt lat="46.74679" lon="-0.37519">
        <ele>235.384421</ele>
        <time>2014-08-20T07:31:28Z</time>
      </trkpt>
      <trkpt lat="46.74675" lon="-0.37511">
        <ele>235.470111</ele>
        <time>2014-08-20T07:31:31Z</time>
      </trkpt>
      <trkpt lat="46.74672" lon="-0.37506">
        <ele>235.53901</ele>
        <time>2014-08-20T07:31:33Z</time>
      </trkpt>
      <trkpt lat="46.7467" lon="-0.375">
        <ele>235.570657</ele>
        <time>2014-08-20T07:31:35Z</time>
      </trkpt>
      <trkpt lat="46.74666" lon="-0.37495">
        <ele>235.489624</ele>
        <time>2014-08-20T07:31:37Z</time>
      </trkpt>
      <trkpt lat="46.74662" lon="-0.3749">
        <ele>235.458304</ele>
        <time>2014-08-20T07:31:39Z</time>
      </trkpt>
      <trkpt lat="46.74659" lon="-0.37486">
        <ele>235.476177</ele>
        <time>2014-08-20T07:31:41Z</time>
      </trkpt>
      <trkpt lat="46.74656" lon="-0.3748">
        <ele>235.39718</ele>
        <time>2014-08-20T07:31:43Z</time>
      </trkpt>
      <trkpt lat="46.74653" lon="-0.37475">
        <ele>235.33686</ele>
        <time>2014-08-20T07:31:45Z</time>
      </trkpt>
      <trkpt lat="46.7465" lon="-0.37469">
        <ele>235.246295</ele>
        <time>2014-08-20T07:31:47Z</time>
      </trkpt>
      <trkpt lat="46.74647" lon="-0.37462">
        <ele>235.153313</ele>
        <time>2014-08-20T07:31:49Z</time>
      </trkpt>
      <trkpt lat="46.74644" lon="-0.37455">
        <ele>235.037367</ele>
        <time>2014-08-20T07:31:51Z</time>
      </trkpt>
      <trkpt lat="46.7464" lon="-0.37449">
        <ele>235.002294</ele>
        <time>2014-08-20T07:31:53Z</time>
      </trkpt>
      <trkpt lat="46.74637" lon="-0.37444">
        <ele>234.871834</ele>
        <time>2014-08-20T07:31:55Z</time>
      </trkpt>
      <trkpt lat="46.74634" lon="-0.37439">
        <ele>234.660864</ele>
        <time>2014-08-20T07:31:56Z</time>
      </trkpt>
      <trkpt lat="46.74632" lon="-0.37433">
        <ele>234.595119</ele>
        <time>2014-08-20T07:31:58Z</time>
      </trkpt>
      <trkpt lat="46.74629" lon="-0.37426">
        <ele>234.388818</ele>
        <time>2014-08-20T07:32:00Z</time>
      </trkpt>
      <trkpt lat="46.74626" lon="-0.37419">
        <ele>234.149119</ele>
        <time>2014-08-20T07:32:02Z</time>
      </trkpt>
      <trkpt lat="46.74623" lon="-0.37412">
        <ele>233.877838</ele>
        <time>2014-08-20T07:32:04Z</time>
      </trkpt>
      <trkpt lat="46.7462" lon="-0.37406">
        <ele>233.673158</ele>
        <time>2014-08-20T07:32:06Z</time>
      </trkpt>
      <trkpt lat="46.74617" lon="-0.37398">
        <ele>233.672953</ele>
        <time>2014-08-20T07:32:09Z</time>
      </trkpt>
      <trkpt lat="46.74613" lon="-0.3739">
        <ele>233.665639</ele>
        <time>2014-08-20T07:32:12Z</time>
      </trkpt>
      <trkpt lat="46.74612" lon="-0.37384">
        <ele>233.507757</ele>
        <time>2014-08-20T07:32:14Z</time>
      </trkpt>
      <trkpt lat="46.74608" lon="-0.37377">
        <ele>233.428123</ele>
        <time>2014-08-20T07:32:17Z</time>
      </trkpt>
      <trkpt lat="46.74604" lon="-0.37369">
        <ele>233.392332</ele>
        <time>2014-08-20T07:32:20Z</time>
      </trkpt>
      <trkpt lat="46.746" lon="-0.37361">
        <ele>233.569321</ele>
        <time>2014-08-20T07:32:23Z</time>
      </trkpt>
      <trkpt lat="46.74598" lon="-0.37356">
        <ele>233.698465</ele>
        <time>2014-08-20T07:32:25Z</time>
      </trkpt>
      <trkpt lat="46.74595" lon="-0.3735">
        <ele>233.815338</ele>
        <time>2014-08-20T07:32:27Z</time>
      </trkpt>
      <trkpt lat="46.74592" lon="-0.37344">
        <ele>233.981714</ele>
        <time>2014-08-20T07:32:29Z</time>
      </trkpt>
      <trkpt lat="46.74589" lon="-0.37338">
        <ele>234.064491</ele>
        <time>2014-08-20T07:32:31Z</time>
      </trkpt>
      <trkpt lat="46.74587" lon="-0.37332">
        <ele>234.30371</ele>
        <time>2014-08-20T07:32:33Z</time>
      </trkpt>
      <trkpt lat="46.74584" lon="-0.37327">
        <ele>234.432222</ele>
        <time>2014-08-20T07:32:35Z</time>
      </trkpt>
      <trkpt lat="46.74582" lon="-0.37321">
        <ele>234.603139</ele>
        <time>2014-08-20T07:32:37Z</time>
      </trkpt>
      <trkpt lat="46.74578" lon="-0.37313">
        <ele>234.800758</ele>
        <time>2014-08-20T07:32:40Z</time>
      </trkpt>
      <trkpt lat="46.74574" lon="-0.37306">
        <ele>234.991169</ele>
        <time>2014-08-20T07:32:43Z</time>
      </trkpt>
      <trkpt lat="46.7457" lon="-0.37301">
        <ele>235.118902</ele>
        <time>2014-08-20T07:32:45Z</time>
      </trkpt>
      <trkpt lat="46.74567" lon="-0.37295">
        <ele>235.193161</ele>
        <time>2014-08-20T07:32:47Z</time>
      </trkpt>
      <trkpt lat="46.74564" lon="-0.3729">
        <ele>235.282407</ele>
        <time>2014-08-20T07:32:49Z</time>
      </trkpt>
      <trkpt lat="46.74562" lon="-0.37284">
        <ele>235.362525</ele>
        <time>2014-08-20T07:32:51Z</time>
      </trkpt>
      <trkpt lat="46.74557" lon="-0.37275">
        <ele>235.437274</ele>
        <time>2014-08-20T07:32:54Z</time>
      </trkpt>
      <trkpt lat="46.74554" lon="-0.37268">
        <ele>235.420701</ele>
        <time>2014-08-20T07:32:56Z</time>
      </trkpt>
      <trkpt lat="46.74551" lon="-0.37261">
        <ele>235.537738</ele>
        <time>2014-08-20T07:32:58Z</time>
      </trkpt>
      <trkpt lat="46.74548" lon="-0.37254">
        <ele>235.718825</ele>
        <time>2014-08-20T07:33:00Z</time>
      </trkpt>
      <trkpt lat="46.74544" lon="-0.37247">
        <ele>235.91439</ele>
        <time>2014-08-20T07:33:02Z</time>
      </trkpt>
      <trkpt lat="46.7454" lon="-0.3724">
        <ele>235.995386</ele>
        <time>2014-08-20T07:33:04Z</time>
      </trkpt>
      <trkpt lat="46.74536" lon="-0.37233">
        <ele>236.046817</ele>
        <time>2014-08-20T07:33:06Z</time>
      </trkpt>
      <trkpt lat="46.74533" lon="-0.37227">
        <ele>236.101714</ele>
        <time>2014-08-20T07:33:08Z</time>
      </trkpt>
      <trkpt lat="46.7453" lon="-0.37221">
        <ele>236.155116</ele>
        <time>2014-08-20T07:33:10Z</time>
      </trkpt>
      <trkpt lat="46.74527" lon="-0.37215">
        <ele>236.267551</ele>
        <time>2014-08-20T07:33:12Z</time>
      </trkpt>
      <trkpt lat="46.74524" lon="-0.37208">
        <ele>236.332498</ele>
        <time>2014-08-20T07:33:14Z</time>
      </trkpt>
      <trkpt lat="46.74521" lon="-0.37202">
        <ele>236.427427</ele>
        <time>2014-08-20T07:33:16Z</time>
      </trkpt>
      <trkpt lat="46.74517" lon="-0.37197">
        <ele>236.556171</ele>
        <time>2014-08-20T07:33:18Z</time>
      </trkpt>
      <trkpt lat="46.74515" lon="-0.37191">
        <ele>236.661249</ele>
        <time>2014-08-20T07:33:20Z</time>
      </trkpt>
      <trkpt lat="46.74511" lon="-0.37185">
        <ele>236.661094</ele>
        <time>2014-08-20T07:33:22Z</time>
      </trkpt>
      <trkpt lat="46.74508" lon="-0.37179">
        <ele>236.55552</ele>
        <time>2014-08-20T07:33:24Z</time>
      </trkpt>
      <trkpt lat="46.74505" lon="-0.37172">
        <ele>236.542932</ele>
        <time>2014-08-20T07:33:26Z</time>
      </trkpt>
      <trkpt lat="46.74502" lon="-0.37165">
        <ele>236.674695</ele>
        <time>2014-08-20T07:33:28Z</time>
      </trkpt>
      <trkpt lat="46.74498" lon="-0.3716">
        <ele>236.806718</ele>
        <time>2014-08-20T07:33:30Z</time>
      </trkpt>
      <trkpt lat="46.74495" lon="-0.37153">
        <ele>236.753866</ele>
        <time>2014-08-20T07:33:32Z</time>
      </trkpt>
      <trkpt lat="46.74492" lon="-0.37146">
        <ele>236.799173</ele>
        <time>2014-08-20T07:33:34Z</time>
      </trkpt>
      <trkpt lat="46.74488" lon="-0.37139">
        <ele>236.860358</ele>
        <time>2014-08-20T07:33:36Z</time>
      </trkpt>
      <trkpt lat="46.74484" lon="-0.37132">
        <ele>236.971676</ele>
        <time>2014-08-20T07:33:38Z</time>
      </trkpt>
      <trkpt lat="46.74481" lon="-0.37127">
        <ele>237.064226</ele>
        <time>2014-08-20T07:33:40Z</time>
      </trkpt>
      <trkpt lat="46.74477" lon="-0.37121">
        <ele>237.242881</ele>
        <time>2014-08-20T07:33:42Z</time>
      </trkpt>
      <trkpt lat="46.74473" lon="-0.37115">
        <ele>237.411155</ele>
        <time>2014-08-20T07:33:44Z</time>
      </trkpt>
      <trkpt lat="46.7447" lon="-0.3711">
        <ele>237.575208</ele>
        <time>2014-08-20T07:33:46Z</time>
      </trkpt>
      <trkpt lat="46.74468" lon="-0.37104">
        <ele>237.765871</ele>
        <time>2014-08-20T07:33:48Z</time>
      </trkpt>
      <trkpt lat="46.74464" lon="-0.37098">
        <ele>237.826751</ele>
        <time>2014-08-20T07:33:50Z</time>
      </trkpt>
      <trkpt lat="46.74461" lon="-0.37091">
        <ele>237.891202</ele>
        <time>2014-08-20T07:33:52Z</time>
      </trkpt>
      <trkpt lat="46.74458" lon="-0.37085">
        <ele>237.938835</ele>
        <time>2014-08-20T07:33:54Z</time>
      </trkpt>
      <trkpt lat="46.74455" lon="-0.37079">
        <ele>238.064209</ele>
        <time>2014-08-20T07:33:56Z</time>
      </trkpt>
      <trkpt lat="46.74451" lon="-0.37072">
        <ele>238.416531</ele>
        <time>2014-08-20T07:33:58Z</time>
      </trkpt>
      <trkpt lat="46.74448" lon="-0.37065">
        <ele>238.931486</ele>
        <time>2014-08-20T07:34:00Z</time>
      </trkpt>
      <trkpt lat="46.74444" lon="-0.37059">
        <ele>239.677341</ele>
        <time>2014-08-20T07:34:02Z</time>
      </trkpt>
      <trkpt lat="46.7444" lon="-0.37053">
        <ele>240.82322</ele>
        <time>2014-08-20T07:34:05Z</time>
      </trkpt>
      <trkpt lat="46.74436" lon="-0.37048">
        <ele>241.317752</ele>
        <time>2014-08-20T07:34:07Z</time>
      </trkpt>
      <trkpt lat="46.74433" lon="-0.3704">
        <ele>241.584238</ele>
        <time>2014-08-20T07:34:09Z</time>
      </trkpt>
      <trkpt lat="46.7443" lon="-0.37033">
        <ele>241.656038</ele>
        <time>2014-08-20T07:34:11Z</time>
      </trkpt>
      <trkpt lat="46.74427" lon="-0.37026">
        <ele>241.788929</ele>
        <time>2014-08-20T07:34:13Z</time>
      </trkpt>
      <trkpt lat="46.74424" lon="-0.37019">
        <ele>242.059088</ele>
        <time>2014-08-20T07:34:15Z</time>
      </trkpt>
      <trkpt lat="46.74421" lon="-0.37012">
        <ele>242.34331</ele>
        <time>2014-08-20T07:34:18Z</time>
      </trkpt>
      <trkpt lat="46.74418" lon="-0.37005">
        <ele>242.466204</ele>
        <time>2014-08-20T07:34:20Z</time>
      </trkpt>
      <trkpt lat="46.74416" lon="-0.36998">
        <ele>242.621465</ele>
        <time>2014-08-20T07:34:22Z</time>
      </trkpt>
      <trkpt lat="46.74413" lon="-0.36992">
        <ele>242.839614</ele>
        <time>2014-08-20T07:34:24Z</time>
      </trkpt>
      <trkpt lat="46.7441" lon="-0.36985">
        <ele>243.094527</ele>
        <time>2014-08-20T07:34:26Z</time>
      </trkpt>
      <trkpt lat="46.74405" lon="-0.3698">
        <ele>243.214976</ele>
        <time>2014-08-20T07:34:28Z</time>
      </trkpt>
      <trkpt lat="46.74402" lon="-0.36975">
        <ele>243.315071</ele>
        <time>2014-08-20T07:34:30Z</time>
      </trkpt>
      <trkpt lat="46.74399" lon="-0.36966">
        <ele>243.614154</ele>
        <time>2014-08-20T07:34:33Z</time>
      </trkpt>
      <trkpt lat="46.74396" lon="-0.3696">
        <ele>243.84457</ele>
        <time>2014-08-20T07:34:35Z</time>
      </trkpt>
      <trkpt lat="46.74393" lon="-0.36954">
        <ele>243.892554</ele>
        <time>2014-08-20T07:34:37Z</time>
      </trkpt>
      <trkpt lat="46.74391" lon="-0.36948">
        <ele>243.926983</ele>
        <time>2014-08-20T07:34:39Z</time>
      </trkpt>
      <trkpt lat="46.74387" lon="-0.36941">
        <ele>243.878141</ele>
        <time>2014-08-20T07:34:42Z</time>
      </trkpt>
      <trkpt lat="46.74384" lon="-0.36933">
        <ele>243.730269</ele>
        <time>2014-08-20T07:34:45Z</time>
      </trkpt>
      <trkpt lat="46.7438" lon="-0.36927">
        <ele>243.729405</ele>
        <time>2014-08-20T07:34:47Z</time>
      </trkpt>
      <trkpt lat="46.74376" lon="-0.36921">
        <ele>243.758655</ele>
        <time>2014-08-20T07:34:49Z</time>
      </trkpt>
      <trkpt lat="46.74372" lon="-0.36915">
        <ele>243.801572</ele>
        <time>2014-08-20T07:34:51Z</time>
      </trkpt>
      <trkpt lat="46.74368" lon="-0.3691">
        <ele>243.76299</ele>
        <time>2014-08-20T07:34:53Z</time>
      </trkpt>
      <trkpt lat="46.74364" lon="-0.36906">
        <ele>243.736108</ele>
        <time>2014-08-20T07:34:55Z</time>
      </trkpt>
      <trkpt lat="46.7436" lon="-0.36898">
        <ele>243.645581</ele>
        <time>2014-08-20T07:34:58Z</time>
      </trkpt>
      <trkpt lat="46.74356" lon="-0.36893">
        <ele>243.450641</ele>
        <time>2014-08-20T07:35:00Z</time>
      </trkpt>
      <trkpt lat="46.74353" lon="-0.36889">
        <ele>243.388574</ele>
        <time>2014-08-20T07:35:02Z</time>
      </trkpt>
      <trkpt lat="46.74349" lon="-0.36884">
        <ele>243.367816</ele>
        <time>2014-08-20T07:35:04Z</time>
      </trkpt>
      <trkpt lat="46.74346" lon="-0.36879">
        <ele>243.319154</ele>
        <time>2014-08-20T07:35:06Z</time>
      </trkpt>
      <trkpt lat="46.74343" lon="-0.36873">
        <ele>243.224288</ele>
        <time>2014-08-20T07:35:08Z</time>
      </trkpt>
      <trkpt lat="46.7434" lon="-0.36867">
        <ele>243.102274</ele>
        <time>2014-08-20T07:35:10Z</time>
      </trkpt>
      <trkpt lat="46.74338" lon="-0.36862">
        <ele>242.979724</ele>
        <time>2014-08-20T07:35:12Z</time>
      </trkpt>
      <trkpt lat="46.74335" lon="-0.36856">
        <ele>242.927169</ele>
        <time>2014-08-20T07:35:14Z</time>
      </trkpt>
      <trkpt lat="46.74332" lon="-0.36849">
        <ele>242.980476</ele>
        <time>2014-08-20T07:35:16Z</time>
      </trkpt>
      <trkpt lat="46.74329" lon="-0.36842">
        <ele>242.895921</ele>
        <time>2014-08-20T07:35:18Z</time>
      </trkpt>
      <trkpt lat="46.74326" lon="-0.36834">
        <ele>242.614471</ele>
        <time>2014-08-20T07:35:20Z</time>
      </trkpt>
      <trkpt lat="46.74324" lon="-0.36827">
        <ele>242.374267</ele>
        <time>2014-08-20T07:35:22Z</time>
      </trkpt>
      <trkpt lat="46.74323" lon="-0.36821">
        <ele>242.271168</ele>
        <time>2014-08-20T07:35:24Z</time>
      </trkpt>
      <trkpt lat="46.74321" lon="-0.36814">
        <ele>242.105012</ele>
        <time>2014-08-20T07:35:26Z</time>
      </trkpt>
      <trkpt lat="46.74321" lon="-0.36806">
        <ele>241.881704</ele>
        <time>2014-08-20T07:35:28Z</time>
      </trkpt>
      <trkpt lat="46.7432" lon="-0.36798">
        <ele>241.631595</ele>
        <time>2014-08-20T07:35:30Z</time>
      </trkpt>
      <trkpt lat="46.74321" lon="-0.36791">
        <ele>241.406751</ele>
        <time>2014-08-20T07:35:32Z</time>
      </trkpt>
      <trkpt lat="46.74322" lon="-0.36784">
        <ele>241.234721</ele>
        <time>2014-08-20T07:35:34Z</time>
      </trkpt>
      <trkpt lat="46.74322" lon="-0.36777">
        <ele>240.999909</ele>
        <time>2014-08-20T07:35:36Z</time>
      </trkpt>
      <trkpt lat="46.74322" lon="-0.36769">
        <ele>240.817829</ele>
        <time>2014-08-20T07:35:38Z</time>
      </trkpt>
      <trkpt lat="46.74323" lon="-0.36761">
        <ele>240.541421</ele>
        <time>2014-08-20T07:35:40Z</time>
      </trkpt>
      <trkpt lat="46.74325" lon="-0.36753">
        <ele>240.336292</ele>
        <time>2014-08-20T07:35:42Z</time>
      </trkpt>
      <trkpt lat="46.74326" lon="-0.36746">
        <ele>240.242924</ele>
        <time>2014-08-20T07:35:44Z</time>
      </trkpt>
      <trkpt lat="46.74328" lon="-0.36738">
        <ele>240.212671</ele>
        <time>2014-08-20T07:35:46Z</time>
      </trkpt>
      <trkpt lat="46.74329" lon="-0.36731">
        <ele>240.168619</ele>
        <time>2014-08-20T07:35:48Z</time>
      </trkpt>
      <trkpt lat="46.74331" lon="-0.36722">
        <ele>240.037399</ele>
        <time>2014-08-20T07:35:51Z</time>
      </trkpt>
      <trkpt lat="46.74332" lon="-0.36715">
        <ele>239.827173</ele>
        <time>2014-08-20T07:35:53Z</time>
      </trkpt>
      <trkpt lat="46.74334" lon="-0.36708">
        <ele>239.442377</ele>
        <time>2014-08-20T07:35:55Z</time>
      </trkpt>
      <trkpt lat="46.74336" lon="-0.36702">
        <ele>239.040754</ele>
        <time>2014-08-20T07:35:57Z</time>
      </trkpt>
      <trkpt lat="46.74337" lon="-0.36695">
        <ele>238.713488</ele>
        <time>2014-08-20T07:35:59Z</time>
      </trkpt>
      <trkpt lat="46.74338" lon="-0.36689">
        <ele>238.551454</ele>
        <time>2014-08-20T07:36:01Z</time>
      </trkpt>
      <trkpt lat="46.74339" lon="-0.36682">
        <ele>238.435643</ele>
        <time>2014-08-20T07:36:03Z</time>
      </trkpt>
      <trkpt lat="46.74341" lon="-0.36673">
        <ele>238.248693</ele>
        <time>2014-08-20T07:36:06Z</time>
      </trkpt>
      <trkpt lat="46.74341" lon="-0.36666">
        <ele>238.164265</ele>
        <time>2014-08-20T07:36:08Z</time>
      </trkpt>
      <trkpt lat="46.74342" lon="-0.3666">
        <ele>238.05614</ele>
        <time>2014-08-20T07:36:10Z</time>
      </trkpt>
      <trkpt lat="46.74343" lon="-0.3665">
        <ele>237.901851</ele>
        <time>2014-08-20T07:36:13Z</time>
      </trkpt>
      <trkpt lat="46.74345" lon="-0.36641">
        <ele>237.681893</ele>
        <time>2014-08-20T07:36:16Z</time>
      </trkpt>
      <trkpt lat="46.74345" lon="-0.36631">
        <ele>237.56917</ele>
        <time>2014-08-20T07:36:19Z</time>
      </trkpt>
      <trkpt lat="46.74346" lon="-0.36622">
        <ele>237.400791</ele>
        <time>2014-08-20T07:36:22Z</time>
      </trkpt>
      <trkpt lat="46.74346" lon="-0.36615">
        <ele>237.323314</ele>
        <time>2014-08-20T07:36:24Z</time>
      </trkpt>
      <trkpt lat="46.74346" lon="-0.36607">
        <ele>237.220646</ele>
        <time>2014-08-20T07:36:26Z</time>
      </trkpt>
      <trkpt lat="46.74346" lon="-0.36598">
        <ele>237.191777</ele>
        <time>2014-08-20T07:36:29Z</time>
      </trkpt>
      <trkpt lat="46.74347" lon="-0.36589">
        <ele>236.986731</ele>
        <time>2014-08-20T07:36:32Z</time>
      </trkpt>
      <trkpt lat="46.74348" lon="-0.36581">
        <ele>236.772307</ele>
        <time>2014-08-20T07:36:34Z</time>
      </trkpt>
      <trkpt lat="46.7435" lon="-0.36574">
        <ele>236.399553</ele>
        <time>2014-08-20T07:36:36Z</time>
      </trkpt>
      <trkpt lat="46.74351" lon="-0.36566">
        <ele>236.088433</ele>
        <time>2014-08-20T07:36:38Z</time>
      </trkpt>
      <trkpt lat="46.74353" lon="-0.36559">
        <ele>235.782635</ele>
        <time>2014-08-20T07:36:40Z</time>
      </trkpt>
      <trkpt lat="46.74353" lon="-0.36552">
        <ele>235.468963</ele>
        <time>2014-08-20T07:36:42Z</time>
      </trkpt>
      <trkpt lat="46.74354" lon="-0.36544">
        <ele>235.195691</ele>
        <time>2014-08-20T07:36:44Z</time>
      </trkpt>
      <trkpt lat="46.74355" lon="-0.36537">
        <ele>234.957609</ele>
        <time>2014-08-20T07:36:46Z</time>
      </trkpt>
      <trkpt lat="46.74356" lon="-0.36529">
        <ele>234.757842</ele>
        <time>2014-08-20T07:36:48Z</time>
      </trkpt>
      <trkpt lat="46.74358" lon="-0.36522">
        <ele>234.557223</ele>
        <time>2014-08-20T07:36:50Z</time>
      </trkpt>
      <trkpt lat="46.74358" lon="-0.36516">
        <ele>234.39347</ele>
        <time>2014-08-20T07:36:52Z</time>
      </trkpt>
      <trkpt lat="46.74359" lon="-0.36509">
        <ele>234.185439</ele>
        <time>2014-08-20T07:36:54Z</time>
      </trkpt>
      <trkpt lat="46.74362" lon="-0.36501">
        <ele>233.604302</ele>
        <time>2014-08-20T07:36:57Z</time>
      </trkpt>
      <trkpt lat="46.74363" lon="-0.36493">
        <ele>233.148409</ele>
        <time>2014-08-20T07:36:59Z</time>
      </trkpt>
      <trkpt lat="46.74363" lon="-0.36487">
        <ele>232.747189</ele>
        <time>2014-08-20T07:37:01Z</time>
      </trkpt>
      <trkpt lat="46.74366" lon="-0.36478">
        <ele>232.046583</ele>
        <time>2014-08-20T07:37:04Z</time>
      </trkpt>
      <trkpt lat="46.74368" lon="-0.36472">
        <ele>231.558388</ele>
        <time>2014-08-20T07:37:06Z</time>
      </trkpt>
      <trkpt lat="46.7437" lon="-0.36464">
        <ele>231.199477</ele>
        <time>2014-08-20T07:37:08Z</time>
      </trkpt>
      <trkpt lat="46.74371" lon="-0.36457">
        <ele>230.907081</ele>
        <time>2014-08-20T07:37:10Z</time>
      </trkpt>
      <trkpt lat="46.74372" lon="-0.3645">
        <ele>230.64898</ele>
        <time>2014-08-20T07:37:12Z</time>
      </trkpt>
      <trkpt lat="46.74373" lon="-0.36443">
        <ele>230.440941</ele>
        <time>2014-08-20T07:37:14Z</time>
      </trkpt>
      <trkpt lat="46.74376" lon="-0.36436">
        <ele>230.309463</ele>
        <time>2014-08-20T07:37:16Z</time>
      </trkpt>
      <trkpt lat="46.7438" lon="-0.36432">
        <ele>230.123173</ele>
        <time>2014-08-20T07:37:18Z</time>
      </trkpt>
      <trkpt lat="46.74385" lon="-0.36429">
        <ele>229.810903</ele>
        <time>2014-08-20T07:37:20Z</time>
      </trkpt>
      <trkpt lat="46.74391" lon="-0.36427">
        <ele>229.598407</ele>
        <time>2014-08-20T07:37:22Z</time>
      </trkpt>
      <trkpt lat="46.74396" lon="-0.36428">
        <ele>229.435683</ele>
        <time>2014-08-20T07:37:24Z</time>
      </trkpt>
      <trkpt lat="46.74403" lon="-0.36428">
        <ele>229.345503</ele>
        <time>2014-08-20T07:37:27Z</time>
      </trkpt>
      <trkpt lat="46.74408" lon="-0.36427">
        <ele>229.469582</ele>
        <time>2014-08-20T07:37:29Z</time>
      </trkpt>
      <trkpt lat="46.74414" lon="-0.36425">
        <ele>229.632061</ele>
        <time>2014-08-20T07:37:31Z</time>
      </trkpt>
      <trkpt lat="46.74419" lon="-0.36423">
        <ele>229.823185</ele>
        <time>2014-08-20T07:37:33Z</time>
      </trkpt>
      <trkpt lat="46.74425" lon="-0.36422">
        <ele>229.936709</ele>
        <time>2014-08-20T07:37:35Z</time>
      </trkpt>
      <trkpt lat="46.74431" lon="-0.3642">
        <ele>230.021499</ele>
        <time>2014-08-20T07:37:37Z</time>
      </trkpt>
      <trkpt lat="46.74437" lon="-0.3642">
        <ele>230.271248</ele>
        <time>2014-08-20T07:37:39Z</time>
      </trkpt>
      <trkpt lat="46.74442" lon="-0.3642">
        <ele>230.494577</ele>
        <time>2014-08-20T07:37:41Z</time>
      </trkpt>
      <trkpt lat="46.74448" lon="-0.36419">
        <ele>230.736354</ele>
        <time>2014-08-20T07:37:43Z</time>
      </trkpt>
      <trkpt lat="46.74454" lon="-0.36419">
        <ele>231.201068</ele>
        <time>2014-08-20T07:37:45Z</time>
      </trkpt>
      <trkpt lat="46.74459" lon="-0.36418">
        <ele>231.682582</ele>
        <time>2014-08-20T07:37:47Z</time>
      </trkpt>
      <trkpt lat="46.74465" lon="-0.36418">
        <ele>232.009527</ele>
        <time>2014-08-20T07:37:49Z</time>
      </trkpt>
      <trkpt lat="46.74472" lon="-0.36419">
        <ele>232.271623</ele>
        <time>2014-08-20T07:37:51Z</time>
      </trkpt>
      <trkpt lat="46.74478" lon="-0.36419">
        <ele>232.475187</ele>
        <time>2014-08-20T07:37:53Z</time>
      </trkpt>
      <trkpt lat="46.74483" lon="-0.3642">
        <ele>232.746599</ele>
        <time>2014-08-20T07:37:55Z</time>
      </trkpt>
      <trkpt lat="46.74487" lon="-0.36421">
        <ele>233.133131</ele>
        <time>2014-08-20T07:37:57Z</time>
      </trkpt>
      <trkpt lat="46.74492" lon="-0.36422">
        <ele>233.491543</ele>
        <time>2014-08-20T07:37:59Z</time>
      </trkpt>
      <trkpt lat="46.74497" lon="-0.36422">
        <ele>233.657611</ele>
        <time>2014-08-20T07:38:01Z</time>
      </trkpt>
      <trkpt lat="46.74502" lon="-0.36422">
        <ele>233.878068</ele>
        <time>2014-08-20T07:38:03Z</time>
      </trkpt>
      <trkpt lat="46.74507" lon="-0.36422">
        <ele>234.011701</ele>
        <time>2014-08-20T07:38:05Z</time>
      </trkpt>
      <trkpt lat="46.74512" lon="-0.36423">
        <ele>234.084325</ele>
        <time>2014-08-20T07:38:07Z</time>
      </trkpt>
      <trkpt lat="46.74517" lon="-0.36424">
        <ele>234.179757</ele>
        <time>2014-08-20T07:38:09Z</time>
      </trkpt>
      <trkpt lat="46.74523" lon="-0.36426">
        <ele>234.241173</ele>
        <time>2014-08-20T07:38:11Z</time>
      </trkpt>
      <trkpt lat="46.74528" lon="-0.36427">
        <ele>234.176069</ele>
        <time>2014-08-20T07:38:13Z</time>
      </trkpt>
      <trkpt lat="46.74533" lon="-0.36428">
        <ele>234.178266</ele>
        <time>2014-08-20T07:38:15Z</time>
      </trkpt>
      <trkpt lat="46.74538" lon="-0.3643">
        <ele>234.149102</ele>
        <time>2014-08-20T07:38:17Z</time>
      </trkpt>
      <trkpt lat="46.74545" lon="-0.36431">
        <ele>234.024135</ele>
        <time>2014-08-20T07:38:19Z</time>
      </trkpt>
      <trkpt lat="46.74552" lon="-0.36432">
        <ele>233.893411</ele>
        <time>2014-08-20T07:38:21Z</time>
      </trkpt>
      <trkpt lat="46.74558" lon="-0.36432">
        <ele>233.917309</ele>
        <time>2014-08-20T07:38:23Z</time>
      </trkpt>
      <trkpt lat="46.74564" lon="-0.36433">
        <ele>233.901624</ele>
        <time>2014-08-20T07:38:25Z</time>
      </trkpt>
      <trkpt lat="46.74569" lon="-0.36434">
        <ele>233.943018</ele>
        <time>2014-08-20T07:38:27Z</time>
      </trkpt>
      <trkpt lat="46.74575" lon="-0.36435">
        <ele>234.087959</ele>
        <time>2014-08-20T07:38:29Z</time>
      </trkpt>
      <trkpt lat="46.7458" lon="-0.36436">
        <ele>234.270972</ele>
        <time>2014-08-20T07:38:31Z</time>
      </trkpt>
      <trkpt lat="46.74586" lon="-0.36437">
        <ele>234.422935</ele>
        <time>2014-08-20T07:38:33Z</time>
      </trkpt>
      <trkpt lat="46.74592" lon="-0.36437">
        <ele>234.570087</ele>
        <time>2014-08-20T07:38:35Z</time>
      </trkpt>
      <trkpt lat="46.74598" lon="-0.36438">
        <ele>234.726521</ele>
        <time>2014-08-20T07:38:37Z</time>
      </trkpt>
      <trkpt lat="46.74604" lon="-0.3644">
        <ele>234.80463</ele>
        <time>2014-08-20T07:38:39Z</time>
      </trkpt>
      <trkpt lat="46.74609" lon="-0.36443">
        <ele>234.8554</ele>
        <time>2014-08-20T07:38:41Z</time>
      </trkpt>
      <trkpt lat="46.74615" lon="-0.36444">
        <ele>234.948793</ele>
        <time>2014-08-20T07:38:43Z</time>
      </trkpt>
      <trkpt lat="46.7462" lon="-0.36445">
        <ele>235.068312</ele>
        <time>2014-08-20T07:38:45Z</time>
      </trkpt>
      <trkpt lat="46.74625" lon="-0.36446">
        <ele>235.260172</ele>
        <time>2014-08-20T07:38:47Z</time>
      </trkpt>
      <trkpt lat="46.74632" lon="-0.36447">
        <ele>235.445673</ele>
        <time>2014-08-20T07:38:49Z</time>
      </trkpt>
      <trkpt lat="46.74638" lon="-0.36447">
        <ele>235.515776</ele>
        <time>2014-08-20T07:38:51Z</time>
      </trkpt>
      <trkpt lat="46.74643" lon="-0.36448">
        <ele>235.486139</ele>
        <time>2014-08-20T07:38:53Z</time>
      </trkpt>
      <trkpt lat="46.74649" lon="-0.36449">
        <ele>235.543219</ele>
        <time>2014-08-20T07:38:55Z</time>
      </trkpt>
      <trkpt lat="46.74655" lon="-0.3645">
        <ele>235.55049</ele>
        <time>2014-08-20T07:38:57Z</time>
      </trkpt>
      <trkpt lat="46.74661" lon="-0.3645">
        <ele>235.509428</ele>
        <time>2014-08-20T07:38:59Z</time>
      </trkpt>
      <trkpt lat="46.74667" lon="-0.36451">
        <ele>235.578521</ele>
        <time>2014-08-20T07:39:01Z</time>
      </trkpt>
      <trkpt lat="46.74671" lon="-0.36451">
        <ele>235.794264</ele>
        <time>2014-08-20T07:39:03Z</time>
      </trkpt>
      <trkpt lat="46.74676" lon="-0.36452">
        <ele>235.873536</ele>
        <time>2014-08-20T07:39:05Z</time>
      </trkpt>
      <trkpt lat="46.74684" lon="-0.36452">
        <ele>236.067421</ele>
        <time>2014-08-20T07:39:08Z</time>
      </trkpt>
      <trkpt lat="46.74691" lon="-0.36452">
        <ele>236.245335</ele>
        <time>2014-08-20T07:39:10Z</time>
      </trkpt>
      <trkpt lat="46.74696" lon="-0.36452">
        <ele>236.294028</ele>
        <time>2014-08-20T07:39:12Z</time>
      </trkpt>
      <trkpt lat="46.74701" lon="-0.36452">
        <ele>236.311212</ele>
        <time>2014-08-20T07:39:14Z</time>
      </trkpt>
      <trkpt lat="46.74707" lon="-0.36453">
        <ele>236.346311</ele>
        <time>2014-08-20T07:39:16Z</time>
      </trkpt>
      <trkpt lat="46.74713" lon="-0.36452">
        <ele>236.277019</ele>
        <time>2014-08-20T07:39:18Z</time>
      </trkpt>
      <trkpt lat="46.74718" lon="-0.36452">
        <ele>236.333037</ele>
        <time>2014-08-20T07:39:20Z</time>
      </trkpt>
      <trkpt lat="46.74724" lon="-0.36451">
        <ele>236.467533</ele>
        <time>2014-08-20T07:39:22Z</time>
      </trkpt>
      <trkpt lat="46.74731" lon="-0.36451">
        <ele>236.620023</ele>
        <time>2014-08-20T07:39:24Z</time>
      </trkpt>
      <trkpt lat="46.74737" lon="-0.3645">
        <ele>236.784922</ele>
        <time>2014-08-20T07:39:26Z</time>
      </trkpt>
      <trkpt lat="46.74743" lon="-0.36446">
        <ele>237.018747</ele>
        <time>2014-08-20T07:39:28Z</time>
      </trkpt>
      <trkpt lat="46.74748" lon="-0.36443">
        <ele>237.441074</ele>
        <time>2014-08-20T07:39:30Z</time>
      </trkpt>
      <trkpt lat="46.74752" lon="-0.36438">
        <ele>237.886701</ele>
        <time>2014-08-20T07:39:32Z</time>
      </trkpt>
      <trkpt lat="46.74756" lon="-0.36433">
        <ele>238.141163</ele>
        <time>2014-08-20T07:39:34Z</time>
      </trkpt>
      <trkpt lat="46.7476" lon="-0.36425">
        <ele>238.425698</ele>
        <time>2014-08-20T07:39:36Z</time>
      </trkpt>
      <trkpt lat="46.74764" lon="-0.36418">
        <ele>238.771159</ele>
        <time>2014-08-20T07:39:38Z</time>
      </trkpt>
      <trkpt lat="46.74768" lon="-0.36411">
        <ele>238.954713</ele>
        <time>2014-08-20T07:39:40Z</time>
      </trkpt>
      <trkpt lat="46.74771" lon="-0.36407">
        <ele>238.988466</ele>
        <time>2014-08-20T07:39:42Z</time>
      </trkpt>
      <trkpt lat="46.74775" lon="-0.36398">
        <ele>239.017732</ele>
        <time>2014-08-20T07:39:45Z</time>
      </trkpt>
      <trkpt lat="46.74777" lon="-0.36389">
        <ele>239.11006</ele>
        <time>2014-08-20T07:39:48Z</time>
      </trkpt>
      <trkpt lat="46.7478" lon="-0.36383">
        <ele>239.193366</ele>
        <time>2014-08-20T07:39:50Z</time>
      </trkpt>
      <trkpt lat="46.74781" lon="-0.36376">
        <ele>239.394229</ele>
        <time>2014-08-20T07:39:52Z</time>
      </trkpt>
      <trkpt lat="46.74782" lon="-0.36368">
        <ele>239.509452</ele>
        <time>2014-08-20T07:39:54Z</time>
      </trkpt>
      <trkpt lat="46.74783" lon="-0.36361">
        <ele>239.65782</ele>
        <time>2014-08-20T07:39:56Z</time>
      </trkpt>
      <trkpt lat="46.74785" lon="-0.36354">
        <ele>239.980295</ele>
        <time>2014-08-20T07:39:58Z</time>
      </trkpt>
      <trkpt lat="46.74787" lon="-0.36347">
        <ele>240.150011</ele>
        <time>2014-08-20T07:40:00Z</time>
      </trkpt>
      <trkpt lat="46.7479" lon="-0.3634">
        <ele>240.353616</ele>
        <time>2014-08-20T07:40:02Z</time>
      </trkpt>
      <trkpt lat="46.74792" lon="-0.36334">
        <ele>240.464885</ele>
        <time>2014-08-20T07:40:04Z</time>
      </trkpt>
      <trkpt lat="46.74793" lon="-0.36327">
        <ele>240.529601</ele>
        <time>2014-08-20T07:40:06Z</time>
      </trkpt>
      <trkpt lat="46.74796" lon="-0.36317">
        <ele>240.679385</ele>
        <time>2014-08-20T07:40:09Z</time>
      </trkpt>
      <trkpt lat="46.74797" lon="-0.3631">
        <ele>240.476003</ele>
        <time>2014-08-20T07:40:11Z</time>
      </trkpt>
      <trkpt lat="46.74799" lon="-0.36304">
        <ele>240.256562</ele>
        <time>2014-08-20T07:40:13Z</time>
      </trkpt>
      <trkpt lat="46.74801" lon="-0.36296">
        <ele>240.163589</ele>
        <time>2014-08-20T07:40:15Z</time>
      </trkpt>
      <trkpt lat="46.74803" lon="-0.36289">
        <ele>240.144897</ele>
        <time>2014-08-20T07:40:17Z</time>
      </trkpt>
      <trkpt lat="46.74805" lon="-0.36282">
        <ele>239.965636</ele>
        <time>2014-08-20T07:40:19Z</time>
      </trkpt>
      <trkpt lat="46.74806" lon="-0.36275">
        <ele>239.788647</ele>
        <time>2014-08-20T07:40:21Z</time>
      </trkpt>
      <trkpt lat="46.74808" lon="-0.36268">
        <ele>239.538273</ele>
        <time>2014-08-20T07:40:23Z</time>
      </trkpt>
      <trkpt lat="46.74811" lon="-0.36261">
        <ele>239.313118</ele>
        <time>2014-08-20T07:40:25Z</time>
      </trkpt>
      <trkpt lat="46.74814" lon="-0.36254">
        <ele>239.272528</ele>
        <time>2014-08-20T07:40:27Z</time>
      </trkpt>
      <trkpt lat="46.74817" lon="-0.36246">
        <ele>239.38311</ele>
        <time>2014-08-20T07:40:29Z</time>
      </trkpt>
      <trkpt lat="46.7482" lon="-0.3624">
        <ele>239.535584</ele>
        <time>2014-08-20T07:40:31Z</time>
      </trkpt>
      <trkpt lat="46.74823" lon="-0.36234">
        <ele>239.774492</ele>
        <time>2014-08-20T07:40:33Z</time>
      </trkpt>
      <trkpt lat="46.74826" lon="-0.36228">
        <ele>240.14427</ele>
        <time>2014-08-20T07:40:35Z</time>
      </trkpt>
      <trkpt lat="46.74829" lon="-0.36221">
        <ele>240.381401</ele>
        <time>2014-08-20T07:40:37Z</time>
      </trkpt>
      <trkpt lat="46.74833" lon="-0.36214">
        <ele>240.509994</ele>
        <time>2014-08-20T07:40:39Z</time>
      </trkpt>
      <trkpt lat="46.74836" lon="-0.36207">
        <ele>240.67353</ele>
        <time>2014-08-20T07:40:41Z</time>
      </trkpt>
      <trkpt lat="46.74839" lon="-0.36201">
        <ele>241.014549</ele>
        <time>2014-08-20T07:40:43Z</time>
      </trkpt>
      <trkpt lat="46.74841" lon="-0.36194">
        <ele>241.227792</ele>
        <time>2014-08-20T07:40:45Z</time>
      </trkpt>
      <trkpt lat="46.74844" lon="-0.36189">
        <ele>241.425414</ele>
        <time>2014-08-20T07:40:47Z</time>
      </trkpt>
      <trkpt lat="46.74847" lon="-0.36181">
        <ele>241.75176</ele>
        <time>2014-08-20T07:40:50Z</time>
      </trkpt>
      <trkpt lat="46.74851" lon="-0.36173">
        <ele>241.955713</ele>
        <time>2014-08-20T07:40:53Z</time>
      </trkpt>
      <trkpt lat="46.74854" lon="-0.36166">
        <ele>242.020695</ele>
        <time>2014-08-20T07:40:55Z</time>
      </trkpt>
      <trkpt lat="46.74857" lon="-0.3616">
        <ele>242.075057</ele>
        <time>2014-08-20T07:40:57Z</time>
      </trkpt>
      <trkpt lat="46.7486" lon="-0.36154">
        <ele>242.177432</ele>
        <time>2014-08-20T07:40:59Z</time>
      </trkpt>
      <trkpt lat="46.74863" lon="-0.36146">
        <ele>242.335722</ele>
        <time>2014-08-20T07:41:02Z</time>
      </trkpt>
      <trkpt lat="46.74865" lon="-0.36139">
        <ele>242.423557</ele>
        <time>2014-08-20T07:41:04Z</time>
      </trkpt>
      <trkpt lat="46.74868" lon="-0.36133">
        <ele>242.588747</ele>
        <time>2014-08-20T07:41:06Z</time>
      </trkpt>
      <trkpt lat="46.74871" lon="-0.36125">
        <ele>242.650189</ele>
        <time>2014-08-20T07:41:09Z</time>
      </trkpt>
      <trkpt lat="46.74873" lon="-0.36118">
        <ele>242.274577</ele>
        <time>2014-08-20T07:41:12Z</time>
      </trkpt>
      <trkpt lat="46.74876" lon="-0.36109">
        <ele>242.054898</ele>
        <time>2014-08-20T07:41:15Z</time>
      </trkpt>
      <trkpt lat="46.74878" lon="-0.36103">
        <ele>242.043346</ele>
        <time>2014-08-20T07:41:17Z</time>
      </trkpt>
      <trkpt lat="46.7488" lon="-0.36096">
        <ele>241.959209</ele>
        <time>2014-08-20T07:41:19Z</time>
      </trkpt>
      <trkpt lat="46.74881" lon="-0.36089">
        <ele>241.949469</ele>
        <time>2014-08-20T07:41:21Z</time>
      </trkpt>
      <trkpt lat="46.74882" lon="-0.36082">
        <ele>242.031843</ele>
        <time>2014-08-20T07:41:23Z</time>
      </trkpt>
      <trkpt lat="46.74883" lon="-0.36074">
        <ele>242.078756</ele>
        <time>2014-08-20T07:41:25Z</time>
      </trkpt>
      <trkpt lat="46.74884" lon="-0.36066">
        <ele>242.011382</ele>
        <time>2014-08-20T07:41:27Z</time>
      </trkpt>
      <trkpt lat="46.74887" lon="-0.36058">
        <ele>242.019408</ele>
        <time>2014-08-20T07:41:29Z</time>
      </trkpt>
      <trkpt lat="46.74889" lon="-0.36051">
        <ele>242.040216</ele>
        <time>2014-08-20T07:41:31Z</time>
      </trkpt>
      <trkpt lat="46.7489" lon="-0.36043">
        <ele>241.974769</ele>
        <time>2014-08-20T07:41:33Z</time>
      </trkpt>
      <trkpt lat="46.74892" lon="-0.36036">
        <ele>241.9145</ele>
        <time>2014-08-20T07:41:35Z</time>
      </trkpt>
      <trkpt lat="46.74892" lon="-0.36029">
        <ele>241.736169</ele>
        <time>2014-08-20T07:41:37Z</time>
      </trkpt>
      <trkpt lat="46.74893" lon="-0.36021">
        <ele>241.563892</ele>
        <time>2014-08-20T07:41:39Z</time>
      </trkpt>
      <trkpt lat="46.74894" lon="-0.36014">
        <ele>241.338304</ele>
        <time>2014-08-20T07:41:41Z</time>
      </trkpt>
      <trkpt lat="46.74895" lon="-0.36007">
        <ele>241.304972</ele>
        <time>2014-08-20T07:41:43Z</time>
      </trkpt>
      <trkpt lat="46.74896" lon="-0.35999">
        <ele>241.451141</ele>
        <time>2014-08-20T07:41:45Z</time>
      </trkpt>
      <trkpt lat="46.74896" lon="-0.35992">
        <ele>241.502551</ele>
        <time>2014-08-20T07:41:47Z</time>
      </trkpt>
      <trkpt lat="46.74896" lon="-0.35985">
        <ele>241.44396</ele>
        <time>2014-08-20T07:41:49Z</time>
      </trkpt>
      <trkpt lat="46.74897" lon="-0.35977">
        <ele>241.4763</ele>
        <time>2014-08-20T07:41:51Z</time>
      </trkpt>
      <trkpt lat="46.74898" lon="-0.35969">
        <ele>241.52206</ele>
        <time>2014-08-20T07:41:53Z</time>
      </trkpt>
      <trkpt lat="46.74898" lon="-0.35962">
        <ele>241.576076</ele>
        <time>2014-08-20T07:41:55Z</time>
      </trkpt>
      <trkpt lat="46.74899" lon="-0.35955">
        <ele>241.57584</ele>
        <time>2014-08-20T07:41:57Z</time>
      </trkpt>
      <trkpt lat="46.74899" lon="-0.35946">
        <ele>241.546925</ele>
        <time>2014-08-20T07:41:59Z</time>
      </trkpt>
      <trkpt lat="46.74899" lon="-0.35937">
        <ele>241.61373</ele>
        <time>2014-08-20T07:42:01Z</time>
      </trkpt>
      <trkpt lat="46.74899" lon="-0.35929">
        <ele>241.843414</ele>
        <time>2014-08-20T07:42:03Z</time>
      </trkpt>
      <trkpt lat="46.74899" lon="-0.35922">
        <ele>242.057779</ele>
        <time>2014-08-20T07:42:05Z</time>
      </trkpt>
      <trkpt lat="46.749" lon="-0.35913">
        <ele>242.125764</ele>
        <time>2014-08-20T07:42:07Z</time>
      </trkpt>
      <trkpt lat="46.749" lon="-0.35905">
        <ele>242.253427</ele>
        <time>2014-08-20T07:42:09Z</time>
      </trkpt>
      <trkpt lat="46.749" lon="-0.35898">
        <ele>242.3636</ele>
        <time>2014-08-20T07:42:11Z</time>
      </trkpt>
      <trkpt lat="46.749" lon="-0.3589">
        <ele>242.406115</ele>
        <time>2014-08-20T07:42:13Z</time>
      </trkpt>
      <trkpt lat="46.74901" lon="-0.3588">
        <ele>242.669801</ele>
        <time>2014-08-20T07:42:16Z</time>
      </trkpt>
      <trkpt lat="46.74902" lon="-0.35873">
        <ele>242.813899</ele>
        <time>2014-08-20T07:42:18Z</time>
      </trkpt>
      <trkpt lat="46.74902" lon="-0.35866">
        <ele>242.926825</ele>
        <time>2014-08-20T07:42:20Z</time>
      </trkpt>
      <trkpt lat="46.74902" lon="-0.35859">
        <ele>243.0506</ele>
        <time>2014-08-20T07:42:22Z</time>
      </trkpt>
      <trkpt lat="46.74902" lon="-0.35852">
        <ele>243.174885</ele>
        <time>2014-08-20T07:42:24Z</time>
      </trkpt>
      <trkpt lat="46.74902" lon="-0.35844">
        <ele>243.301067</ele>
        <time>2014-08-20T07:42:26Z</time>
      </trkpt>
      <trkpt lat="46.74902" lon="-0.35837">
        <ele>243.330503</ele>
        <time>2014-08-20T07:42:28Z</time>
      </trkpt>
      <trkpt lat="46.74902" lon="-0.35829">
        <ele>243.26039</ele>
        <time>2014-08-20T07:42:30Z</time>
      </trkpt>
      <trkpt lat="46.74903" lon="-0.35821">
        <ele>243.162617</ele>
        <time>2014-08-20T07:42:32Z</time>
      </trkpt>
      <trkpt lat="46.74903" lon="-0.35813">
        <ele>243.112114</ele>
        <time>2014-08-20T07:42:34Z</time>
      </trkpt>
      <trkpt lat="46.74903" lon="-0.35805">
        <ele>243.027495</ele>
        <time>2014-08-20T07:42:36Z</time>
      </trkpt>
      <trkpt lat="46.74903" lon="-0.35796">
        <ele>242.976741</ele>
        <time>2014-08-20T07:42:38Z</time>
      </trkpt>
      <trkpt lat="46.74903" lon="-0.35788">
        <ele>242.979441</ele>
        <time>2014-08-20T07:42:40Z</time>
      </trkpt>
      <trkpt lat="46.74903" lon="-0.3578">
        <ele>242.92987</ele>
        <time>2014-08-20T07:42:42Z</time>
      </trkpt>
      <trkpt lat="46.74904" lon="-0.35773">
        <ele>242.992536</ele>
        <time>2014-08-20T07:42:44Z</time>
      </trkpt>
      <trkpt lat="46.74904" lon="-0.35764">
        <ele>243.14707</ele>
        <time>2014-08-20T07:42:46Z</time>
      </trkpt>
      <trkpt lat="46.74905" lon="-0.35757">
        <ele>243.253348</ele>
        <time>2014-08-20T07:42:48Z</time>
      </trkpt>
      <trkpt lat="46.74905" lon="-0.35747">
        <ele>243.689272</ele>
        <time>2014-08-20T07:42:50Z</time>
      </trkpt>
      <trkpt lat="46.74905" lon="-0.3574">
        <ele>243.848086</ele>
        <time>2014-08-20T07:42:52Z</time>
      </trkpt>
      <trkpt lat="46.74906" lon="-0.35731">
        <ele>244.148328</ele>
        <time>2014-08-20T07:42:54Z</time>
      </trkpt>
      <trkpt lat="46.74906" lon="-0.35722">
        <ele>244.2377</ele>
        <time>2014-08-20T07:42:56Z</time>
      </trkpt>
      <trkpt lat="46.74907" lon="-0.35714">
        <ele>244.185114</ele>
        <time>2014-08-20T07:42:58Z</time>
      </trkpt>
      <trkpt lat="46.74907" lon="-0.35706">
        <ele>244.178177</ele>
        <time>2014-08-20T07:43:00Z</time>
      </trkpt>
      <trkpt lat="46.74907" lon="-0.35698">
        <ele>244.187094</ele>
        <time>2014-08-20T07:43:02Z</time>
      </trkpt>
      <trkpt lat="46.74907" lon="-0.35691">
        <ele>244.320359</ele>
        <time>2014-08-20T07:43:04Z</time>
      </trkpt>
      <trkpt lat="46.74908" lon="-0.35683">
        <ele>244.430669</ele>
        <time>2014-08-20T07:43:06Z</time>
      </trkpt>
      <trkpt lat="46.74908" lon="-0.35675">
        <ele>244.41602</ele>
        <time>2014-08-20T07:43:08Z</time>
      </trkpt>
      <trkpt lat="46.74908" lon="-0.35666">
        <ele>244.536851</ele>
        <time>2014-08-20T07:43:10Z</time>
      </trkpt>
      <trkpt lat="46.74908" lon="-0.35656">
        <ele>244.730025</ele>
        <time>2014-08-20T07:43:12Z</time>
      </trkpt>
      <trkpt lat="46.74907" lon="-0.35649">
        <ele>244.911487</ele>
        <time>2014-08-20T07:43:14Z</time>
      </trkpt>
      <trkpt lat="46.74906" lon="-0.35641">
        <ele>245.002908</ele>
        <time>2014-08-20T07:43:16Z</time>
      </trkpt>
      <trkpt lat="46.74905" lon="-0.35634">
        <ele>245.2182</ele>
        <time>2014-08-20T07:43:18Z</time>
      </trkpt>
      <trkpt lat="46.74904" lon="-0.35627">
        <ele>245.502618</ele>
        <time>2014-08-20T07:43:20Z</time>
      </trkpt>
      <trkpt lat="46.74903" lon="-0.3562">
        <ele>245.773682</ele>
        <time>2014-08-20T07:43:22Z</time>
      </trkpt>
      <trkpt lat="46.74902" lon="-0.35613">
        <ele>245.969488</ele>
        <time>2014-08-20T07:43:24Z</time>
      </trkpt>
      <trkpt lat="46.749" lon="-0.35604">
        <ele>246.161677</ele>
        <time>2014-08-20T07:43:27Z</time>
      </trkpt>
      <trkpt lat="46.74898" lon="-0.35595">
        <ele>246.518032</ele>
        <time>2014-08-20T07:43:30Z</time>
      </trkpt>
      <trkpt lat="46.74897" lon="-0.35587">
        <ele>246.728799</ele>
        <time>2014-08-20T07:43:32Z</time>
      </trkpt>
      <trkpt lat="46.74896" lon="-0.35579">
        <ele>246.852195</ele>
        <time>2014-08-20T07:43:34Z</time>
      </trkpt>
      <trkpt lat="46.74893" lon="-0.35571">
        <ele>247.095219</ele>
        <time>2014-08-20T07:43:37Z</time>
      </trkpt>
      <trkpt lat="46.7489" lon="-0.35564">
        <ele>247.355637</ele>
        <time>2014-08-20T07:43:39Z</time>
      </trkpt>
      <trkpt lat="46.74887" lon="-0.35558">
        <ele>247.544296</ele>
        <time>2014-08-20T07:43:41Z</time>
      </trkpt>
      <trkpt lat="46.74885" lon="-0.35549">
        <ele>247.803772</ele>
        <time>2014-08-20T07:43:43Z</time>
      </trkpt>
      <trkpt lat="46.74882" lon="-0.35541">
        <ele>248.006184</ele>
        <time>2014-08-20T07:43:45Z</time>
      </trkpt>
      <trkpt lat="46.7488" lon="-0.35533">
        <ele>248.227359</ele>
        <time>2014-08-20T07:43:47Z</time>
      </trkpt>
      <trkpt lat="46.74878" lon="-0.35525">
        <ele>248.569586</ele>
        <time>2014-08-20T07:43:49Z</time>
      </trkpt>
      <trkpt lat="46.74876" lon="-0.35519">
        <ele>248.850885</ele>
        <time>2014-08-20T07:43:51Z</time>
      </trkpt>
      <trkpt lat="46.74874" lon="-0.35511">
        <ele>248.952765</ele>
        <time>2014-08-20T07:43:53Z</time>
      </trkpt>
      <trkpt lat="46.74872" lon="-0.35504">
        <ele>249.042516</ele>
        <time>2014-08-20T07:43:55Z</time>
      </trkpt>
      <trkpt lat="46.7487" lon="-0.35495">
        <ele>249.23829</ele>
        <time>2014-08-20T07:43:58Z</time>
      </trkpt>
      <trkpt lat="46.74869" lon="-0.35489">
        <ele>249.437186</ele>
        <time>2014-08-20T07:44:00Z</time>
      </trkpt>
      <trkpt lat="46.74867" lon="-0.35482">
        <ele>249.546539</ele>
        <time>2014-08-20T07:44:02Z</time>
      </trkpt>
      <trkpt lat="46.74866" lon="-0.35473">
        <ele>249.50398</ele>
        <time>2014-08-20T07:44:04Z</time>
      </trkpt>
      <trkpt lat="46.74865" lon="-0.35466">
        <ele>249.324316</ele>
        <time>2014-08-20T07:44:06Z</time>
      </trkpt>
      <trkpt lat="46.74864" lon="-0.35459">
        <ele>249.161274</ele>
        <time>2014-08-20T07:44:08Z</time>
      </trkpt>
      <trkpt lat="46.74863" lon="-0.35452">
        <ele>249.087762</ele>
        <time>2014-08-20T07:44:10Z</time>
      </trkpt>
      <trkpt lat="46.74862" lon="-0.35444">
        <ele>249.108762</ele>
        <time>2014-08-20T07:44:12Z</time>
      </trkpt>
      <trkpt lat="46.74862" lon="-0.35435">
        <ele>249.049163</ele>
        <time>2014-08-20T07:44:14Z</time>
      </trkpt>
      <trkpt lat="46.74861" lon="-0.35426">
        <ele>249.151378</ele>
        <time>2014-08-20T07:44:16Z</time>
      </trkpt>
      <trkpt lat="46.74861" lon="-0.35416">
        <ele>249.308566</ele>
        <time>2014-08-20T07:44:18Z</time>
      </trkpt>
      <trkpt lat="46.74861" lon="-0.35407">
        <ele>249.501941</ele>
        <time>2014-08-20T07:44:20Z</time>
      </trkpt>
      <trkpt lat="46.74862" lon="-0.35397">
        <ele>249.684122</ele>
        <time>2014-08-20T07:44:22Z</time>
      </trkpt>
      <trkpt lat="46.74863" lon="-0.35388">
        <ele>250.117184</ele>
        <time>2014-08-20T07:44:24Z</time>
      </trkpt>
      <trkpt lat="46.74865" lon="-0.3538">
        <ele>250.689993</ele>
        <time>2014-08-20T07:44:26Z</time>
      </trkpt>
      <trkpt lat="46.74866" lon="-0.35372">
        <ele>251.28365</ele>
        <time>2014-08-20T07:44:28Z</time>
      </trkpt>
      <trkpt lat="46.74866" lon="-0.35365">
        <ele>251.799038</ele>
        <time>2014-08-20T07:44:30Z</time>
      </trkpt>
      <trkpt lat="46.74867" lon="-0.35355">
        <ele>251.925236</ele>
        <time>2014-08-20T07:44:32Z</time>
      </trkpt>
      <trkpt lat="46.7487" lon="-0.35346">
        <ele>251.941664</ele>
        <time>2014-08-20T07:44:34Z</time>
      </trkpt>
      <trkpt lat="46.74869" lon="-0.35337">
        <ele>252.139586</ele>
        <time>2014-08-20T07:44:36Z</time>
      </trkpt>
      <trkpt lat="46.74868" lon="-0.35328">
        <ele>252.424819</ele>
        <time>2014-08-20T07:44:38Z</time>
      </trkpt>
      <trkpt lat="46.74868" lon="-0.35321">
        <ele>252.736915</ele>
        <time>2014-08-20T07:44:40Z</time>
      </trkpt>
      <trkpt lat="46.74869" lon="-0.35313">
        <ele>253.187314</ele>
        <time>2014-08-20T07:44:43Z</time>
      </trkpt>
      <trkpt lat="46.7487" lon="-0.35305">
        <ele>253.518051</ele>
        <time>2014-08-20T07:44:46Z</time>
      </trkpt>
      <trkpt lat="46.74871" lon="-0.35299">
        <ele>253.764995</ele>
        <time>2014-08-20T07:44:48Z</time>
      </trkpt>
      <trkpt lat="46.74873" lon="-0.35292">
        <ele>253.937838</ele>
        <time>2014-08-20T07:44:50Z</time>
      </trkpt>
      <trkpt lat="46.74875" lon="-0.35285">
        <ele>254.086356</ele>
        <time>2014-08-20T07:44:52Z</time>
      </trkpt>
      <trkpt lat="46.74877" lon="-0.35279">
        <ele>254.195072</ele>
        <time>2014-08-20T07:44:54Z</time>
      </trkpt>
      <trkpt lat="46.74882" lon="-0.35271">
        <ele>254.121139</ele>
        <time>2014-08-20T07:44:57Z</time>
      </trkpt>
      <trkpt lat="46.74885" lon="-0.35265">
        <ele>254.199828</ele>
        <time>2014-08-20T07:44:59Z</time>
      </trkpt>
      <trkpt lat="46.74888" lon="-0.35257">
        <ele>254.428995</ele>
        <time>2014-08-20T07:45:02Z</time>
      </trkpt>
      <trkpt lat="46.7489" lon="-0.35251">
        <ele>254.611239</ele>
        <time>2014-08-20T07:45:04Z</time>
      </trkpt>
      <trkpt lat="46.74891" lon="-0.35244">
        <ele>254.796194</ele>
        <time>2014-08-20T07:45:06Z</time>
      </trkpt>
      <trkpt lat="46.74893" lon="-0.35237">
        <ele>254.923362</ele>
        <time>2014-08-20T07:45:08Z</time>
      </trkpt>
      <trkpt lat="46.74896" lon="-0.35231">
        <ele>255.22192</ele>
        <time>2014-08-20T07:45:10Z</time>
      </trkpt>
      <trkpt lat="46.74901" lon="-0.35224">
        <ele>255.559237</ele>
        <time>2014-08-20T07:45:12Z</time>
      </trkpt>
      <trkpt lat="46.74906" lon="-0.35217">
        <ele>255.725136</ele>
        <time>2014-08-20T07:45:14Z</time>
      </trkpt>
      <trkpt lat="46.74907" lon="-0.3521">
        <ele>255.963972</ele>
        <time>2014-08-20T07:45:16Z</time>
      </trkpt>
      <trkpt lat="46.74908" lon="-0.35204">
        <ele>256.087025</ele>
        <time>2014-08-20T07:45:18Z</time>
      </trkpt>
      <trkpt lat="46.7491" lon="-0.35197">
        <ele>255.99889</ele>
        <time>2014-08-20T07:45:20Z</time>
      </trkpt>
      <trkpt lat="46.74913" lon="-0.3519">
        <ele>256.097834</ele>
        <time>2014-08-20T07:45:22Z</time>
      </trkpt>
      <trkpt lat="46.74915" lon="-0.35184">
        <ele>256.164734</ele>
        <time>2014-08-20T07:45:24Z</time>
      </trkpt>
      <trkpt lat="46.74917" lon="-0.35178">
        <ele>256.157536</ele>
        <time>2014-08-20T07:45:26Z</time>
      </trkpt>
      <trkpt lat="46.74921" lon="-0.35172">
        <ele>256.19458</ele>
        <time>2014-08-20T07:45:28Z</time>
      </trkpt>
      <trkpt lat="46.74925" lon="-0.35166">
        <ele>256.126164</ele>
        <time>2014-08-20T07:45:30Z</time>
      </trkpt>
      <trkpt lat="46.7493" lon="-0.3516">
        <ele>255.775639</ele>
        <time>2014-08-20T07:45:32Z</time>
      </trkpt>
      <trkpt lat="46.74933" lon="-0.35154">
        <ele>255.378049</ele>
        <time>2014-08-20T07:45:34Z</time>
      </trkpt>
      <trkpt lat="46.74937" lon="-0.35149">
        <ele>255.051469</ele>
        <time>2014-08-20T07:45:36Z</time>
      </trkpt>
      <trkpt lat="46.74941" lon="-0.35142">
        <ele>254.615459</ele>
        <time>2014-08-20T07:45:38Z</time>
      </trkpt>
      <trkpt lat="46.74946" lon="-0.35136">
        <ele>254.26636</ele>
        <time>2014-08-20T07:45:40Z</time>
      </trkpt>
      <trkpt lat="46.74951" lon="-0.35132">
        <ele>253.990816</ele>
        <time>2014-08-20T07:45:42Z</time>
      </trkpt>
      <trkpt lat="46.74956" lon="-0.35128">
        <ele>253.629682</ele>
        <time>2014-08-20T07:45:44Z</time>
      </trkpt>
      <trkpt lat="46.74962" lon="-0.35123">
        <ele>253.304667</ele>
        <time>2014-08-20T07:45:46Z</time>
      </trkpt>
      <trkpt lat="46.74968" lon="-0.35118">
        <ele>252.989543</ele>
        <time>2014-08-20T07:45:48Z</time>
      </trkpt>
      <trkpt lat="46.74974" lon="-0.35115">
        <ele>252.905167</ele>
        <time>2014-08-20T07:45:50Z</time>
      </trkpt>
      <trkpt lat="46.74979" lon="-0.35111">
        <ele>252.909045</ele>
        <time>2014-08-20T07:45:52Z</time>
      </trkpt>
      <trkpt lat="46.74984" lon="-0.35106">
        <ele>252.962614</ele>
        <time>2014-08-20T07:45:54Z</time>
      </trkpt>
      <trkpt lat="46.74988" lon="-0.351">
        <ele>253.069722</ele>
        <time>2014-08-20T07:45:56Z</time>
      </trkpt>
      <trkpt lat="46.74991" lon="-0.35094">
        <ele>253.268379</ele>
        <time>2014-08-20T07:45:58Z</time>
      </trkpt>
      <trkpt lat="46.74996" lon="-0.3509">
        <ele>253.298491</ele>
        <time>2014-08-20T07:46:00Z</time>
      </trkpt>
      <trkpt lat="46.75001" lon="-0.35086">
        <ele>253.256959</ele>
        <time>2014-08-20T07:46:02Z</time>
      </trkpt>
      <trkpt lat="46.75007" lon="-0.35081">
        <ele>253.173917</ele>
        <time>2014-08-20T07:46:05Z</time>
      </trkpt>
      <trkpt lat="46.7501" lon="-0.35077">
        <ele>253.16166</ele>
        <time>2014-08-20T07:46:07Z</time>
      </trkpt>
      <trkpt lat="46.75015" lon="-0.35072">
        <ele>253.113458</ele>
        <time>2014-08-20T07:46:09Z</time>
      </trkpt>
      <trkpt lat="46.7502" lon="-0.35067">
        <ele>253.145767</ele>
        <time>2014-08-20T07:46:11Z</time>
      </trkpt>
      <trkpt lat="46.75025" lon="-0.35062">
        <ele>253.105703</ele>
        <time>2014-08-20T07:46:13Z</time>
      </trkpt>
      <trkpt lat="46.7503" lon="-0.35058">
        <ele>252.924808</ele>
        <time>2014-08-20T07:46:15Z</time>
      </trkpt>
      <trkpt lat="46.75035" lon="-0.35054">
        <ele>252.630766</ele>
        <time>2014-08-20T07:46:17Z</time>
      </trkpt>
      <trkpt lat="46.75039" lon="-0.35051">
        <ele>252.397093</ele>
        <time>2014-08-20T07:46:19Z</time>
      </trkpt>
      <trkpt lat="46.75044" lon="-0.35047">
        <ele>252.137898</ele>
        <time>2014-08-20T07:46:21Z</time>
      </trkpt>
      <trkpt lat="46.75048" lon="-0.35042">
        <ele>251.852063</ele>
        <time>2014-08-20T07:46:23Z</time>
      </trkpt>
      <trkpt lat="46.75052" lon="-0.3504">
        <ele>251.719294</ele>
        <time>2014-08-20T07:46:25Z</time>
      </trkpt>
      <trkpt lat="46.75057" lon="-0.35036">
        <ele>251.616018</ele>
        <time>2014-08-20T07:46:27Z</time>
      </trkpt>
      <trkpt lat="46.7506" lon="-0.35031">
        <ele>251.511271</ele>
        <time>2014-08-20T07:46:29Z</time>
      </trkpt>
      <trkpt lat="46.75064" lon="-0.35026">
        <ele>251.535001</ele>
        <time>2014-08-20T07:46:31Z</time>
      </trkpt>
      <trkpt lat="46.75068" lon="-0.35023">
        <ele>251.541734</ele>
        <time>2014-08-20T07:46:33Z</time>
      </trkpt>
      <trkpt lat="46.75072" lon="-0.35019">
        <ele>251.335357</ele>
        <time>2014-08-20T07:46:35Z</time>
      </trkpt>
      <trkpt lat="46.75077" lon="-0.35014">
        <ele>251.018728</ele>
        <time>2014-08-20T07:46:38Z</time>
      </trkpt>
      <trkpt lat="46.75081" lon="-0.35009">
        <ele>250.753423</ele>
        <time>2014-08-20T07:46:40Z</time>
      </trkpt>
      <trkpt lat="46.75087" lon="-0.35005">
        <ele>250.386327</ele>
        <time>2014-08-20T07:46:42Z</time>
      </trkpt>
      <trkpt lat="46.75092" lon="-0.35">
        <ele>250.254847</ele>
        <time>2014-08-20T07:46:44Z</time>
      </trkpt>
      <trkpt lat="46.75096" lon="-0.34995">
        <ele>250.299287</ele>
        <time>2014-08-20T07:46:46Z</time>
      </trkpt>
      <trkpt lat="46.75099" lon="-0.3499">
        <ele>250.288285</ele>
        <time>2014-08-20T07:46:48Z</time>
      </trkpt>
      <trkpt lat="46.75104" lon="-0.34985">
        <ele>250.177248</ele>
        <time>2014-08-20T07:46:50Z</time>
      </trkpt>
      <trkpt lat="46.75109" lon="-0.34982">
        <ele>249.967031</ele>
        <time>2014-08-20T07:46:52Z</time>
      </trkpt>
      <trkpt lat="46.75113" lon="-0.34978">
        <ele>249.922871</ele>
        <time>2014-08-20T07:46:54Z</time>
      </trkpt>
      <trkpt lat="46.75118" lon="-0.34975">
        <ele>249.857337</ele>
        <time>2014-08-20T07:46:56Z</time>
      </trkpt>
      <trkpt lat="46.75123" lon="-0.34969">
        <ele>249.681828</ele>
        <time>2014-08-20T07:46:58Z</time>
      </trkpt>
      <trkpt lat="46.75128" lon="-0.34962">
        <ele>249.416933</ele>
        <time>2014-08-20T07:47:00Z</time>
      </trkpt>
      <trkpt lat="46.75133" lon="-0.34957">
        <ele>249.231949</ele>
        <time>2014-08-20T07:47:02Z</time>
      </trkpt>
      <trkpt lat="46.75138" lon="-0.34953">
        <ele>248.974644</ele>
        <time>2014-08-20T07:47:04Z</time>
      </trkpt>
      <trkpt lat="46.75142" lon="-0.34948">
        <ele>248.868234</ele>
        <time>2014-08-20T07:47:06Z</time>
      </trkpt>
      <trkpt lat="46.75147" lon="-0.34943">
        <ele>248.73347</ele>
        <time>2014-08-20T07:47:08Z</time>
      </trkpt>
      <trkpt lat="46.75151" lon="-0.34938">
        <ele>248.567193</ele>
        <time>2014-08-20T07:47:10Z</time>
      </trkpt>
      <trkpt lat="46.75155" lon="-0.34934">
        <ele>248.441842</ele>
        <time>2014-08-20T07:47:12Z</time>
      </trkpt>
      <trkpt lat="46.75161" lon="-0.34932">
        <ele>248.435647</ele>
        <time>2014-08-20T07:47:14Z</time>
      </trkpt>
      <trkpt lat="46.75168" lon="-0.34931">
        <ele>248.48889</ele>
        <time>2014-08-20T07:47:16Z</time>
      </trkpt>
      <trkpt lat="46.75172" lon="-0.34928">
        <ele>248.605251</ele>
        <time>2014-08-20T07:47:18Z</time>
      </trkpt>
      <trkpt lat="46.75176" lon="-0.34923">
        <ele>248.73951</ele>
        <time>2014-08-20T07:47:20Z</time>
      </trkpt>
      <trkpt lat="46.7518" lon="-0.34917">
        <ele>248.787004</ele>
        <time>2014-08-20T07:47:22Z</time>
      </trkpt>
      <trkpt lat="46.75183" lon="-0.34911">
        <ele>248.686194</ele>
        <time>2014-08-20T07:47:24Z</time>
      </trkpt>
      <trkpt lat="46.75187" lon="-0.34905">
        <ele>248.697218</ele>
        <time>2014-08-20T07:47:26Z</time>
      </trkpt>
      <trkpt lat="46.75191" lon="-0.34899">
        <ele>248.879679</ele>
        <time>2014-08-20T07:47:28Z</time>
      </trkpt>
      <trkpt lat="46.75196" lon="-0.34894">
        <ele>249.080881</ele>
        <time>2014-08-20T07:47:30Z</time>
      </trkpt>
      <trkpt lat="46.752" lon="-0.34889">
        <ele>249.184018</ele>
        <time>2014-08-20T07:47:32Z</time>
      </trkpt>
      <trkpt lat="46.75203" lon="-0.34883">
        <ele>249.361241</ele>
        <time>2014-08-20T07:47:34Z</time>
      </trkpt>
      <trkpt lat="46.75208" lon="-0.34879">
        <ele>249.579093</ele>
        <time>2014-08-20T07:47:36Z</time>
      </trkpt>
      <trkpt lat="46.75213" lon="-0.34876">
        <ele>249.936732</ele>
        <time>2014-08-20T07:47:38Z</time>
      </trkpt>
      <trkpt lat="46.75217" lon="-0.34871">
        <ele>250.216989</ele>
        <time>2014-08-20T07:47:40Z</time>
      </trkpt>
      <trkpt lat="46.75223" lon="-0.34868">
        <ele>250.496302</ele>
        <time>2014-08-20T07:47:42Z</time>
      </trkpt>
      <trkpt lat="46.75227" lon="-0.34864">
        <ele>250.785037</ele>
        <time>2014-08-20T07:47:44Z</time>
      </trkpt>
      <trkpt lat="46.75232" lon="-0.34859">
        <ele>250.975418</ele>
        <time>2014-08-20T07:47:46Z</time>
      </trkpt>
      <trkpt lat="46.75237" lon="-0.34856">
        <ele>251.158761</ele>
        <time>2014-08-20T07:47:48Z</time>
      </trkpt>
      <trkpt lat="46.75241" lon="-0.34851">
        <ele>251.199977</ele>
        <time>2014-08-20T07:47:50Z</time>
      </trkpt>
      <trkpt lat="46.75246" lon="-0.34849">
        <ele>251.086613</ele>
        <time>2014-08-20T07:47:52Z</time>
      </trkpt>
      <trkpt lat="46.75251" lon="-0.34847">
        <ele>250.968425</ele>
        <time>2014-08-20T07:47:54Z</time>
      </trkpt>
      <trkpt lat="46.75257" lon="-0.34846">
        <ele>250.898305</ele>
        <time>2014-08-20T07:47:56Z</time>
      </trkpt>
      <trkpt lat="46.75262" lon="-0.34843">
        <ele>251.04739</ele>
        <time>2014-08-20T07:47:58Z</time>
      </trkpt>
      <trkpt lat="46.75267" lon="-0.34841">
        <ele>251.255306</ele>
        <time>2014-08-20T07:48:00Z</time>
      </trkpt>
      <trkpt lat="46.75273" lon="-0.3484">
        <ele>251.399976</ele>
        <time>2014-08-20T07:48:02Z</time>
      </trkpt>
      <trkpt lat="46.75279" lon="-0.34838">
        <ele>251.551013</ele>
        <time>2014-08-20T07:48:04Z</time>
      </trkpt>
      <trkpt lat="46.75284" lon="-0.34835">
        <ele>251.584333</ele>
        <time>2014-08-20T07:48:06Z</time>
      </trkpt>
      <trkpt lat="46.75289" lon="-0.34832">
        <ele>251.663082</ele>
        <time>2014-08-20T07:48:08Z</time>
      </trkpt>
      <trkpt lat="46.75295" lon="-0.34829">
        <ele>251.76439</ele>
        <time>2014-08-20T07:48:10Z</time>
      </trkpt>
      <trkpt lat="46.753" lon="-0.34827">
        <ele>251.747136</ele>
        <time>2014-08-20T07:48:12Z</time>
      </trkpt>
      <trkpt lat="46.75305" lon="-0.34824">
        <ele>251.857616</ele>
        <time>2014-08-20T07:48:14Z</time>
      </trkpt>
      <trkpt lat="46.7531" lon="-0.34823">
        <ele>251.899823</ele>
        <time>2014-08-20T07:48:16Z</time>
      </trkpt>
      <trkpt lat="46.75317" lon="-0.34821">
        <ele>251.898671</ele>
        <time>2014-08-20T07:48:19Z</time>
      </trkpt>
      <trkpt lat="46.75322" lon="-0.34819">
        <ele>251.922735</ele>
        <time>2014-08-20T07:48:21Z</time>
      </trkpt>
      <trkpt lat="46.75327" lon="-0.34816">
        <ele>251.985665</ele>
        <time>2014-08-20T07:48:23Z</time>
      </trkpt>
      <trkpt lat="46.75333" lon="-0.34814">
        <ele>251.995737</ele>
        <time>2014-08-20T07:48:25Z</time>
      </trkpt>
      <trkpt lat="46.75338" lon="-0.34813">
        <ele>252.070653</ele>
        <time>2014-08-20T07:48:27Z</time>
      </trkpt>
      <trkpt lat="46.75343" lon="-0.3481">
        <ele>252.060094</ele>
        <time>2014-08-20T07:48:29Z</time>
      </trkpt>
      <trkpt lat="46.75348" lon="-0.34807">
        <ele>252.093306</ele>
        <time>2014-08-20T07:48:31Z</time>
      </trkpt>
      <trkpt lat="46.75353" lon="-0.34805">
        <ele>252.082647</ele>
        <time>2014-08-20T07:48:33Z</time>
      </trkpt>
      <trkpt lat="46.75358" lon="-0.34803">
        <ele>252.095438</ele>
        <time>2014-08-20T07:48:35Z</time>
      </trkpt>
      <trkpt lat="46.75363" lon="-0.348">
        <ele>251.867828</ele>
        <time>2014-08-20T07:48:37Z</time>
      </trkpt>
      <trkpt lat="46.75368" lon="-0.34798">
        <ele>251.692186</ele>
        <time>2014-08-20T07:48:39Z</time>
      </trkpt>
      <trkpt lat="46.75373" lon="-0.34795">
        <ele>251.689123</ele>
        <time>2014-08-20T07:48:42Z</time>
      </trkpt>
      <trkpt lat="46.75378" lon="-0.34792">
        <ele>251.585561</ele>
        <time>2014-08-20T07:48:44Z</time>
      </trkpt>
      <trkpt lat="46.75382" lon="-0.3479">
        <ele>251.467849</ele>
        <time>2014-08-20T07:48:46Z</time>
      </trkpt>
      <trkpt lat="46.75387" lon="-0.34788">
        <ele>251.335162</ele>
        <time>2014-08-20T07:48:48Z</time>
      </trkpt>
      <trkpt lat="46.75392" lon="-0.34785">
        <ele>251.064549</ele>
        <time>2014-08-20T07:48:50Z</time>
      </trkpt>
      <trkpt lat="46.75397" lon="-0.34782">
        <ele>250.85551</ele>
        <time>2014-08-20T07:48:52Z</time>
      </trkpt>
      <trkpt lat="46.75402" lon="-0.3478">
        <ele>250.744068</ele>
        <time>2014-08-20T07:48:54Z</time>
      </trkpt>
      <trkpt lat="46.75407" lon="-0.34777">
        <ele>250.742384</ele>
        <time>2014-08-20T07:48:56Z</time>
      </trkpt>
      <trkpt lat="46.75411" lon="-0.34775">
        <ele>250.745049</ele>
        <time>2014-08-20T07:48:58Z</time>
      </trkpt>
      <trkpt lat="46.75416" lon="-0.34773">
        <ele>250.708111</ele>
        <time>2014-08-20T07:49:00Z</time>
      </trkpt>
      <trkpt lat="46.75421" lon="-0.34771">
        <ele>250.627208</ele>
        <time>2014-08-20T07:49:02Z</time>
      </trkpt>
      <trkpt lat="46.75425" lon="-0.34768">
        <ele>250.576591</ele>
        <time>2014-08-20T07:49:04Z</time>
      </trkpt>
      <trkpt lat="46.7543" lon="-0.34765">
        <ele>250.67254</ele>
        <time>2014-08-20T07:49:06Z</time>
      </trkpt>
      <trkpt lat="46.75434" lon="-0.34762">
        <ele>250.933184</ele>
        <time>2014-08-20T07:49:08Z</time>
      </trkpt>
      <trkpt lat="46.75439" lon="-0.34759">
        <ele>251.250579</ele>
        <time>2014-08-20T07:49:10Z</time>
      </trkpt>
      <trkpt lat="46.75445" lon="-0.34756">
        <ele>251.414374</ele>
        <time>2014-08-20T07:49:13Z</time>
      </trkpt>
      <trkpt lat="46.75451" lon="-0.34751">
        <ele>251.300513</ele>
        <time>2014-08-20T07:49:16Z</time>
      </trkpt>
      <trkpt lat="46.75456" lon="-0.34747">
        <ele>251.134448</ele>
        <time>2014-08-20T07:49:18Z</time>
      </trkpt>
      <trkpt lat="46.7546" lon="-0.34744">
        <ele>250.924855</ele>
        <time>2014-08-20T07:49:20Z</time>
      </trkpt>
      <trkpt lat="46.75464" lon="-0.3474">
        <ele>250.685934</ele>
        <time>2014-08-20T07:49:22Z</time>
      </trkpt>
      <trkpt lat="46.75468" lon="-0.34737">
        <ele>250.366754</ele>
        <time>2014-08-20T07:49:24Z</time>
      </trkpt>
      <trkpt lat="46.75473" lon="-0.34733">
        <ele>250.092933</ele>
        <time>2014-08-20T07:49:26Z</time>
      </trkpt>
      <trkpt lat="46.75477" lon="-0.34729">
        <ele>249.743058</ele>
        <time>2014-08-20T07:49:28Z</time>
      </trkpt>
      <trkpt lat="46.75482" lon="-0.34724">
        <ele>249.331873</ele>
        <time>2014-08-20T07:49:30Z</time>
      </trkpt>
      <trkpt lat="46.75486" lon="-0.3472">
        <ele>249.102104</ele>
        <time>2014-08-20T07:49:32Z</time>
      </trkpt>
      <trkpt lat="46.75491" lon="-0.34716">
        <ele>248.948662</ele>
        <time>2014-08-20T07:49:34Z</time>
      </trkpt>
      <trkpt lat="46.75495" lon="-0.34711">
        <ele>248.730114</ele>
        <time>2014-08-20T07:49:36Z</time>
      </trkpt>
      <trkpt lat="46.75499" lon="-0.34707">
        <ele>248.605</ele>
        <time>2014-08-20T07:49:38Z</time>
      </trkpt>
      <trkpt lat="46.75503" lon="-0.34702">
        <ele>248.669618</ele>
        <time>2014-08-20T07:49:40Z</time>
      </trkpt>
      <trkpt lat="46.75508" lon="-0.34698">
        <ele>248.835463</ele>
        <time>2014-08-20T07:49:42Z</time>
      </trkpt>
      <trkpt lat="46.75513" lon="-0.34694">
        <ele>249.147233</ele>
        <time>2014-08-20T07:49:44Z</time>
      </trkpt>
      <trkpt lat="46.75517" lon="-0.34689">
        <ele>249.478912</ele>
        <time>2014-08-20T07:49:46Z</time>
      </trkpt>
      <trkpt lat="46.75521" lon="-0.34686">
        <ele>249.767602</ele>
        <time>2014-08-20T07:49:48Z</time>
      </trkpt>
      <trkpt lat="46.75525" lon="-0.34682">
        <ele>249.977646</ele>
        <time>2014-08-20T07:49:50Z</time>
      </trkpt>
      <trkpt lat="46.75529" lon="-0.34678">
        <ele>250.164459</ele>
        <time>2014-08-20T07:49:52Z</time>
      </trkpt>
      <trkpt lat="46.75534" lon="-0.34674">
        <ele>250.387517</ele>
        <time>2014-08-20T07:49:54Z</time>
      </trkpt>
      <trkpt lat="46.75539" lon="-0.3467">
        <ele>250.658491</ele>
        <time>2014-08-20T07:49:56Z</time>
      </trkpt>
      <trkpt lat="46.75543" lon="-0.34665">
        <ele>250.926253</ele>
        <time>2014-08-20T07:49:58Z</time>
      </trkpt>
      <trkpt lat="46.75548" lon="-0.34661">
        <ele>251.047475</ele>
        <time>2014-08-20T07:50:00Z</time>
      </trkpt>
      <trkpt lat="46.75552" lon="-0.34656">
        <ele>251.263116</ele>
        <time>2014-08-20T07:50:02Z</time>
      </trkpt>
      <trkpt lat="46.75557" lon="-0.34652">
        <ele>251.330688</ele>
        <time>2014-08-20T07:50:04Z</time>
      </trkpt>
      <trkpt lat="46.7556" lon="-0.34647">
        <ele>251.329865</ele>
        <time>2014-08-20T07:50:06Z</time>
      </trkpt>
      <trkpt lat="46.75564" lon="-0.34642">
        <ele>251.379363</ele>
        <time>2014-08-20T07:50:08Z</time>
      </trkpt>
      <trkpt lat="46.75568" lon="-0.34639">
        <ele>251.493396</ele>
        <time>2014-08-20T07:50:10Z</time>
      </trkpt>
      <trkpt lat="46.75572" lon="-0.34635">
        <ele>251.527659</ele>
        <time>2014-08-20T07:50:12Z</time>
      </trkpt>
      <trkpt lat="46.75577" lon="-0.34628">
        <ele>251.444821</ele>
        <time>2014-08-20T07:50:15Z</time>
      </trkpt>
      <trkpt lat="46.7558" lon="-0.34621">
        <ele>251.604429</ele>
        <time>2014-08-20T07:50:18Z</time>
      </trkpt>
      <trkpt lat="46.75582" lon="-0.34612">
        <ele>251.588467</ele>
        <time>2014-08-20T07:50:21Z</time>
      </trkpt>
      <trkpt lat="46.75584" lon="-0.34603">
        <ele>251.384441</ele>
        <time>2014-08-20T07:50:24Z</time>
      </trkpt>
      <trkpt lat="46.75585" lon="-0.34594">
        <ele>251.166335</ele>
        <time>2014-08-20T07:50:27Z</time>
      </trkpt>
      <trkpt lat="46.75586" lon="-0.34587">
        <ele>250.786783</ele>
        <time>2014-08-20T07:50:30Z</time>
      </trkpt>
      <trkpt lat="46.75587" lon="-0.3458">
        <ele>250.541819</ele>
        <time>2014-08-20T07:50:32Z</time>
      </trkpt>
      <trkpt lat="46.75588" lon="-0.34573">
        <ele>250.221522</ele>
        <time>2014-08-20T07:50:34Z</time>
      </trkpt>
      <trkpt lat="46.7559" lon="-0.34565">
        <ele>249.61679</ele>
        <time>2014-08-20T07:50:37Z</time>
      </trkpt>
      <trkpt lat="46.7559" lon="-0.34555">
        <ele>249.169071</ele>
        <time>2014-08-20T07:50:40Z</time>
      </trkpt>
      <trkpt lat="46.75592" lon="-0.34546">
        <ele>249.016418</ele>
        <time>2014-08-20T07:50:42Z</time>
      </trkpt>
      <trkpt lat="46.75593" lon="-0.34539">
        <ele>248.852983</ele>
        <time>2014-08-20T07:50:45Z</time>
      </trkpt>
      <trkpt lat="46.75594" lon="-0.3453">
        <ele>248.703107</ele>
        <time>2014-08-20T07:50:48Z</time>
      </trkpt>
      <trkpt lat="46.75595" lon="-0.34523">
        <ele>248.640813</ele>
        <time>2014-08-20T07:50:50Z</time>
      </trkpt>
      <trkpt lat="46.75596" lon="-0.34514">
        <ele>248.492647</ele>
        <time>2014-08-20T07:50:52Z</time>
      </trkpt>
      <trkpt lat="46.75597" lon="-0.34508">
        <ele>248.331872</ele>
        <time>2014-08-20T07:50:54Z</time>
      </trkpt>
      <trkpt lat="46.75598" lon="-0.34498">
        <ele>248.040645</ele>
        <time>2014-08-20T07:50:57Z</time>
      </trkpt>
      <trkpt lat="46.756" lon="-0.34491">
        <ele>247.883032</ele>
        <time>2014-08-20T07:50:59Z</time>
      </trkpt>
      <trkpt lat="46.75602" lon="-0.34484">
        <ele>247.800531</ele>
        <time>2014-08-20T07:51:01Z</time>
      </trkpt>
      <trkpt lat="46.75603" lon="-0.34476">
        <ele>247.713638</ele>
        <time>2014-08-20T07:51:03Z</time>
      </trkpt>
      <trkpt lat="46.75605" lon="-0.3447">
        <ele>247.599366</ele>
        <time>2014-08-20T07:51:05Z</time>
      </trkpt>
      <trkpt lat="46.75607" lon="-0.34464">
        <ele>247.564063</ele>
        <time>2014-08-20T07:51:07Z</time>
      </trkpt>
      <trkpt lat="46.75609" lon="-0.34457">
        <ele>247.45219</ele>
        <time>2014-08-20T07:51:09Z</time>
      </trkpt>
      <trkpt lat="46.75613" lon="-0.34449">
        <ele>247.308051</ele>
        <time>2014-08-20T07:51:12Z</time>
      </trkpt>
      <trkpt lat="46.75617" lon="-0.34446">
        <ele>247.143834</ele>
        <time>2014-08-20T07:51:14Z</time>
      </trkpt>
      <trkpt lat="46.75622" lon="-0.3444">
        <ele>246.818895</ele>
        <time>2014-08-20T07:51:17Z</time>
      </trkpt>
      <trkpt lat="46.75626" lon="-0.34436">
        <ele>246.546531</ele>
        <time>2014-08-20T07:51:19Z</time>
      </trkpt>
      <trkpt lat="46.75631" lon="-0.34432">
        <ele>246.396629</ele>
        <time>2014-08-20T07:51:21Z</time>
      </trkpt>
      <trkpt lat="46.75635" lon="-0.34428">
        <ele>246.099588</ele>
        <time>2014-08-20T07:51:23Z</time>
      </trkpt>
      <trkpt lat="46.7564" lon="-0.34424">
        <ele>245.93676</ele>
        <time>2014-08-20T07:51:25Z</time>
      </trkpt>
      <trkpt lat="46.75645" lon="-0.34418">
        <ele>245.932809</ele>
        <time>2014-08-20T07:51:27Z</time>
      </trkpt>
      <trkpt lat="46.75649" lon="-0.34412">
        <ele>246.018975</ele>
        <time>2014-08-20T07:51:29Z</time>
      </trkpt>
      <trkpt lat="46.75655" lon="-0.34408">
        <ele>246.167836</ele>
        <time>2014-08-20T07:51:31Z</time>
      </trkpt>
      <trkpt lat="46.75661" lon="-0.34406">
        <ele>246.350576</ele>
        <time>2014-08-20T07:51:33Z</time>
      </trkpt>
      <trkpt lat="46.75667" lon="-0.34404">
        <ele>246.457411</ele>
        <time>2014-08-20T07:51:35Z</time>
      </trkpt>
      <trkpt lat="46.75673" lon="-0.34404">
        <ele>246.676809</ele>
        <time>2014-08-20T07:51:37Z</time>
      </trkpt>
      <trkpt lat="46.75678" lon="-0.34404">
        <ele>246.699315</ele>
        <time>2014-08-20T07:51:39Z</time>
      </trkpt>
      <trkpt lat="46.75683" lon="-0.34402">
        <ele>246.474755</ele>
        <time>2014-08-20T07:51:41Z</time>
      </trkpt>
      <trkpt lat="46.75689" lon="-0.344">
        <ele>246.235024</ele>
        <time>2014-08-20T07:51:43Z</time>
      </trkpt>
      <trkpt lat="46.75694" lon="-0.34398">
        <ele>246.098879</ele>
        <time>2014-08-20T07:51:45Z</time>
      </trkpt>
      <trkpt lat="46.75699" lon="-0.34397">
        <ele>246.058916</ele>
        <time>2014-08-20T07:51:47Z</time>
      </trkpt>
      <trkpt lat="46.75704" lon="-0.34396">
        <ele>246.071428</ele>
        <time>2014-08-20T07:51:49Z</time>
      </trkpt>
      <trkpt lat="46.75708" lon="-0.34395">
        <ele>246.228418</ele>
        <time>2014-08-20T07:51:51Z</time>
      </trkpt>
      <trkpt lat="46.75715" lon="-0.34395">
        <ele>246.701179</ele>
        <time>2014-08-20T07:51:53Z</time>
      </trkpt>
      <trkpt lat="46.75721" lon="-0.34395">
        <ele>247.066968</ele>
        <time>2014-08-20T07:51:55Z</time>
      </trkpt>
      <trkpt lat="46.75726" lon="-0.34394">
        <ele>247.318925</ele>
        <time>2014-08-20T07:51:57Z</time>
      </trkpt>
      <trkpt lat="46.75732" lon="-0.34393">
        <ele>247.579512</ele>
        <time>2014-08-20T07:51:59Z</time>
      </trkpt>
      <trkpt lat="46.75736" lon="-0.34393">
        <ele>247.775164</ele>
        <time>2014-08-20T07:52:01Z</time>
      </trkpt>
      <trkpt lat="46.75742" lon="-0.34394">
        <ele>247.989464</ele>
        <time>2014-08-20T07:52:04Z</time>
      </trkpt>
      <trkpt lat="46.75749" lon="-0.34394">
        <ele>248.123393</ele>
        <time>2014-08-20T07:52:07Z</time>
      </trkpt>
      <trkpt lat="46.75753" lon="-0.34391">
        <ele>248.377901</ele>
        <time>2014-08-20T07:52:10Z</time>
      </trkpt>
      <trkpt lat="46.75758" lon="-0.34391">
        <ele>248.589255</ele>
        <time>2014-08-20T07:52:12Z</time>
      </trkpt>
      <trkpt lat="46.75763" lon="-0.34389">
        <ele>248.731596</ele>
        <time>2014-08-20T07:52:14Z</time>
      </trkpt>
      <trkpt lat="46.75768" lon="-0.34389">
        <ele>248.887947</ele>
        <time>2014-08-20T07:52:16Z</time>
      </trkpt>
      <trkpt lat="46.75773" lon="-0.34387">
        <ele>249.042181</ele>
        <time>2014-08-20T07:52:18Z</time>
      </trkpt>
      <trkpt lat="46.75779" lon="-0.34385">
        <ele>249.362187</ele>
        <time>2014-08-20T07:52:20Z</time>
      </trkpt>
      <trkpt lat="46.75784" lon="-0.34382">
        <ele>249.820517</ele>
        <time>2014-08-20T07:52:22Z</time>
      </trkpt>
      <trkpt lat="46.7579" lon="-0.34378">
        <ele>250.060112</ele>
        <time>2014-08-20T07:52:24Z</time>
      </trkpt>
      <trkpt lat="46.75796" lon="-0.34376">
        <ele>250.34884</ele>
        <time>2014-08-20T07:52:26Z</time>
      </trkpt>
      <trkpt lat="46.75802" lon="-0.34374">
        <ele>250.701501</ele>
        <time>2014-08-20T07:52:28Z</time>
      </trkpt>
      <trkpt lat="46.75809" lon="-0.34372">
        <ele>251.054039</ele>
        <time>2014-08-20T07:52:30Z</time>
      </trkpt>
      <trkpt lat="46.75815" lon="-0.34371">
        <ele>251.52261</ele>
        <time>2014-08-20T07:52:32Z</time>
      </trkpt>
      <trkpt lat="46.75821" lon="-0.34371">
        <ele>251.982965</ele>
        <time>2014-08-20T07:52:34Z</time>
      </trkpt>
      <trkpt lat="46.75828" lon="-0.34372">
        <ele>253.454434</ele>
        <time>2014-08-20T07:52:36Z</time>
      </trkpt>
      <trkpt lat="46.75833" lon="-0.34371">
        <ele>253.570848</ele>
        <time>2014-08-20T07:52:38Z</time>
      </trkpt>
      <trkpt lat="46.75838" lon="-0.34369">
        <ele>253.734835</ele>
        <time>2014-08-20T07:52:40Z</time>
      </trkpt>
      <trkpt lat="46.75842" lon="-0.34368">
        <ele>254.136262</ele>
        <time>2014-08-20T07:52:42Z</time>
      </trkpt>
      <trkpt lat="46.75847" lon="-0.34365">
        <ele>254.639761</ele>
        <time>2014-08-20T07:52:44Z</time>
      </trkpt>
      <trkpt lat="46.75852" lon="-0.34363">
        <ele>255.2399</ele>
        <time>2014-08-20T07:52:46Z</time>
      </trkpt>
      <trkpt lat="46.7586" lon="-0.34362">
        <ele>255.74757</ele>
        <time>2014-08-20T07:52:48Z</time>
      </trkpt>
      <trkpt lat="46.75868" lon="-0.3436">
        <ele>256.069415</ele>
        <time>2014-08-20T07:52:50Z</time>
      </trkpt>
      <trkpt lat="46.75875" lon="-0.34359">
        <ele>257.321242</ele>
        <time>2014-08-20T07:52:52Z</time>
      </trkpt>
      <trkpt lat="46.75881" lon="-0.34358">
        <ele>257.378395</ele>
        <time>2014-08-20T07:52:54Z</time>
      </trkpt>
      <trkpt lat="46.75886" lon="-0.34355">
        <ele>257.444966</ele>
        <time>2014-08-20T07:52:56Z</time>
      </trkpt>
      <trkpt lat="46.75891" lon="-0.34351">
        <ele>257.613891</ele>
        <time>2014-08-20T07:52:58Z</time>
      </trkpt>
      <trkpt lat="46.75897" lon="-0.34348">
        <ele>257.816409</ele>
        <time>2014-08-20T07:53:00Z</time>
      </trkpt>
      <trkpt lat="46.75901" lon="-0.34347">
        <ele>258.092801</ele>
        <time>2014-08-20T07:53:02Z</time>
      </trkpt>
      <trkpt lat="46.75907" lon="-0.34344">
        <ele>258.170485</ele>
        <time>2014-08-20T07:53:04Z</time>
      </trkpt>
      <trkpt lat="46.75913" lon="-0.34342">
        <ele>258.124049</ele>
        <time>2014-08-20T07:53:06Z</time>
      </trkpt>
      <trkpt lat="46.75918" lon="-0.3434">
        <ele>258.185008</ele>
        <time>2014-08-20T07:53:08Z</time>
      </trkpt>
      <trkpt lat="46.75923" lon="-0.34337">
        <ele>258.164208</ele>
        <time>2014-08-20T07:53:10Z</time>
      </trkpt>
      <trkpt lat="46.75929" lon="-0.34333">
        <ele>258.078053</ele>
        <time>2014-08-20T07:53:12Z</time>
      </trkpt>
      <trkpt lat="46.75934" lon="-0.3433">
        <ele>257.957057</ele>
        <time>2014-08-20T07:53:14Z</time>
      </trkpt>
      <trkpt lat="46.75939" lon="-0.34328">
        <ele>257.905252</ele>
        <time>2014-08-20T07:53:16Z</time>
      </trkpt>
      <trkpt lat="46.75944" lon="-0.34326">
        <ele>257.685352</ele>
        <time>2014-08-20T07:53:18Z</time>
      </trkpt>
      <trkpt lat="46.75949" lon="-0.34324">
        <ele>257.328913</ele>
        <time>2014-08-20T07:53:20Z</time>
      </trkpt>
      <trkpt lat="46.75954" lon="-0.34323">
        <ele>257.138436</ele>
        <time>2014-08-20T07:53:22Z</time>
      </trkpt>
      <trkpt lat="46.7596" lon="-0.3432">
        <ele>256.955667</ele>
        <time>2014-08-20T07:53:24Z</time>
      </trkpt>
      <trkpt lat="46.75965" lon="-0.34317">
        <ele>256.503463</ele>
        <time>2014-08-20T07:53:27Z</time>
      </trkpt>
      <trkpt lat="46.75971" lon="-0.34314">
        <ele>256.084867</ele>
        <time>2014-08-20T07:53:30Z</time>
      </trkpt>
      <trkpt lat="46.75975" lon="-0.34312">
        <ele>255.838455</ele>
        <time>2014-08-20T07:53:32Z</time>
      </trkpt>
      <trkpt lat="46.75982" lon="-0.3431">
        <ele>255.325539</ele>
        <time>2014-08-20T07:53:35Z</time>
      </trkpt>
      <trkpt lat="46.75987" lon="-0.34308">
        <ele>255.040704</ele>
        <time>2014-08-20T07:53:37Z</time>
      </trkpt>
      <trkpt lat="46.75992" lon="-0.34307">
        <ele>254.823527</ele>
        <time>2014-08-20T07:53:39Z</time>
      </trkpt>
      <trkpt lat="46.75998" lon="-0.34304">
        <ele>254.757953</ele>
        <time>2014-08-20T07:53:41Z</time>
      </trkpt>
      <trkpt lat="46.76004" lon="-0.34302">
        <ele>254.662511</ele>
        <time>2014-08-20T07:53:43Z</time>
      </trkpt>
      <trkpt lat="46.7601" lon="-0.343">
        <ele>254.470021</ele>
        <time>2014-08-20T07:53:45Z</time>
      </trkpt>
      <trkpt lat="46.76015" lon="-0.34299">
        <ele>254.292249</ele>
        <time>2014-08-20T07:53:47Z</time>
      </trkpt>
      <trkpt lat="46.76021" lon="-0.34296">
        <ele>254.151142</ele>
        <time>2014-08-20T07:53:49Z</time>
      </trkpt>
      <trkpt lat="46.76027" lon="-0.34294">
        <ele>254.125761</ele>
        <time>2014-08-20T07:53:51Z</time>
      </trkpt>
      <trkpt lat="46.76034" lon="-0.34291">
        <ele>253.961416</ele>
        <time>2014-08-20T07:53:53Z</time>
      </trkpt>
      <trkpt lat="46.76039" lon="-0.34289">
        <ele>253.843312</ele>
        <time>2014-08-20T07:53:55Z</time>
      </trkpt>
      <trkpt lat="46.76044" lon="-0.34288">
        <ele>253.756447</ele>
        <time>2014-08-20T07:53:57Z</time>
      </trkpt>
      <trkpt lat="46.76049" lon="-0.34286">
        <ele>253.706878</ele>
        <time>2014-08-20T07:53:59Z</time>
      </trkpt>
      <trkpt lat="46.76054" lon="-0.34284">
        <ele>253.628612</ele>
        <time>2014-08-20T07:54:01Z</time>
      </trkpt>
      <trkpt lat="46.7606" lon="-0.34283">
        <ele>253.436085</ele>
        <time>2014-08-20T07:54:03Z</time>
      </trkpt>
      <trkpt lat="46.76065" lon="-0.34281">
        <ele>253.114153</ele>
        <time>2014-08-20T07:54:05Z</time>
      </trkpt>
      <trkpt lat="46.76071" lon="-0.34278">
        <ele>252.817456</ele>
        <time>2014-08-20T07:54:08Z</time>
      </trkpt>
      <trkpt lat="46.76077" lon="-0.34277">
        <ele>252.484097</ele>
        <time>2014-08-20T07:54:10Z</time>
      </trkpt>
      <trkpt lat="46.76082" lon="-0.34276">
        <ele>251.986749</ele>
        <time>2014-08-20T07:54:12Z</time>
      </trkpt>
      <trkpt lat="46.76088" lon="-0.34274">
        <ele>251.612534</ele>
        <time>2014-08-20T07:54:14Z</time>
      </trkpt>
      <trkpt lat="46.76092" lon="-0.34272">
        <ele>251.400888</ele>
        <time>2014-08-20T07:54:16Z</time>
      </trkpt>
      <trkpt lat="46.76098" lon="-0.3427">
        <ele>251.253923</ele>
        <time>2014-08-20T07:54:18Z</time>
      </trkpt>
      <trkpt lat="46.76104" lon="-0.34268">
        <ele>251.052715</ele>
        <time>2014-08-20T07:54:20Z</time>
      </trkpt>
      <trkpt lat="46.76109" lon="-0.34266">
        <ele>250.791492</ele>
        <time>2014-08-20T07:54:22Z</time>
      </trkpt>
      <trkpt lat="46.76114" lon="-0.34263">
        <ele>250.657592</ele>
        <time>2014-08-20T07:54:24Z</time>
      </trkpt>
      <trkpt lat="46.76119" lon="-0.34261">
        <ele>250.513687</ele>
        <time>2014-08-20T07:54:26Z</time>
      </trkpt>
      <trkpt lat="46.76125" lon="-0.34259">
        <ele>250.338497</ele>
        <time>2014-08-20T07:54:28Z</time>
      </trkpt>
      <trkpt lat="46.76131" lon="-0.34257">
        <ele>250.133962</ele>
        <time>2014-08-20T07:54:30Z</time>
      </trkpt>
      <trkpt lat="46.76136" lon="-0.34254">
        <ele>249.894088</ele>
        <time>2014-08-20T07:54:32Z</time>
      </trkpt>
      <trkpt lat="46.76142" lon="-0.34251">
        <ele>249.626995</ele>
        <time>2014-08-20T07:54:34Z</time>
      </trkpt>
      <trkpt lat="46.76149" lon="-0.34249">
        <ele>249.441792</ele>
        <time>2014-08-20T07:54:36Z</time>
      </trkpt>
      <trkpt lat="46.76155" lon="-0.34246">
        <ele>249.179413</ele>
        <time>2014-08-20T07:54:38Z</time>
      </trkpt>
      <trkpt lat="46.76161" lon="-0.34243">
        <ele>248.922646</ele>
        <time>2014-08-20T07:54:40Z</time>
      </trkpt>
      <trkpt lat="46.76167" lon="-0.34238">
        <ele>248.743147</ele>
        <time>2014-08-20T07:54:42Z</time>
      </trkpt>
      <trkpt lat="46.76172" lon="-0.34235">
        <ele>248.594195</ele>
        <time>2014-08-20T07:54:44Z</time>
      </trkpt>
      <trkpt lat="46.76177" lon="-0.34231">
        <ele>248.411734</ele>
        <time>2014-08-20T07:54:46Z</time>
      </trkpt>
      <trkpt lat="46.76182" lon="-0.34226">
        <ele>248.342094</ele>
        <time>2014-08-20T07:54:48Z</time>
      </trkpt>
      <trkpt lat="46.76184" lon="-0.34218">
        <ele>248.31777</ele>
        <time>2014-08-20T07:54:50Z</time>
      </trkpt>
      <trkpt lat="46.76186" lon="-0.34211">
        <ele>248.347624</ele>
        <time>2014-08-20T07:54:52Z</time>
      </trkpt>
      <trkpt lat="46.76189" lon="-0.34204">
        <ele>248.504304</ele>
        <time>2014-08-20T07:54:54Z</time>
      </trkpt>
      <trkpt lat="46.76192" lon="-0.34196">
        <ele>248.477515</ele>
        <time>2014-08-20T07:54:57Z</time>
      </trkpt>
      <trkpt lat="46.76195" lon="-0.34189">
        <ele>248.455814</ele>
        <time>2014-08-20T07:54:59Z</time>
      </trkpt>
      <trkpt lat="46.76197" lon="-0.34181">
        <ele>248.442802</ele>
        <time>2014-08-20T07:55:01Z</time>
      </trkpt>
      <trkpt lat="46.762" lon="-0.34175">
        <ele>248.509726</ele>
        <time>2014-08-20T07:55:03Z</time>
      </trkpt>
      <trkpt lat="46.76205" lon="-0.34168">
        <ele>248.655559</ele>
        <time>2014-08-20T07:55:05Z</time>
      </trkpt>
      <trkpt lat="46.76209" lon="-0.3416">
        <ele>248.752686</ele>
        <time>2014-08-20T07:55:07Z</time>
      </trkpt>
      <trkpt lat="46.76213" lon="-0.34155">
        <ele>248.760758</ele>
        <time>2014-08-20T07:55:09Z</time>
      </trkpt>
      <trkpt lat="46.76217" lon="-0.34149">
        <ele>248.819382</ele>
        <time>2014-08-20T07:55:11Z</time>
      </trkpt>
      <trkpt lat="46.76219" lon="-0.3414">
        <ele>248.854849</ele>
        <time>2014-08-20T07:55:13Z</time>
      </trkpt>
      <trkpt lat="46.76221" lon="-0.34132">
        <ele>248.756636</ele>
        <time>2014-08-20T07:55:15Z</time>
      </trkpt>
      <trkpt lat="46.76226" lon="-0.34127">
        <ele>248.763749</ele>
        <time>2014-08-20T07:55:17Z</time>
      </trkpt>
      <trkpt lat="46.76231" lon="-0.34122">
        <ele>248.798304</ele>
        <time>2014-08-20T07:55:19Z</time>
      </trkpt>
      <trkpt lat="46.76233" lon="-0.34115">
        <ele>248.670266</ele>
        <time>2014-08-20T07:55:21Z</time>
      </trkpt>
      <trkpt lat="46.76237" lon="-0.34109">
        <ele>248.509039</ele>
        <time>2014-08-20T07:55:23Z</time>
      </trkpt>
      <trkpt lat="46.76241" lon="-0.34103">
        <ele>248.382807</ele>
        <time>2014-08-20T07:55:25Z</time>
      </trkpt>
      <trkpt lat="46.76244" lon="-0.34097">
        <ele>248.450425</ele>
        <time>2014-08-20T07:55:27Z</time>
      </trkpt>
      <trkpt lat="46.76248" lon="-0.3409">
        <ele>248.261169</ele>
        <time>2014-08-20T07:55:29Z</time>
      </trkpt>
      <trkpt lat="46.7625" lon="-0.34084">
        <ele>247.926521</ele>
        <time>2014-08-20T07:55:31Z</time>
      </trkpt>
      <trkpt lat="46.76254" lon="-0.3408">
        <ele>247.42324</ele>
        <time>2014-08-20T07:55:33Z</time>
      </trkpt>
      <trkpt lat="46.76257" lon="-0.34075">
        <ele>246.950235</ele>
        <time>2014-08-20T07:55:35Z</time>
      </trkpt>
      <trkpt lat="46.76261" lon="-0.34067">
        <ele>246.189465</ele>
        <time>2014-08-20T07:55:38Z</time>
      </trkpt>
      <trkpt lat="46.76263" lon="-0.34061">
        <ele>245.612802</ele>
        <time>2014-08-20T07:55:40Z</time>
      </trkpt>
      <trkpt lat="46.76268" lon="-0.34056">
        <ele>245.168504</ele>
        <time>2014-08-20T07:55:42Z</time>
      </trkpt>
      <trkpt lat="46.76271" lon="-0.3405">
        <ele>244.708152</ele>
        <time>2014-08-20T07:55:44Z</time>
      </trkpt>
      <trkpt lat="46.76274" lon="-0.34045">
        <ele>244.340874</ele>
        <time>2014-08-20T07:55:46Z</time>
      </trkpt>
      <trkpt lat="46.76278" lon="-0.3404">
        <ele>243.929093</ele>
        <time>2014-08-20T07:55:48Z</time>
      </trkpt>
      <trkpt lat="46.76283" lon="-0.34037">
        <ele>243.657527</ele>
        <time>2014-08-20T07:55:50Z</time>
      </trkpt>
      <trkpt lat="46.76288" lon="-0.34034">
        <ele>243.400482</ele>
        <time>2014-08-20T07:55:52Z</time>
      </trkpt>
      <trkpt lat="46.76293" lon="-0.34031">
        <ele>243.008323</ele>
        <time>2014-08-20T07:55:53Z</time>
      </trkpt>
      <trkpt lat="46.76298" lon="-0.34027">
        <ele>242.713216</ele>
        <time>2014-08-20T07:55:55Z</time>
      </trkpt>
      <trkpt lat="46.76303" lon="-0.34023">
        <ele>242.617346</ele>
        <time>2014-08-20T07:55:57Z</time>
      </trkpt>
      <trkpt lat="46.76308" lon="-0.34019">
        <ele>242.536178</ele>
        <time>2014-08-20T07:55:59Z</time>
      </trkpt>
      <trkpt lat="46.76314" lon="-0.34014">
        <ele>242.339185</ele>
        <time>2014-08-20T07:56:01Z</time>
      </trkpt>
      <trkpt lat="46.7632" lon="-0.34014">
        <ele>242.117295</ele>
        <time>2014-08-20T07:56:03Z</time>
      </trkpt>
      <trkpt lat="46.76326" lon="-0.34013">
        <ele>241.903546</ele>
        <time>2014-08-20T07:56:05Z</time>
      </trkpt>
      <trkpt lat="46.76331" lon="-0.34011">
        <ele>241.783269</ele>
        <time>2014-08-20T07:56:07Z</time>
      </trkpt>
      <trkpt lat="46.76336" lon="-0.34007">
        <ele>241.661403</ele>
        <time>2014-08-20T07:56:09Z</time>
      </trkpt>
      <trkpt lat="46.76341" lon="-0.34002">
        <ele>241.527612</ele>
        <time>2014-08-20T07:56:11Z</time>
      </trkpt>
      <trkpt lat="46.76346" lon="-0.33999">
        <ele>241.29317</ele>
        <time>2014-08-20T07:56:13Z</time>
      </trkpt>
      <trkpt lat="46.76352" lon="-0.33996">
        <ele>241.063932</ele>
        <time>2014-08-20T07:56:15Z</time>
      </trkpt>
      <trkpt lat="46.76358" lon="-0.33992">
        <ele>240.698381</ele>
        <time>2014-08-20T07:56:17Z</time>
      </trkpt>
      <trkpt lat="46.76364" lon="-0.33989">
        <ele>240.352331</ele>
        <time>2014-08-20T07:56:19Z</time>
      </trkpt>
      <trkpt lat="46.7637" lon="-0.33986">
        <ele>240.076696</ele>
        <time>2014-08-20T07:56:21Z</time>
      </trkpt>
      <trkpt lat="46.76375" lon="-0.33983">
        <ele>239.817551</ele>
        <time>2014-08-20T07:56:23Z</time>
      </trkpt>
      <trkpt lat="46.7638" lon="-0.3398">
        <ele>239.695008</ele>
        <time>2014-08-20T07:56:25Z</time>
      </trkpt>
      <trkpt lat="46.76384" lon="-0.33977">
        <ele>239.565848</ele>
        <time>2014-08-20T07:56:27Z</time>
      </trkpt>
      <trkpt lat="46.76389" lon="-0.33973">
        <ele>239.422608</ele>
        <time>2014-08-20T07:56:29Z</time>
      </trkpt>
      <trkpt lat="46.76394" lon="-0.33969">
        <ele>239.372905</ele>
        <time>2014-08-20T07:56:31Z</time>
      </trkpt>
      <trkpt lat="46.76398" lon="-0.33965">
        <ele>239.41223</ele>
        <time>2014-08-20T07:56:33Z</time>
      </trkpt>
      <trkpt lat="46.76402" lon="-0.33961">
        <ele>239.318077</ele>
        <time>2014-08-20T07:56:35Z</time>
      </trkpt>
      <trkpt lat="46.76407" lon="-0.33959">
        <ele>239.178931</ele>
        <time>2014-08-20T07:56:37Z</time>
      </trkpt>
      <trkpt lat="46.76412" lon="-0.33956">
        <ele>239.019655</ele>
        <time>2014-08-20T07:56:39Z</time>
      </trkpt>
      <trkpt lat="46.76418" lon="-0.33953">
        <ele>238.795438</ele>
        <time>2014-08-20T07:56:41Z</time>
      </trkpt>
      <trkpt lat="46.76423" lon="-0.33948">
        <ele>238.498537</ele>
        <time>2014-08-20T07:56:43Z</time>
      </trkpt>
      <trkpt lat="46.76427" lon="-0.33942">
        <ele>238.014731</ele>
        <time>2014-08-20T07:56:45Z</time>
      </trkpt>
      <trkpt lat="46.76433" lon="-0.33939">
        <ele>237.606157</ele>
        <time>2014-08-20T07:56:47Z</time>
      </trkpt>
      <trkpt lat="46.76438" lon="-0.33935">
        <ele>237.256539</ele>
        <time>2014-08-20T07:56:49Z</time>
      </trkpt>
      <trkpt lat="46.76443" lon="-0.33931">
        <ele>236.93655</ele>
        <time>2014-08-20T07:56:51Z</time>
      </trkpt>
      <trkpt lat="46.76449" lon="-0.33927">
        <ele>236.769051</ele>
        <time>2014-08-20T07:56:53Z</time>
      </trkpt>
      <trkpt lat="46.76454" lon="-0.33924">
        <ele>236.50266</ele>
        <time>2014-08-20T07:56:55Z</time>
      </trkpt>
      <trkpt lat="46.76459" lon="-0.33921">
        <ele>236.19731</ele>
        <time>2014-08-20T07:56:57Z</time>
      </trkpt>
      <trkpt lat="46.76465" lon="-0.33918">
        <ele>235.909758</ele>
        <time>2014-08-20T07:56:59Z</time>
      </trkpt>
      <trkpt lat="46.7647" lon="-0.33915">
        <ele>235.842746</ele>
        <time>2014-08-20T07:57:01Z</time>
      </trkpt>
      <trkpt lat="46.76476" lon="-0.33913">
        <ele>235.919856</ele>
        <time>2014-08-20T07:57:03Z</time>
      </trkpt>
      <trkpt lat="46.76481" lon="-0.33908">
        <ele>236.037197</ele>
        <time>2014-08-20T07:57:05Z</time>
      </trkpt>
      <trkpt lat="46.76486" lon="-0.33907">
        <ele>235.924016</ele>
        <time>2014-08-20T07:57:07Z</time>
      </trkpt>
      <trkpt lat="46.76491" lon="-0.33905">
        <ele>235.686636</ele>
        <time>2014-08-20T07:57:09Z</time>
      </trkpt>
      <trkpt lat="46.76497" lon="-0.33905">
        <ele>235.527816</ele>
        <time>2014-08-20T07:57:11Z</time>
      </trkpt>
      <trkpt lat="46.76505" lon="-0.33907">
        <ele>235.436423</ele>
        <time>2014-08-20T07:57:13Z</time>
      </trkpt>
      <trkpt lat="46.7651" lon="-0.33906">
        <ele>235.535783</ele>
        <time>2014-08-20T07:57:15Z</time>
      </trkpt>
      <trkpt lat="46.76516" lon="-0.33903">
        <ele>235.713819</ele>
        <time>2014-08-20T07:57:17Z</time>
      </trkpt>
      <trkpt lat="46.76522" lon="-0.33901">
        <ele>235.675065</ele>
        <time>2014-08-20T07:57:19Z</time>
      </trkpt>
      <trkpt lat="46.76528" lon="-0.33899">
        <ele>235.589374</ele>
        <time>2014-08-20T07:57:21Z</time>
      </trkpt>
      <trkpt lat="46.76534" lon="-0.33898">
        <ele>235.321768</ele>
        <time>2014-08-20T07:57:23Z</time>
      </trkpt>
      <trkpt lat="46.76539" lon="-0.33896">
        <ele>235.191773</ele>
        <time>2014-08-20T07:57:25Z</time>
      </trkpt>
      <trkpt lat="46.76545" lon="-0.33893">
        <ele>235.044783</ele>
        <time>2014-08-20T07:57:27Z</time>
      </trkpt>
      <trkpt lat="46.76549" lon="-0.33889">
        <ele>234.897028</ele>
        <time>2014-08-20T07:57:29Z</time>
      </trkpt>
      <trkpt lat="46.76555" lon="-0.33883">
        <ele>234.560557</ele>
        <time>2014-08-20T07:57:31Z</time>
      </trkpt>
      <trkpt lat="46.76561" lon="-0.33878">
        <ele>234.05001</ele>
        <time>2014-08-20T07:57:33Z</time>
      </trkpt>
      <trkpt lat="46.76567" lon="-0.33876">
        <ele>233.669014</ele>
        <time>2014-08-20T07:57:35Z</time>
      </trkpt>
      <trkpt lat="46.76573" lon="-0.33875">
        <ele>233.334137</ele>
        <time>2014-08-20T07:57:37Z</time>
      </trkpt>
      <trkpt lat="46.76577" lon="-0.33874">
        <ele>233.065099</ele>
        <time>2014-08-20T07:57:39Z</time>
      </trkpt>
      <trkpt lat="46.76582" lon="-0.33874">
        <ele>232.865595</ele>
        <time>2014-08-20T07:57:41Z</time>
      </trkpt>
      <trkpt lat="46.76587" lon="-0.33872">
        <ele>232.588102</ele>
        <time>2014-08-20T07:57:43Z</time>
      </trkpt>
      <trkpt lat="46.76591" lon="-0.3387">
        <ele>232.309625</ele>
        <time>2014-08-20T07:57:45Z</time>
      </trkpt>
      <trkpt lat="46.76596" lon="-0.33865">
        <ele>232.103714</ele>
        <time>2014-08-20T07:57:47Z</time>
      </trkpt>
      <trkpt lat="46.76599" lon="-0.3386">
        <ele>232.105684</ele>
        <time>2014-08-20T07:57:49Z</time>
      </trkpt>
      <trkpt lat="46.76601" lon="-0.33854">
        <ele>232.229003</ele>
        <time>2014-08-20T07:57:51Z</time>
      </trkpt>
      <trkpt lat="46.76604" lon="-0.33847">
        <ele>232.332125</ele>
        <time>2014-08-20T07:57:53Z</time>
      </trkpt>
      <trkpt lat="46.76607" lon="-0.3384">
        <ele>232.531877</ele>
        <time>2014-08-20T07:57:55Z</time>
      </trkpt>
      <trkpt lat="46.76612" lon="-0.33836">
        <ele>232.739116</ele>
        <time>2014-08-20T07:57:57Z</time>
      </trkpt>
      <trkpt lat="46.76618" lon="-0.33832">
        <ele>232.813991</ele>
        <time>2014-08-20T07:57:59Z</time>
      </trkpt>
      <trkpt lat="46.76621" lon="-0.33825">
        <ele>232.786025</ele>
        <time>2014-08-20T07:58:01Z</time>
      </trkpt>
      <trkpt lat="46.76625" lon="-0.3382">
        <ele>232.78574</ele>
        <time>2014-08-20T07:58:03Z</time>
      </trkpt>
      <trkpt lat="46.76629" lon="-0.33815">
        <ele>232.950788</ele>
        <time>2014-08-20T07:58:05Z</time>
      </trkpt>
      <trkpt lat="46.76633" lon="-0.33808">
        <ele>233.077156</ele>
        <time>2014-08-20T07:58:08Z</time>
      </trkpt>
      <trkpt lat="46.76637" lon="-0.33804">
        <ele>233.138467</ele>
        <time>2014-08-20T07:58:10Z</time>
      </trkpt>
      <trkpt lat="46.76641" lon="-0.33799">
        <ele>233.129625</ele>
        <time>2014-08-20T07:58:12Z</time>
      </trkpt>
      <trkpt lat="46.76646" lon="-0.33793">
        <ele>233.097445</ele>
        <time>2014-08-20T07:58:14Z</time>
      </trkpt>
      <trkpt lat="46.76649" lon="-0.33788">
        <ele>232.991745</ele>
        <time>2014-08-20T07:58:16Z</time>
      </trkpt>
      <trkpt lat="46.76654" lon="-0.33784">
        <ele>232.976038</ele>
        <time>2014-08-20T07:58:18Z</time>
      </trkpt>
      <trkpt lat="46.76659" lon="-0.3378">
        <ele>233.041701</ele>
        <time>2014-08-20T07:58:20Z</time>
      </trkpt>
      <trkpt lat="46.76664" lon="-0.33777">
        <ele>233.194824</ele>
        <time>2014-08-20T07:58:22Z</time>
      </trkpt>
      <trkpt lat="46.76669" lon="-0.33773">
        <ele>233.340536</ele>
        <time>2014-08-20T07:58:24Z</time>
      </trkpt>
      <trkpt lat="46.76674" lon="-0.3377">
        <ele>233.356634</ele>
        <time>2014-08-20T07:58:26Z</time>
      </trkpt>
      <trkpt lat="46.76678" lon="-0.33765">
        <ele>233.278366</ele>
        <time>2014-08-20T07:58:28Z</time>
      </trkpt>
      <trkpt lat="46.76682" lon="-0.3376">
        <ele>233.309512</ele>
        <time>2014-08-20T07:58:30Z</time>
      </trkpt>
      <trkpt lat="46.76687" lon="-0.33756">
        <ele>233.32691</ele>
        <time>2014-08-20T07:58:32Z</time>
      </trkpt>
      <trkpt lat="46.76692" lon="-0.3375">
        <ele>233.283045</ele>
        <time>2014-08-20T07:58:34Z</time>
      </trkpt>
      <trkpt lat="46.76696" lon="-0.33746">
        <ele>233.187425</ele>
        <time>2014-08-20T07:58:36Z</time>
      </trkpt>
      <trkpt lat="46.76701" lon="-0.33742">
        <ele>233.167766</ele>
        <time>2014-08-20T07:58:38Z</time>
      </trkpt>
      <trkpt lat="46.76704" lon="-0.33737">
        <ele>233.193229</ele>
        <time>2014-08-20T07:58:40Z</time>
      </trkpt>
      <trkpt lat="46.76709" lon="-0.33734">
        <ele>233.272341</ele>
        <time>2014-08-20T07:58:42Z</time>
      </trkpt>
      <trkpt lat="46.76714" lon="-0.33731">
        <ele>233.187498</ele>
        <time>2014-08-20T07:58:44Z</time>
      </trkpt>
      <trkpt lat="46.7672" lon="-0.33727">
        <ele>232.984486</ele>
        <time>2014-08-20T07:58:46Z</time>
      </trkpt>
      <trkpt lat="46.76725" lon="-0.33722">
        <ele>232.855452</ele>
        <time>2014-08-20T07:58:48Z</time>
      </trkpt>
      <trkpt lat="46.7673" lon="-0.3372">
        <ele>232.75849</ele>
        <time>2014-08-20T07:58:50Z</time>
      </trkpt>
      <trkpt lat="46.76735" lon="-0.33716">
        <ele>232.792639</ele>
        <time>2014-08-20T07:58:52Z</time>
      </trkpt>
      <trkpt lat="46.7674" lon="-0.33712">
        <ele>232.864742</ele>
        <time>2014-08-20T07:58:54Z</time>
      </trkpt>
      <trkpt lat="46.76744" lon="-0.33706">
        <ele>232.75716</ele>
        <time>2014-08-20T07:58:56Z</time>
      </trkpt>
      <trkpt lat="46.76749" lon="-0.337">
        <ele>232.682468</ele>
        <time>2014-08-20T07:58:58Z</time>
      </trkpt>
      <trkpt lat="46.76753" lon="-0.33696">
        <ele>232.690704</ele>
        <time>2014-08-20T07:59:00Z</time>
      </trkpt>
      <trkpt lat="46.76758" lon="-0.3369">
        <ele>232.592559</ele>
        <time>2014-08-20T07:59:02Z</time>
      </trkpt>
      <trkpt lat="46.76761" lon="-0.33684">
        <ele>232.440963</ele>
        <time>2014-08-20T07:59:04Z</time>
      </trkpt>
      <trkpt lat="46.76766" lon="-0.3368">
        <ele>232.226085</ele>
        <time>2014-08-20T07:59:06Z</time>
      </trkpt>
      <trkpt lat="46.76771" lon="-0.33676">
        <ele>232.029859</ele>
        <time>2014-08-20T07:59:08Z</time>
      </trkpt>
      <trkpt lat="46.76774" lon="-0.33672">
        <ele>231.775099</ele>
        <time>2014-08-20T07:59:10Z</time>
      </trkpt>
      <trkpt lat="46.76778" lon="-0.33668">
        <ele>231.350934</ele>
        <time>2014-08-20T07:59:12Z</time>
      </trkpt>
      <trkpt lat="46.76782" lon="-0.33663">
        <ele>230.848337</ele>
        <time>2014-08-20T07:59:14Z</time>
      </trkpt>
      <trkpt lat="46.76786" lon="-0.33659">
        <ele>230.278628</ele>
        <time>2014-08-20T07:59:16Z</time>
      </trkpt>
      <trkpt lat="46.7679" lon="-0.33654">
        <ele>229.687974</ele>
        <time>2014-08-20T07:59:18Z</time>
      </trkpt>
      <trkpt lat="46.76794" lon="-0.3365">
        <ele>229.174048</ele>
        <time>2014-08-20T07:59:20Z</time>
      </trkpt>
      <trkpt lat="46.76798" lon="-0.33645">
        <ele>228.727679</ele>
        <time>2014-08-20T07:59:22Z</time>
      </trkpt>
      <trkpt lat="46.76801" lon="-0.33639">
        <ele>228.406551</ele>
        <time>2014-08-20T07:59:24Z</time>
      </trkpt>
      <trkpt lat="46.76805" lon="-0.33634">
        <ele>228.093603</ele>
        <time>2014-08-20T07:59:26Z</time>
      </trkpt>
      <trkpt lat="46.76809" lon="-0.33629">
        <ele>227.796749</ele>
        <time>2014-08-20T07:59:28Z</time>
      </trkpt>
      <trkpt lat="46.76813" lon="-0.33623">
        <ele>227.486521</ele>
        <time>2014-08-20T07:59:30Z</time>
      </trkpt>
      <trkpt lat="46.76817" lon="-0.33617">
        <ele>227.252233</ele>
        <time>2014-08-20T07:59:32Z</time>
      </trkpt>
      <trkpt lat="46.76822" lon="-0.33612">
        <ele>227.044361</ele>
        <time>2014-08-20T07:59:34Z</time>
      </trkpt>
      <trkpt lat="46.76827" lon="-0.33606">
        <ele>226.728777</ele>
        <time>2014-08-20T07:59:36Z</time>
      </trkpt>
      <trkpt lat="46.7683" lon="-0.33601">
        <ele>226.455375</ele>
        <time>2014-08-20T07:59:38Z</time>
      </trkpt>
      <trkpt lat="46.76835" lon="-0.33595">
        <ele>226.277445</ele>
        <time>2014-08-20T07:59:41Z</time>
      </trkpt>
      <trkpt lat="46.76839" lon="-0.33589">
        <ele>226.075671</ele>
        <time>2014-08-20T07:59:43Z</time>
      </trkpt>
      <trkpt lat="46.76842" lon="-0.33583">
        <ele>225.843294</ele>
        <time>2014-08-20T07:59:45Z</time>
      </trkpt>
      <trkpt lat="46.76845" lon="-0.33577">
        <ele>225.614729</ele>
        <time>2014-08-20T07:59:47Z</time>
      </trkpt>
      <trkpt lat="46.76848" lon="-0.33571">
        <ele>225.433071</ele>
        <time>2014-08-20T07:59:49Z</time>
      </trkpt>
      <trkpt lat="46.76851" lon="-0.33565">
        <ele>225.210069</ele>
        <time>2014-08-20T07:59:51Z</time>
      </trkpt>
      <trkpt lat="46.76855" lon="-0.33558">
        <ele>225.006443</ele>
        <time>2014-08-20T07:59:53Z</time>
      </trkpt>
      <trkpt lat="46.76858" lon="-0.33552">
        <ele>224.826492</ele>
        <time>2014-08-20T07:59:55Z</time>
      </trkpt>
      <trkpt lat="46.76861" lon="-0.33548">
        <ele>224.727375</ele>
        <time>2014-08-20T07:59:57Z</time>
      </trkpt>
      <trkpt lat="46.76865" lon="-0.33541">
        <ele>224.681034</ele>
        <time>2014-08-20T07:59:59Z</time>
      </trkpt>
      <trkpt lat="46.76869" lon="-0.33534">
        <ele>224.514692</ele>
        <time>2014-08-20T08:00:01Z</time>
      </trkpt>
      <trkpt lat="46.76872" lon="-0.33529">
        <ele>224.453897</ele>
        <time>2014-08-20T08:00:03Z</time>
      </trkpt>
      <trkpt lat="46.76875" lon="-0.33523">
        <ele>224.501222</ele>
        <time>2014-08-20T08:00:05Z</time>
      </trkpt>
      <trkpt lat="46.76879" lon="-0.33516">
        <ele>224.450005</ele>
        <time>2014-08-20T08:00:07Z</time>
      </trkpt>
      <trkpt lat="46.76882" lon="-0.33509">
        <ele>224.340534</ele>
        <time>2014-08-20T08:00:09Z</time>
      </trkpt>
      <trkpt lat="46.76885" lon="-0.33504">
        <ele>224.29563</ele>
        <time>2014-08-20T08:00:11Z</time>
      </trkpt>
      <trkpt lat="46.76889" lon="-0.33497">
        <ele>224.218619</ele>
        <time>2014-08-20T08:00:13Z</time>
      </trkpt>
      <trkpt lat="46.76893" lon="-0.3349">
        <ele>224.154989</ele>
        <time>2014-08-20T08:00:15Z</time>
      </trkpt>
      <trkpt lat="46.76896" lon="-0.33484">
        <ele>224.161581</ele>
        <time>2014-08-20T08:00:17Z</time>
      </trkpt>
      <trkpt lat="46.76899" lon="-0.33479">
        <ele>224.121493</ele>
        <time>2014-08-20T08:00:19Z</time>
      </trkpt>
      <trkpt lat="46.76902" lon="-0.33473">
        <ele>224.195031</ele>
        <time>2014-08-20T08:00:21Z</time>
      </trkpt>
      <trkpt lat="46.76906" lon="-0.33466">
        <ele>224.222861</ele>
        <time>2014-08-20T08:00:23Z</time>
      </trkpt>
      <trkpt lat="46.7691" lon="-0.33458">
        <ele>224.167417</ele>
        <time>2014-08-20T08:00:25Z</time>
      </trkpt>
      <trkpt lat="46.76913" lon="-0.33451">
        <ele>223.910397</ele>
        <time>2014-08-20T08:00:27Z</time>
      </trkpt>
      <trkpt lat="46.76916" lon="-0.33445">
        <ele>223.668779</ele>
        <time>2014-08-20T08:00:29Z</time>
      </trkpt>
      <trkpt lat="46.76919" lon="-0.33439">
        <ele>223.514478</ele>
        <time>2014-08-20T08:00:31Z</time>
      </trkpt>
      <trkpt lat="46.76922" lon="-0.33433">
        <ele>223.276416</ele>
        <time>2014-08-20T08:00:33Z</time>
      </trkpt>
      <trkpt lat="46.76925" lon="-0.33426">
        <ele>223.092616</ele>
        <time>2014-08-20T08:00:35Z</time>
      </trkpt>
      <trkpt lat="46.76931" lon="-0.33419">
        <ele>222.199135</ele>
        <time>2014-08-20T08:00:37Z</time>
      </trkpt>
      <trkpt lat="46.76935" lon="-0.33413">
        <ele>221.592128</ele>
        <time>2014-08-20T08:00:39Z</time>
      </trkpt>
      <trkpt lat="46.76937" lon="-0.33407">
        <ele>221.438552</ele>
        <time>2014-08-20T08:00:42Z</time>
      </trkpt>
      <trkpt lat="46.7694" lon="-0.33399">
        <ele>221.497194</ele>
        <time>2014-08-20T08:00:45Z</time>
      </trkpt>
      <trkpt lat="46.76942" lon="-0.33392">
        <ele>221.56813</ele>
        <time>2014-08-20T08:00:47Z</time>
      </trkpt>
      <trkpt lat="46.76943" lon="-0.33382">
        <ele>221.504593</ele>
        <time>2014-08-20T08:00:50Z</time>
      </trkpt>
      <trkpt lat="46.76946" lon="-0.33374">
        <ele>221.349945</ele>
        <time>2014-08-20T08:00:52Z</time>
      </trkpt>
      <trkpt lat="46.76948" lon="-0.33366">
        <ele>221.153124</ele>
        <time>2014-08-20T08:00:54Z</time>
      </trkpt>
      <trkpt lat="46.76951" lon="-0.3336">
        <ele>220.956493</ele>
        <time>2014-08-20T08:00:56Z</time>
      </trkpt>
      <trkpt lat="46.76952" lon="-0.33353">
        <ele>220.934441</ele>
        <time>2014-08-20T08:00:58Z</time>
      </trkpt>
      <trkpt lat="46.76952" lon="-0.33346">
        <ele>221.06986</ele>
        <time>2014-08-20T08:01:00Z</time>
      </trkpt>
      <trkpt lat="46.76954" lon="-0.33338">
        <ele>221.258355</ele>
        <time>2014-08-20T08:01:02Z</time>
      </trkpt>
      <trkpt lat="46.76955" lon="-0.3333">
        <ele>221.388364</ele>
        <time>2014-08-20T08:01:04Z</time>
      </trkpt>
      <trkpt lat="46.76957" lon="-0.33323">
        <ele>221.423491</ele>
        <time>2014-08-20T08:01:06Z</time>
      </trkpt>
      <trkpt lat="46.76958" lon="-0.33316">
        <ele>221.568496</ele>
        <time>2014-08-20T08:01:08Z</time>
      </trkpt>
      <trkpt lat="46.76958" lon="-0.33309">
        <ele>221.657601</ele>
        <time>2014-08-20T08:01:10Z</time>
      </trkpt>
      <trkpt lat="46.76959" lon="-0.33301">
        <ele>221.690809</ele>
        <time>2014-08-20T08:01:12Z</time>
      </trkpt>
      <trkpt lat="46.7696" lon="-0.33293">
        <ele>221.75255</ele>
        <time>2014-08-20T08:01:14Z</time>
      </trkpt>
      <trkpt lat="46.76961" lon="-0.33286">
        <ele>221.713017</ele>
        <time>2014-08-20T08:01:16Z</time>
      </trkpt>
      <trkpt lat="46.76963" lon="-0.33279">
        <ele>221.588061</ele>
        <time>2014-08-20T08:01:18Z</time>
      </trkpt>
      <trkpt lat="46.76964" lon="-0.33271">
        <ele>221.556961</ele>
        <time>2014-08-20T08:01:20Z</time>
      </trkpt>
      <trkpt lat="46.76965" lon="-0.33264">
        <ele>221.63588</ele>
        <time>2014-08-20T08:01:22Z</time>
      </trkpt>
      <trkpt lat="46.76964" lon="-0.33257">
        <ele>221.710171</ele>
        <time>2014-08-20T08:01:24Z</time>
      </trkpt>
      <trkpt lat="46.76964" lon="-0.33249">
        <ele>221.617293</ele>
        <time>2014-08-20T08:01:26Z</time>
      </trkpt>
      <trkpt lat="46.76965" lon="-0.33242">
        <ele>221.46955</ele>
        <time>2014-08-20T08:01:28Z</time>
      </trkpt>
      <trkpt lat="46.76967" lon="-0.33232">
        <ele>221.222581</ele>
        <time>2014-08-20T08:01:31Z</time>
      </trkpt>
      <trkpt lat="46.76969" lon="-0.33225">
        <ele>221.112536</ele>
        <time>2014-08-20T08:01:33Z</time>
      </trkpt>
      <trkpt lat="46.76972" lon="-0.33218">
        <ele>221.133861</ele>
        <time>2014-08-20T08:01:35Z</time>
      </trkpt>
      <trkpt lat="46.76973" lon="-0.33211">
        <ele>221.20683</ele>
        <time>2014-08-20T08:01:37Z</time>
      </trkpt>
      <trkpt lat="46.76976" lon="-0.33204">
        <ele>221.219623</ele>
        <time>2014-08-20T08:01:39Z</time>
      </trkpt>
      <trkpt lat="46.76978" lon="-0.33197">
        <ele>221.114557</ele>
        <time>2014-08-20T08:01:41Z</time>
      </trkpt>
      <trkpt lat="46.76981" lon="-0.3319">
        <ele>220.771096</ele>
        <time>2014-08-20T08:01:43Z</time>
      </trkpt>
      <trkpt lat="46.76984" lon="-0.33182">
        <ele>220.4209</ele>
        <time>2014-08-20T08:01:45Z</time>
      </trkpt>
      <trkpt lat="46.76988" lon="-0.33175">
        <ele>220.057192</ele>
        <time>2014-08-20T08:01:47Z</time>
      </trkpt>
      <trkpt lat="46.76992" lon="-0.33169">
        <ele>219.734455</ele>
        <time>2014-08-20T08:01:49Z</time>
      </trkpt>
      <trkpt lat="46.76996" lon="-0.33164">
        <ele>219.694209</ele>
        <time>2014-08-20T08:01:51Z</time>
      </trkpt>
      <trkpt lat="46.77001" lon="-0.33157">
        <ele>219.675153</ele>
        <time>2014-08-20T08:01:53Z</time>
      </trkpt>
      <trkpt lat="46.77004" lon="-0.33151">
        <ele>219.546639</ele>
        <time>2014-08-20T08:01:55Z</time>
      </trkpt>
      <trkpt lat="46.77009" lon="-0.33145">
        <ele>219.398943</ele>
        <time>2014-08-20T08:01:57Z</time>
      </trkpt>
      <trkpt lat="46.77013" lon="-0.33139">
        <ele>219.233254</ele>
        <time>2014-08-20T08:01:59Z</time>
      </trkpt>
      <trkpt lat="46.77018" lon="-0.33135">
        <ele>219.0813</ele>
        <time>2014-08-20T08:02:01Z</time>
      </trkpt>
      <trkpt lat="46.77022" lon="-0.33129">
        <ele>219.025857</ele>
        <time>2014-08-20T08:02:03Z</time>
      </trkpt>
      <trkpt lat="46.77026" lon="-0.33124">
        <ele>218.884828</ele>
        <time>2014-08-20T08:02:05Z</time>
      </trkpt>
      <trkpt lat="46.7703" lon="-0.33119">
        <ele>218.78927</ele>
        <time>2014-08-20T08:02:07Z</time>
      </trkpt>
      <trkpt lat="46.77034" lon="-0.33113">
        <ele>218.723146</ele>
        <time>2014-08-20T08:02:09Z</time>
      </trkpt>
      <trkpt lat="46.77039" lon="-0.33107">
        <ele>218.809635</ele>
        <time>2014-08-20T08:02:11Z</time>
      </trkpt>
      <trkpt lat="46.77043" lon="-0.33103">
        <ele>218.750983</ele>
        <time>2014-08-20T08:02:13Z</time>
      </trkpt>
      <trkpt lat="46.77048" lon="-0.33098">
        <ele>218.583601</ele>
        <time>2014-08-20T08:02:15Z</time>
      </trkpt>
      <trkpt lat="46.77053" lon="-0.33094">
        <ele>218.355721</ele>
        <time>2014-08-20T08:02:17Z</time>
      </trkpt>
      <trkpt lat="46.77058" lon="-0.33089">
        <ele>218.139329</ele>
        <time>2014-08-20T08:02:19Z</time>
      </trkpt>
      <trkpt lat="46.77063" lon="-0.33084">
        <ele>218.240814</ele>
        <time>2014-08-20T08:02:21Z</time>
      </trkpt>
      <trkpt lat="46.77069" lon="-0.3308">
        <ele>218.406227</ele>
        <time>2014-08-20T08:02:23Z</time>
      </trkpt>
      <trkpt lat="46.77074" lon="-0.33075">
        <ele>218.474772</ele>
        <time>2014-08-20T08:02:25Z</time>
      </trkpt>
      <trkpt lat="46.77078" lon="-0.33071">
        <ele>218.368535</ele>
        <time>2014-08-20T08:02:27Z</time>
      </trkpt>
      <trkpt lat="46.77084" lon="-0.33066">
        <ele>218.23358</ele>
        <time>2014-08-20T08:02:29Z</time>
      </trkpt>
      <trkpt lat="46.77089" lon="-0.33059">
        <ele>218.208497</ele>
        <time>2014-08-20T08:02:31Z</time>
      </trkpt>
      <trkpt lat="46.77093" lon="-0.33054">
        <ele>218.23996</ele>
        <time>2014-08-20T08:02:33Z</time>
      </trkpt>
      <trkpt lat="46.77097" lon="-0.33049">
        <ele>218.312423</ele>
        <time>2014-08-20T08:02:35Z</time>
      </trkpt>
      <trkpt lat="46.771" lon="-0.33044">
        <ele>218.369789</ele>
        <time>2014-08-20T08:02:37Z</time>
      </trkpt>
      <trkpt lat="46.77104" lon="-0.33039">
        <ele>218.535427</ele>
        <time>2014-08-20T08:02:39Z</time>
      </trkpt>
      <trkpt lat="46.77108" lon="-0.33034">
        <ele>218.651325</ele>
        <time>2014-08-20T08:02:41Z</time>
      </trkpt>
      <trkpt lat="46.77113" lon="-0.3303">
        <ele>218.605498</ele>
        <time>2014-08-20T08:02:43Z</time>
      </trkpt>
      <trkpt lat="46.77117" lon="-0.33026">
        <ele>218.652849</ele>
        <time>2014-08-20T08:02:45Z</time>
      </trkpt>
      <trkpt lat="46.77121" lon="-0.33022">
        <ele>218.709632</ele>
        <time>2014-08-20T08:02:47Z</time>
      </trkpt>
      <trkpt lat="46.77126" lon="-0.33018">
        <ele>218.815306</ele>
        <time>2014-08-20T08:02:49Z</time>
      </trkpt>
      <trkpt lat="46.77131" lon="-0.33014">
        <ele>218.90924</ele>
        <time>2014-08-20T08:02:51Z</time>
      </trkpt>
      <trkpt lat="46.77136" lon="-0.33011">
        <ele>218.967073</ele>
        <time>2014-08-20T08:02:53Z</time>
      </trkpt>
      <trkpt lat="46.7714" lon="-0.33007">
        <ele>218.986279</ele>
        <time>2014-08-20T08:02:55Z</time>
      </trkpt>
      <trkpt lat="46.77146" lon="-0.33004">
        <ele>219.020234</ele>
        <time>2014-08-20T08:02:57Z</time>
      </trkpt>
      <trkpt lat="46.77151" lon="-0.33001">
        <ele>219.004326</ele>
        <time>2014-08-20T08:02:59Z</time>
      </trkpt>
      <trkpt lat="46.77155" lon="-0.32997">
        <ele>219.004931</ele>
        <time>2014-08-20T08:03:01Z</time>
      </trkpt>
      <trkpt lat="46.77159" lon="-0.32993">
        <ele>218.913814</ele>
        <time>2014-08-20T08:03:03Z</time>
      </trkpt>
      <trkpt lat="46.77163" lon="-0.32988">
        <ele>218.750696</ele>
        <time>2014-08-20T08:03:05Z</time>
      </trkpt>
      <trkpt lat="46.77168" lon="-0.32985">
        <ele>218.616839</ele>
        <time>2014-08-20T08:03:07Z</time>
      </trkpt>
      <trkpt lat="46.77173" lon="-0.32982">
        <ele>218.554625</ele>
        <time>2014-08-20T08:03:09Z</time>
      </trkpt>
      <trkpt lat="46.77177" lon="-0.32977">
        <ele>218.504978</ele>
        <time>2014-08-20T08:03:11Z</time>
      </trkpt>
      <trkpt lat="46.77182" lon="-0.32973">
        <ele>218.384486</ele>
        <time>2014-08-20T08:03:13Z</time>
      </trkpt>
      <trkpt lat="46.77187" lon="-0.32969">
        <ele>218.164106</ele>
        <time>2014-08-20T08:03:15Z</time>
      </trkpt>
      <trkpt lat="46.77191" lon="-0.32965">
        <ele>218.049188</ele>
        <time>2014-08-20T08:03:17Z</time>
      </trkpt>
      <trkpt lat="46.77196" lon="-0.32962">
        <ele>217.85025</ele>
        <time>2014-08-20T08:03:19Z</time>
      </trkpt>
      <trkpt lat="46.772" lon="-0.32958">
        <ele>217.694069</ele>
        <time>2014-08-20T08:03:21Z</time>
      </trkpt>
      <trkpt lat="46.77205" lon="-0.32954">
        <ele>217.436861</ele>
        <time>2014-08-20T08:03:23Z</time>
      </trkpt>
      <trkpt lat="46.77209" lon="-0.32951">
        <ele>217.042609</ele>
        <time>2014-08-20T08:03:25Z</time>
      </trkpt>
      <trkpt lat="46.77214" lon="-0.32946">
        <ele>216.67157</ele>
        <time>2014-08-20T08:03:27Z</time>
      </trkpt>
      <trkpt lat="46.77219" lon="-0.32943">
        <ele>216.328665</ele>
        <time>2014-08-20T08:03:29Z</time>
      </trkpt>
      <trkpt lat="46.77224" lon="-0.32939">
        <ele>216.106123</ele>
        <time>2014-08-20T08:03:31Z</time>
      </trkpt>
      <trkpt lat="46.77229" lon="-0.32935">
        <ele>216.009745</ele>
        <time>2014-08-20T08:03:33Z</time>
      </trkpt>
      <trkpt lat="46.77233" lon="-0.32931">
        <ele>215.811415</ele>
        <time>2014-08-20T08:03:35Z</time>
      </trkpt>
      <trkpt lat="46.77238" lon="-0.32927">
        <ele>215.543478</ele>
        <time>2014-08-20T08:03:37Z</time>
      </trkpt>
      <trkpt lat="46.77242" lon="-0.32924">
        <ele>215.26959</ele>
        <time>2014-08-20T08:03:39Z</time>
      </trkpt>
      <trkpt lat="46.77247" lon="-0.32919">
        <ele>214.973123</ele>
        <time>2014-08-20T08:03:41Z</time>
      </trkpt>
      <trkpt lat="46.77252" lon="-0.32915">
        <ele>214.748693</ele>
        <time>2014-08-20T08:03:43Z</time>
      </trkpt>
      <trkpt lat="46.77256" lon="-0.32911">
        <ele>214.712946</ele>
        <time>2014-08-20T08:03:45Z</time>
      </trkpt>
      <trkpt lat="46.77261" lon="-0.32906">
        <ele>214.635638</ele>
        <time>2014-08-20T08:03:47Z</time>
      </trkpt>
      <trkpt lat="46.77265" lon="-0.32902">
        <ele>214.60515</ele>
        <time>2014-08-20T08:03:49Z</time>
      </trkpt>
      <trkpt lat="46.77269" lon="-0.32896">
        <ele>214.582822</ele>
        <time>2014-08-20T08:03:51Z</time>
      </trkpt>
      <trkpt lat="46.77274" lon="-0.32892">
        <ele>214.472701</ele>
        <time>2014-08-20T08:03:53Z</time>
      </trkpt>
      <trkpt lat="46.77278" lon="-0.32886">
        <ele>214.3316</ele>
        <time>2014-08-20T08:03:55Z</time>
      </trkpt>
      <trkpt lat="46.77282" lon="-0.3288">
        <ele>214.3693</ele>
        <time>2014-08-20T08:03:57Z</time>
      </trkpt>
      <trkpt lat="46.77286" lon="-0.32875">
        <ele>214.195696</ele>
        <time>2014-08-20T08:03:59Z</time>
      </trkpt>
      <trkpt lat="46.77289" lon="-0.32869">
        <ele>214.037319</ele>
        <time>2014-08-20T08:04:01Z</time>
      </trkpt>
      <trkpt lat="46.77293" lon="-0.32862">
        <ele>213.838124</ele>
        <time>2014-08-20T08:04:04Z</time>
      </trkpt>
      <trkpt lat="46.77295" lon="-0.32855">
        <ele>213.780874</ele>
        <time>2014-08-20T08:04:06Z</time>
      </trkpt>
      <trkpt lat="46.77297" lon="-0.32849">
        <ele>213.668793</ele>
        <time>2014-08-20T08:04:08Z</time>
      </trkpt>
      <trkpt lat="46.77298" lon="-0.3284">
        <ele>213.642052</ele>
        <time>2014-08-20T08:04:10Z</time>
      </trkpt>
      <trkpt lat="46.77297" lon="-0.32831">
        <ele>213.737676</ele>
        <time>2014-08-20T08:04:12Z</time>
      </trkpt>
      <trkpt lat="46.77296" lon="-0.32824">
        <ele>213.878771</ele>
        <time>2014-08-20T08:04:14Z</time>
      </trkpt>
      <trkpt lat="46.77293" lon="-0.32817">
        <ele>213.970525</ele>
        <time>2014-08-20T08:04:16Z</time>
      </trkpt>
      <trkpt lat="46.7729" lon="-0.3281">
        <ele>213.901448</ele>
        <time>2014-08-20T08:04:18Z</time>
      </trkpt>
      <trkpt lat="46.77287" lon="-0.32803">
        <ele>213.814178</ele>
        <time>2014-08-20T08:04:20Z</time>
      </trkpt>
      <trkpt lat="46.77284" lon="-0.32797">
        <ele>213.686406</ele>
        <time>2014-08-20T08:04:22Z</time>
      </trkpt>
      <trkpt lat="46.77282" lon="-0.32792">
        <ele>213.647605</ele>
        <time>2014-08-20T08:04:24Z</time>
      </trkpt>
      <trkpt lat="46.77279" lon="-0.32786">
        <ele>213.808446</ele>
        <time>2014-08-20T08:04:26Z</time>
      </trkpt>
      <trkpt lat="46.77276" lon="-0.32781">
        <ele>213.955852</ele>
        <time>2014-08-20T08:04:28Z</time>
      </trkpt>
      <trkpt lat="46.77272" lon="-0.32773">
        <ele>214.170222</ele>
        <time>2014-08-20T08:04:31Z</time>
      </trkpt>
      <trkpt lat="46.77268" lon="-0.32769">
        <ele>214.432803</ele>
        <time>2014-08-20T08:04:33Z</time>
      </trkpt>
      <trkpt lat="46.77265" lon="-0.32764">
        <ele>214.699141</ele>
        <time>2014-08-20T08:04:35Z</time>
      </trkpt>
      <trkpt lat="46.77262" lon="-0.32759">
        <ele>214.799729</ele>
        <time>2014-08-20T08:04:37Z</time>
      </trkpt>
      <trkpt lat="46.77259" lon="-0.32753">
        <ele>214.957116</ele>
        <time>2014-08-20T08:04:39Z</time>
      </trkpt>
      <trkpt lat="46.77255" lon="-0.32748">
        <ele>215.176058</ele>
        <time>2014-08-20T08:04:41Z</time>
      </trkpt>
      <trkpt lat="46.77252" lon="-0.32743">
        <ele>215.3893</ele>
        <time>2014-08-20T08:04:43Z</time>
      </trkpt>
      <trkpt lat="46.77248" lon="-0.32738">
        <ele>215.471173</ele>
        <time>2014-08-20T08:04:45Z</time>
      </trkpt>
      <trkpt lat="46.77245" lon="-0.32734">
        <ele>215.531308</ele>
        <time>2014-08-20T08:04:47Z</time>
      </trkpt>
      <trkpt lat="46.77241" lon="-0.32728">
        <ele>215.581693</ele>
        <time>2014-08-20T08:04:49Z</time>
      </trkpt>
      <trkpt lat="46.77237" lon="-0.32722">
        <ele>215.612139</ele>
        <time>2014-08-20T08:04:51Z</time>
      </trkpt>
      <trkpt lat="46.77233" lon="-0.32716">
        <ele>215.479418</ele>
        <time>2014-08-20T08:04:53Z</time>
      </trkpt>
      <trkpt lat="46.7723" lon="-0.3271">
        <ele>215.407189</ele>
        <time>2014-08-20T08:04:55Z</time>
      </trkpt>
      <trkpt lat="46.77227" lon="-0.32704">
        <ele>215.415748</ele>
        <time>2014-08-20T08:04:57Z</time>
      </trkpt>
      <trkpt lat="46.77224" lon="-0.32698">
        <ele>215.384654</ele>
        <time>2014-08-20T08:04:59Z</time>
      </trkpt>
      <trkpt lat="46.7722" lon="-0.32691">
        <ele>215.388066</ele>
        <time>2014-08-20T08:05:01Z</time>
      </trkpt>
      <trkpt lat="46.77217" lon="-0.32684">
        <ele>215.487907</ele>
        <time>2014-08-20T08:05:03Z</time>
      </trkpt>
      <trkpt lat="46.77213" lon="-0.32675">
        <ele>215.495443</ele>
        <time>2014-08-20T08:05:05Z</time>
      </trkpt>
      <trkpt lat="46.7721" lon="-0.32668">
        <ele>215.435374</ele>
        <time>2014-08-20T08:05:07Z</time>
      </trkpt>
      <trkpt lat="46.77208" lon="-0.32661">
        <ele>215.255332</ele>
        <time>2014-08-20T08:05:09Z</time>
      </trkpt>
      <trkpt lat="46.77206" lon="-0.32654">
        <ele>215.176862</ele>
        <time>2014-08-20T08:05:11Z</time>
      </trkpt>
      <trkpt lat="46.77204" lon="-0.32647">
        <ele>215.117271</ele>
        <time>2014-08-20T08:05:13Z</time>
      </trkpt>
      <trkpt lat="46.77203" lon="-0.32639">
        <ele>214.883355</ele>
        <time>2014-08-20T08:05:15Z</time>
      </trkpt>
      <trkpt lat="46.77201" lon="-0.32631">
        <ele>214.678293</ele>
        <time>2014-08-20T08:05:17Z</time>
      </trkpt>
      <trkpt lat="46.77201" lon="-0.32623">
        <ele>214.56662</ele>
        <time>2014-08-20T08:05:19Z</time>
      </trkpt>
      <trkpt lat="46.772" lon="-0.32615">
        <ele>214.501902</ele>
        <time>2014-08-20T08:05:21Z</time>
      </trkpt>
      <trkpt lat="46.77199" lon="-0.32608">
        <ele>214.491605</ele>
        <time>2014-08-20T08:05:23Z</time>
      </trkpt>
      <trkpt lat="46.77197" lon="-0.326">
        <ele>214.399348</ele>
        <time>2014-08-20T08:05:25Z</time>
      </trkpt>
      <trkpt lat="46.77195" lon="-0.32593">
        <ele>214.27179</ele>
        <time>2014-08-20T08:05:27Z</time>
      </trkpt>
      <trkpt lat="46.77192" lon="-0.32585">
        <ele>214.167734</ele>
        <time>2014-08-20T08:05:29Z</time>
      </trkpt>
      <trkpt lat="46.77189" lon="-0.32577">
        <ele>214.122645</ele>
        <time>2014-08-20T08:05:31Z</time>
      </trkpt>
      <trkpt lat="46.77187" lon="-0.3257">
        <ele>214.149879</ele>
        <time>2014-08-20T08:05:33Z</time>
      </trkpt>
      <trkpt lat="46.77185" lon="-0.32562">
        <ele>214.066561</ele>
        <time>2014-08-20T08:05:35Z</time>
      </trkpt>
      <trkpt lat="46.77183" lon="-0.32555">
        <ele>213.940382</ele>
        <time>2014-08-20T08:05:37Z</time>
      </trkpt>
      <trkpt lat="46.77181" lon="-0.32548">
        <ele>213.942985</ele>
        <time>2014-08-20T08:05:39Z</time>
      </trkpt>
      <trkpt lat="46.77178" lon="-0.32541">
        <ele>213.93374</ele>
        <time>2014-08-20T08:05:41Z</time>
      </trkpt>
      <trkpt lat="46.77176" lon="-0.32535">
        <ele>213.885606</ele>
        <time>2014-08-20T08:05:43Z</time>
      </trkpt>
      <trkpt lat="46.77173" lon="-0.32527">
        <ele>214.115418</ele>
        <time>2014-08-20T08:05:46Z</time>
      </trkpt>
      <trkpt lat="46.77172" lon="-0.3252">
        <ele>214.167719</ele>
        <time>2014-08-20T08:05:48Z</time>
      </trkpt>
      <trkpt lat="46.7717" lon="-0.32511">
        <ele>214.071102</ele>
        <time>2014-08-20T08:05:51Z</time>
      </trkpt>
      <trkpt lat="46.77167" lon="-0.32507">
        <ele>214.123143</ele>
        <time>2014-08-20T08:05:53Z</time>
      </trkpt>
      <trkpt lat="46.77162" lon="-0.32504">
        <ele>214.020008</ele>
        <time>2014-08-20T08:05:55Z</time>
      </trkpt>
      <trkpt lat="46.77157" lon="-0.32501">
        <ele>213.784222</ele>
        <time>2014-08-20T08:05:57Z</time>
      </trkpt>
      <trkpt lat="46.77151" lon="-0.32502">
        <ele>213.427035</ele>
        <time>2014-08-20T08:06:00Z</time>
      </trkpt>
      <trkpt lat="46.77146" lon="-0.32508">
        <ele>213.131866</ele>
        <time>2014-08-20T08:06:03Z</time>
      </trkpt>
      <trkpt lat="46.7714" lon="-0.32513">
        <ele>212.717502</ele>
        <time>2014-08-20T08:06:06Z</time>
      </trkpt>
      <trkpt lat="46.77134" lon="-0.32511">
        <ele>212.214346</ele>
        <time>2014-08-20T08:06:09Z</time>
      </trkpt>
      <trkpt lat="46.7713" lon="-0.32507">
        <ele>211.837083</ele>
        <time>2014-08-20T08:06:11Z</time>
      </trkpt>
      <trkpt lat="46.77126" lon="-0.32503">
        <ele>211.606648</ele>
        <time>2014-08-20T08:06:13Z</time>
      </trkpt>
      <trkpt lat="46.77121" lon="-0.32499">
        <ele>211.377875</ele>
        <time>2014-08-20T08:06:15Z</time>
      </trkpt>
      <trkpt lat="46.77118" lon="-0.32493">
        <ele>211.346679</ele>
        <time>2014-08-20T08:06:17Z</time>
      </trkpt>
      <trkpt lat="46.77113" lon="-0.32487">
        <ele>211.283717</ele>
        <time>2014-08-20T08:06:20Z</time>
      </trkpt>
      <trkpt lat="46.7711" lon="-0.32483">
        <ele>211.263521</ele>
        <time>2014-08-20T08:06:22Z</time>
      </trkpt>
      <trkpt lat="46.77105" lon="-0.32475">
        <ele>211.295415</ele>
        <time>2014-08-20T08:06:25Z</time>
      </trkpt>
      <trkpt lat="46.77101" lon="-0.3247">
        <ele>211.219619</ele>
        <time>2014-08-20T08:06:27Z</time>
      </trkpt>
      <trkpt lat="46.77097" lon="-0.32463">
        <ele>211.192401</ele>
        <time>2014-08-20T08:06:29Z</time>
      </trkpt>
      <trkpt lat="46.77094" lon="-0.32456">
        <ele>211.238982</ele>
        <time>2014-08-20T08:06:31Z</time>
      </trkpt>
      <trkpt lat="46.7709" lon="-0.32449">
        <ele>211.262136</ele>
        <time>2014-08-20T08:06:33Z</time>
      </trkpt>
      <trkpt lat="46.77086" lon="-0.32443">
        <ele>211.256931</ele>
        <time>2014-08-20T08:06:35Z</time>
      </trkpt>
      <trkpt lat="46.77082" lon="-0.32437">
        <ele>211.284287</ele>
        <time>2014-08-20T08:06:37Z</time>
      </trkpt>
      <trkpt lat="46.77077" lon="-0.32431">
        <ele>211.196307</ele>
        <time>2014-08-20T08:06:39Z</time>
      </trkpt>
      <trkpt lat="46.77073" lon="-0.32424">
        <ele>211.140035</ele>
        <time>2014-08-20T08:06:41Z</time>
      </trkpt>
      <trkpt lat="46.7707" lon="-0.32418">
        <ele>211.226477</ele>
        <time>2014-08-20T08:06:43Z</time>
      </trkpt>
      <trkpt lat="46.77066" lon="-0.32412">
        <ele>211.329385</ele>
        <time>2014-08-20T08:06:45Z</time>
      </trkpt>
      <trkpt lat="46.77063" lon="-0.32405">
        <ele>211.267388</ele>
        <time>2014-08-20T08:06:47Z</time>
      </trkpt>
      <trkpt lat="46.7706" lon="-0.32399">
        <ele>211.216304</ele>
        <time>2014-08-20T08:06:49Z</time>
      </trkpt>
      <trkpt lat="46.77057" lon="-0.32393">
        <ele>211.207115</ele>
        <time>2014-08-20T08:06:51Z</time>
      </trkpt>
      <trkpt lat="46.77053" lon="-0.32388">
        <ele>211.223468</ele>
        <time>2014-08-20T08:06:53Z</time>
      </trkpt>
      <trkpt lat="46.77049" lon="-0.32382">
        <ele>211.286657</ele>
        <time>2014-08-20T08:06:55Z</time>
      </trkpt>
      <trkpt lat="46.77046" lon="-0.32376">
        <ele>211.428285</ele>
        <time>2014-08-20T08:06:57Z</time>
      </trkpt>
      <trkpt lat="46.77042" lon="-0.3237">
        <ele>211.549533</ele>
        <time>2014-08-20T08:06:59Z</time>
      </trkpt>
      <trkpt lat="46.77038" lon="-0.32364">
        <ele>211.668967</ele>
        <time>2014-08-20T08:07:01Z</time>
      </trkpt>
      <trkpt lat="46.77034" lon="-0.32359">
        <ele>211.673164</ele>
        <time>2014-08-20T08:07:03Z</time>
      </trkpt>
      <trkpt lat="46.7703" lon="-0.32353">
        <ele>211.649385</ele>
        <time>2014-08-20T08:07:05Z</time>
      </trkpt>
      <trkpt lat="46.77026" lon="-0.32347">
        <ele>211.693167</ele>
        <time>2014-08-20T08:07:07Z</time>
      </trkpt>
      <trkpt lat="46.77023" lon="-0.3234">
        <ele>211.699419</ele>
        <time>2014-08-20T08:07:09Z</time>
      </trkpt>
      <trkpt lat="46.77019" lon="-0.32334">
        <ele>211.53152</ele>
        <time>2014-08-20T08:07:11Z</time>
      </trkpt>
      <trkpt lat="46.77016" lon="-0.32328">
        <ele>211.414898</ele>
        <time>2014-08-20T08:07:13Z</time>
      </trkpt>
      <trkpt lat="46.77012" lon="-0.32322">
        <ele>211.282744</ele>
        <time>2014-08-20T08:07:15Z</time>
      </trkpt>
      <trkpt lat="46.77008" lon="-0.32314">
        <ele>211.221143</ele>
        <time>2014-08-20T08:07:18Z</time>
      </trkpt>
      <trkpt lat="46.77007" lon="-0.32308">
        <ele>211.134625</ele>
        <time>2014-08-20T08:07:20Z</time>
      </trkpt>
      <trkpt lat="46.77006" lon="-0.323">
        <ele>211.087043</ele>
        <time>2014-08-20T08:07:22Z</time>
      </trkpt>
      <trkpt lat="46.77005" lon="-0.32292">
        <ele>211.205128</ele>
        <time>2014-08-20T08:07:24Z</time>
      </trkpt>
      <trkpt lat="46.77005" lon="-0.32285">
        <ele>211.289421</ele>
        <time>2014-08-20T08:07:26Z</time>
      </trkpt>
      <trkpt lat="46.77007" lon="-0.32277">
        <ele>211.27927</ele>
        <time>2014-08-20T08:07:28Z</time>
      </trkpt>
      <trkpt lat="46.77008" lon="-0.3227">
        <ele>211.21132</ele>
        <time>2014-08-20T08:07:30Z</time>
      </trkpt>
      <trkpt lat="46.77008" lon="-0.32263">
        <ele>211.093552</ele>
        <time>2014-08-20T08:07:32Z</time>
      </trkpt>
      <trkpt lat="46.77009" lon="-0.32256">
        <ele>210.986011</ele>
        <time>2014-08-20T08:07:34Z</time>
      </trkpt>
      <trkpt lat="46.77011" lon="-0.32249">
        <ele>210.997546</ele>
        <time>2014-08-20T08:07:36Z</time>
      </trkpt>
      <trkpt lat="46.7701" lon="-0.32242">
        <ele>210.991121</ele>
        <time>2014-08-20T08:07:38Z</time>
      </trkpt>
      <trkpt lat="46.77008" lon="-0.32234">
        <ele>211.160479</ele>
        <time>2014-08-20T08:07:42Z</time>
      </trkpt>
      <trkpt lat="46.77007" lon="-0.32227">
        <ele>212.197338</ele>
        <time>2014-08-20T08:08:36Z</time>
      </trkpt>
      <trkpt lat="46.77004" lon="-0.3222">
        <ele>214.023177</ele>
        <time>2014-08-20T08:09:08Z</time>
      </trkpt>
      <trkpt lat="46.77004" lon="-0.32228">
        <ele>213.207733</ele>
        <time>2014-08-20T08:09:32Z</time>
      </trkpt>
      <trkpt lat="46.77007" lon="-0.32233">
        <ele>213.7623</ele>
        <time>2014-08-20T08:09:40Z</time>
      </trkpt>
      <trkpt lat="46.77008" lon="-0.32226">
        <ele>214.886669</ele>
        <time>2014-08-20T08:10:22Z</time>
      </trkpt>
      <trkpt lat="46.77003" lon="-0.32221">
        <ele>216.150876</ele>
        <time>2014-08-20T08:10:53Z</time>
      </trkpt>
      <trkpt lat="46.76996" lon="-0.32219">
        <ele>216.338956</ele>
        <time>2014-08-20T08:10:55Z</time>
      </trkpt>
      <trkpt lat="46.76988" lon="-0.32219">
        <ele>216.698903</ele>
        <time>2014-08-20T08:10:57Z</time>
      </trkpt>
      <trkpt lat="46.76981" lon="-0.32218">
        <ele>217.056852</ele>
        <time>2014-08-20T08:10:59Z</time>
      </trkpt>
      <trkpt lat="46.76974" lon="-0.32216">
        <ele>217.520253</ele>
        <time>2014-08-20T08:11:01Z</time>
      </trkpt>
      <trkpt lat="46.76969" lon="-0.32214">
        <ele>217.902749</ele>
        <time>2014-08-20T08:11:03Z</time>
      </trkpt>
      <trkpt lat="46.76963" lon="-0.32212">
        <ele>218.261427</ele>
        <time>2014-08-20T08:11:05Z</time>
      </trkpt>
      <trkpt lat="46.76957" lon="-0.3221">
        <ele>218.615931</ele>
        <time>2014-08-20T08:11:07Z</time>
      </trkpt>
      <trkpt lat="46.76952" lon="-0.32209">
        <ele>219.051514</ele>
        <time>2014-08-20T08:11:09Z</time>
      </trkpt>
      <trkpt lat="46.76948" lon="-0.32204">
        <ele>219.538571</ele>
        <time>2014-08-20T08:11:11Z</time>
      </trkpt>
      <trkpt lat="46.76943" lon="-0.32203">
        <ele>220.036844</ele>
        <time>2014-08-20T08:11:13Z</time>
      </trkpt>
      <trkpt lat="46.76937" lon="-0.32201">
        <ele>220.490606</ele>
        <time>2014-08-20T08:11:15Z</time>
      </trkpt>
      <trkpt lat="46.76932" lon="-0.322">
        <ele>220.747422</ele>
        <time>2014-08-20T08:11:17Z</time>
      </trkpt>
      <trkpt lat="46.76926" lon="-0.32199">
        <ele>220.979984</ele>
        <time>2014-08-20T08:11:19Z</time>
      </trkpt>
      <trkpt lat="46.7692" lon="-0.32196">
        <ele>221.131994</ele>
        <time>2014-08-20T08:11:21Z</time>
      </trkpt>
      <trkpt lat="46.76915" lon="-0.32195">
        <ele>222.193559</ele>
        <time>2014-08-20T08:11:23Z</time>
      </trkpt>
      <trkpt lat="46.7691" lon="-0.32193">
        <ele>223.301544</ele>
        <time>2014-08-20T08:11:25Z</time>
      </trkpt>
      <trkpt lat="46.76905" lon="-0.32191">
        <ele>223.575318</ele>
        <time>2014-08-20T08:11:27Z</time>
      </trkpt>
      <trkpt lat="46.769" lon="-0.32191">
        <ele>223.827109</ele>
        <time>2014-08-20T08:11:29Z</time>
      </trkpt>
      <trkpt lat="46.76893" lon="-0.3219">
        <ele>224.308383</ele>
        <time>2014-08-20T08:11:32Z</time>
      </trkpt>
      <trkpt lat="46.76887" lon="-0.32189">
        <ele>224.838896</ele>
        <time>2014-08-20T08:11:35Z</time>
      </trkpt>
      <trkpt lat="46.76881" lon="-0.32188">
        <ele>225.391932</ele>
        <time>2014-08-20T08:11:38Z</time>
      </trkpt>
      <trkpt lat="46.76875" lon="-0.32186">
        <ele>225.572378</ele>
        <time>2014-08-20T08:11:41Z</time>
      </trkpt>
      <trkpt lat="46.76868" lon="-0.32185">
        <ele>225.621555</ele>
        <time>2014-08-20T08:11:44Z</time>
      </trkpt>
      <trkpt lat="46.76862" lon="-0.32187">
        <ele>225.687967</ele>
        <time>2014-08-20T08:11:46Z</time>
      </trkpt>
      <trkpt lat="46.76856" lon="-0.32189">
        <ele>225.771965</ele>
        <time>2014-08-20T08:11:48Z</time>
      </trkpt>
      <trkpt lat="46.76848" lon="-0.32192">
        <ele>225.94472</ele>
        <time>2014-08-20T08:11:50Z</time>
      </trkpt>
      <trkpt lat="46.76841" lon="-0.32194">
        <ele>226.040143</ele>
        <time>2014-08-20T08:11:52Z</time>
      </trkpt>
      <trkpt lat="46.76835" lon="-0.32194">
        <ele>226.056237</ele>
        <time>2014-08-20T08:11:54Z</time>
      </trkpt>
      <trkpt lat="46.76829" lon="-0.32194">
        <ele>225.860656</ele>
        <time>2014-08-20T08:11:56Z</time>
      </trkpt>
      <trkpt lat="46.76823" lon="-0.32195">
        <ele>225.60896</ele>
        <time>2014-08-20T08:11:58Z</time>
      </trkpt>
      <trkpt lat="46.76818" lon="-0.32197">
        <ele>225.415804</ele>
        <time>2014-08-20T08:12:00Z</time>
      </trkpt>
      <trkpt lat="46.76813" lon="-0.32198">
        <ele>225.019016</ele>
        <time>2014-08-20T08:12:02Z</time>
      </trkpt>
      <trkpt lat="46.76808" lon="-0.32199">
        <ele>224.620282</ele>
        <time>2014-08-20T08:12:04Z</time>
      </trkpt>
      <trkpt lat="46.76803" lon="-0.32199">
        <ele>224.19319</ele>
        <time>2014-08-20T08:12:06Z</time>
      </trkpt>
      <trkpt lat="46.76798" lon="-0.322">
        <ele>223.720426</ele>
        <time>2014-08-20T08:12:08Z</time>
      </trkpt>
      <trkpt lat="46.76792" lon="-0.32199">
        <ele>219.357443</ele>
        <time>2014-08-20T08:12:10Z</time>
      </trkpt>
      <trkpt lat="46.76786" lon="-0.32201">
        <ele>219.072664</ele>
        <time>2014-08-20T08:12:12Z</time>
      </trkpt>
      <trkpt lat="46.7678" lon="-0.32202">
        <ele>218.683736</ele>
        <time>2014-08-20T08:12:14Z</time>
      </trkpt>
      <trkpt lat="46.76774" lon="-0.32202">
        <ele>218.358087</ele>
        <time>2014-08-20T08:12:16Z</time>
      </trkpt>
      <trkpt lat="46.76768" lon="-0.32202">
        <ele>218.255049</ele>
        <time>2014-08-20T08:12:18Z</time>
      </trkpt>
      <trkpt lat="46.76763" lon="-0.32202">
        <ele>218.397839</ele>
        <time>2014-08-20T08:12:20Z</time>
      </trkpt>
      <trkpt lat="46.76757" lon="-0.32203">
        <ele>218.462586</ele>
        <time>2014-08-20T08:12:22Z</time>
      </trkpt>
      <trkpt lat="46.76752" lon="-0.32203">
        <ele>218.605514</ele>
        <time>2014-08-20T08:12:24Z</time>
      </trkpt>
      <trkpt lat="46.76746" lon="-0.32204">
        <ele>218.625979</ele>
        <time>2014-08-20T08:12:26Z</time>
      </trkpt>
      <trkpt lat="46.76741" lon="-0.32206">
        <ele>218.690923</ele>
        <time>2014-08-20T08:12:28Z</time>
      </trkpt>
      <trkpt lat="46.76736" lon="-0.32207">
        <ele>218.766964</ele>
        <time>2014-08-20T08:12:30Z</time>
      </trkpt>
      <trkpt lat="46.76731" lon="-0.32207">
        <ele>218.803314</ele>
        <time>2014-08-20T08:12:32Z</time>
      </trkpt>
      <trkpt lat="46.76725" lon="-0.32208">
        <ele>218.705758</ele>
        <time>2014-08-20T08:12:34Z</time>
      </trkpt>
      <trkpt lat="46.7672" lon="-0.32209">
        <ele>218.629451</ele>
        <time>2014-08-20T08:12:36Z</time>
      </trkpt>
      <trkpt lat="46.76714" lon="-0.3221">
        <ele>218.728999</ele>
        <time>2014-08-20T08:12:38Z</time>
      </trkpt>
      <trkpt lat="46.76709" lon="-0.32212">
        <ele>218.933407</ele>
        <time>2014-08-20T08:12:40Z</time>
      </trkpt>
      <trkpt lat="46.76704" lon="-0.32212">
        <ele>219.269934</ele>
        <time>2014-08-20T08:12:42Z</time>
      </trkpt>
      <trkpt lat="46.76699" lon="-0.32212">
        <ele>219.686195</ele>
        <time>2014-08-20T08:12:44Z</time>
      </trkpt>
      <trkpt lat="46.76694" lon="-0.32211">
        <ele>219.897034</ele>
        <time>2014-08-20T08:12:46Z</time>
      </trkpt>
      <trkpt lat="46.76689" lon="-0.32212">
        <ele>219.957589</ele>
        <time>2014-08-20T08:12:48Z</time>
      </trkpt>
      <trkpt lat="46.76685" lon="-0.32214">
        <ele>219.857504</ele>
        <time>2014-08-20T08:12:50Z</time>
      </trkpt>
      <trkpt lat="46.7668" lon="-0.32216">
        <ele>219.867916</ele>
        <time>2014-08-20T08:12:52Z</time>
      </trkpt>
      <trkpt lat="46.76675" lon="-0.32217">
        <ele>220.013844</ele>
        <time>2014-08-20T08:12:54Z</time>
      </trkpt>
      <trkpt lat="46.76671" lon="-0.32218">
        <ele>220.254444</ele>
        <time>2014-08-20T08:12:56Z</time>
      </trkpt>
      <trkpt lat="46.76666" lon="-0.32216">
        <ele>220.358121</ele>
        <time>2014-08-20T08:12:58Z</time>
      </trkpt>
      <trkpt lat="46.76662" lon="-0.32216">
        <ele>220.424632</ele>
        <time>2014-08-20T08:13:00Z</time>
      </trkpt>
      <trkpt lat="46.76655" lon="-0.32217">
        <ele>220.412193</ele>
        <time>2014-08-20T08:13:03Z</time>
      </trkpt>
      <trkpt lat="46.7665" lon="-0.32217">
        <ele>220.293242</ele>
        <time>2014-08-20T08:13:05Z</time>
      </trkpt>
      <trkpt lat="46.76645" lon="-0.32216">
        <ele>220.187538</ele>
        <time>2014-08-20T08:13:07Z</time>
      </trkpt>
      <trkpt lat="46.7664" lon="-0.32216">
        <ele>219.603089</ele>
        <time>2014-08-20T08:13:09Z</time>
      </trkpt>
      <trkpt lat="46.76635" lon="-0.32217">
        <ele>219.362425</ele>
        <time>2014-08-20T08:13:11Z</time>
      </trkpt>
      <trkpt lat="46.76631" lon="-0.32219">
        <ele>219.048332</ele>
        <time>2014-08-20T08:13:13Z</time>
      </trkpt>
      <trkpt lat="46.76624" lon="-0.32219">
        <ele>218.719735</ele>
        <time>2014-08-20T08:13:16Z</time>
      </trkpt>
      <trkpt lat="46.76618" lon="-0.3222">
        <ele>218.434357</ele>
        <time>2014-08-20T08:13:19Z</time>
      </trkpt>
      <trkpt lat="46.76612" lon="-0.32218">
        <ele>218.570013</ele>
        <time>2014-08-20T08:13:22Z</time>
      </trkpt>
      <trkpt lat="46.76608" lon="-0.32213">
        <ele>218.873633</ele>
        <time>2014-08-20T08:13:25Z</time>
      </trkpt>
      <trkpt lat="46.76602" lon="-0.32211">
        <ele>219.246617</ele>
        <time>2014-08-20T08:13:28Z</time>
      </trkpt>
      <trkpt lat="46.76596" lon="-0.32213">
        <ele>219.637665</ele>
        <time>2014-08-20T08:13:31Z</time>
      </trkpt>
      <trkpt lat="46.7659" lon="-0.32211">
        <ele>219.83602</ele>
        <time>2014-08-20T08:13:34Z</time>
      </trkpt>
      <trkpt lat="46.76583" lon="-0.32211">
        <ele>220.19573</ele>
        <time>2014-08-20T08:13:37Z</time>
      </trkpt>
      <trkpt lat="46.76577" lon="-0.32212">
        <ele>220.537971</ele>
        <time>2014-08-20T08:13:40Z</time>
      </trkpt>
      <trkpt lat="46.76571" lon="-0.32213">
        <ele>220.6455</ele>
        <time>2014-08-20T08:13:43Z</time>
      </trkpt>
      <trkpt lat="46.76565" lon="-0.32213">
        <ele>220.637616</ele>
        <time>2014-08-20T08:13:46Z</time>
      </trkpt>
      <trkpt lat="46.7656" lon="-0.32211">
        <ele>220.745261</ele>
        <time>2014-08-20T08:13:49Z</time>
      </trkpt>
      <trkpt lat="46.76554" lon="-0.32211">
        <ele>220.865588</ele>
        <time>2014-08-20T08:13:52Z</time>
      </trkpt>
      <trkpt lat="46.76549" lon="-0.3221">
        <ele>220.913817</ele>
        <time>2014-08-20T08:13:55Z</time>
      </trkpt>
      <trkpt lat="46.76545" lon="-0.32215">
        <ele>220.299066</ele>
        <time>2014-08-20T08:14:16Z</time>
      </trkpt>
      <trkpt lat="46.7654" lon="-0.32211">
        <ele>223.27619</ele>
        <time>2014-08-20T08:14:47Z</time>
      </trkpt>
      <trkpt lat="46.76535" lon="-0.32211">
        <ele>223.626574</ele>
        <time>2014-08-20T08:14:50Z</time>
      </trkpt>
      <trkpt lat="46.76529" lon="-0.3221">
        <ele>223.701993</ele>
        <time>2014-08-20T08:14:54Z</time>
      </trkpt>
      <trkpt lat="46.76523" lon="-0.32209">
        <ele>223.993072</ele>
        <time>2014-08-20T08:14:57Z</time>
      </trkpt>
      <trkpt lat="46.76519" lon="-0.3221">
        <ele>224.159614</ele>
        <time>2014-08-20T08:14:59Z</time>
      </trkpt>
      <trkpt lat="46.76514" lon="-0.32211">
        <ele>224.231361</ele>
        <time>2014-08-20T08:15:01Z</time>
      </trkpt>
      <trkpt lat="46.76509" lon="-0.32212">
        <ele>224.191251</ele>
        <time>2014-08-20T08:15:03Z</time>
      </trkpt>
      <trkpt lat="46.76504" lon="-0.32213">
        <ele>224.040586</ele>
        <time>2014-08-20T08:15:05Z</time>
      </trkpt>
      <trkpt lat="46.76499" lon="-0.32215">
        <ele>223.788046</ele>
        <time>2014-08-20T08:15:07Z</time>
      </trkpt>
      <trkpt lat="46.76494" lon="-0.32216">
        <ele>223.434046</ele>
        <time>2014-08-20T08:15:09Z</time>
      </trkpt>
      <trkpt lat="46.76487" lon="-0.32219">
        <ele>222.583911</ele>
        <time>2014-08-20T08:15:13Z</time>
      </trkpt>
      <trkpt lat="46.76483" lon="-0.32221">
        <ele>222.183438</ele>
        <time>2014-08-20T08:15:15Z</time>
      </trkpt>
      <trkpt lat="46.76477" lon="-0.32223">
        <ele>221.151203</ele>
        <time>2014-08-20T08:15:20Z</time>
      </trkpt>
      <trkpt lat="46.76471" lon="-0.32224">
        <ele>221.132041</ele>
        <time>2014-08-20T08:15:24Z</time>
      </trkpt>
      <trkpt lat="46.76464" lon="-0.32223">
        <ele>221.510867</ele>
        <time>2014-08-20T08:15:28Z</time>
      </trkpt>
      <trkpt lat="46.76459" lon="-0.32222">
        <ele>221.924958</ele>
        <time>2014-08-20T08:15:30Z</time>
      </trkpt>
      <trkpt lat="46.76454" lon="-0.32221">
        <ele>222.355358</ele>
        <time>2014-08-20T08:15:32Z</time>
      </trkpt>
      <trkpt lat="46.76449" lon="-0.3222">
        <ele>222.797799</ele>
        <time>2014-08-20T08:15:34Z</time>
      </trkpt>
      <trkpt lat="46.76443" lon="-0.32218">
        <ele>223.335005</ele>
        <time>2014-08-20T08:15:37Z</time>
      </trkpt>
      <trkpt lat="46.76437" lon="-0.32215">
        <ele>223.616007</ele>
        <time>2014-08-20T08:15:40Z</time>
      </trkpt>
      <trkpt lat="46.76432" lon="-0.32214">
        <ele>223.851584</ele>
        <time>2014-08-20T08:15:44Z</time>
      </trkpt>
      <trkpt lat="46.76426" lon="-0.32213">
        <ele>224.318255</ele>
        <time>2014-08-20T08:15:47Z</time>
      </trkpt>
      <trkpt lat="46.76421" lon="-0.32212">
        <ele>224.637203</ele>
        <time>2014-08-20T08:15:50Z</time>
      </trkpt>
      <trkpt lat="46.76416" lon="-0.32212">
        <ele>225.109317</ele>
        <time>2014-08-20T08:15:54Z</time>
      </trkpt>
      <trkpt lat="46.76411" lon="-0.32214">
        <ele>225.451616</ele>
        <time>2014-08-20T08:15:59Z</time>
      </trkpt>
      <trkpt lat="46.76406" lon="-0.32216">
        <ele>225.642676</ele>
        <time>2014-08-20T08:16:05Z</time>
      </trkpt>
      <trkpt lat="46.76401" lon="-0.32215">
        <ele>225.571688</ele>
        <time>2014-08-20T08:16:10Z</time>
      </trkpt>
      <trkpt lat="46.76396" lon="-0.32213">
        <ele>225.619937</ele>
        <time>2014-08-20T08:16:14Z</time>
      </trkpt>
      <trkpt lat="46.7639" lon="-0.32213">
        <ele>226.449506</ele>
        <time>2014-08-20T08:16:19Z</time>
      </trkpt>
      <trkpt lat="46.76384" lon="-0.32211">
        <ele>226.951086</ele>
        <time>2014-08-20T08:16:24Z</time>
      </trkpt>
      <trkpt lat="46.76378" lon="-0.32209">
        <ele>227.991258</ele>
        <time>2014-08-20T08:16:29Z</time>
      </trkpt>
      <trkpt lat="46.76374" lon="-0.32207">
        <ele>228.405431</ele>
        <time>2014-08-20T08:16:31Z</time>
      </trkpt>
      <trkpt lat="46.76369" lon="-0.32204">
        <ele>228.77347</ele>
        <time>2014-08-20T08:16:33Z</time>
      </trkpt>
      <trkpt lat="46.76364" lon="-0.32202">
        <ele>229.100324</ele>
        <time>2014-08-20T08:16:35Z</time>
      </trkpt>
      <trkpt lat="46.76358" lon="-0.32197">
        <ele>229.565993</ele>
        <time>2014-08-20T08:16:39Z</time>
      </trkpt>
      <trkpt lat="46.76352" lon="-0.32194">
        <ele>229.620553</ele>
        <time>2014-08-20T08:16:42Z</time>
      </trkpt>
      <trkpt lat="46.76347" lon="-0.32193">
        <ele>229.570567</ele>
        <time>2014-08-20T08:16:45Z</time>
      </trkpt>
      <trkpt lat="46.76341" lon="-0.32196">
        <ele>229.447825</ele>
        <time>2014-08-20T08:16:53Z</time>
      </trkpt>
      <trkpt lat="46.76336" lon="-0.32199">
        <ele>229.408266</ele>
        <time>2014-08-20T08:16:56Z</time>
      </trkpt>
      <trkpt lat="46.76331" lon="-0.322">
        <ele>229.74115</ele>
        <time>2014-08-20T08:17:00Z</time>
      </trkpt>
      <trkpt lat="46.76325" lon="-0.32198">
        <ele>230.005343</ele>
        <time>2014-08-20T08:17:07Z</time>
      </trkpt>
      <trkpt lat="46.7632" lon="-0.32197">
        <ele>229.926618</ele>
        <time>2014-08-20T08:17:10Z</time>
      </trkpt>
      <trkpt lat="46.76314" lon="-0.32197">
        <ele>229.974541</ele>
        <time>2014-08-20T08:17:13Z</time>
      </trkpt>
      <trkpt lat="46.76307" lon="-0.32199">
        <ele>229.990034</ele>
        <time>2014-08-20T08:17:16Z</time>
      </trkpt>
      <trkpt lat="46.76303" lon="-0.32201">
        <ele>229.965637</ele>
        <time>2014-08-20T08:17:18Z</time>
      </trkpt>
      <trkpt lat="46.76298" lon="-0.32204">
        <ele>229.833464</ele>
        <time>2014-08-20T08:17:20Z</time>
      </trkpt>
      <trkpt lat="46.76293" lon="-0.32207">
        <ele>229.916012</ele>
        <time>2014-08-20T08:17:23Z</time>
      </trkpt>
      <trkpt lat="46.76289" lon="-0.32212">
        <ele>230.098099</ele>
        <time>2014-08-20T08:17:25Z</time>
      </trkpt>
      <trkpt lat="46.76287" lon="-0.32219">
        <ele>230.219151</ele>
        <time>2014-08-20T08:17:27Z</time>
      </trkpt>
      <trkpt lat="46.76285" lon="-0.32225">
        <ele>229.511564</ele>
        <time>2014-08-20T08:17:40Z</time>
      </trkpt>
      <trkpt lat="46.76281" lon="-0.32229">
        <ele>227.810164</ele>
        <time>2014-08-20T08:17:57Z</time>
      </trkpt>
      <trkpt lat="46.76276" lon="-0.32231">
        <ele>226.818295</ele>
        <time>2014-08-20T08:18:00Z</time>
      </trkpt>
      <trkpt lat="46.76271" lon="-0.32233">
        <ele>226.23206</ele>
        <time>2014-08-20T08:18:02Z</time>
      </trkpt>
      <trkpt lat="46.76266" lon="-0.32235">
        <ele>225.678342</ele>
        <time>2014-08-20T08:18:04Z</time>
      </trkpt>
      <trkpt lat="46.76261" lon="-0.32236">
        <ele>225.265774</ele>
        <time>2014-08-20T08:18:06Z</time>
      </trkpt>
      <trkpt lat="46.76255" lon="-0.32239">
        <ele>224.757717</ele>
        <time>2014-08-20T08:18:09Z</time>
      </trkpt>
      <trkpt lat="46.76249" lon="-0.32242">
        <ele>224.026996</ele>
        <time>2014-08-20T08:18:12Z</time>
      </trkpt>
      <trkpt lat="46.76244" lon="-0.32244">
        <ele>223.426872</ele>
        <time>2014-08-20T08:18:14Z</time>
      </trkpt>
      <trkpt lat="46.7624" lon="-0.32246">
        <ele>222.858266</ele>
        <time>2014-08-20T08:18:16Z</time>
      </trkpt>
      <trkpt lat="46.76234" lon="-0.32249">
        <ele>222.594439</ele>
        <time>2014-08-20T08:18:18Z</time>
      </trkpt>
      <trkpt lat="46.76229" lon="-0.32253">
        <ele>222.324976</ele>
        <time>2014-08-20T08:18:20Z</time>
      </trkpt>
      <trkpt lat="46.76223" lon="-0.32257">
        <ele>222.154273</ele>
        <time>2014-08-20T08:18:22Z</time>
      </trkpt>
      <trkpt lat="46.76219" lon="-0.3226">
        <ele>222.078628</ele>
        <time>2014-08-20T08:18:24Z</time>
      </trkpt>
      <trkpt lat="46.76214" lon="-0.32263">
        <ele>222.269152</ele>
        <time>2014-08-20T08:18:26Z</time>
      </trkpt>
      <trkpt lat="46.76209" lon="-0.32266">
        <ele>222.882805</ele>
        <time>2014-08-20T08:18:28Z</time>
      </trkpt>
      <trkpt lat="46.76203" lon="-0.32267">
        <ele>224.882185</ele>
        <time>2014-08-20T08:18:35Z</time>
      </trkpt>
      <trkpt lat="46.76197" lon="-0.32268">
        <ele>225.393994</ele>
        <time>2014-08-20T08:18:38Z</time>
      </trkpt>
      <trkpt lat="46.76192" lon="-0.3227">
        <ele>225.272265</ele>
        <time>2014-08-20T08:18:43Z</time>
      </trkpt>
      <trkpt lat="46.76188" lon="-0.32271">
        <ele>224.592928</ele>
        <time>2014-08-20T08:18:47Z</time>
      </trkpt>
      <trkpt lat="46.76183" lon="-0.32272">
        <ele>222.995323</ele>
        <time>2014-08-20T08:18:54Z</time>
      </trkpt>
      <trkpt lat="46.76178" lon="-0.32277">
        <ele>222.217255</ele>
        <time>2014-08-20T08:18:59Z</time>
      </trkpt>
      <trkpt lat="46.76174" lon="-0.3228">
        <ele>221.732489</ele>
        <time>2014-08-20T08:19:02Z</time>
      </trkpt>
      <trkpt lat="46.76168" lon="-0.32279">
        <ele>221.048666</ele>
        <time>2014-08-20T08:19:06Z</time>
      </trkpt>
      <trkpt lat="46.76163" lon="-0.32279">
        <ele>220.976454</ele>
        <time>2014-08-20T08:19:12Z</time>
      </trkpt>
      <trkpt lat="46.76157" lon="-0.32274">
        <ele>221.64269</ele>
        <time>2014-08-20T08:19:27Z</time>
      </trkpt>
      <trkpt lat="46.76163" lon="-0.32276">
        <ele>224.83043</ele>
        <time>2014-08-20T08:20:15Z</time>
      </trkpt>
      <trkpt lat="46.76167" lon="-0.32272">
        <ele>226.894738</ele>
        <time>2014-08-20T08:20:29Z</time>
      </trkpt>
      <trkpt lat="46.76174" lon="-0.32271">
        <ele>227.223456</ele>
        <time>2014-08-20T08:20:35Z</time>
      </trkpt>
      <trkpt lat="46.76179" lon="-0.32269">
        <ele>227.472046</ele>
        <time>2014-08-20T08:20:37Z</time>
      </trkpt>
      <trkpt lat="46.76184" lon="-0.32268">
        <ele>227.912508</ele>
        <time>2014-08-20T08:20:40Z</time>
      </trkpt>
      <trkpt lat="46.76189" lon="-0.32268">
        <ele>228.121696</ele>
        <time>2014-08-20T08:20:43Z</time>
      </trkpt>
      <trkpt lat="46.76193" lon="-0.32272">
        <ele>227.922359</ele>
        <time>2014-08-20T08:20:49Z</time>
      </trkpt>
      <trkpt lat="46.76191" lon="-0.32279">
        <ele>226.944519</ele>
        <time>2014-08-20T08:21:15Z</time>
      </trkpt>
      <trkpt lat="46.76186" lon="-0.32284">
        <ele>225.975421</ele>
        <time>2014-08-20T08:21:23Z</time>
      </trkpt>
      <trkpt lat="46.76179" lon="-0.32286">
        <ele>224.333591</ele>
        <time>2014-08-20T08:21:35Z</time>
      </trkpt>
      <trkpt lat="46.76174" lon="-0.32288">
        <ele>224.006473</ele>
        <time>2014-08-20T08:21:37Z</time>
      </trkpt>
      <trkpt lat="46.76169" lon="-0.32291">
        <ele>223.351325</ele>
        <time>2014-08-20T08:21:40Z</time>
      </trkpt>
      <trkpt lat="46.76165" lon="-0.32296">
        <ele>222.053926</ele>
        <time>2014-08-20T08:21:45Z</time>
      </trkpt>
      <trkpt lat="46.7616" lon="-0.32302">
        <ele>221.14862</ele>
        <time>2014-08-20T08:21:48Z</time>
      </trkpt>
      <trkpt lat="46.76156" lon="-0.32306">
        <ele>220.550223</ele>
        <time>2014-08-20T08:21:50Z</time>
      </trkpt>
      <trkpt lat="46.76154" lon="-0.32312">
        <ele>219.937526</ele>
        <time>2014-08-20T08:21:52Z</time>
      </trkpt>
      <trkpt lat="46.76149" lon="-0.32316">
        <ele>217.344969</ele>
        <time>2014-08-20T08:21:58Z</time>
      </trkpt>
      <trkpt lat="46.76144" lon="-0.32319">
        <ele>216.141341</ele>
        <time>2014-08-20T08:22:01Z</time>
      </trkpt>
      <trkpt lat="46.76139" lon="-0.32321">
        <ele>214.828062</ele>
        <time>2014-08-20T08:22:05Z</time>
      </trkpt>
      <trkpt lat="46.76135" lon="-0.32323">
        <ele>213.073892</ele>
        <time>2014-08-20T08:22:10Z</time>
      </trkpt>
      <trkpt lat="46.76129" lon="-0.32325">
        <ele>211.643467</ele>
        <time>2014-08-20T08:22:16Z</time>
      </trkpt>
      <trkpt lat="46.76132" lon="-0.32335">
        <ele>209.484983</ele>
        <time>2014-08-20T08:22:30Z</time>
      </trkpt>
      <trkpt lat="46.76131" lon="-0.32342">
        <ele>209.127466</ele>
        <time>2014-08-20T08:22:32Z</time>
      </trkpt>
      <trkpt lat="46.76129" lon="-0.32353">
        <ele>208.783835</ele>
        <time>2014-08-20T08:22:34Z</time>
      </trkpt>
      <trkpt lat="46.76127" lon="-0.32361">
        <ele>208.171271</ele>
        <time>2014-08-20T08:22:38Z</time>
      </trkpt>
      <trkpt lat="46.76125" lon="-0.32369">
        <ele>207.676698</ele>
        <time>2014-08-20T08:22:41Z</time>
      </trkpt>
      <trkpt lat="46.76122" lon="-0.32374">
        <ele>207.002116</ele>
        <time>2014-08-20T08:22:44Z</time>
      </trkpt>
      <trkpt lat="46.76118" lon="-0.3238">
        <ele>206.020397</ele>
        <time>2014-08-20T08:22:47Z</time>
      </trkpt>
      <trkpt lat="46.76116" lon="-0.32386">
        <ele>205.044856</ele>
        <time>2014-08-20T08:22:50Z</time>
      </trkpt>
      <trkpt lat="46.76114" lon="-0.32393">
        <ele>204.349784</ele>
        <time>2014-08-20T08:22:52Z</time>
      </trkpt>
      <trkpt lat="46.76113" lon="-0.324">
        <ele>202.976112</ele>
        <time>2014-08-20T08:22:56Z</time>
      </trkpt>
      <trkpt lat="46.76113" lon="-0.32407">
        <ele>200.456939</ele>
        <time>2014-08-20T08:23:03Z</time>
      </trkpt>
      <trkpt lat="46.76111" lon="-0.32416">
        <ele>199.48739</ele>
        <time>2014-08-20T08:23:06Z</time>
      </trkpt>
      <trkpt lat="46.76111" lon="-0.32423">
        <ele>198.349043</ele>
        <time>2014-08-20T08:23:09Z</time>
      </trkpt>
      <trkpt lat="46.76109" lon="-0.32432">
        <ele>197.184115</ele>
        <time>2014-08-20T08:23:12Z</time>
      </trkpt>
      <trkpt lat="46.76109" lon="-0.32439">
        <ele>196.398363</ele>
        <time>2014-08-20T08:23:14Z</time>
      </trkpt>
      <trkpt lat="46.76108" lon="-0.32449">
        <ele>195.774569</ele>
        <time>2014-08-20T08:23:16Z</time>
      </trkpt>
      <trkpt lat="46.76107" lon="-0.32457">
        <ele>195.071469</ele>
        <time>2014-08-20T08:23:18Z</time>
      </trkpt>
      <trkpt lat="46.76106" lon="-0.32466">
        <ele>194.32612</ele>
        <time>2014-08-20T08:23:20Z</time>
      </trkpt>
      <trkpt lat="46.76105" lon="-0.32478">
        <ele>193.599475</ele>
        <time>2014-08-20T08:23:22Z</time>
      </trkpt>
      <trkpt lat="46.76104" lon="-0.32486">
        <ele>192.964004</ele>
        <time>2014-08-20T08:23:24Z</time>
      </trkpt>
      <trkpt lat="46.76103" lon="-0.32495">
        <ele>192.43692</ele>
        <time>2014-08-20T08:23:26Z</time>
      </trkpt>
      <trkpt lat="46.76102" lon="-0.32503">
        <ele>192.057267</ele>
        <time>2014-08-20T08:23:28Z</time>
      </trkpt>
      <trkpt lat="46.76099" lon="-0.32509">
        <ele>191.782292</ele>
        <time>2014-08-20T08:23:30Z</time>
      </trkpt>
      <trkpt lat="46.76097" lon="-0.32516">
        <ele>191.687037</ele>
        <time>2014-08-20T08:23:32Z</time>
      </trkpt>
      <trkpt lat="46.76095" lon="-0.32522">
        <ele>191.483695</ele>
        <time>2014-08-20T08:23:34Z</time>
      </trkpt>
      <trkpt lat="46.76093" lon="-0.32531">
        <ele>191.389074</ele>
        <time>2014-08-20T08:23:37Z</time>
      </trkpt>
      <trkpt lat="46.76092" lon="-0.32538">
        <ele>191.598199</ele>
        <time>2014-08-20T08:23:41Z</time>
      </trkpt>
      <trkpt lat="46.76091" lon="-0.32547">
        <ele>191.694571</ele>
        <time>2014-08-20T08:23:45Z</time>
      </trkpt>
      <trkpt lat="46.76094" lon="-0.32552">
        <ele>193.109368</ele>
        <time>2014-08-20T08:23:53Z</time>
      </trkpt>
      <trkpt lat="46.76097" lon="-0.32559">
        <ele>194.207884</ele>
        <time>2014-08-20T08:23:57Z</time>
      </trkpt>
      <trkpt lat="46.76098" lon="-0.32568">
        <ele>195.083819</ele>
        <time>2014-08-20T08:24:01Z</time>
      </trkpt>
      <trkpt lat="46.76099" lon="-0.32576">
        <ele>195.602161</ele>
        <time>2014-08-20T08:24:04Z</time>
      </trkpt>
      <trkpt lat="46.76099" lon="-0.32583">
        <ele>195.860078</ele>
        <time>2014-08-20T08:24:07Z</time>
      </trkpt>
      <trkpt lat="46.76096" lon="-0.32589">
        <ele>196.012214</ele>
        <time>2014-08-20T08:24:11Z</time>
      </trkpt>
      <trkpt lat="46.76093" lon="-0.32595">
        <ele>195.809433</ele>
        <time>2014-08-20T08:24:15Z</time>
      </trkpt>
      <trkpt lat="46.76092" lon="-0.32603">
        <ele>195.396475</ele>
        <time>2014-08-20T08:24:19Z</time>
      </trkpt>
      <trkpt lat="46.76091" lon="-0.32612">
        <ele>195.270308</ele>
        <time>2014-08-20T08:24:22Z</time>
      </trkpt>
      <trkpt lat="46.76091" lon="-0.32618">
        <ele>195.016726</ele>
        <time>2014-08-20T08:24:24Z</time>
      </trkpt>
      <trkpt lat="46.76092" lon="-0.32625">
        <ele>194.752587</ele>
        <time>2014-08-20T08:24:26Z</time>
      </trkpt>
      <trkpt lat="46.76094" lon="-0.32632">
        <ele>194.492226</ele>
        <time>2014-08-20T08:24:28Z</time>
      </trkpt>
      <trkpt lat="46.76095" lon="-0.32639">
        <ele>194.280427</ele>
        <time>2014-08-20T08:24:30Z</time>
      </trkpt>
      <trkpt lat="46.76096" lon="-0.32649">
        <ele>194.007367</ele>
        <time>2014-08-20T08:24:34Z</time>
      </trkpt>
      <trkpt lat="46.76096" lon="-0.32656">
        <ele>194.11867</ele>
        <time>2014-08-20T08:24:36Z</time>
      </trkpt>
      <trkpt lat="46.76096" lon="-0.32663">
        <ele>194.299918</ele>
        <time>2014-08-20T08:24:38Z</time>
      </trkpt>
      <trkpt lat="46.76094" lon="-0.32672">
        <ele>194.896296</ele>
        <time>2014-08-20T08:24:41Z</time>
      </trkpt>
      <trkpt lat="46.76092" lon="-0.32679">
        <ele>195.422573</ele>
        <time>2014-08-20T08:24:43Z</time>
      </trkpt>
      <trkpt lat="46.76091" lon="-0.32685">
        <ele>195.96888</ele>
        <time>2014-08-20T08:24:45Z</time>
      </trkpt>
      <trkpt lat="46.7609" lon="-0.32692">
        <ele>196.44587</ele>
        <time>2014-08-20T08:24:47Z</time>
      </trkpt>
      <trkpt lat="46.76089" lon="-0.32701">
        <ele>197.131427</ele>
        <time>2014-08-20T08:24:50Z</time>
      </trkpt>
      <trkpt lat="46.76088" lon="-0.32711">
        <ele>198.281986</ele>
        <time>2014-08-20T08:24:54Z</time>
      </trkpt>
      <trkpt lat="46.76087" lon="-0.3272">
        <ele>199.400817</ele>
        <time>2014-08-20T08:24:58Z</time>
      </trkpt>
      <trkpt lat="46.76086" lon="-0.32727">
        <ele>200.123455</ele>
        <time>2014-08-20T08:25:01Z</time>
      </trkpt>
      <trkpt lat="46.76086" lon="-0.32737">
        <ele>200.504022</ele>
        <time>2014-08-20T08:25:04Z</time>
      </trkpt>
      <trkpt lat="46.76087" lon="-0.32747">
        <ele>200.702046</ele>
        <time>2014-08-20T08:25:07Z</time>
      </trkpt>
      <trkpt lat="46.76089" lon="-0.32756">
        <ele>200.827144</ele>
        <time>2014-08-20T08:25:10Z</time>
      </trkpt>
      <trkpt lat="46.7609" lon="-0.32762">
        <ele>200.956637</ele>
        <time>2014-08-20T08:25:12Z</time>
      </trkpt>
      <trkpt lat="46.76091" lon="-0.32769">
        <ele>201.196832</ele>
        <time>2014-08-20T08:25:14Z</time>
      </trkpt>
      <trkpt lat="46.76092" lon="-0.32776">
        <ele>201.617571</ele>
        <time>2014-08-20T08:25:16Z</time>
      </trkpt>
      <trkpt lat="46.76093" lon="-0.32785">
        <ele>202.433725</ele>
        <time>2014-08-20T08:25:19Z</time>
      </trkpt>
      <trkpt lat="46.76093" lon="-0.32794">
        <ele>204.107024</ele>
        <time>2014-08-20T08:25:24Z</time>
      </trkpt>
      <trkpt lat="46.76094" lon="-0.32801">
        <ele>205.165997</ele>
        <time>2014-08-20T08:25:27Z</time>
      </trkpt>
      <trkpt lat="46.76095" lon="-0.32807">
        <ele>207.505783</ele>
        <time>2014-08-20T08:25:31Z</time>
      </trkpt>
      <trkpt lat="46.7609" lon="-0.32809">
        <ele>212.567653</ele>
        <time>2014-08-20T08:25:41Z</time>
      </trkpt>
      <trkpt lat="46.76085" lon="-0.3281">
        <ele>216.60465</ele>
        <time>2014-08-20T08:25:50Z</time>
      </trkpt>
      <trkpt lat="46.76078" lon="-0.3281">
        <ele>218.140805</ele>
        <time>2014-08-20T08:25:55Z</time>
      </trkpt>
      <trkpt lat="46.76073" lon="-0.32809">
        <ele>218.708575</ele>
        <time>2014-08-20T08:25:57Z</time>
      </trkpt>
      <trkpt lat="46.76068" lon="-0.32809">
        <ele>219.892691</ele>
        <time>2014-08-20T08:26:13Z</time>
      </trkpt>
      <trkpt lat="46.76064" lon="-0.32811">
        <ele>220.457324</ele>
        <time>2014-08-20T08:26:29Z</time>
      </trkpt>
      <trkpt lat="46.76059" lon="-0.32813">
        <ele>220.8488</ele>
        <time>2014-08-20T08:26:32Z</time>
      </trkpt>
      <trkpt lat="46.76053" lon="-0.32816">
        <ele>221.342407</ele>
        <time>2014-08-20T08:26:35Z</time>
      </trkpt>
      <trkpt lat="46.76047" lon="-0.32818">
        <ele>221.427371</ele>
        <time>2014-08-20T08:26:37Z</time>
      </trkpt>
      <trkpt lat="46.76042" lon="-0.32821">
        <ele>221.496524</ele>
        <time>2014-08-20T08:26:39Z</time>
      </trkpt>
      <trkpt lat="46.76037" lon="-0.32822">
        <ele>221.572765</ele>
        <time>2014-08-20T08:26:41Z</time>
      </trkpt>
      <trkpt lat="46.76031" lon="-0.32821">
        <ele>222.481683</ele>
        <time>2014-08-20T08:26:47Z</time>
      </trkpt>
      <trkpt lat="46.76027" lon="-0.32818">
        <ele>223.362205</ele>
        <time>2014-08-20T08:26:52Z</time>
      </trkpt>
      <trkpt lat="46.76024" lon="-0.32824">
        <ele>227.138325</ele>
        <time>2014-08-20T08:27:16Z</time>
      </trkpt>
      <trkpt lat="46.76019" lon="-0.32827">
        <ele>235.01334</ele>
        <time>2014-08-20T08:28:01Z</time>
      </trkpt>
      <trkpt lat="46.76015" lon="-0.32831">
        <ele>237.373638</ele>
        <time>2014-08-20T08:28:07Z</time>
      </trkpt>
      <trkpt lat="46.76012" lon="-0.32837">
        <ele>239.426833</ele>
        <time>2014-08-20T08:28:14Z</time>
      </trkpt>
      <trkpt lat="46.76013" lon="-0.32844">
        <ele>240.138292</ele>
        <time>2014-08-20T08:28:22Z</time>
      </trkpt>
      <trkpt lat="46.76011" lon="-0.3285">
        <ele>239.189538</ele>
        <time>2014-08-20T08:28:39Z</time>
      </trkpt>
      <trkpt lat="46.76008" lon="-0.32857">
        <ele>238.950509</ele>
        <time>2014-08-20T08:28:45Z</time>
      </trkpt>
      <trkpt lat="46.76004" lon="-0.32863">
        <ele>238.679911</ele>
        <time>2014-08-20T08:28:50Z</time>
      </trkpt>
      <trkpt lat="46.76001" lon="-0.32868">
        <ele>238.243535</ele>
        <time>2014-08-20T08:28:55Z</time>
      </trkpt>
      <trkpt lat="46.75997" lon="-0.32872">
        <ele>237.464353</ele>
        <time>2014-08-20T08:29:01Z</time>
      </trkpt>
      <trkpt lat="46.75994" lon="-0.32877">
        <ele>236.711203</ele>
        <time>2014-08-20T08:29:07Z</time>
      </trkpt>
      <trkpt lat="46.75991" lon="-0.32882">
        <ele>236.187563</ele>
        <time>2014-08-20T08:29:11Z</time>
      </trkpt>
      <trkpt lat="46.75986" lon="-0.32886">
        <ele>235.941516</ele>
        <time>2014-08-20T08:29:17Z</time>
      </trkpt>
      <trkpt lat="46.75982" lon="-0.32892">
        <ele>235.621002</ele>
        <time>2014-08-20T08:29:22Z</time>
      </trkpt>
      <trkpt lat="46.75979" lon="-0.32897">
        <ele>235.31148</ele>
        <time>2014-08-20T08:29:27Z</time>
      </trkpt>
      <trkpt lat="46.75976" lon="-0.32903">
        <ele>235.024597</ele>
        <time>2014-08-20T08:29:31Z</time>
      </trkpt>
      <trkpt lat="46.75972" lon="-0.32908">
        <ele>234.75908</ele>
        <time>2014-08-20T08:29:36Z</time>
      </trkpt>
      <trkpt lat="46.75968" lon="-0.32914">
        <ele>234.424407</ele>
        <time>2014-08-20T08:29:42Z</time>
      </trkpt>
      <trkpt lat="46.75965" lon="-0.32919">
        <ele>234.936927</ele>
        <time>2014-08-20T08:29:50Z</time>
      </trkpt>
      <trkpt lat="46.75961" lon="-0.32924">
        <ele>235.177021</ele>
        <time>2014-08-20T08:29:59Z</time>
      </trkpt>
      <trkpt lat="46.75957" lon="-0.32928">
        <ele>235.386553</ele>
        <time>2014-08-20T08:30:03Z</time>
      </trkpt>
      <trkpt lat="46.75954" lon="-0.32934">
        <ele>235.513833</ele>
        <time>2014-08-20T08:30:06Z</time>
      </trkpt>
      <trkpt lat="46.75952" lon="-0.3294">
        <ele>235.449544</ele>
        <time>2014-08-20T08:30:11Z</time>
      </trkpt>
      <trkpt lat="46.75947" lon="-0.32944">
        <ele>235.835871</ele>
        <time>2014-08-20T08:30:20Z</time>
      </trkpt>
      <trkpt lat="46.75946" lon="-0.32951">
        <ele>236.979015</ele>
        <time>2014-08-20T08:30:32Z</time>
      </trkpt>
      <trkpt lat="46.75943" lon="-0.32956">
        <ele>237.258542</ele>
        <time>2014-08-20T08:30:36Z</time>
      </trkpt>
      <trkpt lat="46.7594" lon="-0.32961">
        <ele>237.381171</ele>
        <time>2014-08-20T08:30:40Z</time>
      </trkpt>
      <trkpt lat="46.75936" lon="-0.32966">
        <ele>237.471879</ele>
        <time>2014-08-20T08:30:45Z</time>
      </trkpt>
      <trkpt lat="46.75933" lon="-0.32971">
        <ele>237.811143</ele>
        <time>2014-08-20T08:30:52Z</time>
      </trkpt>
      <trkpt lat="46.75929" lon="-0.32977">
        <ele>238.09714</ele>
        <time>2014-08-20T08:30:56Z</time>
      </trkpt>
      <trkpt lat="46.75926" lon="-0.32982">
        <ele>238.423268</ele>
        <time>2014-08-20T08:31:02Z</time>
      </trkpt>
      <trkpt lat="46.75922" lon="-0.32988">
        <ele>238.391138</ele>
        <time>2014-08-20T08:31:07Z</time>
      </trkpt>
      <trkpt lat="46.75918" lon="-0.32994">
        <ele>238.228176</ele>
        <time>2014-08-20T08:31:11Z</time>
      </trkpt>
      <trkpt lat="46.75915" lon="-0.32998">
        <ele>238.179805</ele>
        <time>2014-08-20T08:31:15Z</time>
      </trkpt>
      <trkpt lat="46.7591" lon="-0.33003">
        <ele>238.313142</ele>
        <time>2014-08-20T08:31:20Z</time>
      </trkpt>
      <trkpt lat="46.75907" lon="-0.33009">
        <ele>238.637229</ele>
        <time>2014-08-20T08:31:25Z</time>
      </trkpt>
      <trkpt lat="46.75903" lon="-0.33014">
        <ele>238.737014</ele>
        <time>2014-08-20T08:31:28Z</time>
      </trkpt>
      <trkpt lat="46.75898" lon="-0.3302">
        <ele>239.007781</ele>
        <time>2014-08-20T08:31:31Z</time>
      </trkpt>
      <trkpt lat="46.75895" lon="-0.33024">
        <ele>239.190508</ele>
        <time>2014-08-20T08:31:33Z</time>
      </trkpt>
      <trkpt lat="46.75891" lon="-0.3303">
        <ele>239.380666</ele>
        <time>2014-08-20T08:31:36Z</time>
      </trkpt>
      <trkpt lat="46.75887" lon="-0.33038">
        <ele>239.63138</ele>
        <time>2014-08-20T08:31:39Z</time>
      </trkpt>
      <trkpt lat="46.75885" lon="-0.33046">
        <ele>239.991772</ele>
        <time>2014-08-20T08:31:42Z</time>
      </trkpt>
      <trkpt lat="46.75883" lon="-0.33054">
        <ele>240.499634</ele>
        <time>2014-08-20T08:31:45Z</time>
      </trkpt>
      <trkpt lat="46.75882" lon="-0.33062">
        <ele>240.516602</ele>
        <time>2014-08-20T08:31:48Z</time>
      </trkpt>
      <trkpt lat="46.75882" lon="-0.33069">
        <ele>240.361517</ele>
        <time>2014-08-20T08:31:51Z</time>
      </trkpt>
      <trkpt lat="46.75882" lon="-0.3308">
        <ele>240.144553</ele>
        <time>2014-08-20T08:31:54Z</time>
      </trkpt>
      <trkpt lat="46.75882" lon="-0.33087">
        <ele>240.110594</ele>
        <time>2014-08-20T08:31:56Z</time>
      </trkpt>
      <trkpt lat="46.75882" lon="-0.33094">
        <ele>240.080197</ele>
        <time>2014-08-20T08:31:58Z</time>
      </trkpt>
      <trkpt lat="46.7588" lon="-0.33101">
        <ele>240.088414</ele>
        <time>2014-08-20T08:32:01Z</time>
      </trkpt>
      <trkpt lat="46.75878" lon="-0.33109">
        <ele>240.093217</ele>
        <time>2014-08-20T08:32:04Z</time>
      </trkpt>
      <trkpt lat="46.75874" lon="-0.33116">
        <ele>240.129149</ele>
        <time>2014-08-20T08:32:07Z</time>
      </trkpt>
      <trkpt lat="46.75871" lon="-0.33121">
        <ele>240.259509</ele>
        <time>2014-08-20T08:32:09Z</time>
      </trkpt>
      <trkpt lat="46.75867" lon="-0.33127">
        <ele>240.519449</ele>
        <time>2014-08-20T08:32:12Z</time>
      </trkpt>
      <trkpt lat="46.75864" lon="-0.33132">
        <ele>240.790742</ele>
        <time>2014-08-20T08:32:15Z</time>
      </trkpt>
      <trkpt lat="46.7586" lon="-0.33139">
        <ele>241.131506</ele>
        <time>2014-08-20T08:32:18Z</time>
      </trkpt>
      <trkpt lat="46.75856" lon="-0.33145">
        <ele>241.351657</ele>
        <time>2014-08-20T08:32:21Z</time>
      </trkpt>
      <trkpt lat="46.75852" lon="-0.33151">
        <ele>241.766692</ele>
        <time>2014-08-20T08:32:24Z</time>
      </trkpt>
      <trkpt lat="46.75848" lon="-0.33157">
        <ele>242.18263</ele>
        <time>2014-08-20T08:32:27Z</time>
      </trkpt>
      <trkpt lat="46.75845" lon="-0.33162">
        <ele>242.441457</ele>
        <time>2014-08-20T08:32:29Z</time>
      </trkpt>
      <trkpt lat="46.75841" lon="-0.33167">
        <ele>242.740666</ele>
        <time>2014-08-20T08:32:32Z</time>
      </trkpt>
      <trkpt lat="46.75838" lon="-0.33172">
        <ele>243.327184</ele>
        <time>2014-08-20T08:32:39Z</time>
      </trkpt>
      <trkpt lat="46.75836" lon="-0.33178">
        <ele>243.648495</ele>
        <time>2014-08-20T08:32:43Z</time>
      </trkpt>
      <trkpt lat="46.75832" lon="-0.33184">
        <ele>243.724994</ele>
        <time>2014-08-20T08:32:47Z</time>
      </trkpt>
      <trkpt lat="46.7583" lon="-0.3319">
        <ele>243.861318</ele>
        <time>2014-08-20T08:32:51Z</time>
      </trkpt>
      <trkpt lat="46.75827" lon="-0.33197">
        <ele>244.355841</ele>
        <time>2014-08-20T08:32:56Z</time>
      </trkpt>
      <trkpt lat="46.75824" lon="-0.33203">
        <ele>244.801672</ele>
        <time>2014-08-20T08:33:02Z</time>
      </trkpt>
      <trkpt lat="46.7582" lon="-0.33211">
        <ele>244.470843</ele>
        <time>2014-08-20T08:33:07Z</time>
      </trkpt>
      <trkpt lat="46.75818" lon="-0.3322">
        <ele>244.065237</ele>
        <time>2014-08-20T08:33:10Z</time>
      </trkpt>
      <trkpt lat="46.75817" lon="-0.33228">
        <ele>243.897626</ele>
        <time>2014-08-20T08:33:13Z</time>
      </trkpt>
      <trkpt lat="46.75815" lon="-0.33236">
        <ele>243.930402</ele>
        <time>2014-08-20T08:33:16Z</time>
      </trkpt>
      <trkpt lat="46.75812" lon="-0.33244">
        <ele>243.979979</ele>
        <time>2014-08-20T08:33:19Z</time>
      </trkpt>
      <trkpt lat="46.75812" lon="-0.33252">
        <ele>244.096388</ele>
        <time>2014-08-20T08:33:21Z</time>
      </trkpt>
      <trkpt lat="46.75809" lon="-0.33259">
        <ele>244.196945</ele>
        <time>2014-08-20T08:33:23Z</time>
      </trkpt>
      <trkpt lat="46.75808" lon="-0.33266">
        <ele>244.181141</ele>
        <time>2014-08-20T08:33:25Z</time>
      </trkpt>
      <trkpt lat="46.75806" lon="-0.33274">
        <ele>244.097119</ele>
        <time>2014-08-20T08:33:27Z</time>
      </trkpt>
      <trkpt lat="46.75805" lon="-0.33281">
        <ele>244.127849</ele>
        <time>2014-08-20T08:33:29Z</time>
      </trkpt>
      <trkpt lat="46.75803" lon="-0.33288">
        <ele>244.235849</ele>
        <time>2014-08-20T08:33:31Z</time>
      </trkpt>
      <trkpt lat="46.75803" lon="-0.33296">
        <ele>244.430113</ele>
        <time>2014-08-20T08:33:33Z</time>
      </trkpt>
      <trkpt lat="46.758" lon="-0.33302">
        <ele>244.842611</ele>
        <time>2014-08-20T08:33:36Z</time>
      </trkpt>
      <trkpt lat="46.75798" lon="-0.33309">
        <ele>245.195936</ele>
        <time>2014-08-20T08:33:39Z</time>
      </trkpt>
      <trkpt lat="46.75797" lon="-0.33317">
        <ele>245.508919</ele>
        <time>2014-08-20T08:33:42Z</time>
      </trkpt>
      <trkpt lat="46.75796" lon="-0.33325">
        <ele>245.991104</ele>
        <time>2014-08-20T08:33:46Z</time>
      </trkpt>
      <trkpt lat="46.75797" lon="-0.33332">
        <ele>246.381921</ele>
        <time>2014-08-20T08:33:49Z</time>
      </trkpt>
      <trkpt lat="46.75797" lon="-0.3334">
        <ele>246.621175</ele>
        <time>2014-08-20T08:33:52Z</time>
      </trkpt>
      <trkpt lat="46.75795" lon="-0.33347">
        <ele>246.598687</ele>
        <time>2014-08-20T08:33:55Z</time>
      </trkpt>
      <trkpt lat="46.75792" lon="-0.33357">
        <ele>246.60706</ele>
        <time>2014-08-20T08:33:58Z</time>
      </trkpt>
      <trkpt lat="46.75791" lon="-0.33365">
        <ele>246.68171</ele>
        <time>2014-08-20T08:34:01Z</time>
      </trkpt>
      <trkpt lat="46.7579" lon="-0.33373">
        <ele>246.662422</ele>
        <time>2014-08-20T08:34:04Z</time>
      </trkpt>
      <trkpt lat="46.7579" lon="-0.33381">
        <ele>246.623373</ele>
        <time>2014-08-20T08:34:07Z</time>
      </trkpt>
      <trkpt lat="46.7579" lon="-0.33387">
        <ele>246.665943</ele>
        <time>2014-08-20T08:34:09Z</time>
      </trkpt>
      <trkpt lat="46.7579" lon="-0.33394">
        <ele>246.708445</ele>
        <time>2014-08-20T08:34:11Z</time>
      </trkpt>
      <trkpt lat="46.75789" lon="-0.33403">
        <ele>246.817634</ele>
        <time>2014-08-20T08:34:14Z</time>
      </trkpt>
      <trkpt lat="46.75787" lon="-0.33411">
        <ele>246.742622</ele>
        <time>2014-08-20T08:34:17Z</time>
      </trkpt>
      <trkpt lat="46.75785" lon="-0.33419">
        <ele>246.574001</ele>
        <time>2014-08-20T08:34:20Z</time>
      </trkpt>
      <trkpt lat="46.75781" lon="-0.33416">
        <ele>246.888154</ele>
        <time>2014-08-20T08:34:30Z</time>
      </trkpt>
      <trkpt lat="46.75776" lon="-0.33409">
        <ele>247.248453</ele>
        <time>2014-08-20T08:34:33Z</time>
      </trkpt>
      <trkpt lat="46.75771" lon="-0.33406">
        <ele>248.116836</ele>
        <time>2014-08-20T08:34:36Z</time>
      </trkpt>
      <trkpt lat="46.75767" lon="-0.33411">
        <ele>249.185828</ele>
        <time>2014-08-20T08:34:40Z</time>
      </trkpt>
      <trkpt lat="46.75762" lon="-0.33419">
        <ele>249.506856</ele>
        <time>2014-08-20T08:34:42Z</time>
      </trkpt>
      <trkpt lat="46.75759" lon="-0.33427">
        <ele>249.764546</ele>
        <time>2014-08-20T08:34:44Z</time>
      </trkpt>
      <trkpt lat="46.75757" lon="-0.33433">
        <ele>249.960715</ele>
        <time>2014-08-20T08:34:46Z</time>
      </trkpt>
      <trkpt lat="46.75755" lon="-0.33439">
        <ele>250.048277</ele>
        <time>2014-08-20T08:34:48Z</time>
      </trkpt>
      <trkpt lat="46.75753" lon="-0.33447">
        <ele>250.097974</ele>
        <time>2014-08-20T08:34:50Z</time>
      </trkpt>
      <trkpt lat="46.7575" lon="-0.33454">
        <ele>250.104002</ele>
        <time>2014-08-20T08:34:52Z</time>
      </trkpt>
      <trkpt lat="46.75748" lon="-0.33461">
        <ele>250.12907</ele>
        <time>2014-08-20T08:34:55Z</time>
      </trkpt>
      <trkpt lat="46.75749" lon="-0.33468">
        <ele>250.342479</ele>
        <time>2014-08-20T08:35:01Z</time>
      </trkpt>
      <trkpt lat="46.75748" lon="-0.33474">
        <ele>250.995631</ele>
        <time>2014-08-20T08:35:09Z</time>
      </trkpt>
      <trkpt lat="46.75746" lon="-0.33481">
        <ele>251.381095</ele>
        <time>2014-08-20T08:35:13Z</time>
      </trkpt>
      <trkpt lat="46.75745" lon="-0.33487">
        <ele>251.499005</ele>
        <time>2014-08-20T08:35:19Z</time>
      </trkpt>
      <trkpt lat="46.75742" lon="-0.33493">
        <ele>251.364411</ele>
        <time>2014-08-20T08:35:21Z</time>
      </trkpt>
      <trkpt lat="46.75739" lon="-0.335">
        <ele>251.20577</ele>
        <time>2014-08-20T08:35:23Z</time>
      </trkpt>
      <trkpt lat="46.75736" lon="-0.33506">
        <ele>250.993529</ele>
        <time>2014-08-20T08:35:25Z</time>
      </trkpt>
      <trkpt lat="46.75733" lon="-0.33513">
        <ele>250.644541</ele>
        <time>2014-08-20T08:35:28Z</time>
      </trkpt>
      <trkpt lat="46.7573" lon="-0.3352">
        <ele>250.384665</ele>
        <time>2014-08-20T08:35:31Z</time>
      </trkpt>
      <trkpt lat="46.75727" lon="-0.33529">
        <ele>250.276199</ele>
        <time>2014-08-20T08:35:34Z</time>
      </trkpt>
      <trkpt lat="46.75725" lon="-0.33537">
        <ele>250.215653</ele>
        <time>2014-08-20T08:35:37Z</time>
      </trkpt>
      <trkpt lat="46.75723" lon="-0.33543">
        <ele>250.280038</ele>
        <time>2014-08-20T08:35:39Z</time>
      </trkpt>
      <trkpt lat="46.7572" lon="-0.3355">
        <ele>250.46601</ele>
        <time>2014-08-20T08:35:42Z</time>
      </trkpt>
      <trkpt lat="46.75718" lon="-0.33556">
        <ele>250.608127</ele>
        <time>2014-08-20T08:35:44Z</time>
      </trkpt>
      <trkpt lat="46.75715" lon="-0.33562">
        <ele>250.805595</ele>
        <time>2014-08-20T08:35:47Z</time>
      </trkpt>
      <trkpt lat="46.75711" lon="-0.33568">
        <ele>251.036881</ele>
        <time>2014-08-20T08:35:50Z</time>
      </trkpt>
      <trkpt lat="46.75709" lon="-0.33575">
        <ele>251.126159</ele>
        <time>2014-08-20T08:35:53Z</time>
      </trkpt>
      <trkpt lat="46.75706" lon="-0.33582">
        <ele>251.329034</ele>
        <time>2014-08-20T08:35:56Z</time>
      </trkpt>
      <trkpt lat="46.75702" lon="-0.33589">
        <ele>251.512769</ele>
        <time>2014-08-20T08:35:59Z</time>
      </trkpt>
      <trkpt lat="46.75702" lon="-0.33595">
        <ele>250.939597</ele>
        <time>2014-08-20T08:36:09Z</time>
      </trkpt>
      <trkpt lat="46.75702" lon="-0.33603">
        <ele>250.515154</ele>
        <time>2014-08-20T08:36:20Z</time>
      </trkpt>
      <trkpt lat="46.75705" lon="-0.33597">
        <ele>250.51704</ele>
        <time>2014-08-20T08:36:50Z</time>
      </trkpt>
      <trkpt lat="46.75701" lon="-0.33601">
        <ele>247.613139</ele>
        <time>2014-08-20T08:37:24Z</time>
      </trkpt>
      <trkpt lat="46.75697" lon="-0.33605">
        <ele>247.913001</ele>
        <time>2014-08-20T08:37:31Z</time>
      </trkpt>
      <trkpt lat="46.75697" lon="-0.33611">
        <ele>249.789312</ele>
        <time>2014-08-20T08:37:42Z</time>
      </trkpt>
      <trkpt lat="46.75698" lon="-0.33618">
        <ele>251.028785</ele>
        <time>2014-08-20T08:37:48Z</time>
      </trkpt>
      <trkpt lat="46.75702" lon="-0.33615">
        <ele>252.726891</ele>
        <time>2014-08-20T08:37:57Z</time>
      </trkpt>
      <trkpt lat="46.75704" lon="-0.33608">
        <ele>253.444223</ele>
        <time>2014-08-20T08:38:00Z</time>
      </trkpt>
      <trkpt lat="46.75702" lon="-0.33599">
        <ele>254.410756</ele>
        <time>2014-08-20T08:38:04Z</time>
      </trkpt>
      <trkpt lat="46.757" lon="-0.33592">
        <ele>254.903389</ele>
        <time>2014-08-20T08:38:08Z</time>
      </trkpt>
      <trkpt lat="46.75693" lon="-0.3359">
        <ele>254.975458</ele>
        <time>2014-08-20T08:38:11Z</time>
      </trkpt>
      <trkpt lat="46.75688" lon="-0.33589">
        <ele>255.089649</ele>
        <time>2014-08-20T08:38:13Z</time>
      </trkpt>
      <trkpt lat="46.75683" lon="-0.33587">
        <ele>255.253899</ele>
        <time>2014-08-20T08:38:15Z</time>
      </trkpt>
      <trkpt lat="46.75678" lon="-0.33585">
        <ele>255.233883</ele>
        <time>2014-08-20T08:38:17Z</time>
      </trkpt>
      <trkpt lat="46.75673" lon="-0.33583">
        <ele>255.132785</ele>
        <time>2014-08-20T08:38:20Z</time>
      </trkpt>
      <trkpt lat="46.75668" lon="-0.33582">
        <ele>255.187053</ele>
        <time>2014-08-20T08:38:24Z</time>
      </trkpt>
      <trkpt lat="46.75663" lon="-0.33581">
        <ele>255.182976</ele>
        <time>2014-08-20T08:38:27Z</time>
      </trkpt>
      <trkpt lat="46.75658" lon="-0.3358">
        <ele>255.223932</ele>
        <time>2014-08-20T08:38:29Z</time>
      </trkpt>
      <trkpt lat="46.75653" lon="-0.33578">
        <ele>255.297776</ele>
        <time>2014-08-20T08:38:31Z</time>
      </trkpt>
      <trkpt lat="46.75648" lon="-0.33574">
        <ele>255.115225</ele>
        <time>2014-08-20T08:38:34Z</time>
      </trkpt>
      <trkpt lat="46.75644" lon="-0.3357">
        <ele>254.808278</ele>
        <time>2014-08-20T08:38:37Z</time>
      </trkpt>
      <trkpt lat="46.7564" lon="-0.33565">
        <ele>254.182488</ele>
        <time>2014-08-20T08:38:40Z</time>
      </trkpt>
      <trkpt lat="46.75636" lon="-0.33561">
        <ele>253.608856</ele>
        <time>2014-08-20T08:38:43Z</time>
      </trkpt>
      <trkpt lat="46.75632" lon="-0.33555">
        <ele>253.525976</ele>
        <time>2014-08-20T08:38:47Z</time>
      </trkpt>
      <trkpt lat="46.75629" lon="-0.33549">
        <ele>253.525273</ele>
        <time>2014-08-20T08:38:58Z</time>
      </trkpt>
      <trkpt lat="46.75625" lon="-0.33553">
        <ele>253.68234</ele>
        <time>2014-08-20T08:39:05Z</time>
      </trkpt>
      <trkpt lat="46.75621" lon="-0.33558">
        <ele>253.7396</ele>
        <time>2014-08-20T08:39:10Z</time>
      </trkpt>
      <trkpt lat="46.75619" lon="-0.33564">
        <ele>253.737943</ele>
        <time>2014-08-20T08:39:13Z</time>
      </trkpt>
      <trkpt lat="46.75617" lon="-0.33571">
        <ele>253.672714</ele>
        <time>2014-08-20T08:39:21Z</time>
      </trkpt>
      <trkpt lat="46.75618" lon="-0.33577">
        <ele>253.390486</ele>
        <time>2014-08-20T08:39:32Z</time>
      </trkpt>
      <trkpt lat="46.75623" lon="-0.33583">
        <ele>253.216167</ele>
        <time>2014-08-20T08:39:35Z</time>
      </trkpt>
      <trkpt lat="46.75627" lon="-0.33586">
        <ele>253.097426</ele>
        <time>2014-08-20T08:39:37Z</time>
      </trkpt>
      <trkpt lat="46.7563" lon="-0.33591">
        <ele>252.960833</ele>
        <time>2014-08-20T08:39:39Z</time>
      </trkpt>
      <trkpt lat="46.75634" lon="-0.33595">
        <ele>252.793126</ele>
        <time>2014-08-20T08:39:41Z</time>
      </trkpt>
      <trkpt lat="46.75639" lon="-0.336">
        <ele>252.556481</ele>
        <time>2014-08-20T08:39:43Z</time>
      </trkpt>
      <trkpt lat="46.75643" lon="-0.33604">
        <ele>252.31801</ele>
        <time>2014-08-20T08:39:45Z</time>
      </trkpt>
      <trkpt lat="46.75649" lon="-0.33607">
        <ele>252.124267</ele>
        <time>2014-08-20T08:39:47Z</time>
      </trkpt>
      <trkpt lat="46.75653" lon="-0.33611">
        <ele>251.816708</ele>
        <time>2014-08-20T08:39:49Z</time>
      </trkpt>
      <trkpt lat="46.75658" lon="-0.33616">
        <ele>251.486465</ele>
        <time>2014-08-20T08:39:52Z</time>
      </trkpt>
      <trkpt lat="46.75662" lon="-0.33623">
        <ele>251.130793</ele>
        <time>2014-08-20T08:39:55Z</time>
      </trkpt>
      <trkpt lat="46.75666" lon="-0.33629">
        <ele>250.772454</ele>
        <time>2014-08-20T08:39:58Z</time>
      </trkpt>
      <trkpt lat="46.75669" lon="-0.33636">
        <ele>250.364731</ele>
        <time>2014-08-20T08:40:01Z</time>
      </trkpt>
      <trkpt lat="46.75672" lon="-0.33644">
        <ele>250.048265</ele>
        <time>2014-08-20T08:40:04Z</time>
      </trkpt>
      <trkpt lat="46.75674" lon="-0.33652">
        <ele>249.942855</ele>
        <time>2014-08-20T08:40:07Z</time>
      </trkpt>
      <trkpt lat="46.75676" lon="-0.33661">
        <ele>250.111076</ele>
        <time>2014-08-20T08:40:15Z</time>
      </trkpt>
      <trkpt lat="46.75679" lon="-0.33667">
        <ele>250.189304</ele>
        <time>2014-08-20T08:40:18Z</time>
      </trkpt>
      <trkpt lat="46.75683" lon="-0.33674">
        <ele>250.251929</ele>
        <time>2014-08-20T08:40:21Z</time>
      </trkpt>
      <trkpt lat="46.75685" lon="-0.3368">
        <ele>250.309648</ele>
        <time>2014-08-20T08:40:24Z</time>
      </trkpt>
      <trkpt lat="46.75688" lon="-0.33687">
        <ele>250.55146</ele>
        <time>2014-08-20T08:40:27Z</time>
      </trkpt>
      <trkpt lat="46.75691" lon="-0.33693">
        <ele>250.633236</ele>
        <time>2014-08-20T08:40:30Z</time>
      </trkpt>
      <trkpt lat="46.75694" lon="-0.337">
        <ele>250.720091</ele>
        <time>2014-08-20T08:40:33Z</time>
      </trkpt>
      <trkpt lat="46.75697" lon="-0.33707">
        <ele>250.85215</ele>
        <time>2014-08-20T08:40:36Z</time>
      </trkpt>
      <trkpt lat="46.757" lon="-0.33714">
        <ele>251.203568</ele>
        <time>2014-08-20T08:40:39Z</time>
      </trkpt>
      <trkpt lat="46.75704" lon="-0.33721">
        <ele>251.622211</ele>
        <time>2014-08-20T08:40:42Z</time>
      </trkpt>
      <trkpt lat="46.75709" lon="-0.33728">
        <ele>252.154822</ele>
        <time>2014-08-20T08:40:45Z</time>
      </trkpt>
      <trkpt lat="46.75713" lon="-0.33735">
        <ele>252.780324</ele>
        <time>2014-08-20T08:40:48Z</time>
      </trkpt>
      <trkpt lat="46.75715" lon="-0.33742">
        <ele>253.403933</ele>
        <time>2014-08-20T08:40:51Z</time>
      </trkpt>
      <trkpt lat="46.75716" lon="-0.33749">
        <ele>253.799726</ele>
        <time>2014-08-20T08:40:55Z</time>
      </trkpt>
      <trkpt lat="46.75716" lon="-0.33756">
        <ele>253.864618</ele>
        <time>2014-08-20T08:40:59Z</time>
      </trkpt>
      <trkpt lat="46.75715" lon="-0.33763">
        <ele>254.089475</ele>
        <time>2014-08-20T08:41:02Z</time>
      </trkpt>
      <trkpt lat="46.75712" lon="-0.3377">
        <ele>254.25103</ele>
        <time>2014-08-20T08:41:04Z</time>
      </trkpt>
      <trkpt lat="46.75709" lon="-0.33778">
        <ele>254.52455</ele>
        <time>2014-08-20T08:41:07Z</time>
      </trkpt>
      <trkpt lat="46.75706" lon="-0.33785">
        <ele>254.793932</ele>
        <time>2014-08-20T08:41:10Z</time>
      </trkpt>
      <trkpt lat="46.75704" lon="-0.33793">
        <ele>254.865362</ele>
        <time>2014-08-20T08:41:13Z</time>
      </trkpt>
      <trkpt lat="46.75702" lon="-0.33802">
        <ele>254.792455</ele>
        <time>2014-08-20T08:41:16Z</time>
      </trkpt>
      <trkpt lat="46.757" lon="-0.3381">
        <ele>254.534034</ele>
        <time>2014-08-20T08:41:19Z</time>
      </trkpt>
      <trkpt lat="46.75698" lon="-0.33818">
        <ele>254.446645</ele>
        <time>2014-08-20T08:41:21Z</time>
      </trkpt>
      <trkpt lat="46.75696" lon="-0.33825">
        <ele>254.277509</ele>
        <time>2014-08-20T08:41:24Z</time>
      </trkpt>
      <trkpt lat="46.75694" lon="-0.33833">
        <ele>254.08005</ele>
        <time>2014-08-20T08:41:27Z</time>
      </trkpt>
      <trkpt lat="46.75691" lon="-0.33839">
        <ele>253.862881</ele>
        <time>2014-08-20T08:41:29Z</time>
      </trkpt>
      <trkpt lat="46.75689" lon="-0.33845">
        <ele>253.631931</ele>
        <time>2014-08-20T08:41:31Z</time>
      </trkpt>
      <trkpt lat="46.75685" lon="-0.33851">
        <ele>253.496543</ele>
        <time>2014-08-20T08:41:34Z</time>
      </trkpt>
      <trkpt lat="46.75682" lon="-0.33856">
        <ele>253.320879</ele>
        <time>2014-08-20T08:41:37Z</time>
      </trkpt>
      <trkpt lat="46.75678" lon="-0.33861">
        <ele>252.92631</ele>
        <time>2014-08-20T08:41:40Z</time>
      </trkpt>
      <trkpt lat="46.75674" lon="-0.33865">
        <ele>252.596785</ele>
        <time>2014-08-20T08:41:43Z</time>
      </trkpt>
      <trkpt lat="46.75671" lon="-0.33869">
        <ele>251.872772</ele>
        <time>2014-08-20T08:41:51Z</time>
      </trkpt>
      <trkpt lat="46.75668" lon="-0.33875">
        <ele>251.042197</ele>
        <time>2014-08-20T08:42:14Z</time>
      </trkpt>
      <trkpt lat="46.75665" lon="-0.33879">
        <ele>250.968264</ele>
        <time>2014-08-20T08:42:19Z</time>
      </trkpt>
      <trkpt lat="46.75663" lon="-0.33886">
        <ele>252.213381</ele>
        <time>2014-08-20T08:42:34Z</time>
      </trkpt>
      <trkpt lat="46.75659" lon="-0.33887">
        <ele>261.418597</ele>
        <time>2014-08-20T08:43:29Z</time>
      </trkpt>
      <trkpt lat="46.75661" lon="-0.33893">
        <ele>262.526292</ele>
        <time>2014-08-20T08:44:06Z</time>
      </trkpt>
      <trkpt lat="46.75666" lon="-0.33898">
        <ele>261.354432</ele>
        <time>2014-08-20T08:44:21Z</time>
      </trkpt>
      <trkpt lat="46.75668" lon="-0.33904">
        <ele>261.027912</ele>
        <time>2014-08-20T08:44:24Z</time>
      </trkpt>
      <trkpt lat="46.75673" lon="-0.33911">
        <ele>260.826272</ele>
        <time>2014-08-20T08:44:27Z</time>
      </trkpt>
      <trkpt lat="46.75677" lon="-0.33916">
        <ele>260.630317</ele>
        <time>2014-08-20T08:44:29Z</time>
      </trkpt>
      <trkpt lat="46.75682" lon="-0.3392">
        <ele>260.412267</ele>
        <time>2014-08-20T08:44:31Z</time>
      </trkpt>
      <trkpt lat="46.75685" lon="-0.33925">
        <ele>260.270553</ele>
        <time>2014-08-20T08:44:33Z</time>
      </trkpt>
      <trkpt lat="46.75689" lon="-0.3393">
        <ele>260.22977</ele>
        <time>2014-08-20T08:44:35Z</time>
      </trkpt>
      <trkpt lat="46.75693" lon="-0.33936">
        <ele>260.307513</ele>
        <time>2014-08-20T08:44:38Z</time>
      </trkpt>
      <trkpt lat="46.75698" lon="-0.33942">
        <ele>260.26574</ele>
        <time>2014-08-20T08:44:41Z</time>
      </trkpt>
      <trkpt lat="46.75701" lon="-0.33949">
        <ele>260.234603</ele>
        <time>2014-08-20T08:44:43Z</time>
      </trkpt>
      <trkpt lat="46.75704" lon="-0.33957">
        <ele>260.143632</ele>
        <time>2014-08-20T08:44:45Z</time>
      </trkpt>
      <trkpt lat="46.75708" lon="-0.33963">
        <ele>260.154321</ele>
        <time>2014-08-20T08:44:47Z</time>
      </trkpt>
      <trkpt lat="46.75712" lon="-0.33971">
        <ele>260.132627</ele>
        <time>2014-08-20T08:44:50Z</time>
      </trkpt>
      <trkpt lat="46.75715" lon="-0.33977">
        <ele>260.013224</ele>
        <time>2014-08-20T08:44:52Z</time>
      </trkpt>
      <trkpt lat="46.75718" lon="-0.33983">
        <ele>260.015316</ele>
        <time>2014-08-20T08:44:54Z</time>
      </trkpt>
      <trkpt lat="46.75722" lon="-0.3399">
        <ele>260.02522</ele>
        <time>2014-08-20T08:44:56Z</time>
      </trkpt>
      <trkpt lat="46.75724" lon="-0.33996">
        <ele>259.991976</ele>
        <time>2014-08-20T08:44:58Z</time>
      </trkpt>
      <trkpt lat="46.75728" lon="-0.34005">
        <ele>259.862797</ele>
        <time>2014-08-20T08:45:01Z</time>
      </trkpt>
      <trkpt lat="46.75731" lon="-0.34011">
        <ele>259.767153</ele>
        <time>2014-08-20T08:45:03Z</time>
      </trkpt>
      <trkpt lat="46.75735" lon="-0.34019">
        <ele>259.659887</ele>
        <time>2014-08-20T08:45:06Z</time>
      </trkpt>
      <trkpt lat="46.75739" lon="-0.34026">
        <ele>259.600193</ele>
        <time>2014-08-20T08:45:08Z</time>
      </trkpt>
      <trkpt lat="46.75742" lon="-0.34034">
        <ele>259.608895</ele>
        <time>2014-08-20T08:45:10Z</time>
      </trkpt>
      <trkpt lat="46.75746" lon="-0.34042">
        <ele>259.649981</ele>
        <time>2014-08-20T08:45:13Z</time>
      </trkpt>
      <trkpt lat="46.75749" lon="-0.34047">
        <ele>259.719677</ele>
        <time>2014-08-20T08:45:15Z</time>
      </trkpt>
      <trkpt lat="46.75753" lon="-0.34053">
        <ele>259.829504</ele>
        <time>2014-08-20T08:45:17Z</time>
      </trkpt>
      <trkpt lat="46.75756" lon="-0.34062">
        <ele>259.686653</ele>
        <time>2014-08-20T08:45:20Z</time>
      </trkpt>
      <trkpt lat="46.75759" lon="-0.34067">
        <ele>259.817869</ele>
        <time>2014-08-20T08:45:22Z</time>
      </trkpt>
      <trkpt lat="46.75761" lon="-0.34074">
        <ele>259.805147</ele>
        <time>2014-08-20T08:45:24Z</time>
      </trkpt>
      <trkpt lat="46.75764" lon="-0.34081">
        <ele>259.688218</ele>
        <time>2014-08-20T08:45:26Z</time>
      </trkpt>
      <trkpt lat="46.75767" lon="-0.34088">
        <ele>259.548561</ele>
        <time>2014-08-20T08:45:28Z</time>
      </trkpt>
      <trkpt lat="46.75769" lon="-0.34093">
        <ele>259.33149</ele>
        <time>2014-08-20T08:45:30Z</time>
      </trkpt>
      <trkpt lat="46.75771" lon="-0.341">
        <ele>259.259454</ele>
        <time>2014-08-20T08:45:32Z</time>
      </trkpt>
      <trkpt lat="46.75773" lon="-0.34107">
        <ele>259.251814</ele>
        <time>2014-08-20T08:45:34Z</time>
      </trkpt>
      <trkpt lat="46.75775" lon="-0.34115">
        <ele>259.239265</ele>
        <time>2014-08-20T08:45:36Z</time>
      </trkpt>
      <trkpt lat="46.75777" lon="-0.34125">
        <ele>259.374376</ele>
        <time>2014-08-20T08:45:38Z</time>
      </trkpt>
      <trkpt lat="46.75778" lon="-0.34132">
        <ele>259.509428</ele>
        <time>2014-08-20T08:45:40Z</time>
      </trkpt>
      <trkpt lat="46.7578" lon="-0.34141">
        <ele>259.660619</ele>
        <time>2014-08-20T08:45:43Z</time>
      </trkpt>
      <trkpt lat="46.75782" lon="-0.34149">
        <ele>259.899772</ele>
        <time>2014-08-20T08:45:45Z</time>
      </trkpt>
      <trkpt lat="46.75784" lon="-0.34155">
        <ele>260.120773</ele>
        <time>2014-08-20T08:45:47Z</time>
      </trkpt>
      <trkpt lat="46.75786" lon="-0.34162">
        <ele>260.282411</ele>
        <time>2014-08-20T08:45:49Z</time>
      </trkpt>
      <trkpt lat="46.75788" lon="-0.34168">
        <ele>260.379912</ele>
        <time>2014-08-20T08:45:51Z</time>
      </trkpt>
      <trkpt lat="46.75792" lon="-0.34175">
        <ele>260.502501</ele>
        <time>2014-08-20T08:45:53Z</time>
      </trkpt>
      <trkpt lat="46.75794" lon="-0.34181">
        <ele>260.697817</ele>
        <time>2014-08-20T08:45:55Z</time>
      </trkpt>
      <trkpt lat="46.75796" lon="-0.34188">
        <ele>260.880115</ele>
        <time>2014-08-20T08:45:57Z</time>
      </trkpt>
      <trkpt lat="46.75797" lon="-0.34196">
        <ele>260.924719</ele>
        <time>2014-08-20T08:45:59Z</time>
      </trkpt>
      <trkpt lat="46.75798" lon="-0.34203">
        <ele>260.82387</ele>
        <time>2014-08-20T08:46:01Z</time>
      </trkpt>
      <trkpt lat="46.758" lon="-0.34211">
        <ele>260.661066</ele>
        <time>2014-08-20T08:46:03Z</time>
      </trkpt>
      <trkpt lat="46.75802" lon="-0.34218">
        <ele>260.488508</ele>
        <time>2014-08-20T08:46:05Z</time>
      </trkpt>
      <trkpt lat="46.75803" lon="-0.34225">
        <ele>260.241564</ele>
        <time>2014-08-20T08:46:07Z</time>
      </trkpt>
      <trkpt lat="46.75804" lon="-0.34233">
        <ele>260.02492</ele>
        <time>2014-08-20T08:46:09Z</time>
      </trkpt>
      <trkpt lat="46.75806" lon="-0.34243">
        <ele>259.889323</ele>
        <time>2014-08-20T08:46:12Z</time>
      </trkpt>
      <trkpt lat="46.75808" lon="-0.34253">
        <ele>259.950803</ele>
        <time>2014-08-20T08:46:15Z</time>
      </trkpt>
      <trkpt lat="46.75809" lon="-0.34261">
        <ele>260.01777</ele>
        <time>2014-08-20T08:46:17Z</time>
      </trkpt>
      <trkpt lat="46.75811" lon="-0.34267">
        <ele>260.129733</ele>
        <time>2014-08-20T08:46:19Z</time>
      </trkpt>
      <trkpt lat="46.75813" lon="-0.34274">
        <ele>260.146073</ele>
        <time>2014-08-20T08:46:21Z</time>
      </trkpt>
      <trkpt lat="46.75815" lon="-0.3428">
        <ele>260.102744</ele>
        <time>2014-08-20T08:46:23Z</time>
      </trkpt>
      <trkpt lat="46.75817" lon="-0.34287">
        <ele>260.099444</ele>
        <time>2014-08-20T08:46:25Z</time>
      </trkpt>
      <trkpt lat="46.75818" lon="-0.34293">
        <ele>260.161562</ele>
        <time>2014-08-20T08:46:27Z</time>
      </trkpt>
      <trkpt lat="46.7582" lon="-0.34299">
        <ele>260.298125</ele>
        <time>2014-08-20T08:46:29Z</time>
      </trkpt>
      <trkpt lat="46.75821" lon="-0.34306">
        <ele>260.441599</ele>
        <time>2014-08-20T08:46:31Z</time>
      </trkpt>
      <trkpt lat="46.75823" lon="-0.34314">
        <ele>260.757334</ele>
        <time>2014-08-20T08:46:33Z</time>
      </trkpt>
      <trkpt lat="46.75825" lon="-0.34323">
        <ele>261.200848</ele>
        <time>2014-08-20T08:46:36Z</time>
      </trkpt>
      <trkpt lat="46.75827" lon="-0.3433">
        <ele>261.537511</ele>
        <time>2014-08-20T08:46:38Z</time>
      </trkpt>
      <trkpt lat="46.75829" lon="-0.34337">
        <ele>261.869292</ele>
        <time>2014-08-20T08:46:40Z</time>
      </trkpt>
      <trkpt lat="46.7583" lon="-0.34344">
        <ele>262.312905</ele>
        <time>2014-08-20T08:46:42Z</time>
      </trkpt>
      <trkpt lat="46.75828" lon="-0.34351">
        <ele>262.82018</ele>
        <time>2014-08-20T08:46:45Z</time>
      </trkpt>
      <trkpt lat="46.75823" lon="-0.34356">
        <ele>263.11293</ele>
        <time>2014-08-20T08:46:48Z</time>
      </trkpt>
      <trkpt lat="46.75818" lon="-0.34357">
        <ele>263.222582</ele>
        <time>2014-08-20T08:46:50Z</time>
      </trkpt>
      <trkpt lat="46.75812" lon="-0.34358">
        <ele>263.133146</ele>
        <time>2014-08-20T08:46:52Z</time>
      </trkpt>
      <trkpt lat="46.75808" lon="-0.3436">
        <ele>263.250206</ele>
        <time>2014-08-20T08:46:54Z</time>
      </trkpt>
      <trkpt lat="46.75803" lon="-0.3436">
        <ele>263.381992</ele>
        <time>2014-08-20T08:46:56Z</time>
      </trkpt>
      <trkpt lat="46.75799" lon="-0.34361">
        <ele>263.509779</ele>
        <time>2014-08-20T08:46:58Z</time>
      </trkpt>
      <trkpt lat="46.75792" lon="-0.34362">
        <ele>263.799345</ele>
        <time>2014-08-20T08:47:01Z</time>
      </trkpt>
      <trkpt lat="46.75785" lon="-0.34363">
        <ele>264.003832</ele>
        <time>2014-08-20T08:47:04Z</time>
      </trkpt>
      <trkpt lat="46.7578" lon="-0.34364">
        <ele>264.25807</ele>
        <time>2014-08-20T08:47:06Z</time>
      </trkpt>
      <trkpt lat="46.75775" lon="-0.34365">
        <ele>264.41232</ele>
        <time>2014-08-20T08:47:08Z</time>
      </trkpt>
      <trkpt lat="46.75769" lon="-0.34367">
        <ele>264.578491</ele>
        <time>2014-08-20T08:47:10Z</time>
      </trkpt>
      <trkpt lat="46.75764" lon="-0.34368">
        <ele>264.851492</ele>
        <time>2014-08-20T08:47:12Z</time>
      </trkpt>
      <trkpt lat="46.75758" lon="-0.34369">
        <ele>265.128435</ele>
        <time>2014-08-20T08:47:14Z</time>
      </trkpt>
      <trkpt lat="46.75752" lon="-0.3437">
        <ele>265.388452</ele>
        <time>2014-08-20T08:47:16Z</time>
      </trkpt>
      <trkpt lat="46.75747" lon="-0.34372">
        <ele>265.633632</ele>
        <time>2014-08-20T08:47:18Z</time>
      </trkpt>
      <trkpt lat="46.75741" lon="-0.34374">
        <ele>265.821581</ele>
        <time>2014-08-20T08:47:20Z</time>
      </trkpt>
      <trkpt lat="46.75736" lon="-0.34374">
        <ele>265.931437</ele>
        <time>2014-08-20T08:47:22Z</time>
      </trkpt>
      <trkpt lat="46.75732" lon="-0.34376">
        <ele>266.147802</ele>
        <time>2014-08-20T08:47:24Z</time>
      </trkpt>
      <trkpt lat="46.75727" lon="-0.34378">
        <ele>266.399336</ele>
        <time>2014-08-20T08:47:26Z</time>
      </trkpt>
      <trkpt lat="46.75722" lon="-0.34381">
        <ele>266.545801</ele>
        <time>2014-08-20T08:47:28Z</time>
      </trkpt>
      <trkpt lat="46.75716" lon="-0.34382">
        <ele>266.569311</ele>
        <time>2014-08-20T08:47:30Z</time>
      </trkpt>
      <trkpt lat="46.75711" lon="-0.34383">
        <ele>266.516511</ele>
        <time>2014-08-20T08:47:32Z</time>
      </trkpt>
      <trkpt lat="46.75707" lon="-0.34384">
        <ele>266.618418</ele>
        <time>2014-08-20T08:47:34Z</time>
      </trkpt>
      <trkpt lat="46.75702" lon="-0.34384">
        <ele>266.721307</ele>
        <time>2014-08-20T08:47:36Z</time>
      </trkpt>
      <trkpt lat="46.75697" lon="-0.34385">
        <ele>266.845225</ele>
        <time>2014-08-20T08:47:38Z</time>
      </trkpt>
      <trkpt lat="46.75691" lon="-0.34386">
        <ele>266.849131</ele>
        <time>2014-08-20T08:47:40Z</time>
      </trkpt>
      <trkpt lat="46.75686" lon="-0.34387">
        <ele>266.756833</ele>
        <time>2014-08-20T08:47:42Z</time>
      </trkpt>
      <trkpt lat="46.75681" lon="-0.34389">
        <ele>266.522745</ele>
        <time>2014-08-20T08:47:45Z</time>
      </trkpt>
      <trkpt lat="46.75676" lon="-0.34391">
        <ele>266.375269</ele>
        <time>2014-08-20T08:47:47Z</time>
      </trkpt>
      <trkpt lat="46.7567" lon="-0.34393">
        <ele>266.216344</ele>
        <time>2014-08-20T08:47:49Z</time>
      </trkpt>
      <trkpt lat="46.75665" lon="-0.34396">
        <ele>266.036473</ele>
        <time>2014-08-20T08:47:51Z</time>
      </trkpt>
      <trkpt lat="46.75659" lon="-0.34397">
        <ele>265.748279</ele>
        <time>2014-08-20T08:47:53Z</time>
      </trkpt>
      <trkpt lat="46.75654" lon="-0.34399">
        <ele>265.282249</ele>
        <time>2014-08-20T08:47:55Z</time>
      </trkpt>
      <trkpt lat="46.75648" lon="-0.34401">
        <ele>264.844975</ele>
        <time>2014-08-20T08:47:57Z</time>
      </trkpt>
      <trkpt lat="46.75643" lon="-0.34404">
        <ele>264.475796</ele>
        <time>2014-08-20T08:47:59Z</time>
      </trkpt>
      <trkpt lat="46.75638" lon="-0.34407">
        <ele>264.198937</ele>
        <time>2014-08-20T08:48:01Z</time>
      </trkpt>
      <trkpt lat="46.75634" lon="-0.3441">
        <ele>263.994702</ele>
        <time>2014-08-20T08:48:03Z</time>
      </trkpt>
      <trkpt lat="46.75628" lon="-0.34416">
        <ele>263.804567</ele>
        <time>2014-08-20T08:48:06Z</time>
      </trkpt>
      <trkpt lat="46.75623" lon="-0.3442">
        <ele>263.69749</ele>
        <time>2014-08-20T08:48:08Z</time>
      </trkpt>
      <trkpt lat="46.75618" lon="-0.34427">
        <ele>263.641767</ele>
        <time>2014-08-20T08:48:10Z</time>
      </trkpt>
      <trkpt lat="46.75614" lon="-0.34433">
        <ele>263.547827</ele>
        <time>2014-08-20T08:48:12Z</time>
      </trkpt>
      <trkpt lat="46.75611" lon="-0.34439">
        <ele>263.474643</ele>
        <time>2014-08-20T08:48:14Z</time>
      </trkpt>
      <trkpt lat="46.75608" lon="-0.34444">
        <ele>263.493827</ele>
        <time>2014-08-20T08:48:16Z</time>
      </trkpt>
      <trkpt lat="46.75605" lon="-0.34451">
        <ele>263.422634</ele>
        <time>2014-08-20T08:48:18Z</time>
      </trkpt>
      <trkpt lat="46.75603" lon="-0.34458">
        <ele>263.419407</ele>
        <time>2014-08-20T08:48:20Z</time>
      </trkpt>
      <trkpt lat="46.75599" lon="-0.34468">
        <ele>263.159749</ele>
        <time>2014-08-20T08:48:23Z</time>
      </trkpt>
      <trkpt lat="46.75597" lon="-0.34475">
        <ele>262.9433</ele>
        <time>2014-08-20T08:48:25Z</time>
      </trkpt>
      <trkpt lat="46.75595" lon="-0.34482">
        <ele>262.708003</ele>
        <time>2014-08-20T08:48:27Z</time>
      </trkpt>
      <trkpt lat="46.75592" lon="-0.34489">
        <ele>262.651004</ele>
        <time>2014-08-20T08:48:29Z</time>
      </trkpt>
      <trkpt lat="46.75591" lon="-0.34497">
        <ele>262.636645</ele>
        <time>2014-08-20T08:48:31Z</time>
      </trkpt>
      <trkpt lat="46.75589" lon="-0.34504">
        <ele>262.701976</ele>
        <time>2014-08-20T08:48:33Z</time>
      </trkpt>
      <trkpt lat="46.75589" lon="-0.34512">
        <ele>262.550842</ele>
        <time>2014-08-20T08:48:35Z</time>
      </trkpt>
      <trkpt lat="46.75588" lon="-0.3452">
        <ele>262.367163</ele>
        <time>2014-08-20T08:48:37Z</time>
      </trkpt>
      <trkpt lat="46.75588" lon="-0.34526">
        <ele>262.170904</ele>
        <time>2014-08-20T08:48:39Z</time>
      </trkpt>
      <trkpt lat="46.75587" lon="-0.34534">
        <ele>262.106118</ele>
        <time>2014-08-20T08:48:41Z</time>
      </trkpt>
      <trkpt lat="46.75587" lon="-0.34543">
        <ele>262.114123</ele>
        <time>2014-08-20T08:48:43Z</time>
      </trkpt>
      <trkpt lat="46.75586" lon="-0.3455">
        <ele>262.037765</ele>
        <time>2014-08-20T08:48:45Z</time>
      </trkpt>
      <trkpt lat="46.75586" lon="-0.34556">
        <ele>261.907552</ele>
        <time>2014-08-20T08:48:47Z</time>
      </trkpt>
      <trkpt lat="46.75585" lon="-0.34566">
        <ele>261.882867</ele>
        <time>2014-08-20T08:48:50Z</time>
      </trkpt>
      <trkpt lat="46.75584" lon="-0.34573">
        <ele>261.813831</ele>
        <time>2014-08-20T08:48:52Z</time>
      </trkpt>
      <trkpt lat="46.75582" lon="-0.3458">
        <ele>261.685216</ele>
        <time>2014-08-20T08:48:54Z</time>
      </trkpt>
      <trkpt lat="46.75581" lon="-0.34587">
        <ele>261.646777</ele>
        <time>2014-08-20T08:48:56Z</time>
      </trkpt>
      <trkpt lat="46.7558" lon="-0.34594">
        <ele>261.63195</ele>
        <time>2014-08-20T08:48:58Z</time>
      </trkpt>
      <trkpt lat="46.75577" lon="-0.34603">
        <ele>261.556442</ele>
        <time>2014-08-20T08:49:01Z</time>
      </trkpt>
      <trkpt lat="46.75575" lon="-0.3461">
        <ele>261.512306</ele>
        <time>2014-08-20T08:49:03Z</time>
      </trkpt>
      <trkpt lat="46.75571" lon="-0.34619">
        <ele>261.378535</ele>
        <time>2014-08-20T08:49:05Z</time>
      </trkpt>
      <trkpt lat="46.75569" lon="-0.34625">
        <ele>261.221585</ele>
        <time>2014-08-20T08:49:07Z</time>
      </trkpt>
      <trkpt lat="46.75566" lon="-0.34631">
        <ele>261.067707</ele>
        <time>2014-08-20T08:49:09Z</time>
      </trkpt>
      <trkpt lat="46.75563" lon="-0.34637">
        <ele>260.87773</ele>
        <time>2014-08-20T08:49:11Z</time>
      </trkpt>
      <trkpt lat="46.75559" lon="-0.34643">
        <ele>260.766807</ele>
        <time>2014-08-20T08:49:13Z</time>
      </trkpt>
      <trkpt lat="46.75555" lon="-0.34648">
        <ele>260.76822</ele>
        <time>2014-08-20T08:49:15Z</time>
      </trkpt>
      <trkpt lat="46.75552" lon="-0.34653">
        <ele>260.759437</ele>
        <time>2014-08-20T08:49:17Z</time>
      </trkpt>
      <trkpt lat="46.75546" lon="-0.34659">
        <ele>260.616071</ele>
        <time>2014-08-20T08:49:20Z</time>
      </trkpt>
      <trkpt lat="46.75541" lon="-0.34663">
        <ele>260.462767</ele>
        <time>2014-08-20T08:49:22Z</time>
      </trkpt>
      <trkpt lat="46.75537" lon="-0.34667">
        <ele>260.423787</ele>
        <time>2014-08-20T08:49:24Z</time>
      </trkpt>
      <trkpt lat="46.75533" lon="-0.34671">
        <ele>260.279262</ele>
        <time>2014-08-20T08:49:26Z</time>
      </trkpt>
      <trkpt lat="46.75527" lon="-0.34676">
        <ele>260.209605</ele>
        <time>2014-08-20T08:49:28Z</time>
      </trkpt>
      <trkpt lat="46.75521" lon="-0.34681">
        <ele>260.125951</ele>
        <time>2014-08-20T08:49:30Z</time>
      </trkpt>
      <trkpt lat="46.75516" lon="-0.34685">
        <ele>259.992427</ele>
        <time>2014-08-20T08:49:32Z</time>
      </trkpt>
      <trkpt lat="46.75512" lon="-0.34689">
        <ele>259.755054</ele>
        <time>2014-08-20T08:49:34Z</time>
      </trkpt>
      <trkpt lat="46.75507" lon="-0.34694">
        <ele>259.583253</ele>
        <time>2014-08-20T08:49:36Z</time>
      </trkpt>
      <trkpt lat="46.75502" lon="-0.34699">
        <ele>259.358024</ele>
        <time>2014-08-20T08:49:38Z</time>
      </trkpt>
      <trkpt lat="46.75497" lon="-0.34704">
        <ele>258.980486</ele>
        <time>2014-08-20T08:49:41Z</time>
      </trkpt>
      <trkpt lat="46.75493" lon="-0.34708">
        <ele>258.781048</ele>
        <time>2014-08-20T08:49:43Z</time>
      </trkpt>
      <trkpt lat="46.75489" lon="-0.34712">
        <ele>258.573065</ele>
        <time>2014-08-20T08:49:45Z</time>
      </trkpt>
      <trkpt lat="46.75485" lon="-0.34716">
        <ele>258.291584</ele>
        <time>2014-08-20T08:49:47Z</time>
      </trkpt>
      <trkpt lat="46.75481" lon="-0.34719">
        <ele>258.117406</ele>
        <time>2014-08-20T08:49:49Z</time>
      </trkpt>
      <trkpt lat="46.75476" lon="-0.34723">
        <ele>258.131908</ele>
        <time>2014-08-20T08:49:51Z</time>
      </trkpt>
      <trkpt lat="46.75471" lon="-0.34727">
        <ele>258.151615</ele>
        <time>2014-08-20T08:49:53Z</time>
      </trkpt>
      <trkpt lat="46.75466" lon="-0.34732">
        <ele>258.215183</ele>
        <time>2014-08-20T08:49:55Z</time>
      </trkpt>
      <trkpt lat="46.75461" lon="-0.34736">
        <ele>258.204498</ele>
        <time>2014-08-20T08:49:57Z</time>
      </trkpt>
      <trkpt lat="46.75455" lon="-0.34741">
        <ele>257.874426</ele>
        <time>2014-08-20T08:50:00Z</time>
      </trkpt>
      <trkpt lat="46.75451" lon="-0.34745">
        <ele>257.562088</ele>
        <time>2014-08-20T08:50:02Z</time>
      </trkpt>
      <trkpt lat="46.75447" lon="-0.34749">
        <ele>257.164568</ele>
        <time>2014-08-20T08:50:04Z</time>
      </trkpt>
      <trkpt lat="46.75442" lon="-0.34753">
        <ele>256.80855</ele>
        <time>2014-08-20T08:50:06Z</time>
      </trkpt>
      <trkpt lat="46.75438" lon="-0.34756">
        <ele>256.603329</ele>
        <time>2014-08-20T08:50:08Z</time>
      </trkpt>
      <trkpt lat="46.75432" lon="-0.34762">
        <ele>256.341716</ele>
        <time>2014-08-20T08:50:11Z</time>
      </trkpt>
      <trkpt lat="46.75427" lon="-0.34766">
        <ele>256.037424</ele>
        <time>2014-08-20T08:50:13Z</time>
      </trkpt>
      <trkpt lat="46.75422" lon="-0.34769">
        <ele>255.731446</ele>
        <time>2014-08-20T08:50:15Z</time>
      </trkpt>
      <trkpt lat="46.75416" lon="-0.34771">
        <ele>255.545181</ele>
        <time>2014-08-20T08:50:17Z</time>
      </trkpt>
      <trkpt lat="46.75411" lon="-0.34774">
        <ele>255.341009</ele>
        <time>2014-08-20T08:50:19Z</time>
      </trkpt>
      <trkpt lat="46.75405" lon="-0.34778">
        <ele>254.85331</ele>
        <time>2014-08-20T08:50:22Z</time>
      </trkpt>
      <trkpt lat="46.75399" lon="-0.3478">
        <ele>254.522047</ele>
        <time>2014-08-20T08:50:24Z</time>
      </trkpt>
      <trkpt lat="46.75394" lon="-0.34782">
        <ele>254.213561</ele>
        <time>2014-08-20T08:50:26Z</time>
      </trkpt>
      <trkpt lat="46.75389" lon="-0.34785">
        <ele>254.031035</ele>
        <time>2014-08-20T08:50:28Z</time>
      </trkpt>
      <trkpt lat="46.75383" lon="-0.34788">
        <ele>253.939184</ele>
        <time>2014-08-20T08:50:30Z</time>
      </trkpt>
      <trkpt lat="46.75378" lon="-0.34791">
        <ele>253.825878</ele>
        <time>2014-08-20T08:50:32Z</time>
      </trkpt>
      <trkpt lat="46.75374" lon="-0.34793">
        <ele>253.742408</ele>
        <time>2014-08-20T08:50:34Z</time>
      </trkpt>
      <trkpt lat="46.75369" lon="-0.34796">
        <ele>253.633458</ele>
        <time>2014-08-20T08:50:36Z</time>
      </trkpt>
      <trkpt lat="46.75364" lon="-0.34797">
        <ele>253.530161</ele>
        <time>2014-08-20T08:50:38Z</time>
      </trkpt>
      <trkpt lat="46.7536" lon="-0.348">
        <ele>253.52816</ele>
        <time>2014-08-20T08:50:40Z</time>
      </trkpt>
      <trkpt lat="46.75355" lon="-0.34803">
        <ele>253.570916</ele>
        <time>2014-08-20T08:50:42Z</time>
      </trkpt>
      <trkpt lat="46.75349" lon="-0.34806">
        <ele>253.560532</ele>
        <time>2014-08-20T08:50:44Z</time>
      </trkpt>
      <trkpt lat="46.75343" lon="-0.34809">
        <ele>253.397427</ele>
        <time>2014-08-20T08:50:46Z</time>
      </trkpt>
      <trkpt lat="46.75339" lon="-0.34811">
        <ele>253.244581</ele>
        <time>2014-08-20T08:50:48Z</time>
      </trkpt>
      <trkpt lat="46.75334" lon="-0.34813">
        <ele>253.029151</ele>
        <time>2014-08-20T08:50:50Z</time>
      </trkpt>
      <trkpt lat="46.75328" lon="-0.34816">
        <ele>252.857364</ele>
        <time>2014-08-20T08:50:52Z</time>
      </trkpt>
      <trkpt lat="46.75323" lon="-0.34818">
        <ele>252.713116</ele>
        <time>2014-08-20T08:50:54Z</time>
      </trkpt>
      <trkpt lat="46.75319" lon="-0.34821">
        <ele>252.496508</ele>
        <time>2014-08-20T08:50:56Z</time>
      </trkpt>
      <trkpt lat="46.75314" lon="-0.34824">
        <ele>252.340392</ele>
        <time>2014-08-20T08:50:58Z</time>
      </trkpt>
      <trkpt lat="46.75309" lon="-0.34826">
        <ele>252.244626</ele>
        <time>2014-08-20T08:51:00Z</time>
      </trkpt>
      <trkpt lat="46.75304" lon="-0.34828">
        <ele>252.211212</ele>
        <time>2014-08-20T08:51:02Z</time>
      </trkpt>
      <trkpt lat="46.75299" lon="-0.34831">
        <ele>252.090918</ele>
        <time>2014-08-20T08:51:04Z</time>
      </trkpt>
      <trkpt lat="46.75294" lon="-0.34834">
        <ele>251.965534</ele>
        <time>2014-08-20T08:51:06Z</time>
      </trkpt>
      <trkpt lat="46.75289" lon="-0.34837">
        <ele>251.854415</ele>
        <time>2014-08-20T08:51:08Z</time>
      </trkpt>
      <trkpt lat="46.75284" lon="-0.34841">
        <ele>251.671373</ele>
        <time>2014-08-20T08:51:10Z</time>
      </trkpt>
      <trkpt lat="46.75278" lon="-0.34845">
        <ele>251.32267</ele>
        <time>2014-08-20T08:51:13Z</time>
      </trkpt>
      <trkpt lat="46.75274" lon="-0.34848">
        <ele>251.195249</ele>
        <time>2014-08-20T08:51:15Z</time>
      </trkpt>
      <trkpt lat="46.75269" lon="-0.34851">
        <ele>251.208848</ele>
        <time>2014-08-20T08:51:17Z</time>
      </trkpt>
      <trkpt lat="46.75263" lon="-0.34854">
        <ele>251.212074</ele>
        <time>2014-08-20T08:51:20Z</time>
      </trkpt>
      <trkpt lat="46.75258" lon="-0.34857">
        <ele>251.264529</ele>
        <time>2014-08-20T08:51:22Z</time>
      </trkpt>
      <trkpt lat="46.75253" lon="-0.3486">
        <ele>251.304685</ele>
        <time>2014-08-20T08:51:24Z</time>
      </trkpt>
      <trkpt lat="46.75248" lon="-0.34864">
        <ele>251.369554</ele>
        <time>2014-08-20T08:51:26Z</time>
      </trkpt>
      <trkpt lat="46.75244" lon="-0.34867">
        <ele>251.301527</ele>
        <time>2014-08-20T08:51:28Z</time>
      </trkpt>
      <trkpt lat="46.7524" lon="-0.34871">
        <ele>251.214307</ele>
        <time>2014-08-20T08:51:30Z</time>
      </trkpt>
      <trkpt lat="46.75234" lon="-0.34874">
        <ele>251.161702</ele>
        <time>2014-08-20T08:51:32Z</time>
      </trkpt>
      <trkpt lat="46.7523" lon="-0.34877">
        <ele>251.179379</ele>
        <time>2014-08-20T08:51:34Z</time>
      </trkpt>
      <trkpt lat="46.75225" lon="-0.34879">
        <ele>251.228688</ele>
        <time>2014-08-20T08:51:36Z</time>
      </trkpt>
      <trkpt lat="46.75219" lon="-0.34882">
        <ele>251.260811</ele>
        <time>2014-08-20T08:51:38Z</time>
      </trkpt>
      <trkpt lat="46.75214" lon="-0.34886">
        <ele>251.212331</ele>
        <time>2014-08-20T08:51:40Z</time>
      </trkpt>
      <trkpt lat="46.7521" lon="-0.34889">
        <ele>251.175418</ele>
        <time>2014-08-20T08:51:42Z</time>
      </trkpt>
      <trkpt lat="46.75204" lon="-0.34894">
        <ele>251.104199</ele>
        <time>2014-08-20T08:51:44Z</time>
      </trkpt>
      <trkpt lat="46.752" lon="-0.34897">
        <ele>251.070504</ele>
        <time>2014-08-20T08:51:46Z</time>
      </trkpt>
      <trkpt lat="46.75197" lon="-0.34902">
        <ele>250.96427</ele>
        <time>2014-08-20T08:51:48Z</time>
      </trkpt>
      <trkpt lat="46.75191" lon="-0.34908">
        <ele>250.969993</ele>
        <time>2014-08-20T08:51:51Z</time>
      </trkpt>
      <trkpt lat="46.75188" lon="-0.34911">
        <ele>250.863783</ele>
        <time>2014-08-20T08:51:53Z</time>
      </trkpt>
      <trkpt lat="46.75182" lon="-0.34917">
        <ele>250.596883</ele>
        <time>2014-08-20T08:51:56Z</time>
      </trkpt>
      <trkpt lat="46.75178" lon="-0.3492">
        <ele>250.423917</ele>
        <time>2014-08-20T08:51:58Z</time>
      </trkpt>
      <trkpt lat="46.75172" lon="-0.34923">
        <ele>250.198152</ele>
        <time>2014-08-20T08:52:00Z</time>
      </trkpt>
      <trkpt lat="46.75168" lon="-0.34928">
        <ele>249.969044</ele>
        <time>2014-08-20T08:52:02Z</time>
      </trkpt>
      <trkpt lat="46.75162" lon="-0.34933">
        <ele>249.92436</ele>
        <time>2014-08-20T08:52:04Z</time>
      </trkpt>
      <trkpt lat="46.75158" lon="-0.34938">
        <ele>249.972432</ele>
        <time>2014-08-20T08:52:06Z</time>
      </trkpt>
      <trkpt lat="46.75154" lon="-0.34942">
        <ele>250.038355</ele>
        <time>2014-08-20T08:52:08Z</time>
      </trkpt>
      <trkpt lat="46.75148" lon="-0.34948">
        <ele>249.967768</ele>
        <time>2014-08-20T08:52:11Z</time>
      </trkpt>
      <trkpt lat="46.75144" lon="-0.34953">
        <ele>249.879212</ele>
        <time>2014-08-20T08:52:13Z</time>
      </trkpt>
      <trkpt lat="46.75139" lon="-0.34957">
        <ele>249.823885</ele>
        <time>2014-08-20T08:52:15Z</time>
      </trkpt>
      <trkpt lat="46.75133" lon="-0.34962">
        <ele>249.790898</ele>
        <time>2014-08-20T08:52:18Z</time>
      </trkpt>
      <trkpt lat="46.75129" lon="-0.34965">
        <ele>249.801227</ele>
        <time>2014-08-20T08:52:20Z</time>
      </trkpt>
      <trkpt lat="46.75125" lon="-0.34969">
        <ele>249.785292</ele>
        <time>2014-08-20T08:52:22Z</time>
      </trkpt>
      <trkpt lat="46.7512" lon="-0.34975">
        <ele>249.815749</ele>
        <time>2014-08-20T08:52:24Z</time>
      </trkpt>
      <trkpt lat="46.75114" lon="-0.3498">
        <ele>249.897442</ele>
        <time>2014-08-20T08:52:27Z</time>
      </trkpt>
      <trkpt lat="46.7511" lon="-0.34983">
        <ele>249.873519</ele>
        <time>2014-08-20T08:52:29Z</time>
      </trkpt>
      <trkpt lat="46.75104" lon="-0.34988">
        <ele>249.825765</ele>
        <time>2014-08-20T08:52:32Z</time>
      </trkpt>
      <trkpt lat="46.75099" lon="-0.34993">
        <ele>249.808747</ele>
        <time>2014-08-20T08:52:34Z</time>
      </trkpt>
      <trkpt lat="46.75093" lon="-0.34998">
        <ele>249.675129</ele>
        <time>2014-08-20T08:52:37Z</time>
      </trkpt>
      <trkpt lat="46.75089" lon="-0.35003">
        <ele>249.442253</ele>
        <time>2014-08-20T08:52:39Z</time>
      </trkpt>
      <trkpt lat="46.75085" lon="-0.35008">
        <ele>249.099004</ele>
        <time>2014-08-20T08:52:41Z</time>
      </trkpt>
      <trkpt lat="46.7508" lon="-0.35013">
        <ele>248.516886</ele>
        <time>2014-08-20T08:52:44Z</time>
      </trkpt>
      <trkpt lat="46.75076" lon="-0.35017">
        <ele>248.291181</ele>
        <time>2014-08-20T08:52:46Z</time>
      </trkpt>
      <trkpt lat="46.75071" lon="-0.35022">
        <ele>248.035529</ele>
        <time>2014-08-20T08:52:49Z</time>
      </trkpt>
      <trkpt lat="46.75067" lon="-0.35028">
        <ele>247.805937</ele>
        <time>2014-08-20T08:52:52Z</time>
      </trkpt>
      <trkpt lat="46.75062" lon="-0.35032">
        <ele>247.639974</ele>
        <time>2014-08-20T08:52:54Z</time>
      </trkpt>
      <trkpt lat="46.75057" lon="-0.35038">
        <ele>247.47509</ele>
        <time>2014-08-20T08:52:56Z</time>
      </trkpt>
      <trkpt lat="46.75053" lon="-0.35043">
        <ele>247.406447</ele>
        <time>2014-08-20T08:52:58Z</time>
      </trkpt>
      <trkpt lat="46.75048" lon="-0.35048">
        <ele>247.445138</ele>
        <time>2014-08-20T08:53:00Z</time>
      </trkpt>
      <trkpt lat="46.75043" lon="-0.35053">
        <ele>247.465378</ele>
        <time>2014-08-20T08:53:02Z</time>
      </trkpt>
      <trkpt lat="46.75039" lon="-0.35056">
        <ele>247.496161</ele>
        <time>2014-08-20T08:53:04Z</time>
      </trkpt>
      <trkpt lat="46.75034" lon="-0.35059">
        <ele>247.609105</ele>
        <time>2014-08-20T08:53:06Z</time>
      </trkpt>
      <trkpt lat="46.7503" lon="-0.35062">
        <ele>247.773756</ele>
        <time>2014-08-20T08:53:08Z</time>
      </trkpt>
      <trkpt lat="46.75025" lon="-0.35064">
        <ele>248.035963</ele>
        <time>2014-08-20T08:53:10Z</time>
      </trkpt>
      <trkpt lat="46.7502" lon="-0.35069">
        <ele>248.308352</ele>
        <time>2014-08-20T08:53:13Z</time>
      </trkpt>
      <trkpt lat="46.75015" lon="-0.35073">
        <ele>248.600123</ele>
        <time>2014-08-20T08:53:15Z</time>
      </trkpt>
      <trkpt lat="46.75011" lon="-0.35077">
        <ele>249.007316</ele>
        <time>2014-08-20T08:53:17Z</time>
      </trkpt>
      <trkpt lat="46.75007" lon="-0.3508">
        <ele>249.330545</ele>
        <time>2014-08-20T08:53:19Z</time>
      </trkpt>
      <trkpt lat="46.75001" lon="-0.35085">
        <ele>249.670217</ele>
        <time>2014-08-20T08:53:22Z</time>
      </trkpt>
      <trkpt lat="46.74997" lon="-0.35088">
        <ele>249.869409</ele>
        <time>2014-08-20T08:53:24Z</time>
      </trkpt>
      <trkpt lat="46.74993" lon="-0.35092">
        <ele>250.102152</ele>
        <time>2014-08-20T08:53:26Z</time>
      </trkpt>
      <trkpt lat="46.74989" lon="-0.35095">
        <ele>250.329209</ele>
        <time>2014-08-20T08:53:28Z</time>
      </trkpt>
      <trkpt lat="46.74984" lon="-0.351">
        <ele>250.506662</ele>
        <time>2014-08-20T08:53:30Z</time>
      </trkpt>
      <trkpt lat="46.74979" lon="-0.35105">
        <ele>250.702655</ele>
        <time>2014-08-20T08:53:33Z</time>
      </trkpt>
      <trkpt lat="46.74975" lon="-0.35109">
        <ele>250.873199</ele>
        <time>2014-08-20T08:53:35Z</time>
      </trkpt>
      <trkpt lat="46.74971" lon="-0.35113">
        <ele>251.025212</ele>
        <time>2014-08-20T08:53:37Z</time>
      </trkpt>
      <trkpt lat="46.74967" lon="-0.35117">
        <ele>251.285815</ele>
        <time>2014-08-20T08:53:39Z</time>
      </trkpt>
      <trkpt lat="46.74961" lon="-0.35123">
        <ele>251.61459</ele>
        <time>2014-08-20T08:53:42Z</time>
      </trkpt>
      <trkpt lat="46.74956" lon="-0.35128">
        <ele>251.712972</ele>
        <time>2014-08-20T08:53:44Z</time>
      </trkpt>
      <trkpt lat="46.74952" lon="-0.35134">
        <ele>251.640623</ele>
        <time>2014-08-20T08:53:46Z</time>
      </trkpt>
      <trkpt lat="46.74947" lon="-0.35138">
        <ele>251.571852</ele>
        <time>2014-08-20T08:53:48Z</time>
      </trkpt>
      <trkpt lat="46.74944" lon="-0.35143">
        <ele>251.553688</ele>
        <time>2014-08-20T08:53:50Z</time>
      </trkpt>
      <trkpt lat="46.74941" lon="-0.35148">
        <ele>251.550538</ele>
        <time>2014-08-20T08:53:52Z</time>
      </trkpt>
      <trkpt lat="46.74935" lon="-0.35155">
        <ele>251.571598</ele>
        <time>2014-08-20T08:53:55Z</time>
      </trkpt>
      <trkpt lat="46.74931" lon="-0.35161">
        <ele>251.572488</ele>
        <time>2014-08-20T08:53:57Z</time>
      </trkpt>
      <trkpt lat="46.74928" lon="-0.35167">
        <ele>251.492864</ele>
        <time>2014-08-20T08:53:59Z</time>
      </trkpt>
      <trkpt lat="46.74924" lon="-0.35172">
        <ele>251.49092</ele>
        <time>2014-08-20T08:54:01Z</time>
      </trkpt>
      <trkpt lat="46.7492" lon="-0.35179">
        <ele>251.583753</ele>
        <time>2014-08-20T08:54:04Z</time>
      </trkpt>
      <trkpt lat="46.74917" lon="-0.35185">
        <ele>251.737145</ele>
        <time>2014-08-20T08:54:06Z</time>
      </trkpt>
      <trkpt lat="46.74914" lon="-0.3519">
        <ele>252.01849</ele>
        <time>2014-08-20T08:54:08Z</time>
      </trkpt>
      <trkpt lat="46.7491" lon="-0.35195">
        <ele>252.112524</ele>
        <time>2014-08-20T08:54:10Z</time>
      </trkpt>
      <trkpt lat="46.74908" lon="-0.35201">
        <ele>252.320164</ele>
        <time>2014-08-20T08:54:12Z</time>
      </trkpt>
      <trkpt lat="46.74904" lon="-0.35209">
        <ele>252.648677</ele>
        <time>2014-08-20T08:54:15Z</time>
      </trkpt>
      <trkpt lat="46.74901" lon="-0.35216">
        <ele>252.881818</ele>
        <time>2014-08-20T08:54:18Z</time>
      </trkpt>
      <trkpt lat="46.74899" lon="-0.35224">
        <ele>253.075838</ele>
        <time>2014-08-20T08:54:20Z</time>
      </trkpt>
      <trkpt lat="46.74896" lon="-0.35231">
        <ele>253.196327</ele>
        <time>2014-08-20T08:54:22Z</time>
      </trkpt>
      <trkpt lat="46.74893" lon="-0.35236">
        <ele>253.352622</ele>
        <time>2014-08-20T08:54:24Z</time>
      </trkpt>
      <trkpt lat="46.74891" lon="-0.35243">
        <ele>253.642284</ele>
        <time>2014-08-20T08:54:26Z</time>
      </trkpt>
      <trkpt lat="46.74888" lon="-0.35248">
        <ele>253.941158</ele>
        <time>2014-08-20T08:54:28Z</time>
      </trkpt>
      <trkpt lat="46.74885" lon="-0.35254">
        <ele>254.231316</ele>
        <time>2014-08-20T08:54:30Z</time>
      </trkpt>
      <trkpt lat="46.74881" lon="-0.3526">
        <ele>254.65795</ele>
        <time>2014-08-20T08:54:32Z</time>
      </trkpt>
      <trkpt lat="46.74878" lon="-0.35266">
        <ele>255.117931</ele>
        <time>2014-08-20T08:54:34Z</time>
      </trkpt>
      <trkpt lat="46.74875" lon="-0.35272">
        <ele>255.464818</ele>
        <time>2014-08-20T08:54:36Z</time>
      </trkpt>
      <trkpt lat="46.74872" lon="-0.35278">
        <ele>255.746838</ele>
        <time>2014-08-20T08:54:38Z</time>
      </trkpt>
      <trkpt lat="46.74869" lon="-0.35286">
        <ele>255.971137</ele>
        <time>2014-08-20T08:54:41Z</time>
      </trkpt>
      <trkpt lat="46.74865" lon="-0.35294">
        <ele>256.297323</ele>
        <time>2014-08-20T08:54:44Z</time>
      </trkpt>
      <trkpt lat="46.74862" lon="-0.353">
        <ele>256.431099</ele>
        <time>2014-08-20T08:54:47Z</time>
      </trkpt>
      <trkpt lat="46.74858" lon="-0.35306">
        <ele>256.54575</ele>
        <time>2014-08-20T08:54:49Z</time>
      </trkpt>
      <trkpt lat="46.74854" lon="-0.35312">
        <ele>256.652619</ele>
        <time>2014-08-20T08:54:51Z</time>
      </trkpt>
      <trkpt lat="46.74849" lon="-0.35317">
        <ele>256.907424</ele>
        <time>2014-08-20T08:54:54Z</time>
      </trkpt>
      <trkpt lat="46.74845" lon="-0.35322">
        <ele>257.023748</ele>
        <time>2014-08-20T08:54:56Z</time>
      </trkpt>
      <trkpt lat="46.74841" lon="-0.35326">
        <ele>257.143596</ele>
        <time>2014-08-20T08:54:58Z</time>
      </trkpt>
      <trkpt lat="46.74837" lon="-0.3533">
        <ele>257.258798</ele>
        <time>2014-08-20T08:55:00Z</time>
      </trkpt>
      <trkpt lat="46.74832" lon="-0.35335">
        <ele>257.318776</ele>
        <time>2014-08-20T08:55:02Z</time>
      </trkpt>
      <trkpt lat="46.74828" lon="-0.35339">
        <ele>257.382007</ele>
        <time>2014-08-20T08:55:04Z</time>
      </trkpt>
      <trkpt lat="46.74824" lon="-0.35343">
        <ele>257.422128</ele>
        <time>2014-08-20T08:55:06Z</time>
      </trkpt>
      <trkpt lat="46.7482" lon="-0.35347">
        <ele>257.486177</ele>
        <time>2014-08-20T08:55:08Z</time>
      </trkpt>
      <trkpt lat="46.74816" lon="-0.3535">
        <ele>257.540579</ele>
        <time>2014-08-20T08:55:10Z</time>
      </trkpt>
      <trkpt lat="46.74811" lon="-0.35354">
        <ele>257.526276</ele>
        <time>2014-08-20T08:55:12Z</time>
      </trkpt>
      <trkpt lat="46.74806" lon="-0.35357">
        <ele>257.464839</ele>
        <time>2014-08-20T08:55:14Z</time>
      </trkpt>
      <trkpt lat="46.748" lon="-0.3536">
        <ele>257.45943</ele>
        <time>2014-08-20T08:55:16Z</time>
      </trkpt>
      <trkpt lat="46.74795" lon="-0.35362">
        <ele>257.505167</ele>
        <time>2014-08-20T08:55:18Z</time>
      </trkpt>
      <trkpt lat="46.7479" lon="-0.35365">
        <ele>257.56884</ele>
        <time>2014-08-20T08:55:20Z</time>
      </trkpt>
      <trkpt lat="46.74785" lon="-0.35368">
        <ele>257.618241</ele>
        <time>2014-08-20T08:55:22Z</time>
      </trkpt>
      <trkpt lat="46.74781" lon="-0.35371">
        <ele>257.606214</ele>
        <time>2014-08-20T08:55:24Z</time>
      </trkpt>
      <trkpt lat="46.74777" lon="-0.35375">
        <ele>257.616141</ele>
        <time>2014-08-20T08:55:26Z</time>
      </trkpt>
      <trkpt lat="46.7477" lon="-0.35378">
        <ele>257.632989</ele>
        <time>2014-08-20T08:55:29Z</time>
      </trkpt>
      <trkpt lat="46.74766" lon="-0.35381">
        <ele>257.706195</ele>
        <time>2014-08-20T08:55:31Z</time>
      </trkpt>
      <trkpt lat="46.74761" lon="-0.35384">
        <ele>257.800363</ele>
        <time>2014-08-20T08:55:33Z</time>
      </trkpt>
      <trkpt lat="46.74756" lon="-0.35387">
        <ele>257.847873</ele>
        <time>2014-08-20T08:55:35Z</time>
      </trkpt>
      <trkpt lat="46.74751" lon="-0.3539">
        <ele>257.856163</ele>
        <time>2014-08-20T08:55:37Z</time>
      </trkpt>
      <trkpt lat="46.74747" lon="-0.35394">
        <ele>257.973378</ele>
        <time>2014-08-20T08:55:39Z</time>
      </trkpt>
      <trkpt lat="46.74743" lon="-0.35397">
        <ele>258.128021</ele>
        <time>2014-08-20T08:55:41Z</time>
      </trkpt>
      <trkpt lat="46.74739" lon="-0.35402">
        <ele>258.224088</ele>
        <time>2014-08-20T08:55:43Z</time>
      </trkpt>
      <trkpt lat="46.74734" lon="-0.35405">
        <ele>258.281922</ele>
        <time>2014-08-20T08:55:45Z</time>
      </trkpt>
      <trkpt lat="46.7473" lon="-0.35408">
        <ele>258.314642</ele>
        <time>2014-08-20T08:55:47Z</time>
      </trkpt>
      <trkpt lat="46.74725" lon="-0.35411">
        <ele>258.227902</ele>
        <time>2014-08-20T08:55:49Z</time>
      </trkpt>
      <trkpt lat="46.74719" lon="-0.35416">
        <ele>258.091193</ele>
        <time>2014-08-20T08:55:51Z</time>
      </trkpt>
      <trkpt lat="46.74714" lon="-0.35419">
        <ele>257.915803</ele>
        <time>2014-08-20T08:55:53Z</time>
      </trkpt>
      <trkpt lat="46.74709" lon="-0.35422">
        <ele>257.801409</ele>
        <time>2014-08-20T08:55:55Z</time>
      </trkpt>
      <trkpt lat="46.74704" lon="-0.35424">
        <ele>257.730805</ele>
        <time>2014-08-20T08:55:57Z</time>
      </trkpt>
      <trkpt lat="46.747" lon="-0.35426">
        <ele>257.809919</ele>
        <time>2014-08-20T08:55:59Z</time>
      </trkpt>
      <trkpt lat="46.74695" lon="-0.3543">
        <ele>257.871672</ele>
        <time>2014-08-20T08:56:01Z</time>
      </trkpt>
      <trkpt lat="46.7469" lon="-0.35433">
        <ele>257.999568</ele>
        <time>2014-08-20T08:56:03Z</time>
      </trkpt>
      <trkpt lat="46.74685" lon="-0.35435">
        <ele>258.139811</ele>
        <time>2014-08-20T08:56:05Z</time>
      </trkpt>
      <trkpt lat="46.7468" lon="-0.35438">
        <ele>258.339645</ele>
        <time>2014-08-20T08:56:07Z</time>
      </trkpt>
      <trkpt lat="46.74676" lon="-0.35439">
        <ele>258.642662</ele>
        <time>2014-08-20T08:56:09Z</time>
      </trkpt>
      <trkpt lat="46.74671" lon="-0.3544">
        <ele>258.944985</ele>
        <time>2014-08-20T08:56:11Z</time>
      </trkpt>
      <trkpt lat="46.74665" lon="-0.35442">
        <ele>259.12905</ele>
        <time>2014-08-20T08:56:13Z</time>
      </trkpt>
      <trkpt lat="46.74659" lon="-0.35444">
        <ele>259.260696</ele>
        <time>2014-08-20T08:56:15Z</time>
      </trkpt>
      <trkpt lat="46.74654" lon="-0.35445">
        <ele>259.320416</ele>
        <time>2014-08-20T08:56:17Z</time>
      </trkpt>
      <trkpt lat="46.74648" lon="-0.35447">
        <ele>259.419632</ele>
        <time>2014-08-20T08:56:19Z</time>
      </trkpt>
      <trkpt lat="46.74643" lon="-0.35448">
        <ele>259.467783</ele>
        <time>2014-08-20T08:56:21Z</time>
      </trkpt>
      <trkpt lat="46.74639" lon="-0.3545">
        <ele>259.465074</ele>
        <time>2014-08-20T08:56:23Z</time>
      </trkpt>
      <trkpt lat="46.74634" lon="-0.35451">
        <ele>259.506672</ele>
        <time>2014-08-20T08:56:25Z</time>
      </trkpt>
      <trkpt lat="46.74628" lon="-0.35453">
        <ele>259.558187</ele>
        <time>2014-08-20T08:56:27Z</time>
      </trkpt>
      <trkpt lat="46.74622" lon="-0.35456">
        <ele>259.499999</ele>
        <time>2014-08-20T08:56:29Z</time>
      </trkpt>
      <trkpt lat="46.74617" lon="-0.35458">
        <ele>259.325024</ele>
        <time>2014-08-20T08:56:31Z</time>
      </trkpt>
      <trkpt lat="46.74613" lon="-0.35459">
        <ele>259.204471</ele>
        <time>2014-08-20T08:56:33Z</time>
      </trkpt>
      <trkpt lat="46.74608" lon="-0.35461">
        <ele>259.145985</ele>
        <time>2014-08-20T08:56:35Z</time>
      </trkpt>
      <trkpt lat="46.74603" lon="-0.35463">
        <ele>259.01885</ele>
        <time>2014-08-20T08:56:37Z</time>
      </trkpt>
      <trkpt lat="46.74598" lon="-0.35466">
        <ele>258.760253</ele>
        <time>2014-08-20T08:56:39Z</time>
      </trkpt>
      <trkpt lat="46.74594" lon="-0.35469">
        <ele>258.431377</ele>
        <time>2014-08-20T08:56:41Z</time>
      </trkpt>
      <trkpt lat="46.74589" lon="-0.35471">
        <ele>258.230284</ele>
        <time>2014-08-20T08:56:43Z</time>
      </trkpt>
      <trkpt lat="46.74584" lon="-0.35474">
        <ele>258.064718</ele>
        <time>2014-08-20T08:56:45Z</time>
      </trkpt>
      <trkpt lat="46.74579" lon="-0.35477">
        <ele>257.909059</ele>
        <time>2014-08-20T08:56:47Z</time>
      </trkpt>
      <trkpt lat="46.74574" lon="-0.3548">
        <ele>257.939364</ele>
        <time>2014-08-20T08:56:49Z</time>
      </trkpt>
      <trkpt lat="46.74568" lon="-0.35482">
        <ele>257.942543</ele>
        <time>2014-08-20T08:56:51Z</time>
      </trkpt>
      <trkpt lat="46.74563" lon="-0.35485">
        <ele>257.916932</ele>
        <time>2014-08-20T08:56:53Z</time>
      </trkpt>
      <trkpt lat="46.74557" lon="-0.35489">
        <ele>257.823274</ele>
        <time>2014-08-20T08:56:55Z</time>
      </trkpt>
      <trkpt lat="46.74552" lon="-0.35492">
        <ele>257.619669</ele>
        <time>2014-08-20T08:56:58Z</time>
      </trkpt>
      <trkpt lat="46.74547" lon="-0.35495">
        <ele>257.603258</ele>
        <time>2014-08-20T08:57:00Z</time>
      </trkpt>
      <trkpt lat="46.74541" lon="-0.355">
        <ele>257.654451</ele>
        <time>2014-08-20T08:57:03Z</time>
      </trkpt>
      <trkpt lat="46.74536" lon="-0.35503">
        <ele>257.802057</ele>
        <time>2014-08-20T08:57:05Z</time>
      </trkpt>
      <trkpt lat="46.74532" lon="-0.35506">
        <ele>257.93135</ele>
        <time>2014-08-20T08:57:07Z</time>
      </trkpt>
      <trkpt lat="46.74527" lon="-0.35508">
        <ele>258.044549</ele>
        <time>2014-08-20T08:57:09Z</time>
      </trkpt>
      <trkpt lat="46.74521" lon="-0.35513">
        <ele>258.108874</ele>
        <time>2014-08-20T08:57:12Z</time>
      </trkpt>
      <trkpt lat="46.74516" lon="-0.35518">
        <ele>258.10362</ele>
        <time>2014-08-20T08:57:14Z</time>
      </trkpt>
      <trkpt lat="46.74511" lon="-0.35523">
        <ele>258.069283</ele>
        <time>2014-08-20T08:57:16Z</time>
      </trkpt>
      <trkpt lat="46.74506" lon="-0.35527">
        <ele>258.009149</ele>
        <time>2014-08-20T08:57:18Z</time>
      </trkpt>
      <trkpt lat="46.74502" lon="-0.3553">
        <ele>257.932272</ele>
        <time>2014-08-20T08:57:20Z</time>
      </trkpt>
      <trkpt lat="46.74496" lon="-0.35533">
        <ele>257.830566</ele>
        <time>2014-08-20T08:57:22Z</time>
      </trkpt>
      <trkpt lat="46.74492" lon="-0.35536">
        <ele>257.806486</ele>
        <time>2014-08-20T08:57:24Z</time>
      </trkpt>
      <trkpt lat="46.74487" lon="-0.35539">
        <ele>257.75037</ele>
        <time>2014-08-20T08:57:26Z</time>
      </trkpt>
      <trkpt lat="46.74481" lon="-0.35542">
        <ele>257.714847</ele>
        <time>2014-08-20T08:57:28Z</time>
      </trkpt>
      <trkpt lat="46.74476" lon="-0.35546">
        <ele>257.743908</ele>
        <time>2014-08-20T08:57:30Z</time>
      </trkpt>
      <trkpt lat="46.74471" lon="-0.35549">
        <ele>257.809797</ele>
        <time>2014-08-20T08:57:32Z</time>
      </trkpt>
      <trkpt lat="46.74466" lon="-0.35553">
        <ele>257.854496</ele>
        <time>2014-08-20T08:57:34Z</time>
      </trkpt>
      <trkpt lat="46.74461" lon="-0.35557">
        <ele>257.955473</ele>
        <time>2014-08-20T08:57:36Z</time>
      </trkpt>
      <trkpt lat="46.74456" lon="-0.3556">
        <ele>258.101592</ele>
        <time>2014-08-20T08:57:38Z</time>
      </trkpt>
      <trkpt lat="46.74452" lon="-0.35563">
        <ele>258.197309</ele>
        <time>2014-08-20T08:57:40Z</time>
      </trkpt>
      <trkpt lat="46.74448" lon="-0.35567">
        <ele>258.361453</ele>
        <time>2014-08-20T08:57:42Z</time>
      </trkpt>
      <trkpt lat="46.74443" lon="-0.3557">
        <ele>258.497714</ele>
        <time>2014-08-20T08:57:44Z</time>
      </trkpt>
      <trkpt lat="46.74437" lon="-0.35574">
        <ele>258.493526</ele>
        <time>2014-08-20T08:57:46Z</time>
      </trkpt>
      <trkpt lat="46.74433" lon="-0.35577">
        <ele>258.478421</ele>
        <time>2014-08-20T08:57:48Z</time>
      </trkpt>
      <trkpt lat="46.74426" lon="-0.35582">
        <ele>258.557356</ele>
        <time>2014-08-20T08:57:51Z</time>
      </trkpt>
      <trkpt lat="46.74421" lon="-0.35585">
        <ele>258.581333</ele>
        <time>2014-08-20T08:57:53Z</time>
      </trkpt>
      <trkpt lat="46.74416" lon="-0.35589">
        <ele>258.740265</ele>
        <time>2014-08-20T08:57:55Z</time>
      </trkpt>
      <trkpt lat="46.74411" lon="-0.35592">
        <ele>258.925193</ele>
        <time>2014-08-20T08:57:57Z</time>
      </trkpt>
      <trkpt lat="46.74406" lon="-0.35594">
        <ele>259.130169</ele>
        <time>2014-08-20T08:57:59Z</time>
      </trkpt>
      <trkpt lat="46.744" lon="-0.35599">
        <ele>259.477917</ele>
        <time>2014-08-20T08:58:02Z</time>
      </trkpt>
      <trkpt lat="46.74397" lon="-0.35604">
        <ele>259.639375</ele>
        <time>2014-08-20T08:58:04Z</time>
      </trkpt>
      <trkpt lat="46.74393" lon="-0.35608">
        <ele>259.676426</ele>
        <time>2014-08-20T08:58:06Z</time>
      </trkpt>
      <trkpt lat="46.74389" lon="-0.35613">
        <ele>259.630438</ele>
        <time>2014-08-20T08:58:08Z</time>
      </trkpt>
      <trkpt lat="46.74384" lon="-0.35617">
        <ele>259.466861</ele>
        <time>2014-08-20T08:58:10Z</time>
      </trkpt>
      <trkpt lat="46.74379" lon="-0.35622">
        <ele>259.345353</ele>
        <time>2014-08-20T08:58:12Z</time>
      </trkpt>
      <trkpt lat="46.74375" lon="-0.35627">
        <ele>259.346212</ele>
        <time>2014-08-20T08:58:14Z</time>
      </trkpt>
      <trkpt lat="46.7437" lon="-0.35631">
        <ele>259.266182</ele>
        <time>2014-08-20T08:58:16Z</time>
      </trkpt>
      <trkpt lat="46.74366" lon="-0.35636">
        <ele>259.308053</ele>
        <time>2014-08-20T08:58:18Z</time>
      </trkpt>
      <trkpt lat="46.74362" lon="-0.3564">
        <ele>259.326668</ele>
        <time>2014-08-20T08:58:20Z</time>
      </trkpt>
      <trkpt lat="46.74359" lon="-0.35645">
        <ele>259.349057</ele>
        <time>2014-08-20T08:58:22Z</time>
      </trkpt>
      <trkpt lat="46.74355" lon="-0.35649">
        <ele>259.328707</ele>
        <time>2014-08-20T08:58:24Z</time>
      </trkpt>
      <trkpt lat="46.74351" lon="-0.35653">
        <ele>259.412658</ele>
        <time>2014-08-20T08:58:26Z</time>
      </trkpt>
      <trkpt lat="46.74345" lon="-0.35659">
        <ele>259.415215</ele>
        <time>2014-08-20T08:58:29Z</time>
      </trkpt>
      <trkpt lat="46.74339" lon="-0.35664">
        <ele>259.455825</ele>
        <time>2014-08-20T08:58:32Z</time>
      </trkpt>
      <trkpt lat="46.74334" lon="-0.35669">
        <ele>259.568832</ele>
        <time>2014-08-20T08:58:34Z</time>
      </trkpt>
      <trkpt lat="46.7433" lon="-0.35673">
        <ele>259.676466</ele>
        <time>2014-08-20T08:58:36Z</time>
      </trkpt>
      <trkpt lat="46.74327" lon="-0.35679">
        <ele>259.828572</ele>
        <time>2014-08-20T08:58:38Z</time>
      </trkpt>
      <trkpt lat="46.74323" lon="-0.35684">
        <ele>260.014642</ele>
        <time>2014-08-20T08:58:40Z</time>
      </trkpt>
      <trkpt lat="46.74318" lon="-0.3569">
        <ele>260.20633</ele>
        <time>2014-08-20T08:58:42Z</time>
      </trkpt>
      <trkpt lat="46.74314" lon="-0.35696">
        <ele>260.362497</ele>
        <time>2014-08-20T08:58:44Z</time>
      </trkpt>
      <trkpt lat="46.7431" lon="-0.35701">
        <ele>260.408222</ele>
        <time>2014-08-20T08:58:46Z</time>
      </trkpt>
      <trkpt lat="46.74306" lon="-0.35706">
        <ele>260.435492</ele>
        <time>2014-08-20T08:58:48Z</time>
      </trkpt>
      <trkpt lat="46.74301" lon="-0.35711">
        <ele>260.541829</ele>
        <time>2014-08-20T08:58:50Z</time>
      </trkpt>
      <trkpt lat="46.74297" lon="-0.35719">
        <ele>260.723991</ele>
        <time>2014-08-20T08:58:53Z</time>
      </trkpt>
      <trkpt lat="46.74293" lon="-0.35724">
        <ele>260.692919</ele>
        <time>2014-08-20T08:58:55Z</time>
      </trkpt>
      <trkpt lat="46.74289" lon="-0.3573">
        <ele>260.6365</ele>
        <time>2014-08-20T08:58:57Z</time>
      </trkpt>
      <trkpt lat="46.74284" lon="-0.35736">
        <ele>260.614706</ele>
        <time>2014-08-20T08:58:59Z</time>
      </trkpt>
      <trkpt lat="46.7428" lon="-0.35741">
        <ele>260.633862</ele>
        <time>2014-08-20T08:59:01Z</time>
      </trkpt>
      <trkpt lat="46.74275" lon="-0.35747">
        <ele>260.527048</ele>
        <time>2014-08-20T08:59:04Z</time>
      </trkpt>
      <trkpt lat="46.74271" lon="-0.35751">
        <ele>260.39646</ele>
        <time>2014-08-20T08:59:06Z</time>
      </trkpt>
      <trkpt lat="46.74266" lon="-0.35757">
        <ele>260.290999</ele>
        <time>2014-08-20T08:59:08Z</time>
      </trkpt>
      <trkpt lat="46.74262" lon="-0.35762">
        <ele>260.237597</ele>
        <time>2014-08-20T08:59:10Z</time>
      </trkpt>
      <trkpt lat="46.74258" lon="-0.35767">
        <ele>260.197014</ele>
        <time>2014-08-20T08:59:12Z</time>
      </trkpt>
      <trkpt lat="46.74254" lon="-0.35772">
        <ele>260.123466</ele>
        <time>2014-08-20T08:59:14Z</time>
      </trkpt>
      <trkpt lat="46.7425" lon="-0.35776">
        <ele>260.133353</ele>
        <time>2014-08-20T08:59:16Z</time>
      </trkpt>
      <trkpt lat="46.74245" lon="-0.35781">
        <ele>260.133429</ele>
        <time>2014-08-20T08:59:18Z</time>
      </trkpt>
      <trkpt lat="46.74241" lon="-0.35786">
        <ele>260.17847</ele>
        <time>2014-08-20T08:59:20Z</time>
      </trkpt>
      <trkpt lat="46.74237" lon="-0.35791">
        <ele>260.244484</ele>
        <time>2014-08-20T08:59:22Z</time>
      </trkpt>
      <trkpt lat="46.74234" lon="-0.35795">
        <ele>260.34992</ele>
        <time>2014-08-20T08:59:24Z</time>
      </trkpt>
      <trkpt lat="46.7423" lon="-0.358">
        <ele>260.478717</ele>
        <time>2014-08-20T08:59:26Z</time>
      </trkpt>
      <trkpt lat="46.74225" lon="-0.35805">
        <ele>260.668139</ele>
        <time>2014-08-20T08:59:28Z</time>
      </trkpt>
      <trkpt lat="46.7422" lon="-0.3581">
        <ele>260.76447</ele>
        <time>2014-08-20T08:59:30Z</time>
      </trkpt>
      <trkpt lat="46.74217" lon="-0.35815">
        <ele>260.931809</ele>
        <time>2014-08-20T08:59:32Z</time>
      </trkpt>
      <trkpt lat="46.74213" lon="-0.3582">
        <ele>261.09018</ele>
        <time>2014-08-20T08:59:34Z</time>
      </trkpt>
      <trkpt lat="46.74209" lon="-0.35825">
        <ele>261.253176</ele>
        <time>2014-08-20T08:59:36Z</time>
      </trkpt>
      <trkpt lat="46.74204" lon="-0.35831">
        <ele>261.434271</ele>
        <time>2014-08-20T08:59:38Z</time>
      </trkpt>
      <trkpt lat="46.74199" lon="-0.35837">
        <ele>261.41324</ele>
        <time>2014-08-20T08:59:40Z</time>
      </trkpt>
      <trkpt lat="46.74195" lon="-0.35841">
        <ele>261.382502</ele>
        <time>2014-08-20T08:59:42Z</time>
      </trkpt>
      <trkpt lat="46.74191" lon="-0.35845">
        <ele>261.39747</ele>
        <time>2014-08-20T08:59:44Z</time>
      </trkpt>
      <trkpt lat="46.74187" lon="-0.35849">
        <ele>261.341472</ele>
        <time>2014-08-20T08:59:46Z</time>
      </trkpt>
      <trkpt lat="46.74183" lon="-0.35855">
        <ele>261.327306</ele>
        <time>2014-08-20T08:59:48Z</time>
      </trkpt>
      <trkpt lat="46.74178" lon="-0.3586">
        <ele>261.330572</ele>
        <time>2014-08-20T08:59:50Z</time>
      </trkpt>
      <trkpt lat="46.74175" lon="-0.35865">
        <ele>261.324501</ele>
        <time>2014-08-20T08:59:52Z</time>
      </trkpt>
      <trkpt lat="46.74171" lon="-0.3587">
        <ele>261.337564</ele>
        <time>2014-08-20T08:59:54Z</time>
      </trkpt>
      <trkpt lat="46.74167" lon="-0.35876">
        <ele>261.258404</ele>
        <time>2014-08-20T08:59:56Z</time>
      </trkpt>
      <trkpt lat="46.74162" lon="-0.35881">
        <ele>261.079832</ele>
        <time>2014-08-20T08:59:58Z</time>
      </trkpt>
      <trkpt lat="46.74158" lon="-0.35885">
        <ele>260.898784</ele>
        <time>2014-08-20T09:00:00Z</time>
      </trkpt>
      <trkpt lat="46.74152" lon="-0.35891">
        <ele>260.765487</ele>
        <time>2014-08-20T09:00:02Z</time>
      </trkpt>
      <trkpt lat="46.74148" lon="-0.35895">
        <ele>260.701592</ele>
        <time>2014-08-20T09:00:04Z</time>
      </trkpt>
      <trkpt lat="46.74144" lon="-0.35901">
        <ele>260.60111</ele>
        <time>2014-08-20T09:00:06Z</time>
      </trkpt>
      <trkpt lat="46.7414" lon="-0.35905">
        <ele>260.445586</ele>
        <time>2014-08-20T09:00:08Z</time>
      </trkpt>
      <trkpt lat="46.74136" lon="-0.35911">
        <ele>260.302712</ele>
        <time>2014-08-20T09:00:10Z</time>
      </trkpt>
      <trkpt lat="46.74132" lon="-0.35917">
        <ele>260.126748</ele>
        <time>2014-08-20T09:00:12Z</time>
      </trkpt>
      <trkpt lat="46.74127" lon="-0.35922">
        <ele>260.014049</ele>
        <time>2014-08-20T09:00:14Z</time>
      </trkpt>
      <trkpt lat="46.74123" lon="-0.35928">
        <ele>259.972429</ele>
        <time>2014-08-20T09:00:16Z</time>
      </trkpt>
      <trkpt lat="46.74119" lon="-0.35935">
        <ele>259.986199</ele>
        <time>2014-08-20T09:00:18Z</time>
      </trkpt>
      <trkpt lat="46.74116" lon="-0.3594">
        <ele>259.998005</ele>
        <time>2014-08-20T09:00:20Z</time>
      </trkpt>
      <trkpt lat="46.74112" lon="-0.35948">
        <ele>260.103119</ele>
        <time>2014-08-20T09:00:23Z</time>
      </trkpt>
      <trkpt lat="46.74108" lon="-0.35956">
        <ele>260.171163</ele>
        <time>2014-08-20T09:00:26Z</time>
      </trkpt>
      <trkpt lat="46.74105" lon="-0.35964">
        <ele>260.225852</ele>
        <time>2014-08-20T09:00:28Z</time>
      </trkpt>
      <trkpt lat="46.74102" lon="-0.35972">
        <ele>260.322655</ele>
        <time>2014-08-20T09:00:30Z</time>
      </trkpt>
      <trkpt lat="46.741" lon="-0.35979">
        <ele>260.412623</ele>
        <time>2014-08-20T09:00:32Z</time>
      </trkpt>
      <trkpt lat="46.74098" lon="-0.35988">
        <ele>260.384937</ele>
        <time>2014-08-20T09:00:34Z</time>
      </trkpt>
      <trkpt lat="46.74096" lon="-0.35996">
        <ele>260.42239</ele>
        <time>2014-08-20T09:00:36Z</time>
      </trkpt>
      <trkpt lat="46.74095" lon="-0.36003">
        <ele>260.460596</ele>
        <time>2014-08-20T09:00:38Z</time>
      </trkpt>
      <trkpt lat="46.74094" lon="-0.36011">
        <ele>260.437154</ele>
        <time>2014-08-20T09:00:40Z</time>
      </trkpt>
      <trkpt lat="46.74092" lon="-0.36019">
        <ele>260.354295</ele>
        <time>2014-08-20T09:00:42Z</time>
      </trkpt>
      <trkpt lat="46.74092" lon="-0.36028">
        <ele>260.226915</ele>
        <time>2014-08-20T09:00:44Z</time>
      </trkpt>
      <trkpt lat="46.74091" lon="-0.36037">
        <ele>260.038311</ele>
        <time>2014-08-20T09:00:46Z</time>
      </trkpt>
      <trkpt lat="46.7409" lon="-0.36044">
        <ele>259.912873</ele>
        <time>2014-08-20T09:00:48Z</time>
      </trkpt>
      <trkpt lat="46.74089" lon="-0.36055">
        <ele>259.849251</ele>
        <time>2014-08-20T09:00:51Z</time>
      </trkpt>
      <trkpt lat="46.74088" lon="-0.36065">
        <ele>259.822167</ele>
        <time>2014-08-20T09:00:54Z</time>
      </trkpt>
      <trkpt lat="46.74087" lon="-0.36072">
        <ele>259.872726</ele>
        <time>2014-08-20T09:00:56Z</time>
      </trkpt>
      <trkpt lat="46.74086" lon="-0.3608">
        <ele>259.919846</ele>
        <time>2014-08-20T09:00:58Z</time>
      </trkpt>
      <trkpt lat="46.74085" lon="-0.36088">
        <ele>259.841027</ele>
        <time>2014-08-20T09:01:00Z</time>
      </trkpt>
      <trkpt lat="46.74083" lon="-0.36095">
        <ele>259.736762</ele>
        <time>2014-08-20T09:01:02Z</time>
      </trkpt>
      <trkpt lat="46.74083" lon="-0.36103">
        <ele>259.641211</ele>
        <time>2014-08-20T09:01:04Z</time>
      </trkpt>
      <trkpt lat="46.74082" lon="-0.36112">
        <ele>259.511538</ele>
        <time>2014-08-20T09:01:06Z</time>
      </trkpt>
      <trkpt lat="46.7408" lon="-0.36119">
        <ele>259.370545</ele>
        <time>2014-08-20T09:01:08Z</time>
      </trkpt>
      <trkpt lat="46.74079" lon="-0.36126">
        <ele>259.190503</ele>
        <time>2014-08-20T09:01:10Z</time>
      </trkpt>
      <trkpt lat="46.74079" lon="-0.36136">
        <ele>258.965233</ele>
        <time>2014-08-20T09:01:13Z</time>
      </trkpt>
      <trkpt lat="46.74078" lon="-0.36143">
        <ele>258.886791</ele>
        <time>2014-08-20T09:01:15Z</time>
      </trkpt>
      <trkpt lat="46.74077" lon="-0.36151">
        <ele>258.887582</ele>
        <time>2014-08-20T09:01:17Z</time>
      </trkpt>
      <trkpt lat="46.74076" lon="-0.3616">
        <ele>258.794839</ele>
        <time>2014-08-20T09:01:19Z</time>
      </trkpt>
      <trkpt lat="46.74075" lon="-0.36169">
        <ele>258.760094</ele>
        <time>2014-08-20T09:01:22Z</time>
      </trkpt>
      <trkpt lat="46.74075" lon="-0.36177">
        <ele>258.730941</ele>
        <time>2014-08-20T09:01:24Z</time>
      </trkpt>
      <trkpt lat="46.74075" lon="-0.36184">
        <ele>258.669459</ele>
        <time>2014-08-20T09:01:26Z</time>
      </trkpt>
      <trkpt lat="46.74074" lon="-0.36192">
        <ele>258.5445</ele>
        <time>2014-08-20T09:01:28Z</time>
      </trkpt>
      <trkpt lat="46.74074" lon="-0.36201">
        <ele>258.481144</ele>
        <time>2014-08-20T09:01:30Z</time>
      </trkpt>
      <trkpt lat="46.74073" lon="-0.36209">
        <ele>258.402471</ele>
        <time>2014-08-20T09:01:32Z</time>
      </trkpt>
      <trkpt lat="46.74072" lon="-0.36217">
        <ele>258.462911</ele>
        <time>2014-08-20T09:01:34Z</time>
      </trkpt>
      <trkpt lat="46.74071" lon="-0.36225">
        <ele>258.704747</ele>
        <time>2014-08-20T09:01:36Z</time>
      </trkpt>
      <trkpt lat="46.7407" lon="-0.36233">
        <ele>258.903765</ele>
        <time>2014-08-20T09:01:38Z</time>
      </trkpt>
      <trkpt lat="46.74068" lon="-0.36241">
        <ele>258.99137</ele>
        <time>2014-08-20T09:01:40Z</time>
      </trkpt>
      <trkpt lat="46.74066" lon="-0.36247">
        <ele>259.051308</ele>
        <time>2014-08-20T09:01:42Z</time>
      </trkpt>
      <trkpt lat="46.74063" lon="-0.36256">
        <ele>259.248167</ele>
        <time>2014-08-20T09:01:45Z</time>
      </trkpt>
      <trkpt lat="46.74061" lon="-0.36262">
        <ele>259.298613</ele>
        <time>2014-08-20T09:01:47Z</time>
      </trkpt>
      <trkpt lat="46.74058" lon="-0.36268">
        <ele>259.226828</ele>
        <time>2014-08-20T09:01:49Z</time>
      </trkpt>
      <trkpt lat="46.74055" lon="-0.36274">
        <ele>259.174298</ele>
        <time>2014-08-20T09:01:51Z</time>
      </trkpt>
      <trkpt lat="46.74051" lon="-0.3628">
        <ele>259.091772</ele>
        <time>2014-08-20T09:01:53Z</time>
      </trkpt>
      <trkpt lat="46.74046" lon="-0.36283">
        <ele>258.985454</ele>
        <time>2014-08-20T09:01:55Z</time>
      </trkpt>
      <trkpt lat="46.7404" lon="-0.36281">
        <ele>258.686789</ele>
        <time>2014-08-20T09:01:58Z</time>
      </trkpt>
      <trkpt lat="46.74035" lon="-0.36277">
        <ele>258.477118</ele>
        <time>2014-08-20T09:02:00Z</time>
      </trkpt>
      <trkpt lat="46.74031" lon="-0.36272">
        <ele>258.291607</ele>
        <time>2014-08-20T09:02:02Z</time>
      </trkpt>
      <trkpt lat="46.74026" lon="-0.36267">
        <ele>258.089824</ele>
        <time>2014-08-20T09:02:04Z</time>
      </trkpt>
      <trkpt lat="46.74022" lon="-0.36263">
        <ele>257.810065</ele>
        <time>2014-08-20T09:02:06Z</time>
      </trkpt>
      <trkpt lat="46.74018" lon="-0.36258">
        <ele>257.572634</ele>
        <time>2014-08-20T09:02:08Z</time>
      </trkpt>
      <trkpt lat="46.74013" lon="-0.36254">
        <ele>257.283177</ele>
        <time>2014-08-20T09:02:10Z</time>
      </trkpt>
      <trkpt lat="46.74009" lon="-0.36249">
        <ele>256.966061</ele>
        <time>2014-08-20T09:02:12Z</time>
      </trkpt>
      <trkpt lat="46.74004" lon="-0.36243">
        <ele>256.518917</ele>
        <time>2014-08-20T09:02:15Z</time>
      </trkpt>
      <trkpt lat="46.73998" lon="-0.36237">
        <ele>256.137952</ele>
        <time>2014-08-20T09:02:18Z</time>
      </trkpt>
      <trkpt lat="46.73994" lon="-0.36234">
        <ele>255.885565</ele>
        <time>2014-08-20T09:02:20Z</time>
      </trkpt>
      <trkpt lat="46.7399" lon="-0.3623">
        <ele>255.686187</ele>
        <time>2014-08-20T09:02:22Z</time>
      </trkpt>
      <trkpt lat="46.73985" lon="-0.36226">
        <ele>255.524269</ele>
        <time>2014-08-20T09:02:24Z</time>
      </trkpt>
      <trkpt lat="46.73981" lon="-0.36222">
        <ele>255.400116</ele>
        <time>2014-08-20T09:02:26Z</time>
      </trkpt>
      <trkpt lat="46.73977" lon="-0.36218">
        <ele>255.206529</ele>
        <time>2014-08-20T09:02:28Z</time>
      </trkpt>
      <trkpt lat="46.73972" lon="-0.36213">
        <ele>255.027197</ele>
        <time>2014-08-20T09:02:30Z</time>
      </trkpt>
      <trkpt lat="46.73967" lon="-0.36209">
        <ele>254.871588</ele>
        <time>2014-08-20T09:02:32Z</time>
      </trkpt>
      <trkpt lat="46.73963" lon="-0.36205">
        <ele>254.751741</ele>
        <time>2014-08-20T09:02:34Z</time>
      </trkpt>
      <trkpt lat="46.73959" lon="-0.36201">
        <ele>254.707956</ele>
        <time>2014-08-20T09:02:36Z</time>
      </trkpt>
      <trkpt lat="46.73954" lon="-0.36197">
        <ele>254.544567</ele>
        <time>2014-08-20T09:02:38Z</time>
      </trkpt>
      <trkpt lat="46.73949" lon="-0.36195">
        <ele>254.330577</ele>
        <time>2014-08-20T09:02:40Z</time>
      </trkpt>
      <trkpt lat="46.73945" lon="-0.3619">
        <ele>254.132347</ele>
        <time>2014-08-20T09:02:42Z</time>
      </trkpt>
      <trkpt lat="46.73941" lon="-0.36186">
        <ele>254.003436</ele>
        <time>2014-08-20T09:02:44Z</time>
      </trkpt>
      <trkpt lat="46.73937" lon="-0.36181">
        <ele>253.817487</ele>
        <time>2014-08-20T09:02:46Z</time>
      </trkpt>
      <trkpt lat="46.73933" lon="-0.36177">
        <ele>253.648666</ele>
        <time>2014-08-20T09:02:48Z</time>
      </trkpt>
      <trkpt lat="46.73928" lon="-0.36173">
        <ele>253.570138</ele>
        <time>2014-08-20T09:02:50Z</time>
      </trkpt>
      <trkpt lat="46.73924" lon="-0.36169">
        <ele>253.500513</ele>
        <time>2014-08-20T09:02:52Z</time>
      </trkpt>
      <trkpt lat="46.7392" lon="-0.36164">
        <ele>253.398662</ele>
        <time>2014-08-20T09:02:54Z</time>
      </trkpt>
      <trkpt lat="46.73916" lon="-0.3616">
        <ele>253.351525</ele>
        <time>2014-08-20T09:02:56Z</time>
      </trkpt>
      <trkpt lat="46.73912" lon="-0.36155">
        <ele>253.213171</ele>
        <time>2014-08-20T09:02:58Z</time>
      </trkpt>
      <trkpt lat="46.73907" lon="-0.36149">
        <ele>253.086503</ele>
        <time>2014-08-20T09:03:00Z</time>
      </trkpt>
      <trkpt lat="46.73904" lon="-0.36144">
        <ele>252.967971</ele>
        <time>2014-08-20T09:03:02Z</time>
      </trkpt>
      <trkpt lat="46.739" lon="-0.36139">
        <ele>252.887449</ele>
        <time>2014-08-20T09:03:04Z</time>
      </trkpt>
      <trkpt lat="46.73896" lon="-0.36134">
        <ele>252.863624</ele>
        <time>2014-08-20T09:03:06Z</time>
      </trkpt>
      <trkpt lat="46.73891" lon="-0.36128">
        <ele>252.828083</ele>
        <time>2014-08-20T09:03:08Z</time>
      </trkpt>
      <trkpt lat="46.73887" lon="-0.36123">
        <ele>252.764516</ele>
        <time>2014-08-20T09:03:10Z</time>
      </trkpt>
      <trkpt lat="46.73882" lon="-0.36119">
        <ele>252.634071</ele>
        <time>2014-08-20T09:03:12Z</time>
      </trkpt>
      <trkpt lat="46.73877" lon="-0.36114">
        <ele>252.520613</ele>
        <time>2014-08-20T09:03:14Z</time>
      </trkpt>
      <trkpt lat="46.73873" lon="-0.36108">
        <ele>252.284411</ele>
        <time>2014-08-20T09:03:16Z</time>
      </trkpt>
      <trkpt lat="46.7387" lon="-0.36103">
        <ele>252.108499</ele>
        <time>2014-08-20T09:03:18Z</time>
      </trkpt>
      <trkpt lat="46.73866" lon="-0.36097">
        <ele>252.024847</ele>
        <time>2014-08-20T09:03:20Z</time>
      </trkpt>
      <trkpt lat="46.73862" lon="-0.36091">
        <ele>251.853633</ele>
        <time>2014-08-20T09:03:22Z</time>
      </trkpt>
      <trkpt lat="46.73857" lon="-0.36085">
        <ele>251.668908</ele>
        <time>2014-08-20T09:03:24Z</time>
      </trkpt>
      <trkpt lat="46.73854" lon="-0.3608">
        <ele>251.412156</ele>
        <time>2014-08-20T09:03:26Z</time>
      </trkpt>
      <trkpt lat="46.7385" lon="-0.36075">
        <ele>251.148463</ele>
        <time>2014-08-20T09:03:28Z</time>
      </trkpt>
      <trkpt lat="46.73846" lon="-0.36069">
        <ele>250.993252</ele>
        <time>2014-08-20T09:03:30Z</time>
      </trkpt>
      <trkpt lat="46.73843" lon="-0.36065">
        <ele>250.970682</ele>
        <time>2014-08-20T09:03:32Z</time>
      </trkpt>
      <trkpt lat="46.73839" lon="-0.3606">
        <ele>250.814173</ele>
        <time>2014-08-20T09:03:34Z</time>
      </trkpt>
      <trkpt lat="46.73835" lon="-0.36055">
        <ele>250.646924</ele>
        <time>2014-08-20T09:03:36Z</time>
      </trkpt>
      <trkpt lat="46.73832" lon="-0.3605">
        <ele>250.541677</ele>
        <time>2014-08-20T09:03:38Z</time>
      </trkpt>
      <trkpt lat="46.73828" lon="-0.36045">
        <ele>250.446337</ele>
        <time>2014-08-20T09:03:40Z</time>
      </trkpt>
      <trkpt lat="46.73824" lon="-0.3604">
        <ele>250.479518</ele>
        <time>2014-08-20T09:03:42Z</time>
      </trkpt>
      <trkpt lat="46.73821" lon="-0.36035">
        <ele>250.396724</ele>
        <time>2014-08-20T09:03:44Z</time>
      </trkpt>
      <trkpt lat="46.73817" lon="-0.36029">
        <ele>250.274055</ele>
        <time>2014-08-20T09:03:46Z</time>
      </trkpt>
      <trkpt lat="46.73812" lon="-0.36023">
        <ele>250.177542</ele>
        <time>2014-08-20T09:03:48Z</time>
      </trkpt>
      <trkpt lat="46.73807" lon="-0.36017">
        <ele>250.104093</ele>
        <time>2014-08-20T09:03:50Z</time>
      </trkpt>
      <trkpt lat="46.73803" lon="-0.36012">
        <ele>250.074874</ele>
        <time>2014-08-20T09:03:52Z</time>
      </trkpt>
      <trkpt lat="46.73799" lon="-0.36006">
        <ele>250.002718</ele>
        <time>2014-08-20T09:03:54Z</time>
      </trkpt>
      <trkpt lat="46.73795" lon="-0.36002">
        <ele>249.900908</ele>
        <time>2014-08-20T09:03:56Z</time>
      </trkpt>
      <trkpt lat="46.73791" lon="-0.35998">
        <ele>249.805623</ele>
        <time>2014-08-20T09:03:58Z</time>
      </trkpt>
      <trkpt lat="46.73787" lon="-0.35994">
        <ele>249.691047</ele>
        <time>2014-08-20T09:04:00Z</time>
      </trkpt>
      <trkpt lat="46.73783" lon="-0.35989">
        <ele>249.554465</ele>
        <time>2014-08-20T09:04:02Z</time>
      </trkpt>
      <trkpt lat="46.73779" lon="-0.35985">
        <ele>249.451674</ele>
        <time>2014-08-20T09:04:04Z</time>
      </trkpt>
      <trkpt lat="46.73774" lon="-0.3598">
        <ele>249.400357</ele>
        <time>2014-08-20T09:04:06Z</time>
      </trkpt>
      <trkpt lat="46.7377" lon="-0.35976">
        <ele>249.281154</ele>
        <time>2014-08-20T09:04:08Z</time>
      </trkpt>
      <trkpt lat="46.73765" lon="-0.3597">
        <ele>249.155971</ele>
        <time>2014-08-20T09:04:10Z</time>
      </trkpt>
      <trkpt lat="46.73761" lon="-0.35965">
        <ele>249.014385</ele>
        <time>2014-08-20T09:04:12Z</time>
      </trkpt>
      <trkpt lat="46.73758" lon="-0.35961">
        <ele>248.859589</ele>
        <time>2014-08-20T09:04:14Z</time>
      </trkpt>
      <trkpt lat="46.73754" lon="-0.35957">
        <ele>248.755825</ele>
        <time>2014-08-20T09:04:16Z</time>
      </trkpt>
      <trkpt lat="46.73749" lon="-0.35951">
        <ele>248.703426</ele>
        <time>2014-08-20T09:04:18Z</time>
      </trkpt>
      <trkpt lat="46.73745" lon="-0.35947">
        <ele>248.639622</ele>
        <time>2014-08-20T09:04:20Z</time>
      </trkpt>
      <trkpt lat="46.73741" lon="-0.35942">
        <ele>248.605259</ele>
        <time>2014-08-20T09:04:22Z</time>
      </trkpt>
      <trkpt lat="46.73736" lon="-0.35937">
        <ele>248.518385</ele>
        <time>2014-08-20T09:04:24Z</time>
      </trkpt>
      <trkpt lat="46.73732" lon="-0.35932">
        <ele>248.376329</ele>
        <time>2014-08-20T09:04:26Z</time>
      </trkpt>
      <trkpt lat="46.73727" lon="-0.35927">
        <ele>248.141181</ele>
        <time>2014-08-20T09:04:28Z</time>
      </trkpt>
      <trkpt lat="46.73723" lon="-0.35923">
        <ele>247.939383</ele>
        <time>2014-08-20T09:04:30Z</time>
      </trkpt>
      <trkpt lat="46.73718" lon="-0.35918">
        <ele>247.810462</ele>
        <time>2014-08-20T09:04:32Z</time>
      </trkpt>
      <trkpt lat="46.73714" lon="-0.35914">
        <ele>247.615492</ele>
        <time>2014-08-20T09:04:34Z</time>
      </trkpt>
      <trkpt lat="46.7371" lon="-0.35908">
        <ele>247.406086</ele>
        <time>2014-08-20T09:04:36Z</time>
      </trkpt>
      <trkpt lat="46.73706" lon="-0.35903">
        <ele>247.207266</ele>
        <time>2014-08-20T09:04:38Z</time>
      </trkpt>
      <trkpt lat="46.73702" lon="-0.35899">
        <ele>246.951493</ele>
        <time>2014-08-20T09:04:40Z</time>
      </trkpt>
      <trkpt lat="46.73697" lon="-0.35894">
        <ele>246.723263</ele>
        <time>2014-08-20T09:04:42Z</time>
      </trkpt>
      <trkpt lat="46.73693" lon="-0.35889">
        <ele>246.474949</ele>
        <time>2014-08-20T09:04:44Z</time>
      </trkpt>
      <trkpt lat="46.73689" lon="-0.35884">
        <ele>246.077177</ele>
        <time>2014-08-20T09:04:46Z</time>
      </trkpt>
      <trkpt lat="46.73685" lon="-0.35879">
        <ele>245.761472</ele>
        <time>2014-08-20T09:04:48Z</time>
      </trkpt>
      <trkpt lat="46.73681" lon="-0.35874">
        <ele>245.60339</ele>
        <time>2014-08-20T09:04:50Z</time>
      </trkpt>
      <trkpt lat="46.73676" lon="-0.35868">
        <ele>245.516452</ele>
        <time>2014-08-20T09:04:52Z</time>
      </trkpt>
      <trkpt lat="46.73673" lon="-0.35863">
        <ele>245.434935</ele>
        <time>2014-08-20T09:04:54Z</time>
      </trkpt>
      <trkpt lat="46.73668" lon="-0.35857">
        <ele>245.381484</ele>
        <time>2014-08-20T09:04:56Z</time>
      </trkpt>
      <trkpt lat="46.73664" lon="-0.35851">
        <ele>245.323167</ele>
        <time>2014-08-20T09:04:58Z</time>
      </trkpt>
      <trkpt lat="46.7366" lon="-0.35846">
        <ele>245.243666</ele>
        <time>2014-08-20T09:05:00Z</time>
      </trkpt>
      <trkpt lat="46.73657" lon="-0.35841">
        <ele>245.01837</ele>
        <time>2014-08-20T09:05:02Z</time>
      </trkpt>
      <trkpt lat="46.73652" lon="-0.35836">
        <ele>244.671839</ele>
        <time>2014-08-20T09:05:05Z</time>
      </trkpt>
      <trkpt lat="46.73649" lon="-0.35831">
        <ele>244.516128</ele>
        <time>2014-08-20T09:05:07Z</time>
      </trkpt>
      <trkpt lat="46.73646" lon="-0.35826">
        <ele>244.2656</ele>
        <time>2014-08-20T09:05:09Z</time>
      </trkpt>
      <trkpt lat="46.73641" lon="-0.3582">
        <ele>243.907686</ele>
        <time>2014-08-20T09:05:12Z</time>
      </trkpt>
      <trkpt lat="46.73638" lon="-0.35814">
        <ele>243.672259</ele>
        <time>2014-08-20T09:05:14Z</time>
      </trkpt>
      <trkpt lat="46.73635" lon="-0.35809">
        <ele>243.505685</ele>
        <time>2014-08-20T09:05:16Z</time>
      </trkpt>
      <trkpt lat="46.73632" lon="-0.35804">
        <ele>243.44627</ele>
        <time>2014-08-20T09:05:18Z</time>
      </trkpt>
      <trkpt lat="46.73628" lon="-0.358">
        <ele>243.268843</ele>
        <time>2014-08-20T09:05:20Z</time>
      </trkpt>
      <trkpt lat="46.73625" lon="-0.35794">
        <ele>243.100689</ele>
        <time>2014-08-20T09:05:22Z</time>
      </trkpt>
      <trkpt lat="46.73621" lon="-0.35788">
        <ele>242.975288</ele>
        <time>2014-08-20T09:05:24Z</time>
      </trkpt>
      <trkpt lat="46.73618" lon="-0.35783">
        <ele>242.903255</ele>
        <time>2014-08-20T09:05:26Z</time>
      </trkpt>
      <trkpt lat="46.73611" lon="-0.3578">
        <ele>242.776303</ele>
        <time>2014-08-20T09:05:29Z</time>
      </trkpt>
      <trkpt lat="46.73606" lon="-0.35782">
        <ele>242.734126</ele>
        <time>2014-08-20T09:05:31Z</time>
      </trkpt>
      <trkpt lat="46.73602" lon="-0.35787">
        <ele>242.718523</ele>
        <time>2014-08-20T09:05:33Z</time>
      </trkpt>
      <trkpt lat="46.73597" lon="-0.35795">
        <ele>242.719578</ele>
        <time>2014-08-20T09:05:35Z</time>
      </trkpt>
      <trkpt lat="46.73594" lon="-0.35803">
        <ele>242.72608</ele>
        <time>2014-08-20T09:05:37Z</time>
      </trkpt>
      <trkpt lat="46.73593" lon="-0.35812">
        <ele>242.796875</ele>
        <time>2014-08-20T09:05:39Z</time>
      </trkpt>
      <trkpt lat="46.73592" lon="-0.3582">
        <ele>242.758075</ele>
        <time>2014-08-20T09:05:41Z</time>
      </trkpt>
      <trkpt lat="46.73592" lon="-0.35829">
        <ele>242.581631</ele>
        <time>2014-08-20T09:05:43Z</time>
      </trkpt>
      <trkpt lat="46.73592" lon="-0.35836">
        <ele>242.330546</ele>
        <time>2014-08-20T09:05:45Z</time>
      </trkpt>
      <trkpt lat="46.73591" lon="-0.35846">
        <ele>241.999679</ele>
        <time>2014-08-20T09:05:48Z</time>
      </trkpt>
      <trkpt lat="46.7359" lon="-0.35854">
        <ele>241.737219</ele>
        <time>2014-08-20T09:05:50Z</time>
      </trkpt>
      <trkpt lat="46.7359" lon="-0.35862">
        <ele>241.485736</ele>
        <time>2014-08-20T09:05:52Z</time>
      </trkpt>
      <trkpt lat="46.7359" lon="-0.3587">
        <ele>241.263803</ele>
        <time>2014-08-20T09:05:54Z</time>
      </trkpt>
      <trkpt lat="46.7359" lon="-0.35877">
        <ele>241.173099</ele>
        <time>2014-08-20T09:05:56Z</time>
      </trkpt>
      <trkpt lat="46.73589" lon="-0.35885">
        <ele>241.150713</ele>
        <time>2014-08-20T09:05:58Z</time>
      </trkpt>
      <trkpt lat="46.73589" lon="-0.35895">
        <ele>241.066228</ele>
        <time>2014-08-20T09:06:00Z</time>
      </trkpt>
      <trkpt lat="46.73589" lon="-0.35902">
        <ele>241.023146</ele>
        <time>2014-08-20T09:06:02Z</time>
      </trkpt>
      <trkpt lat="46.73589" lon="-0.35911">
        <ele>240.99212</ele>
        <time>2014-08-20T09:06:04Z</time>
      </trkpt>
      <trkpt lat="46.73589" lon="-0.35919">
        <ele>240.976867</ele>
        <time>2014-08-20T09:06:06Z</time>
      </trkpt>
      <trkpt lat="46.73588" lon="-0.35929">
        <ele>241.046169</ele>
        <time>2014-08-20T09:06:09Z</time>
      </trkpt>
      <trkpt lat="46.73588" lon="-0.35937">
        <ele>241.125308</ele>
        <time>2014-08-20T09:06:11Z</time>
      </trkpt>
      <trkpt lat="46.73587" lon="-0.35945">
        <ele>241.131983</ele>
        <time>2014-08-20T09:06:13Z</time>
      </trkpt>
      <trkpt lat="46.73587" lon="-0.35952">
        <ele>241.166402</ele>
        <time>2014-08-20T09:06:15Z</time>
      </trkpt>
      <trkpt lat="46.73586" lon="-0.35961">
        <ele>241.120919</ele>
        <time>2014-08-20T09:06:17Z</time>
      </trkpt>
      <trkpt lat="46.73586" lon="-0.3597">
        <ele>241.025012</ele>
        <time>2014-08-20T09:06:19Z</time>
      </trkpt>
      <trkpt lat="46.73586" lon="-0.35978">
        <ele>240.931039</ele>
        <time>2014-08-20T09:06:21Z</time>
      </trkpt>
      <trkpt lat="46.73585" lon="-0.35985">
        <ele>240.992657</ele>
        <time>2014-08-20T09:06:23Z</time>
      </trkpt>
      <trkpt lat="46.73585" lon="-0.35995">
        <ele>241.198047</ele>
        <time>2014-08-20T09:06:26Z</time>
      </trkpt>
      <trkpt lat="46.73585" lon="-0.36002">
        <ele>241.418845</ele>
        <time>2014-08-20T09:06:28Z</time>
      </trkpt>
      <trkpt lat="46.73586" lon="-0.3601">
        <ele>241.567033</ele>
        <time>2014-08-20T09:06:30Z</time>
      </trkpt>
      <trkpt lat="46.73586" lon="-0.36018">
        <ele>241.689888</ele>
        <time>2014-08-20T09:06:32Z</time>
      </trkpt>
      <trkpt lat="46.73585" lon="-0.36026">
        <ele>241.679514</ele>
        <time>2014-08-20T09:06:34Z</time>
      </trkpt>
      <trkpt lat="46.73585" lon="-0.36034">
        <ele>241.658677</ele>
        <time>2014-08-20T09:06:36Z</time>
      </trkpt>
      <trkpt lat="46.73585" lon="-0.36041">
        <ele>241.712712</ele>
        <time>2014-08-20T09:06:38Z</time>
      </trkpt>
      <trkpt lat="46.73585" lon="-0.36051">
        <ele>242.100619</ele>
        <time>2014-08-20T09:06:41Z</time>
      </trkpt>
      <trkpt lat="46.73586" lon="-0.36059">
        <ele>242.36092</ele>
        <time>2014-08-20T09:06:43Z</time>
      </trkpt>
      <trkpt lat="46.73586" lon="-0.36067">
        <ele>242.389291</ele>
        <time>2014-08-20T09:06:45Z</time>
      </trkpt>
      <trkpt lat="46.73586" lon="-0.36076">
        <ele>242.375597</ele>
        <time>2014-08-20T09:06:47Z</time>
      </trkpt>
      <trkpt lat="46.73585" lon="-0.36087">
        <ele>242.242126</ele>
        <time>2014-08-20T09:06:50Z</time>
      </trkpt>
      <trkpt lat="46.73584" lon="-0.36095">
        <ele>242.24361</ele>
        <time>2014-08-20T09:06:52Z</time>
      </trkpt>
      <trkpt lat="46.73584" lon="-0.36102">
        <ele>242.24318</ele>
        <time>2014-08-20T09:06:54Z</time>
      </trkpt>
      <trkpt lat="46.73584" lon="-0.36109">
        <ele>242.219622</ele>
        <time>2014-08-20T09:06:55Z</time>
      </trkpt>
      <trkpt lat="46.73584" lon="-0.36118">
        <ele>242.258066</ele>
        <time>2014-08-20T09:06:57Z</time>
      </trkpt>
      <trkpt lat="46.73583" lon="-0.36125">
        <ele>242.412816</ele>
        <time>2014-08-20T09:06:59Z</time>
      </trkpt>
      <trkpt lat="46.73584" lon="-0.36133">
        <ele>242.538695</ele>
        <time>2014-08-20T09:07:01Z</time>
      </trkpt>
      <trkpt lat="46.73583" lon="-0.36141">
        <ele>242.599062</ele>
        <time>2014-08-20T09:07:03Z</time>
      </trkpt>
      <trkpt lat="46.73584" lon="-0.36149">
        <ele>242.690678</ele>
        <time>2014-08-20T09:07:05Z</time>
      </trkpt>
      <trkpt lat="46.73583" lon="-0.36156">
        <ele>242.703462</ele>
        <time>2014-08-20T09:07:07Z</time>
      </trkpt>
      <trkpt lat="46.73582" lon="-0.36163">
        <ele>242.740572</ele>
        <time>2014-08-20T09:07:09Z</time>
      </trkpt>
      <trkpt lat="46.73582" lon="-0.36172">
        <ele>242.807531</ele>
        <time>2014-08-20T09:07:12Z</time>
      </trkpt>
      <trkpt lat="46.73581" lon="-0.3618">
        <ele>242.880104</ele>
        <time>2014-08-20T09:07:14Z</time>
      </trkpt>
      <trkpt lat="46.73581" lon="-0.36187">
        <ele>242.974082</ele>
        <time>2014-08-20T09:07:16Z</time>
      </trkpt>
      <trkpt lat="46.7358" lon="-0.36195">
        <ele>242.986341</ele>
        <time>2014-08-20T09:07:18Z</time>
      </trkpt>
      <trkpt lat="46.73579" lon="-0.36202">
        <ele>242.997434</ele>
        <time>2014-08-20T09:07:20Z</time>
      </trkpt>
      <trkpt lat="46.73579" lon="-0.36209">
        <ele>242.949724</ele>
        <time>2014-08-20T09:07:22Z</time>
      </trkpt>
      <trkpt lat="46.73578" lon="-0.36217">
        <ele>242.963752</ele>
        <time>2014-08-20T09:07:24Z</time>
      </trkpt>
      <trkpt lat="46.73577" lon="-0.36226">
        <ele>242.956103</ele>
        <time>2014-08-20T09:07:26Z</time>
      </trkpt>
      <trkpt lat="46.73576" lon="-0.36233">
        <ele>242.980875</ele>
        <time>2014-08-20T09:07:28Z</time>
      </trkpt>
      <trkpt lat="46.73575" lon="-0.36243">
        <ele>243.046556</ele>
        <time>2014-08-20T09:07:31Z</time>
      </trkpt>
      <trkpt lat="46.73573" lon="-0.3625">
        <ele>243.110878</ele>
        <time>2014-08-20T09:07:33Z</time>
      </trkpt>
      <trkpt lat="46.73572" lon="-0.36256">
        <ele>243.235227</ele>
        <time>2014-08-20T09:07:35Z</time>
      </trkpt>
      <trkpt lat="46.7357" lon="-0.36263">
        <ele>243.364022</ele>
        <time>2014-08-20T09:07:37Z</time>
      </trkpt>
      <trkpt lat="46.73569" lon="-0.36273">
        <ele>243.62992</ele>
        <time>2014-08-20T09:07:40Z</time>
      </trkpt>
      <trkpt lat="46.73568" lon="-0.3628">
        <ele>243.763765</ele>
        <time>2014-08-20T09:07:42Z</time>
      </trkpt>
      <trkpt lat="46.73566" lon="-0.36287">
        <ele>243.704084</ele>
        <time>2014-08-20T09:07:44Z</time>
      </trkpt>
      <trkpt lat="46.73565" lon="-0.36295">
        <ele>243.711987</ele>
        <time>2014-08-20T09:07:46Z</time>
      </trkpt>
      <trkpt lat="46.73563" lon="-0.36304">
        <ele>243.72178</ele>
        <time>2014-08-20T09:07:48Z</time>
      </trkpt>
      <trkpt lat="46.73561" lon="-0.36313">
        <ele>243.741191</ele>
        <time>2014-08-20T09:07:50Z</time>
      </trkpt>
      <trkpt lat="46.73559" lon="-0.36322">
        <ele>243.904941</ele>
        <time>2014-08-20T09:07:53Z</time>
      </trkpt>
      <trkpt lat="46.73557" lon="-0.36329">
        <ele>243.960666</ele>
        <time>2014-08-20T09:07:55Z</time>
      </trkpt>
      <trkpt lat="46.73555" lon="-0.36335">
        <ele>244.124624</ele>
        <time>2014-08-20T09:07:57Z</time>
      </trkpt>
      <trkpt lat="46.73553" lon="-0.36342">
        <ele>244.24199</ele>
        <time>2014-08-20T09:07:59Z</time>
      </trkpt>
      <trkpt lat="46.7355" lon="-0.36351">
        <ele>244.447396</ele>
        <time>2014-08-20T09:08:02Z</time>
      </trkpt>
      <trkpt lat="46.73548" lon="-0.36357">
        <ele>244.561436</ele>
        <time>2014-08-20T09:08:04Z</time>
      </trkpt>
      <trkpt lat="46.73546" lon="-0.36364">
        <ele>244.632469</ele>
        <time>2014-08-20T09:08:06Z</time>
      </trkpt>
      <trkpt lat="46.73544" lon="-0.36371">
        <ele>244.655629</ele>
        <time>2014-08-20T09:08:08Z</time>
      </trkpt>
      <trkpt lat="46.73542" lon="-0.36378">
        <ele>244.728871</ele>
        <time>2014-08-20T09:08:10Z</time>
      </trkpt>
      <trkpt lat="46.7354" lon="-0.36384">
        <ele>244.821084</ele>
        <time>2014-08-20T09:08:12Z</time>
      </trkpt>
      <trkpt lat="46.73538" lon="-0.36391">
        <ele>244.874787</ele>
        <time>2014-08-20T09:08:14Z</time>
      </trkpt>
      <trkpt lat="46.73536" lon="-0.36398">
        <ele>245.003268</ele>
        <time>2014-08-20T09:08:16Z</time>
      </trkpt>
      <trkpt lat="46.73532" lon="-0.36406">
        <ele>245.229089</ele>
        <time>2014-08-20T09:08:18Z</time>
      </trkpt>
      <trkpt lat="46.73529" lon="-0.36413">
        <ele>245.499862</ele>
        <time>2014-08-20T09:08:20Z</time>
      </trkpt>
      <trkpt lat="46.73526" lon="-0.36421">
        <ele>245.887975</ele>
        <time>2014-08-20T09:08:23Z</time>
      </trkpt>
      <trkpt lat="46.73524" lon="-0.36427">
        <ele>246.021831</ele>
        <time>2014-08-20T09:08:25Z</time>
      </trkpt>
      <trkpt lat="46.7352" lon="-0.36436">
        <ele>246.325026</ele>
        <time>2014-08-20T09:08:28Z</time>
      </trkpt>
      <trkpt lat="46.73517" lon="-0.36443">
        <ele>246.582326</ele>
        <time>2014-08-20T09:08:30Z</time>
      </trkpt>
      <trkpt lat="46.73515" lon="-0.3645">
        <ele>246.726378</ele>
        <time>2014-08-20T09:08:32Z</time>
      </trkpt>
      <trkpt lat="46.73513" lon="-0.36457">
        <ele>246.804317</ele>
        <time>2014-08-20T09:08:34Z</time>
      </trkpt>
      <trkpt lat="46.7351" lon="-0.36465">
        <ele>246.842678</ele>
        <time>2014-08-20T09:08:36Z</time>
      </trkpt>
      <trkpt lat="46.73508" lon="-0.36471">
        <ele>246.837149</ele>
        <time>2014-08-20T09:08:38Z</time>
      </trkpt>
      <trkpt lat="46.73505" lon="-0.36478">
        <ele>246.895235</ele>
        <time>2014-08-20T09:08:40Z</time>
      </trkpt>
      <trkpt lat="46.73503" lon="-0.36484">
        <ele>247.055392</ele>
        <time>2014-08-20T09:08:42Z</time>
      </trkpt>
      <trkpt lat="46.735" lon="-0.36491">
        <ele>247.269471</ele>
        <time>2014-08-20T09:08:44Z</time>
      </trkpt>
      <trkpt lat="46.73497" lon="-0.36497">
        <ele>247.438602</ele>
        <time>2014-08-20T09:08:46Z</time>
      </trkpt>
      <trkpt lat="46.73495" lon="-0.36505">
        <ele>247.606211</ele>
        <time>2014-08-20T09:08:48Z</time>
      </trkpt>
      <trkpt lat="46.73492" lon="-0.36511">
        <ele>247.797461</ele>
        <time>2014-08-20T09:08:50Z</time>
      </trkpt>
      <trkpt lat="46.73488" lon="-0.3652">
        <ele>248.068882</ele>
        <time>2014-08-20T09:08:53Z</time>
      </trkpt>
      <trkpt lat="46.73486" lon="-0.36527">
        <ele>248.297688</ele>
        <time>2014-08-20T09:08:55Z</time>
      </trkpt>
      <trkpt lat="46.73484" lon="-0.36533">
        <ele>248.523162</ele>
        <time>2014-08-20T09:08:57Z</time>
      </trkpt>
      <trkpt lat="46.73481" lon="-0.36541">
        <ele>248.753429</ele>
        <time>2014-08-20T09:09:00Z</time>
      </trkpt>
      <trkpt lat="46.73478" lon="-0.36548">
        <ele>248.912885</ele>
        <time>2014-08-20T09:09:02Z</time>
      </trkpt>
      <trkpt lat="46.73476" lon="-0.36556">
        <ele>249.084099</ele>
        <time>2014-08-20T09:09:04Z</time>
      </trkpt>
      <trkpt lat="46.73474" lon="-0.36563">
        <ele>249.165959</ele>
        <time>2014-08-20T09:09:06Z</time>
      </trkpt>
      <trkpt lat="46.73472" lon="-0.36569">
        <ele>249.223321</ele>
        <time>2014-08-20T09:09:08Z</time>
      </trkpt>
      <trkpt lat="46.73469" lon="-0.36575">
        <ele>249.321395</ele>
        <time>2014-08-20T09:09:10Z</time>
      </trkpt>
      <trkpt lat="46.73466" lon="-0.36584">
        <ele>249.432695</ele>
        <time>2014-08-20T09:09:13Z</time>
      </trkpt>
      <trkpt lat="46.73464" lon="-0.36591">
        <ele>249.44209</ele>
        <time>2014-08-20T09:09:15Z</time>
      </trkpt>
      <trkpt lat="46.73461" lon="-0.36598">
        <ele>249.501044</ele>
        <time>2014-08-20T09:09:17Z</time>
      </trkpt>
      <trkpt lat="46.73458" lon="-0.36605">
        <ele>249.520195</ele>
        <time>2014-08-20T09:09:19Z</time>
      </trkpt>
      <trkpt lat="46.73456" lon="-0.36612">
        <ele>249.542788</ele>
        <time>2014-08-20T09:09:21Z</time>
      </trkpt>
      <trkpt lat="46.73453" lon="-0.36618">
        <ele>249.529849</ele>
        <time>2014-08-20T09:09:23Z</time>
      </trkpt>
      <trkpt lat="46.73451" lon="-0.36625">
        <ele>249.510459</ele>
        <time>2014-08-20T09:09:25Z</time>
      </trkpt>
      <trkpt lat="46.73449" lon="-0.36632">
        <ele>249.506086</ele>
        <time>2014-08-20T09:09:27Z</time>
      </trkpt>
      <trkpt lat="46.73446" lon="-0.36641">
        <ele>249.592559</ele>
        <time>2014-08-20T09:09:30Z</time>
      </trkpt>
      <trkpt lat="46.73444" lon="-0.36649">
        <ele>249.60877</ele>
        <time>2014-08-20T09:09:32Z</time>
      </trkpt>
      <trkpt lat="46.73441" lon="-0.36656">
        <ele>249.590506</ele>
        <time>2014-08-20T09:09:34Z</time>
      </trkpt>
      <trkpt lat="46.73438" lon="-0.36664">
        <ele>249.642219</ele>
        <time>2014-08-20T09:09:37Z</time>
      </trkpt>
      <trkpt lat="46.73436" lon="-0.3667">
        <ele>249.721242</ele>
        <time>2014-08-20T09:09:39Z</time>
      </trkpt>
      <trkpt lat="46.73433" lon="-0.36678">
        <ele>249.849413</ele>
        <time>2014-08-20T09:09:41Z</time>
      </trkpt>
      <trkpt lat="46.7343" lon="-0.36684">
        <ele>249.983384</ele>
        <time>2014-08-20T09:09:43Z</time>
      </trkpt>
      <trkpt lat="46.73427" lon="-0.36692">
        <ele>250.06139</ele>
        <time>2014-08-20T09:09:45Z</time>
      </trkpt>
      <trkpt lat="46.73425" lon="-0.36698">
        <ele>250.10579</ele>
        <time>2014-08-20T09:09:47Z</time>
      </trkpt>
      <trkpt lat="46.73422" lon="-0.36704">
        <ele>250.203479</ele>
        <time>2014-08-20T09:09:49Z</time>
      </trkpt>
      <trkpt lat="46.7342" lon="-0.3671">
        <ele>250.407249</ele>
        <time>2014-08-20T09:09:51Z</time>
      </trkpt>
      <trkpt lat="46.73417" lon="-0.36715">
        <ele>250.6677</ele>
        <time>2014-08-20T09:09:53Z</time>
      </trkpt>
      <trkpt lat="46.73414" lon="-0.36723">
        <ele>250.895691</ele>
        <time>2014-08-20T09:09:55Z</time>
      </trkpt>
      <trkpt lat="46.73411" lon="-0.3673">
        <ele>251.188046</ele>
        <time>2014-08-20T09:09:57Z</time>
      </trkpt>
      <trkpt lat="46.73408" lon="-0.36737">
        <ele>251.522336</ele>
        <time>2014-08-20T09:10:00Z</time>
      </trkpt>
      <trkpt lat="46.73405" lon="-0.36744">
        <ele>251.722228</ele>
        <time>2014-08-20T09:10:02Z</time>
      </trkpt>
      <trkpt lat="46.73404" lon="-0.3675">
        <ele>251.887309</ele>
        <time>2014-08-20T09:10:04Z</time>
      </trkpt>
      <trkpt lat="46.73401" lon="-0.36757">
        <ele>251.983538</ele>
        <time>2014-08-20T09:10:06Z</time>
      </trkpt>
      <trkpt lat="46.73399" lon="-0.36763">
        <ele>252.134983</ele>
        <time>2014-08-20T09:10:08Z</time>
      </trkpt>
      <trkpt lat="46.73396" lon="-0.3677">
        <ele>252.333178</ele>
        <time>2014-08-20T09:10:10Z</time>
      </trkpt>
      <trkpt lat="46.73394" lon="-0.36776">
        <ele>252.501308</ele>
        <time>2014-08-20T09:10:12Z</time>
      </trkpt>
      <trkpt lat="46.73391" lon="-0.36783">
        <ele>252.655159</ele>
        <time>2014-08-20T09:10:14Z</time>
      </trkpt>
      <trkpt lat="46.73389" lon="-0.36789">
        <ele>252.817701</ele>
        <time>2014-08-20T09:10:16Z</time>
      </trkpt>
      <trkpt lat="46.73386" lon="-0.36796">
        <ele>252.97081</ele>
        <time>2014-08-20T09:10:18Z</time>
      </trkpt>
      <trkpt lat="46.73383" lon="-0.36803">
        <ele>253.216928</ele>
        <time>2014-08-20T09:10:20Z</time>
      </trkpt>
      <trkpt lat="46.73381" lon="-0.36809">
        <ele>253.417986</ele>
        <time>2014-08-20T09:10:22Z</time>
      </trkpt>
      <trkpt lat="46.73378" lon="-0.36817">
        <ele>253.648762</ele>
        <time>2014-08-20T09:10:24Z</time>
      </trkpt>
      <trkpt lat="46.73375" lon="-0.36825">
        <ele>253.798893</ele>
        <time>2014-08-20T09:10:26Z</time>
      </trkpt>
      <trkpt lat="46.73372" lon="-0.36833">
        <ele>253.806758</ele>
        <time>2014-08-20T09:10:29Z</time>
      </trkpt>
      <trkpt lat="46.73369" lon="-0.3684">
        <ele>253.771813</ele>
        <time>2014-08-20T09:10:31Z</time>
      </trkpt>
      <trkpt lat="46.73366" lon="-0.36846">
        <ele>253.640297</ele>
        <time>2014-08-20T09:10:33Z</time>
      </trkpt>
      <trkpt lat="46.73363" lon="-0.36852">
        <ele>253.590833</ele>
        <time>2014-08-20T09:10:35Z</time>
      </trkpt>
      <trkpt lat="46.73358" lon="-0.36858">
        <ele>253.674518</ele>
        <time>2014-08-20T09:10:38Z</time>
      </trkpt>
      <trkpt lat="46.73354" lon="-0.36864">
        <ele>253.957054</ele>
        <time>2014-08-20T09:10:40Z</time>
      </trkpt>
      <trkpt lat="46.7335" lon="-0.36871">
        <ele>254.291159</ele>
        <time>2014-08-20T09:10:42Z</time>
      </trkpt>
      <trkpt lat="46.73347" lon="-0.36877">
        <ele>254.650114</ele>
        <time>2014-08-20T09:10:44Z</time>
      </trkpt>
      <trkpt lat="46.73344" lon="-0.36883">
        <ele>254.882548</ele>
        <time>2014-08-20T09:10:46Z</time>
      </trkpt>
      <trkpt lat="46.73341" lon="-0.36889">
        <ele>255.039198</ele>
        <time>2014-08-20T09:10:48Z</time>
      </trkpt>
      <trkpt lat="46.73338" lon="-0.36895">
        <ele>255.174195</ele>
        <time>2014-08-20T09:10:50Z</time>
      </trkpt>
      <trkpt lat="46.73334" lon="-0.36901">
        <ele>255.388376</ele>
        <time>2014-08-20T09:10:52Z</time>
      </trkpt>
      <trkpt lat="46.73329" lon="-0.36908">
        <ele>255.537693</ele>
        <time>2014-08-20T09:10:55Z</time>
      </trkpt>
      <trkpt lat="46.73325" lon="-0.36913">
        <ele>255.623672</ele>
        <time>2014-08-20T09:10:57Z</time>
      </trkpt>
      <trkpt lat="46.73322" lon="-0.36918">
        <ele>255.716546</ele>
        <time>2014-08-20T09:10:59Z</time>
      </trkpt>
      <trkpt lat="46.73318" lon="-0.36924">
        <ele>255.789572</ele>
        <time>2014-08-20T09:11:01Z</time>
      </trkpt>
      <trkpt lat="46.73314" lon="-0.36929">
        <ele>255.836145</ele>
        <time>2014-08-20T09:11:03Z</time>
      </trkpt>
      <trkpt lat="46.73309" lon="-0.36937">
        <ele>256.007469</ele>
        <time>2014-08-20T09:11:06Z</time>
      </trkpt>
      <trkpt lat="46.73306" lon="-0.36943">
        <ele>256.129417</ele>
        <time>2014-08-20T09:11:08Z</time>
      </trkpt>
      <trkpt lat="46.73302" lon="-0.36948">
        <ele>256.210184</ele>
        <time>2014-08-20T09:11:10Z</time>
      </trkpt>
      <trkpt lat="46.73299" lon="-0.36955">
        <ele>256.231026</ele>
        <time>2014-08-20T09:11:12Z</time>
      </trkpt>
      <trkpt lat="46.73295" lon="-0.36959">
        <ele>256.253402</ele>
        <time>2014-08-20T09:11:14Z</time>
      </trkpt>
      <trkpt lat="46.73292" lon="-0.36965">
        <ele>256.265034</ele>
        <time>2014-08-20T09:11:16Z</time>
      </trkpt>
      <trkpt lat="46.73288" lon="-0.3697">
        <ele>256.243019</ele>
        <time>2014-08-20T09:11:18Z</time>
      </trkpt>
      <trkpt lat="46.73285" lon="-0.36975">
        <ele>256.20918</ele>
        <time>2014-08-20T09:11:20Z</time>
      </trkpt>
      <trkpt lat="46.73281" lon="-0.3698">
        <ele>256.09813</ele>
        <time>2014-08-20T09:11:22Z</time>
      </trkpt>
      <trkpt lat="46.73277" lon="-0.36984">
        <ele>255.977834</ele>
        <time>2014-08-20T09:11:24Z</time>
      </trkpt>
      <trkpt lat="46.73273" lon="-0.3699">
        <ele>255.973368</ele>
        <time>2014-08-20T09:11:26Z</time>
      </trkpt>
      <trkpt lat="46.7327" lon="-0.36995">
        <ele>255.892446</ele>
        <time>2014-08-20T09:11:28Z</time>
      </trkpt>
      <trkpt lat="46.73266" lon="-0.37">
        <ele>255.748484</ele>
        <time>2014-08-20T09:11:30Z</time>
      </trkpt>
      <trkpt lat="46.73263" lon="-0.37006">
        <ele>255.669242</ele>
        <time>2014-08-20T09:11:32Z</time>
      </trkpt>
      <trkpt lat="46.73259" lon="-0.37012">
        <ele>255.687371</ele>
        <time>2014-08-20T09:11:34Z</time>
      </trkpt>
      <trkpt lat="46.73256" lon="-0.37016">
        <ele>255.623715</ele>
        <time>2014-08-20T09:11:36Z</time>
      </trkpt>
      <trkpt lat="46.73252" lon="-0.37021">
        <ele>255.593874</ele>
        <time>2014-08-20T09:11:38Z</time>
      </trkpt>
      <trkpt lat="46.73247" lon="-0.37026">
        <ele>255.698021</ele>
        <time>2014-08-20T09:11:41Z</time>
      </trkpt>
      <trkpt lat="46.73243" lon="-0.3703">
        <ele>255.722977</ele>
        <time>2014-08-20T09:11:43Z</time>
      </trkpt>
      <trkpt lat="46.73239" lon="-0.37035">
        <ele>255.735044</ele>
        <time>2014-08-20T09:11:45Z</time>
      </trkpt>
      <trkpt lat="46.73235" lon="-0.37041">
        <ele>255.698605</ele>
        <time>2014-08-20T09:11:47Z</time>
      </trkpt>
      <trkpt lat="46.73232" lon="-0.37046">
        <ele>255.762469</ele>
        <time>2014-08-20T09:11:49Z</time>
      </trkpt>
      <trkpt lat="46.73228" lon="-0.37052">
        <ele>255.951497</ele>
        <time>2014-08-20T09:11:52Z</time>
      </trkpt>
      <trkpt lat="46.73223" lon="-0.37058">
        <ele>256.142667</ele>
        <time>2014-08-20T09:11:54Z</time>
      </trkpt>
      <trkpt lat="46.7322" lon="-0.37064">
        <ele>256.332764</ele>
        <time>2014-08-20T09:11:56Z</time>
      </trkpt>
      <trkpt lat="46.73216" lon="-0.37069">
        <ele>256.498537</ele>
        <time>2014-08-20T09:11:58Z</time>
      </trkpt>
      <trkpt lat="46.73211" lon="-0.37076">
        <ele>256.677024</ele>
        <time>2014-08-20T09:12:01Z</time>
      </trkpt>
      <trkpt lat="46.73208" lon="-0.37081">
        <ele>256.755358</ele>
        <time>2014-08-20T09:12:03Z</time>
      </trkpt>
      <trkpt lat="46.73204" lon="-0.37086">
        <ele>256.866926</ele>
        <time>2014-08-20T09:12:06Z</time>
      </trkpt>
      <trkpt lat="46.732" lon="-0.37091">
        <ele>256.885124</ele>
        <time>2014-08-20T09:12:08Z</time>
      </trkpt>
      <trkpt lat="46.73195" lon="-0.37098">
        <ele>257.069347</ele>
        <time>2014-08-20T09:12:11Z</time>
      </trkpt>
      <trkpt lat="46.7319" lon="-0.37104">
        <ele>257.424986</ele>
        <time>2014-08-20T09:12:14Z</time>
      </trkpt>
      <trkpt lat="46.73187" lon="-0.37109">
        <ele>257.571046</ele>
        <time>2014-08-20T09:12:16Z</time>
      </trkpt>
      <trkpt lat="46.73182" lon="-0.37114">
        <ele>257.611716</ele>
        <time>2014-08-20T09:12:18Z</time>
      </trkpt>
      <trkpt lat="46.73178" lon="-0.37119">
        <ele>257.730616</ele>
        <time>2014-08-20T09:12:20Z</time>
      </trkpt>
      <trkpt lat="46.73175" lon="-0.37126">
        <ele>257.853163</ele>
        <time>2014-08-20T09:12:22Z</time>
      </trkpt>
      <trkpt lat="46.73171" lon="-0.37131">
        <ele>257.928296</ele>
        <time>2014-08-20T09:12:24Z</time>
      </trkpt>
      <trkpt lat="46.73167" lon="-0.3714">
        <ele>258.004413</ele>
        <time>2014-08-20T09:12:27Z</time>
      </trkpt>
      <trkpt lat="46.73163" lon="-0.37147">
        <ele>258.003387</ele>
        <time>2014-08-20T09:12:29Z</time>
      </trkpt>
      <trkpt lat="46.7316" lon="-0.37154">
        <ele>257.918306</ele>
        <time>2014-08-20T09:12:32Z</time>
      </trkpt>
      <trkpt lat="46.73158" lon="-0.37159">
        <ele>258.058414</ele>
        <time>2014-08-20T09:12:34Z</time>
      </trkpt>
      <trkpt lat="46.73155" lon="-0.37166">
        <ele>258.134608</ele>
        <time>2014-08-20T09:12:36Z</time>
      </trkpt>
      <trkpt lat="46.73152" lon="-0.37172">
        <ele>258.26221</ele>
        <time>2014-08-20T09:12:38Z</time>
      </trkpt>
      <trkpt lat="46.73149" lon="-0.37177">
        <ele>258.309148</ele>
        <time>2014-08-20T09:12:40Z</time>
      </trkpt>
      <trkpt lat="46.73146" lon="-0.37182">
        <ele>258.383763</ele>
        <time>2014-08-20T09:12:42Z</time>
      </trkpt>
      <trkpt lat="46.73143" lon="-0.37188">
        <ele>258.455493</ele>
        <time>2014-08-20T09:12:44Z</time>
      </trkpt>
      <trkpt lat="46.73139" lon="-0.37194">
        <ele>258.525095</ele>
        <time>2014-08-20T09:12:46Z</time>
      </trkpt>
      <trkpt lat="46.73136" lon="-0.37199">
        <ele>258.572375</ele>
        <time>2014-08-20T09:12:48Z</time>
      </trkpt>
      <trkpt lat="46.73133" lon="-0.37204">
        <ele>258.703201</ele>
        <time>2014-08-20T09:12:50Z</time>
      </trkpt>
      <trkpt lat="46.73131" lon="-0.3721">
        <ele>258.844015</ele>
        <time>2014-08-20T09:12:52Z</time>
      </trkpt>
      <trkpt lat="46.73128" lon="-0.37216">
        <ele>259.082369</ele>
        <time>2014-08-20T09:12:54Z</time>
      </trkpt>
      <trkpt lat="46.73126" lon="-0.37222">
        <ele>259.310297</ele>
        <time>2014-08-20T09:12:56Z</time>
      </trkpt>
      <trkpt lat="46.73122" lon="-0.3723">
        <ele>259.489195</ele>
        <time>2014-08-20T09:12:59Z</time>
      </trkpt>
      <trkpt lat="46.73119" lon="-0.37237">
        <ele>259.667786</ele>
        <time>2014-08-20T09:13:01Z</time>
      </trkpt>
      <trkpt lat="46.73116" lon="-0.37243">
        <ele>259.907763</ele>
        <time>2014-08-20T09:13:03Z</time>
      </trkpt>
      <trkpt lat="46.73113" lon="-0.37249">
        <ele>260.148474</ele>
        <time>2014-08-20T09:13:05Z</time>
      </trkpt>
      <trkpt lat="46.7311" lon="-0.37255">
        <ele>260.398217</ele>
        <time>2014-08-20T09:13:07Z</time>
      </trkpt>
      <trkpt lat="46.73108" lon="-0.37262">
        <ele>260.54129</ele>
        <time>2014-08-20T09:13:09Z</time>
      </trkpt>
      <trkpt lat="46.73106" lon="-0.37268">
        <ele>260.773428</ele>
        <time>2014-08-20T09:13:11Z</time>
      </trkpt>
      <trkpt lat="46.73103" lon="-0.37274">
        <ele>261.000147</ele>
        <time>2014-08-20T09:13:13Z</time>
      </trkpt>
      <trkpt lat="46.73101" lon="-0.37282">
        <ele>261.250435</ele>
        <time>2014-08-20T09:13:15Z</time>
      </trkpt>
      <trkpt lat="46.73098" lon="-0.37287">
        <ele>261.460015</ele>
        <time>2014-08-20T09:13:17Z</time>
      </trkpt>
      <trkpt lat="46.73096" lon="-0.37293">
        <ele>261.574519</ele>
        <time>2014-08-20T09:13:19Z</time>
      </trkpt>
      <trkpt lat="46.73094" lon="-0.373">
        <ele>261.618508</ele>
        <time>2014-08-20T09:13:21Z</time>
      </trkpt>
      <trkpt lat="46.73092" lon="-0.37307">
        <ele>261.705161</ele>
        <time>2014-08-20T09:13:23Z</time>
      </trkpt>
      <trkpt lat="46.73089" lon="-0.37315">
        <ele>261.854344</ele>
        <time>2014-08-20T09:13:26Z</time>
      </trkpt>
      <trkpt lat="46.73087" lon="-0.37321">
        <ele>261.871476</ele>
        <time>2014-08-20T09:13:28Z</time>
      </trkpt>
      <trkpt lat="46.73085" lon="-0.37327">
        <ele>261.952131</ele>
        <time>2014-08-20T09:13:30Z</time>
      </trkpt>
      <trkpt lat="46.73082" lon="-0.37334">
        <ele>261.986641</ele>
        <time>2014-08-20T09:13:32Z</time>
      </trkpt>
      <trkpt lat="46.7308" lon="-0.37341">
        <ele>262.031531</ele>
        <time>2014-08-20T09:13:34Z</time>
      </trkpt>
      <trkpt lat="46.73077" lon="-0.37348">
        <ele>262.157163</ele>
        <time>2014-08-20T09:13:37Z</time>
      </trkpt>
      <trkpt lat="46.73075" lon="-0.37358">
        <ele>262.20091</ele>
        <time>2014-08-20T09:13:40Z</time>
      </trkpt>
      <trkpt lat="46.73072" lon="-0.37365">
        <ele>262.20338</ele>
        <time>2014-08-20T09:13:42Z</time>
      </trkpt>
      <trkpt lat="46.7307" lon="-0.37372">
        <ele>262.245694</ele>
        <time>2014-08-20T09:13:44Z</time>
      </trkpt>
      <trkpt lat="46.73068" lon="-0.37381">
        <ele>262.156975</ele>
        <time>2014-08-20T09:13:47Z</time>
      </trkpt>
      <trkpt lat="46.73067" lon="-0.37388">
        <ele>261.981989</ele>
        <time>2014-08-20T09:13:49Z</time>
      </trkpt>
      <trkpt lat="46.73065" lon="-0.37394">
        <ele>261.854315</ele>
        <time>2014-08-20T09:13:51Z</time>
      </trkpt>
      <trkpt lat="46.73064" lon="-0.37401">
        <ele>261.868061</ele>
        <time>2014-08-20T09:13:53Z</time>
      </trkpt>
      <trkpt lat="46.73062" lon="-0.37411">
        <ele>261.868106</ele>
        <time>2014-08-20T09:13:56Z</time>
      </trkpt>
      <trkpt lat="46.73058" lon="-0.3742">
        <ele>261.854424</ele>
        <time>2014-08-20T09:13:59Z</time>
      </trkpt>
      <trkpt lat="46.73056" lon="-0.37426">
        <ele>261.809469</ele>
        <time>2014-08-20T09:14:01Z</time>
      </trkpt>
      <trkpt lat="46.73055" lon="-0.37434">
        <ele>261.710552</ele>
        <time>2014-08-20T09:14:03Z</time>
      </trkpt>
      <trkpt lat="46.73052" lon="-0.37441">
        <ele>261.607998</ele>
        <time>2014-08-20T09:14:05Z</time>
      </trkpt>
      <trkpt lat="46.7305" lon="-0.37447">
        <ele>261.477269</ele>
        <time>2014-08-20T09:14:07Z</time>
      </trkpt>
      <trkpt lat="46.73048" lon="-0.37454">
        <ele>261.496678</ele>
        <time>2014-08-20T09:14:09Z</time>
      </trkpt>
      <trkpt lat="46.73046" lon="-0.37461">
        <ele>261.515124</ele>
        <time>2014-08-20T09:14:11Z</time>
      </trkpt>
      <trkpt lat="46.73044" lon="-0.37468">
        <ele>261.557636</ele>
        <time>2014-08-20T09:14:13Z</time>
      </trkpt>
      <trkpt lat="46.73041" lon="-0.37475">
        <ele>261.543209</ele>
        <time>2014-08-20T09:14:15Z</time>
      </trkpt>
      <trkpt lat="46.73039" lon="-0.37481">
        <ele>261.430567</ele>
        <time>2014-08-20T09:14:17Z</time>
      </trkpt>
      <trkpt lat="46.73036" lon="-0.37488">
        <ele>261.324235</ele>
        <time>2014-08-20T09:14:20Z</time>
      </trkpt>
      <trkpt lat="46.73033" lon="-0.37495">
        <ele>261.337922</ele>
        <time>2014-08-20T09:14:22Z</time>
      </trkpt>
      <trkpt lat="46.73031" lon="-0.37502">
        <ele>261.381708</ele>
        <time>2014-08-20T09:14:24Z</time>
      </trkpt>
      <trkpt lat="46.73029" lon="-0.37508">
        <ele>261.451086</ele>
        <time>2014-08-20T09:14:26Z</time>
      </trkpt>
      <trkpt lat="46.73026" lon="-0.37514">
        <ele>261.564863</ele>
        <time>2014-08-20T09:14:28Z</time>
      </trkpt>
      <trkpt lat="46.73023" lon="-0.3752">
        <ele>261.55</ele>
        <time>2014-08-20T09:14:30Z</time>
      </trkpt>
      <trkpt lat="46.7302" lon="-0.37525">
        <ele>261.564981</ele>
        <time>2014-08-20T09:14:32Z</time>
      </trkpt>
      <trkpt lat="46.73016" lon="-0.37532">
        <ele>261.886448</ele>
        <time>2014-08-20T09:14:35Z</time>
      </trkpt>
      <trkpt lat="46.73011" lon="-0.37538">
        <ele>262.079393</ele>
        <time>2014-08-20T09:14:38Z</time>
      </trkpt>
      <trkpt lat="46.73006" lon="-0.37544">
        <ele>262.307882</ele>
        <time>2014-08-20T09:14:41Z</time>
      </trkpt>
      <trkpt lat="46.73002" lon="-0.3755">
        <ele>262.550091</ele>
        <time>2014-08-20T09:14:43Z</time>
      </trkpt>
      <trkpt lat="46.72998" lon="-0.37557">
        <ele>262.860998</ele>
        <time>2014-08-20T09:14:45Z</time>
      </trkpt>
      <trkpt lat="46.72995" lon="-0.37564">
        <ele>263.192516</ele>
        <time>2014-08-20T09:14:47Z</time>
      </trkpt>
      <trkpt lat="46.72992" lon="-0.37569">
        <ele>263.594961</ele>
        <time>2014-08-20T09:14:49Z</time>
      </trkpt>
      <trkpt lat="46.72988" lon="-0.37574">
        <ele>264.002755</ele>
        <time>2014-08-20T09:14:51Z</time>
      </trkpt>
      <trkpt lat="46.72983" lon="-0.3758">
        <ele>264.399207</ele>
        <time>2014-08-20T09:14:53Z</time>
      </trkpt>
      <trkpt lat="46.7298" lon="-0.37584">
        <ele>264.693272</ele>
        <time>2014-08-20T09:14:55Z</time>
      </trkpt>
      <trkpt lat="46.72975" lon="-0.37591">
        <ele>264.988218</ele>
        <time>2014-08-20T09:14:58Z</time>
      </trkpt>
      <trkpt lat="46.7297" lon="-0.37598">
        <ele>265.326908</ele>
        <time>2014-08-20T09:15:01Z</time>
      </trkpt>
      <trkpt lat="46.72967" lon="-0.37602">
        <ele>265.466964</ele>
        <time>2014-08-20T09:15:03Z</time>
      </trkpt>
      <trkpt lat="46.72963" lon="-0.37607">
        <ele>265.535293</ele>
        <time>2014-08-20T09:15:05Z</time>
      </trkpt>
      <trkpt lat="46.72959" lon="-0.37612">
        <ele>265.649172</ele>
        <time>2014-08-20T09:15:07Z</time>
      </trkpt>
      <trkpt lat="46.72954" lon="-0.37618">
        <ele>265.911041</ele>
        <time>2014-08-20T09:15:10Z</time>
      </trkpt>
      <trkpt lat="46.7295" lon="-0.37625">
        <ele>266.068663</ele>
        <time>2014-08-20T09:15:13Z</time>
      </trkpt>
      <trkpt lat="46.72945" lon="-0.37632">
        <ele>266.062929</ele>
        <time>2014-08-20T09:15:16Z</time>
      </trkpt>
      <trkpt lat="46.72941" lon="-0.37637">
        <ele>266.074393</ele>
        <time>2014-08-20T09:15:18Z</time>
      </trkpt>
      <trkpt lat="46.72938" lon="-0.37643">
        <ele>266.156749</ele>
        <time>2014-08-20T09:15:20Z</time>
      </trkpt>
      <trkpt lat="46.72933" lon="-0.37649">
        <ele>266.339489</ele>
        <time>2014-08-20T09:15:22Z</time>
      </trkpt>
      <trkpt lat="46.72929" lon="-0.37654">
        <ele>266.462565</ele>
        <time>2014-08-20T09:15:24Z</time>
      </trkpt>
      <trkpt lat="46.72926" lon="-0.37659">
        <ele>266.560312</ele>
        <time>2014-08-20T09:15:26Z</time>
      </trkpt>
      <trkpt lat="46.72922" lon="-0.37664">
        <ele>266.668639</ele>
        <time>2014-08-20T09:15:28Z</time>
      </trkpt>
      <trkpt lat="46.72918" lon="-0.37671">
        <ele>266.710251</ele>
        <time>2014-08-20T09:15:31Z</time>
      </trkpt>
      <trkpt lat="46.72915" lon="-0.37675">
        <ele>266.847815</ele>
        <time>2014-08-20T09:15:33Z</time>
      </trkpt>
      <trkpt lat="46.72911" lon="-0.3768">
        <ele>266.943083</ele>
        <time>2014-08-20T09:15:35Z</time>
      </trkpt>
      <trkpt lat="46.72906" lon="-0.37686">
        <ele>266.973951</ele>
        <time>2014-08-20T09:15:38Z</time>
      </trkpt>
      <trkpt lat="46.72902" lon="-0.37691">
        <ele>266.930623</ele>
        <time>2014-08-20T09:15:40Z</time>
      </trkpt>
      <trkpt lat="46.72898" lon="-0.37695">
        <ele>266.95586</ele>
        <time>2014-08-20T09:15:42Z</time>
      </trkpt>
      <trkpt lat="46.72894" lon="-0.377">
        <ele>267.019356</ele>
        <time>2014-08-20T09:15:44Z</time>
      </trkpt>
      <trkpt lat="46.7289" lon="-0.37705">
        <ele>267.254118</ele>
        <time>2014-08-20T09:15:46Z</time>
      </trkpt>
      <trkpt lat="46.72887" lon="-0.37711">
        <ele>267.483338</ele>
        <time>2014-08-20T09:15:48Z</time>
      </trkpt>
      <trkpt lat="46.72883" lon="-0.37717">
        <ele>267.726736</ele>
        <time>2014-08-20T09:15:50Z</time>
      </trkpt>
      <trkpt lat="46.72878" lon="-0.37723">
        <ele>268.110648</ele>
        <time>2014-08-20T09:15:53Z</time>
      </trkpt>
      <trkpt lat="46.72874" lon="-0.37729">
        <ele>268.380007</ele>
        <time>2014-08-20T09:15:55Z</time>
      </trkpt>
      <trkpt lat="46.7287" lon="-0.37734">
        <ele>268.482666</ele>
        <time>2014-08-20T09:15:57Z</time>
      </trkpt>
      <trkpt lat="46.72867" lon="-0.3774">
        <ele>268.578348</ele>
        <time>2014-08-20T09:15:59Z</time>
      </trkpt>
      <trkpt lat="46.72863" lon="-0.37745">
        <ele>268.666196</ele>
        <time>2014-08-20T09:16:01Z</time>
      </trkpt>
      <trkpt lat="46.72859" lon="-0.37751">
        <ele>268.736535</ele>
        <time>2014-08-20T09:16:03Z</time>
      </trkpt>
      <trkpt lat="46.72856" lon="-0.37756">
        <ele>268.922781</ele>
        <time>2014-08-20T09:16:05Z</time>
      </trkpt>
      <trkpt lat="46.72853" lon="-0.37762">
        <ele>269.090922</ele>
        <time>2014-08-20T09:16:08Z</time>
      </trkpt>
      <trkpt lat="46.72848" lon="-0.37769">
        <ele>269.355928</ele>
        <time>2014-08-20T09:16:11Z</time>
      </trkpt>
      <trkpt lat="46.72844" lon="-0.37775">
        <ele>269.42399</ele>
        <time>2014-08-20T09:16:13Z</time>
      </trkpt>
      <trkpt lat="46.7284" lon="-0.37781">
        <ele>269.495027</ele>
        <time>2014-08-20T09:16:15Z</time>
      </trkpt>
      <trkpt lat="46.72835" lon="-0.37787">
        <ele>269.790572</ele>
        <time>2014-08-20T09:16:18Z</time>
      </trkpt>
      <trkpt lat="46.72831" lon="-0.37794">
        <ele>270.10707</ele>
        <time>2014-08-20T09:16:21Z</time>
      </trkpt>
      <trkpt lat="46.72827" lon="-0.378">
        <ele>270.305408</ele>
        <time>2014-08-20T09:16:23Z</time>
      </trkpt>
      <trkpt lat="46.72824" lon="-0.37805">
        <ele>270.498822</ele>
        <time>2014-08-20T09:16:25Z</time>
      </trkpt>
      <trkpt lat="46.72821" lon="-0.3781">
        <ele>270.705901</ele>
        <time>2014-08-20T09:16:27Z</time>
      </trkpt>
      <trkpt lat="46.72818" lon="-0.37816">
        <ele>270.950379</ele>
        <time>2014-08-20T09:16:29Z</time>
      </trkpt>
      <trkpt lat="46.72814" lon="-0.37822">
        <ele>271.245797</ele>
        <time>2014-08-20T09:16:31Z</time>
      </trkpt>
      <trkpt lat="46.72809" lon="-0.37829">
        <ele>271.543626</ele>
        <time>2014-08-20T09:16:33Z</time>
      </trkpt>
      <trkpt lat="46.72806" lon="-0.37836">
        <ele>271.763499</ele>
        <time>2014-08-20T09:16:35Z</time>
      </trkpt>
      <trkpt lat="46.72803" lon="-0.37843">
        <ele>272.110569</ele>
        <time>2014-08-20T09:16:37Z</time>
      </trkpt>
      <trkpt lat="46.72803" lon="-0.3785">
        <ele>272.319238</ele>
        <time>2014-08-20T09:16:39Z</time>
      </trkpt>
      <trkpt lat="46.72802" lon="-0.37858">
        <ele>272.492639</ele>
        <time>2014-08-20T09:16:41Z</time>
      </trkpt>
      <trkpt lat="46.72804" lon="-0.37866">
        <ele>272.686467</ele>
        <time>2014-08-20T09:16:43Z</time>
      </trkpt>
      <trkpt lat="46.72806" lon="-0.37875">
        <ele>272.867258</ele>
        <time>2014-08-20T09:16:45Z</time>
      </trkpt>
      <trkpt lat="46.72808" lon="-0.37883">
        <ele>273.033148</ele>
        <time>2014-08-20T09:16:47Z</time>
      </trkpt>
      <trkpt lat="46.72808" lon="-0.37893">
        <ele>273.31713</ele>
        <time>2014-08-20T09:16:50Z</time>
      </trkpt>
      <trkpt lat="46.7281" lon="-0.379">
        <ele>273.451521</ele>
        <time>2014-08-20T09:16:52Z</time>
      </trkpt>
      <trkpt lat="46.72811" lon="-0.37907">
        <ele>273.534733</ele>
        <time>2014-08-20T09:16:54Z</time>
      </trkpt>
      <trkpt lat="46.72813" lon="-0.37915">
        <ele>273.589483</ele>
        <time>2014-08-20T09:16:56Z</time>
      </trkpt>
      <trkpt lat="46.72816" lon="-0.37922">
        <ele>273.537182</ele>
        <time>2014-08-20T09:16:58Z</time>
      </trkpt>
      <trkpt lat="46.72817" lon="-0.37928">
        <ele>273.477623</ele>
        <time>2014-08-20T09:17:00Z</time>
      </trkpt>
      <trkpt lat="46.72819" lon="-0.37935">
        <ele>273.36785</ele>
        <time>2014-08-20T09:17:02Z</time>
      </trkpt>
      <trkpt lat="46.72822" lon="-0.37943">
        <ele>273.271584</ele>
        <time>2014-08-20T09:17:04Z</time>
      </trkpt>
      <trkpt lat="46.72824" lon="-0.37949">
        <ele>273.304582</ele>
        <time>2014-08-20T09:17:06Z</time>
      </trkpt>
      <trkpt lat="46.72827" lon="-0.37955">
        <ele>273.320701</ele>
        <time>2014-08-20T09:17:08Z</time>
      </trkpt>
      <trkpt lat="46.72829" lon="-0.37963">
        <ele>273.307292</ele>
        <time>2014-08-20T09:17:10Z</time>
      </trkpt>
      <trkpt lat="46.72831" lon="-0.37969">
        <ele>273.292399</ele>
        <time>2014-08-20T09:17:12Z</time>
      </trkpt>
      <trkpt lat="46.72834" lon="-0.37977">
        <ele>273.302998</ele>
        <time>2014-08-20T09:17:15Z</time>
      </trkpt>
      <trkpt lat="46.72836" lon="-0.37984">
        <ele>273.434872</ele>
        <time>2014-08-20T09:17:17Z</time>
      </trkpt>
      <trkpt lat="46.72838" lon="-0.3799">
        <ele>273.661933</ele>
        <time>2014-08-20T09:17:19Z</time>
      </trkpt>
      <trkpt lat="46.72841" lon="-0.37996">
        <ele>273.946907</ele>
        <time>2014-08-20T09:17:21Z</time>
      </trkpt>
      <trkpt lat="46.72844" lon="-0.38003">
        <ele>274.20275</ele>
        <time>2014-08-20T09:17:23Z</time>
      </trkpt>
      <trkpt lat="46.72847" lon="-0.3801">
        <ele>274.37858</ele>
        <time>2014-08-20T09:17:25Z</time>
      </trkpt>
      <trkpt lat="46.72849" lon="-0.38016">
        <ele>274.363403</ele>
        <time>2014-08-20T09:17:27Z</time>
      </trkpt>
      <trkpt lat="46.72852" lon="-0.38023">
        <ele>274.299646</ele>
        <time>2014-08-20T09:17:29Z</time>
      </trkpt>
      <trkpt lat="46.72855" lon="-0.38029">
        <ele>274.255175</ele>
        <time>2014-08-20T09:17:31Z</time>
      </trkpt>
      <trkpt lat="46.72857" lon="-0.38035">
        <ele>274.27803</ele>
        <time>2014-08-20T09:17:33Z</time>
      </trkpt>
      <trkpt lat="46.7286" lon="-0.38041">
        <ele>274.334299</ele>
        <time>2014-08-20T09:17:35Z</time>
      </trkpt>
      <trkpt lat="46.72863" lon="-0.38047">
        <ele>274.469129</ele>
        <time>2014-08-20T09:17:37Z</time>
      </trkpt>
      <trkpt lat="46.72866" lon="-0.38054">
        <ele>274.525447</ele>
        <time>2014-08-20T09:17:39Z</time>
      </trkpt>
      <trkpt lat="46.7287" lon="-0.38062">
        <ele>274.683004</ele>
        <time>2014-08-20T09:17:41Z</time>
      </trkpt>
      <trkpt lat="46.72873" lon="-0.38067">
        <ele>274.753196</ele>
        <time>2014-08-20T09:17:43Z</time>
      </trkpt>
      <trkpt lat="46.72875" lon="-0.38073">
        <ele>274.866914</ele>
        <time>2014-08-20T09:17:45Z</time>
      </trkpt>
      <trkpt lat="46.72878" lon="-0.38079">
        <ele>274.891341</ele>
        <time>2014-08-20T09:17:47Z</time>
      </trkpt>
      <trkpt lat="46.72881" lon="-0.38085">
        <ele>274.849931</ele>
        <time>2014-08-20T09:17:49Z</time>
      </trkpt>
      <trkpt lat="46.72884" lon="-0.38091">
        <ele>274.750781</ele>
        <time>2014-08-20T09:17:51Z</time>
      </trkpt>
      <trkpt lat="46.72887" lon="-0.38097">
        <ele>274.7246</ele>
        <time>2014-08-20T09:17:53Z</time>
      </trkpt>
      <trkpt lat="46.7289" lon="-0.38103">
        <ele>274.679476</ele>
        <time>2014-08-20T09:17:55Z</time>
      </trkpt>
      <trkpt lat="46.72892" lon="-0.38109">
        <ele>274.674344</ele>
        <time>2014-08-20T09:17:57Z</time>
      </trkpt>
      <trkpt lat="46.72895" lon="-0.38114">
        <ele>274.689596</ele>
        <time>2014-08-20T09:17:59Z</time>
      </trkpt>
      <trkpt lat="46.72898" lon="-0.38121">
        <ele>274.709069</ele>
        <time>2014-08-20T09:18:01Z</time>
      </trkpt>
      <trkpt lat="46.72901" lon="-0.38127">
        <ele>274.792333</ele>
        <time>2014-08-20T09:18:03Z</time>
      </trkpt>
      <trkpt lat="46.72904" lon="-0.38133">
        <ele>274.889574</ele>
        <time>2014-08-20T09:18:05Z</time>
      </trkpt>
      <trkpt lat="46.72907" lon="-0.3814">
        <ele>274.934161</ele>
        <time>2014-08-20T09:18:07Z</time>
      </trkpt>
      <trkpt lat="46.7291" lon="-0.38148">
        <ele>274.921025</ele>
        <time>2014-08-20T09:18:09Z</time>
      </trkpt>
      <trkpt lat="46.72913" lon="-0.38155">
        <ele>274.867737</ele>
        <time>2014-08-20T09:18:11Z</time>
      </trkpt>
      <trkpt lat="46.72917" lon="-0.38162">
        <ele>274.83532</ele>
        <time>2014-08-20T09:18:13Z</time>
      </trkpt>
      <trkpt lat="46.7292" lon="-0.38167">
        <ele>274.845281</ele>
        <time>2014-08-20T09:18:15Z</time>
      </trkpt>
      <trkpt lat="46.72923" lon="-0.38173">
        <ele>274.887953</ele>
        <time>2014-08-20T09:18:17Z</time>
      </trkpt>
      <trkpt lat="46.72925" lon="-0.38179">
        <ele>274.934583</ele>
        <time>2014-08-20T09:18:19Z</time>
      </trkpt>
      <trkpt lat="46.72927" lon="-0.38187">
        <ele>274.951524</ele>
        <time>2014-08-20T09:18:21Z</time>
      </trkpt>
      <trkpt lat="46.72931" lon="-0.38194">
        <ele>274.956089</ele>
        <time>2014-08-20T09:18:23Z</time>
      </trkpt>
      <trkpt lat="46.72934" lon="-0.38201">
        <ele>274.945307</ele>
        <time>2014-08-20T09:18:25Z</time>
      </trkpt>
      <trkpt lat="46.72938" lon="-0.38206">
        <ele>274.946048</ele>
        <time>2014-08-20T09:18:27Z</time>
      </trkpt>
      <trkpt lat="46.72941" lon="-0.38212">
        <ele>274.901426</ele>
        <time>2014-08-20T09:18:29Z</time>
      </trkpt>
      <trkpt lat="46.72944" lon="-0.38218">
        <ele>274.753162</ele>
        <time>2014-08-20T09:18:31Z</time>
      </trkpt>
      <trkpt lat="46.72949" lon="-0.38224">
        <ele>274.623385</ele>
        <time>2014-08-20T09:18:33Z</time>
      </trkpt>
      <trkpt lat="46.72953" lon="-0.38229">
        <ele>274.515735</ele>
        <time>2014-08-20T09:18:35Z</time>
      </trkpt>
      <trkpt lat="46.72956" lon="-0.38233">
        <ele>274.370791</ele>
        <time>2014-08-20T09:18:37Z</time>
      </trkpt>
      <trkpt lat="46.72961" lon="-0.38238">
        <ele>274.241264</ele>
        <time>2014-08-20T09:18:39Z</time>
      </trkpt>
      <trkpt lat="46.72965" lon="-0.38243">
        <ele>274.117013</ele>
        <time>2014-08-20T09:18:41Z</time>
      </trkpt>
      <trkpt lat="46.72969" lon="-0.38248">
        <ele>273.969405</ele>
        <time>2014-08-20T09:18:43Z</time>
      </trkpt>
      <trkpt lat="46.72972" lon="-0.38253">
        <ele>273.949648</ele>
        <time>2014-08-20T09:18:45Z</time>
      </trkpt>
      <trkpt lat="46.72976" lon="-0.38258">
        <ele>273.978359</ele>
        <time>2014-08-20T09:18:47Z</time>
      </trkpt>
      <trkpt lat="46.72979" lon="-0.38264">
        <ele>273.831446</ele>
        <time>2014-08-20T09:18:49Z</time>
      </trkpt>
      <trkpt lat="46.72982" lon="-0.38269">
        <ele>273.758009</ele>
        <time>2014-08-20T09:18:51Z</time>
      </trkpt>
      <trkpt lat="46.72987" lon="-0.38275">
        <ele>273.751569</ele>
        <time>2014-08-20T09:18:54Z</time>
      </trkpt>
      <trkpt lat="46.7299" lon="-0.3828">
        <ele>273.69044</ele>
        <time>2014-08-20T09:18:56Z</time>
      </trkpt>
      <trkpt lat="46.72994" lon="-0.38286">
        <ele>273.649245</ele>
        <time>2014-08-20T09:18:58Z</time>
      </trkpt>
      <trkpt lat="46.72998" lon="-0.38292">
        <ele>273.620288</ele>
        <time>2014-08-20T09:19:00Z</time>
      </trkpt>
      <trkpt lat="46.73002" lon="-0.38297">
        <ele>273.632086</ele>
        <time>2014-08-20T09:19:02Z</time>
      </trkpt>
      <trkpt lat="46.73005" lon="-0.38302">
        <ele>273.717517</ele>
        <time>2014-08-20T09:19:04Z</time>
      </trkpt>
      <trkpt lat="46.73009" lon="-0.38308">
        <ele>273.839048</ele>
        <time>2014-08-20T09:19:06Z</time>
      </trkpt>
      <trkpt lat="46.73012" lon="-0.38313">
        <ele>273.899799</ele>
        <time>2014-08-20T09:19:09Z</time>
      </trkpt>
      <trkpt lat="46.73016" lon="-0.38318">
        <ele>273.880983</ele>
        <time>2014-08-20T09:19:11Z</time>
      </trkpt>
      <trkpt lat="46.7302" lon="-0.38323">
        <ele>273.860778</ele>
        <time>2014-08-20T09:19:13Z</time>
      </trkpt>
      <trkpt lat="46.73023" lon="-0.38328">
        <ele>273.863863</ele>
        <time>2014-08-20T09:19:15Z</time>
      </trkpt>
      <trkpt lat="46.73027" lon="-0.38335">
        <ele>273.698944</ele>
        <time>2014-08-20T09:19:17Z</time>
      </trkpt>
      <trkpt lat="46.7303" lon="-0.38342">
        <ele>273.552133</ele>
        <time>2014-08-20T09:19:19Z</time>
      </trkpt>
      <trkpt lat="46.73033" lon="-0.38349">
        <ele>273.185205</ele>
        <time>2014-08-20T09:19:22Z</time>
      </trkpt>
      <trkpt lat="46.73035" lon="-0.38356">
        <ele>272.961325</ele>
        <time>2014-08-20T09:19:24Z</time>
      </trkpt>
      <trkpt lat="46.73037" lon="-0.38363">
        <ele>272.706601</ele>
        <time>2014-08-20T09:19:26Z</time>
      </trkpt>
      <trkpt lat="46.73038" lon="-0.38369">
        <ele>272.364577</ele>
        <time>2014-08-20T09:19:28Z</time>
      </trkpt>
      <trkpt lat="46.73039" lon="-0.38377">
        <ele>272.090776</ele>
        <time>2014-08-20T09:19:30Z</time>
      </trkpt>
      <trkpt lat="46.7304" lon="-0.38385">
        <ele>271.821731</ele>
        <time>2014-08-20T09:19:32Z</time>
      </trkpt>
      <trkpt lat="46.7304" lon="-0.38392">
        <ele>271.545007</ele>
        <time>2014-08-20T09:19:34Z</time>
      </trkpt>
      <trkpt lat="46.73041" lon="-0.38399">
        <ele>271.357206</ele>
        <time>2014-08-20T09:19:36Z</time>
      </trkpt>
      <trkpt lat="46.73042" lon="-0.38407">
        <ele>271.333842</ele>
        <time>2014-08-20T09:19:38Z</time>
      </trkpt>
      <trkpt lat="46.73042" lon="-0.38414">
        <ele>271.264994</ele>
        <time>2014-08-20T09:19:40Z</time>
      </trkpt>
      <trkpt lat="46.73042" lon="-0.38422">
        <ele>271.165568</ele>
        <time>2014-08-20T09:19:42Z</time>
      </trkpt>
      <trkpt lat="46.73043" lon="-0.38431">
        <ele>271.127074</ele>
        <time>2014-08-20T09:19:44Z</time>
      </trkpt>
      <trkpt lat="46.73044" lon="-0.38437">
        <ele>271.026502</ele>
        <time>2014-08-20T09:19:46Z</time>
      </trkpt>
      <trkpt lat="46.73045" lon="-0.38445">
        <ele>270.872188</ele>
        <time>2014-08-20T09:19:48Z</time>
      </trkpt>
      <trkpt lat="46.73046" lon="-0.38454">
        <ele>270.748162</ele>
        <time>2014-08-20T09:19:50Z</time>
      </trkpt>
      <trkpt lat="46.73047" lon="-0.38461">
        <ele>270.681954</ele>
        <time>2014-08-20T09:19:52Z</time>
      </trkpt>
      <trkpt lat="46.73047" lon="-0.38471">
        <ele>270.76504</ele>
        <time>2014-08-20T09:19:55Z</time>
      </trkpt>
      <trkpt lat="46.73048" lon="-0.38478">
        <ele>270.844135</ele>
        <time>2014-08-20T09:19:57Z</time>
      </trkpt>
      <trkpt lat="46.73049" lon="-0.38486">
        <ele>270.886894</ele>
        <time>2014-08-20T09:19:59Z</time>
      </trkpt>
      <trkpt lat="46.7305" lon="-0.38493">
        <ele>270.942168</ele>
        <time>2014-08-20T09:20:01Z</time>
      </trkpt>
      <trkpt lat="46.7305" lon="-0.38503">
        <ele>270.892939</ele>
        <time>2014-08-20T09:20:03Z</time>
      </trkpt>
      <trkpt lat="46.73052" lon="-0.38512">
        <ele>270.825209</ele>
        <time>2014-08-20T09:20:05Z</time>
      </trkpt>
      <trkpt lat="46.73054" lon="-0.3852">
        <ele>270.91089</ele>
        <time>2014-08-20T09:20:08Z</time>
      </trkpt>
      <trkpt lat="46.73056" lon="-0.38528">
        <ele>271.035162</ele>
        <time>2014-08-20T09:20:10Z</time>
      </trkpt>
      <trkpt lat="46.73058" lon="-0.38535">
        <ele>271.078985</ele>
        <time>2014-08-20T09:20:12Z</time>
      </trkpt>
      <trkpt lat="46.73059" lon="-0.38543">
        <ele>271.066586</ele>
        <time>2014-08-20T09:20:14Z</time>
      </trkpt>
      <trkpt lat="46.73061" lon="-0.3855">
        <ele>270.947986</ele>
        <time>2014-08-20T09:20:16Z</time>
      </trkpt>
      <trkpt lat="46.73063" lon="-0.38559">
        <ele>270.828601</ele>
        <time>2014-08-20T09:20:18Z</time>
      </trkpt>
      <trkpt lat="46.73065" lon="-0.38567">
        <ele>270.81059</ele>
        <time>2014-08-20T09:20:20Z</time>
      </trkpt>
      <trkpt lat="46.73067" lon="-0.38574">
        <ele>270.767727</ele>
        <time>2014-08-20T09:20:22Z</time>
      </trkpt>
      <trkpt lat="46.73069" lon="-0.38582">
        <ele>270.674375</ele>
        <time>2014-08-20T09:20:24Z</time>
      </trkpt>
      <trkpt lat="46.73071" lon="-0.38589">
        <ele>270.640911</ele>
        <time>2014-08-20T09:20:26Z</time>
      </trkpt>
      <trkpt lat="46.73073" lon="-0.38595">
        <ele>270.545416</ele>
        <time>2014-08-20T09:20:28Z</time>
      </trkpt>
      <trkpt lat="46.73075" lon="-0.38601">
        <ele>270.497313</ele>
        <time>2014-08-20T09:20:30Z</time>
      </trkpt>
      <trkpt lat="46.73076" lon="-0.38609">
        <ele>270.508861</ele>
        <time>2014-08-20T09:20:32Z</time>
      </trkpt>
      <trkpt lat="46.73078" lon="-0.38618">
        <ele>270.623624</ele>
        <time>2014-08-20T09:20:34Z</time>
      </trkpt>
      <trkpt lat="46.73079" lon="-0.38627">
        <ele>270.675054</ele>
        <time>2014-08-20T09:20:36Z</time>
      </trkpt>
      <trkpt lat="46.7308" lon="-0.38635">
        <ele>270.666752</ele>
        <time>2014-08-20T09:20:38Z</time>
      </trkpt>
      <trkpt lat="46.73082" lon="-0.38643">
        <ele>270.595489</ele>
        <time>2014-08-20T09:20:40Z</time>
      </trkpt>
      <trkpt lat="46.73083" lon="-0.3865">
        <ele>270.474773</ele>
        <time>2014-08-20T09:20:42Z</time>
      </trkpt>
      <trkpt lat="46.73086" lon="-0.3866">
        <ele>270.297795</ele>
        <time>2014-08-20T09:20:45Z</time>
      </trkpt>
      <trkpt lat="46.73088" lon="-0.3867">
        <ele>270.265807</ele>
        <time>2014-08-20T09:20:47Z</time>
      </trkpt>
      <trkpt lat="46.73089" lon="-0.38679">
        <ele>270.191631</ele>
        <time>2014-08-20T09:20:49Z</time>
      </trkpt>
      <trkpt lat="46.73091" lon="-0.38687">
        <ele>270.268903</ele>
        <time>2014-08-20T09:20:52Z</time>
      </trkpt>
      <trkpt lat="46.73093" lon="-0.38695">
        <ele>270.286887</ele>
        <time>2014-08-20T09:20:54Z</time>
      </trkpt>
      <trkpt lat="46.73095" lon="-0.38704">
        <ele>270.338273</ele>
        <time>2014-08-20T09:20:56Z</time>
      </trkpt>
      <trkpt lat="46.73097" lon="-0.38712">
        <ele>270.425524</ele>
        <time>2014-08-20T09:20:58Z</time>
      </trkpt>
      <trkpt lat="46.73099" lon="-0.38719">
        <ele>270.463828</ele>
        <time>2014-08-20T09:21:00Z</time>
      </trkpt>
      <trkpt lat="46.73102" lon="-0.38728">
        <ele>270.606488</ele>
        <time>2014-08-20T09:21:02Z</time>
      </trkpt>
      <trkpt lat="46.73105" lon="-0.38735">
        <ele>270.74828</ele>
        <time>2014-08-20T09:21:04Z</time>
      </trkpt>
      <trkpt lat="46.73108" lon="-0.38741">
        <ele>270.765925</ele>
        <time>2014-08-20T09:21:06Z</time>
      </trkpt>
      <trkpt lat="46.73111" lon="-0.3875">
        <ele>270.780279</ele>
        <time>2014-08-20T09:21:08Z</time>
      </trkpt>
      <trkpt lat="46.73113" lon="-0.38756">
        <ele>270.7254</ele>
        <time>2014-08-20T09:21:10Z</time>
      </trkpt>
      <trkpt lat="46.73115" lon="-0.38763">
        <ele>270.687952</ele>
        <time>2014-08-20T09:21:12Z</time>
      </trkpt>
      <trkpt lat="46.73117" lon="-0.3877">
        <ele>270.674516</ele>
        <time>2014-08-20T09:21:14Z</time>
      </trkpt>
      <trkpt lat="46.7312" lon="-0.38778">
        <ele>270.659796</ele>
        <time>2014-08-20T09:21:16Z</time>
      </trkpt>
      <trkpt lat="46.73123" lon="-0.38786">
        <ele>270.635439</ele>
        <time>2014-08-20T09:21:18Z</time>
      </trkpt>
      <trkpt lat="46.73126" lon="-0.38794">
        <ele>270.660264</ele>
        <time>2014-08-20T09:21:20Z</time>
      </trkpt>
      <trkpt lat="46.73128" lon="-0.388">
        <ele>270.610209</ele>
        <time>2014-08-20T09:21:22Z</time>
      </trkpt>
      <trkpt lat="46.7313" lon="-0.38809">
        <ele>270.347304</ele>
        <time>2014-08-20T09:21:25Z</time>
      </trkpt>
      <trkpt lat="46.73133" lon="-0.38817">
        <ele>270.122732</ele>
        <time>2014-08-20T09:21:27Z</time>
      </trkpt>
      <trkpt lat="46.73134" lon="-0.38825">
        <ele>270.048011</ele>
        <time>2014-08-20T09:21:29Z</time>
      </trkpt>
      <trkpt lat="46.73136" lon="-0.38832">
        <ele>269.929764</ele>
        <time>2014-08-20T09:21:31Z</time>
      </trkpt>
      <trkpt lat="46.73138" lon="-0.38839">
        <ele>269.785149</ele>
        <time>2014-08-20T09:21:33Z</time>
      </trkpt>
      <trkpt lat="46.7314" lon="-0.38848">
        <ele>269.379398</ele>
        <time>2014-08-20T09:21:36Z</time>
      </trkpt>
      <trkpt lat="46.73142" lon="-0.38855">
        <ele>269.195</ele>
        <time>2014-08-20T09:21:38Z</time>
      </trkpt>
      <trkpt lat="46.73145" lon="-0.38862">
        <ele>269.020092</ele>
        <time>2014-08-20T09:21:40Z</time>
      </trkpt>
      <trkpt lat="46.73147" lon="-0.38869">
        <ele>268.872171</ele>
        <time>2014-08-20T09:21:42Z</time>
      </trkpt>
      <trkpt lat="46.73149" lon="-0.38877">
        <ele>268.744612</ele>
        <time>2014-08-20T09:21:44Z</time>
      </trkpt>
      <trkpt lat="46.73151" lon="-0.38885">
        <ele>268.613669</ele>
        <time>2014-08-20T09:21:46Z</time>
      </trkpt>
      <trkpt lat="46.73152" lon="-0.38894">
        <ele>268.509393</ele>
        <time>2014-08-20T09:21:48Z</time>
      </trkpt>
      <trkpt lat="46.73154" lon="-0.38901">
        <ele>268.507869</ele>
        <time>2014-08-20T09:21:50Z</time>
      </trkpt>
      <trkpt lat="46.73156" lon="-0.38909">
        <ele>268.412254</ele>
        <time>2014-08-20T09:21:52Z</time>
      </trkpt>
      <trkpt lat="46.73158" lon="-0.38917">
        <ele>268.365954</ele>
        <time>2014-08-20T09:21:55Z</time>
      </trkpt>
      <trkpt lat="46.7316" lon="-0.38923">
        <ele>268.37385</ele>
        <time>2014-08-20T09:21:57Z</time>
      </trkpt>
      <trkpt lat="46.73162" lon="-0.38931">
        <ele>268.338282</ele>
        <time>2014-08-20T09:21:59Z</time>
      </trkpt>
      <trkpt lat="46.73164" lon="-0.38939">
        <ele>268.274662</ele>
        <time>2014-08-20T09:22:01Z</time>
      </trkpt>
      <trkpt lat="46.73166" lon="-0.38948">
        <ele>268.246643</ele>
        <time>2014-08-20T09:22:03Z</time>
      </trkpt>
      <trkpt lat="46.73169" lon="-0.38955">
        <ele>268.259238</ele>
        <time>2014-08-20T09:22:05Z</time>
      </trkpt>
      <trkpt lat="46.73171" lon="-0.38961">
        <ele>268.236111</ele>
        <time>2014-08-20T09:22:07Z</time>
      </trkpt>
      <trkpt lat="46.73172" lon="-0.38969">
        <ele>268.213464</ele>
        <time>2014-08-20T09:22:09Z</time>
      </trkpt>
      <trkpt lat="46.73175" lon="-0.38979">
        <ele>267.863401</ele>
        <time>2014-08-20T09:22:12Z</time>
      </trkpt>
      <trkpt lat="46.73177" lon="-0.38986">
        <ele>267.745061</ele>
        <time>2014-08-20T09:22:14Z</time>
      </trkpt>
      <trkpt lat="46.7318" lon="-0.38995">
        <ele>267.699636</ele>
        <time>2014-08-20T09:22:16Z</time>
      </trkpt>
      <trkpt lat="46.73181" lon="-0.39002">
        <ele>267.669812</ele>
        <time>2014-08-20T09:22:18Z</time>
      </trkpt>
      <trkpt lat="46.73183" lon="-0.39011">
        <ele>267.589473</ele>
        <time>2014-08-20T09:22:21Z</time>
      </trkpt>
      <trkpt lat="46.73186" lon="-0.39019">
        <ele>267.467163</ele>
        <time>2014-08-20T09:22:24Z</time>
      </trkpt>
      <trkpt lat="46.73188" lon="-0.39028">
        <ele>267.430325</ele>
        <time>2014-08-20T09:22:26Z</time>
      </trkpt>
      <trkpt lat="46.73189" lon="-0.39035">
        <ele>267.284858</ele>
        <time>2014-08-20T09:22:28Z</time>
      </trkpt>
      <trkpt lat="46.7319" lon="-0.39041">
        <ele>267.12338</ele>
        <time>2014-08-20T09:22:30Z</time>
      </trkpt>
      <trkpt lat="46.73192" lon="-0.39048">
        <ele>267.000799</ele>
        <time>2014-08-20T09:22:32Z</time>
      </trkpt>
      <trkpt lat="46.73193" lon="-0.39055">
        <ele>266.877566</ele>
        <time>2014-08-20T09:22:34Z</time>
      </trkpt>
      <trkpt lat="46.73195" lon="-0.39063">
        <ele>266.875414</ele>
        <time>2014-08-20T09:22:37Z</time>
      </trkpt>
      <trkpt lat="46.73197" lon="-0.39071">
        <ele>266.879941</ele>
        <time>2014-08-20T09:22:39Z</time>
      </trkpt>
      <trkpt lat="46.732" lon="-0.39078">
        <ele>266.843351</ele>
        <time>2014-08-20T09:22:41Z</time>
      </trkpt>
      <trkpt lat="46.73203" lon="-0.39086">
        <ele>266.717473</ele>
        <time>2014-08-20T09:22:43Z</time>
      </trkpt>
      <trkpt lat="46.73205" lon="-0.39093">
        <ele>266.520895</ele>
        <time>2014-08-20T09:22:45Z</time>
      </trkpt>
      <trkpt lat="46.73207" lon="-0.391">
        <ele>266.234034</ele>
        <time>2014-08-20T09:22:47Z</time>
      </trkpt>
      <trkpt lat="46.73209" lon="-0.39107">
        <ele>266.056346</ele>
        <time>2014-08-20T09:22:49Z</time>
      </trkpt>
      <trkpt lat="46.73212" lon="-0.39114">
        <ele>265.924002</ele>
        <time>2014-08-20T09:22:51Z</time>
      </trkpt>
      <trkpt lat="46.73214" lon="-0.39121">
        <ele>265.810302</ele>
        <time>2014-08-20T09:22:53Z</time>
      </trkpt>
      <trkpt lat="46.73216" lon="-0.39127">
        <ele>265.710427</ele>
        <time>2014-08-20T09:22:55Z</time>
      </trkpt>
      <trkpt lat="46.73217" lon="-0.39134">
        <ele>265.616041</ele>
        <time>2014-08-20T09:22:57Z</time>
      </trkpt>
      <trkpt lat="46.73218" lon="-0.39141">
        <ele>265.546895</ele>
        <time>2014-08-20T09:22:59Z</time>
      </trkpt>
      <trkpt lat="46.73221" lon="-0.39148">
        <ele>265.605877</ele>
        <time>2014-08-20T09:23:01Z</time>
      </trkpt>
      <trkpt lat="46.73222" lon="-0.39155">
        <ele>265.643466</ele>
        <time>2014-08-20T09:23:03Z</time>
      </trkpt>
      <trkpt lat="46.73224" lon="-0.39163">
        <ele>265.718156</ele>
        <time>2014-08-20T09:23:05Z</time>
      </trkpt>
      <trkpt lat="46.73226" lon="-0.3917">
        <ele>265.731399</ele>
        <time>2014-08-20T09:23:07Z</time>
      </trkpt>
      <trkpt lat="46.73229" lon="-0.39176">
        <ele>265.721478</ele>
        <time>2014-08-20T09:23:09Z</time>
      </trkpt>
      <trkpt lat="46.73231" lon="-0.39182">
        <ele>265.651354</ele>
        <time>2014-08-20T09:23:11Z</time>
      </trkpt>
      <trkpt lat="46.73233" lon="-0.3919">
        <ele>265.48917</ele>
        <time>2014-08-20T09:23:14Z</time>
      </trkpt>
      <trkpt lat="46.73236" lon="-0.39198">
        <ele>265.464421</ele>
        <time>2014-08-20T09:23:17Z</time>
      </trkpt>
      <trkpt lat="46.73238" lon="-0.39204">
        <ele>265.411471</ele>
        <time>2014-08-20T09:23:19Z</time>
      </trkpt>
      <trkpt lat="46.73241" lon="-0.39211">
        <ele>265.342965</ele>
        <time>2014-08-20T09:23:21Z</time>
      </trkpt>
      <trkpt lat="46.73243" lon="-0.39217">
        <ele>265.288293</ele>
        <time>2014-08-20T09:23:23Z</time>
      </trkpt>
      <trkpt lat="46.73245" lon="-0.39223">
        <ele>265.187638</ele>
        <time>2014-08-20T09:23:25Z</time>
      </trkpt>
      <trkpt lat="46.73247" lon="-0.39229">
        <ele>265.096242</ele>
        <time>2014-08-20T09:23:27Z</time>
      </trkpt>
      <trkpt lat="46.7325" lon="-0.39238">
        <ele>265.020669</ele>
        <time>2014-08-20T09:23:30Z</time>
      </trkpt>
      <trkpt lat="46.73251" lon="-0.39245">
        <ele>265.007849</ele>
        <time>2014-08-20T09:23:32Z</time>
      </trkpt>
      <trkpt lat="46.73253" lon="-0.39252">
        <ele>265.033097</ele>
        <time>2014-08-20T09:23:34Z</time>
      </trkpt>
      <trkpt lat="46.73255" lon="-0.39261">
        <ele>265.067801</ele>
        <time>2014-08-20T09:23:37Z</time>
      </trkpt>
      <trkpt lat="46.73257" lon="-0.39269">
        <ele>265.154753</ele>
        <time>2014-08-20T09:23:39Z</time>
      </trkpt>
      <trkpt lat="46.73258" lon="-0.39276">
        <ele>265.240857</ele>
        <time>2014-08-20T09:23:41Z</time>
      </trkpt>
      <trkpt lat="46.7326" lon="-0.39283">
        <ele>265.217831</ele>
        <time>2014-08-20T09:23:43Z</time>
      </trkpt>
      <trkpt lat="46.73262" lon="-0.39292">
        <ele>264.978045</ele>
        <time>2014-08-20T09:23:46Z</time>
      </trkpt>
      <trkpt lat="46.73263" lon="-0.39301">
        <ele>264.874516</ele>
        <time>2014-08-20T09:23:48Z</time>
      </trkpt>
      <trkpt lat="46.73266" lon="-0.39308">
        <ele>264.918724</ele>
        <time>2014-08-20T09:23:50Z</time>
      </trkpt>
      <trkpt lat="46.73268" lon="-0.39315">
        <ele>264.958157</ele>
        <time>2014-08-20T09:23:52Z</time>
      </trkpt>
      <trkpt lat="46.7327" lon="-0.39324">
        <ele>264.852122</ele>
        <time>2014-08-20T09:23:54Z</time>
      </trkpt>
      <trkpt lat="46.73273" lon="-0.39332">
        <ele>264.704203</ele>
        <time>2014-08-20T09:23:56Z</time>
      </trkpt>
      <trkpt lat="46.73276" lon="-0.39339">
        <ele>264.464114</ele>
        <time>2014-08-20T09:23:58Z</time>
      </trkpt>
      <trkpt lat="46.73279" lon="-0.39346">
        <ele>264.210036</ele>
        <time>2014-08-20T09:24:00Z</time>
      </trkpt>
      <trkpt lat="46.73282" lon="-0.39354">
        <ele>263.978964</ele>
        <time>2014-08-20T09:24:02Z</time>
      </trkpt>
      <trkpt lat="46.73286" lon="-0.3936">
        <ele>263.754419</ele>
        <time>2014-08-20T09:24:04Z</time>
      </trkpt>
      <trkpt lat="46.7329" lon="-0.39365">
        <ele>263.660746</ele>
        <time>2014-08-20T09:24:06Z</time>
      </trkpt>
      <trkpt lat="46.73293" lon="-0.39371">
        <ele>263.665155</ele>
        <time>2014-08-20T09:24:08Z</time>
      </trkpt>
      <trkpt lat="46.73298" lon="-0.39377">
        <ele>263.666514</ele>
        <time>2014-08-20T09:24:11Z</time>
      </trkpt>
      <trkpt lat="46.73302" lon="-0.39382">
        <ele>263.55711</ele>
        <time>2014-08-20T09:24:13Z</time>
      </trkpt>
      <trkpt lat="46.73306" lon="-0.39387">
        <ele>263.433548</ele>
        <time>2014-08-20T09:24:15Z</time>
      </trkpt>
      <trkpt lat="46.7331" lon="-0.39392">
        <ele>263.323251</ele>
        <time>2014-08-20T09:24:17Z</time>
      </trkpt>
      <trkpt lat="46.73314" lon="-0.39396">
        <ele>263.224887</ele>
        <time>2014-08-20T09:24:19Z</time>
      </trkpt>
      <trkpt lat="46.73318" lon="-0.39401">
        <ele>263.032132</ele>
        <time>2014-08-20T09:24:21Z</time>
      </trkpt>
      <trkpt lat="46.73322" lon="-0.39406">
        <ele>262.800145</ele>
        <time>2014-08-20T09:24:23Z</time>
      </trkpt>
      <trkpt lat="46.73326" lon="-0.39412">
        <ele>262.689704</ele>
        <time>2014-08-20T09:24:25Z</time>
      </trkpt>
      <trkpt lat="46.7333" lon="-0.39418">
        <ele>262.605742</ele>
        <time>2014-08-20T09:24:27Z</time>
      </trkpt>
      <trkpt lat="46.73333" lon="-0.39425">
        <ele>262.398861</ele>
        <time>2014-08-20T09:24:29Z</time>
      </trkpt>
      <trkpt lat="46.73336" lon="-0.39431">
        <ele>262.15326</ele>
        <time>2014-08-20T09:24:31Z</time>
      </trkpt>
      <trkpt lat="46.73339" lon="-0.39438">
        <ele>261.99861</ele>
        <time>2014-08-20T09:24:33Z</time>
      </trkpt>
      <trkpt lat="46.73343" lon="-0.39446">
        <ele>261.610668</ele>
        <time>2014-08-20T09:24:36Z</time>
      </trkpt>
      <trkpt lat="46.73346" lon="-0.39454">
        <ele>261.404887</ele>
        <time>2014-08-20T09:24:38Z</time>
      </trkpt>
      <trkpt lat="46.7335" lon="-0.3946">
        <ele>261.229575</ele>
        <time>2014-08-20T09:24:40Z</time>
      </trkpt>
      <trkpt lat="46.73353" lon="-0.39467">
        <ele>261.037076</ele>
        <time>2014-08-20T09:24:42Z</time>
      </trkpt>
      <trkpt lat="46.73356" lon="-0.39474">
        <ele>260.731085</ele>
        <time>2014-08-20T09:24:44Z</time>
      </trkpt>
      <trkpt lat="46.7336" lon="-0.3948">
        <ele>260.389182</ele>
        <time>2014-08-20T09:24:46Z</time>
      </trkpt>
      <trkpt lat="46.73362" lon="-0.39486">
        <ele>260.125597</ele>
        <time>2014-08-20T09:24:48Z</time>
      </trkpt>
      <trkpt lat="46.73365" lon="-0.39491">
        <ele>259.935722</ele>
        <time>2014-08-20T09:24:50Z</time>
      </trkpt>
      <trkpt lat="46.73368" lon="-0.39496">
        <ele>259.837888</ele>
        <time>2014-08-20T09:24:52Z</time>
      </trkpt>
      <trkpt lat="46.73373" lon="-0.39504">
        <ele>259.540317</ele>
        <time>2014-08-20T09:24:55Z</time>
      </trkpt>
      <trkpt lat="46.73377" lon="-0.39511">
        <ele>259.369775</ele>
        <time>2014-08-20T09:24:57Z</time>
      </trkpt>
      <trkpt lat="46.7338" lon="-0.39517">
        <ele>259.225138</ele>
        <time>2014-08-20T09:24:59Z</time>
      </trkpt>
      <trkpt lat="46.73384" lon="-0.39522">
        <ele>259.115296</ele>
        <time>2014-08-20T09:25:01Z</time>
      </trkpt>
      <trkpt lat="46.73387" lon="-0.39527">
        <ele>259.00086</ele>
        <time>2014-08-20T09:25:03Z</time>
      </trkpt>
      <trkpt lat="46.7339" lon="-0.39532">
        <ele>258.865238</ele>
        <time>2014-08-20T09:25:05Z</time>
      </trkpt>
      <trkpt lat="46.73394" lon="-0.39538">
        <ele>258.759705</ele>
        <time>2014-08-20T09:25:07Z</time>
      </trkpt>
      <trkpt lat="46.73397" lon="-0.39545">
        <ele>258.634963</ele>
        <time>2014-08-20T09:25:09Z</time>
      </trkpt>
      <trkpt lat="46.734" lon="-0.39551">
        <ele>258.6162</ele>
        <time>2014-08-20T09:25:11Z</time>
      </trkpt>
      <trkpt lat="46.73403" lon="-0.39556">
        <ele>258.647649</ele>
        <time>2014-08-20T09:25:13Z</time>
      </trkpt>
      <trkpt lat="46.73406" lon="-0.39562">
        <ele>258.708689</ele>
        <time>2014-08-20T09:25:15Z</time>
      </trkpt>
      <trkpt lat="46.73409" lon="-0.39568">
        <ele>258.647873</ele>
        <time>2014-08-20T09:25:17Z</time>
      </trkpt>
      <trkpt lat="46.73412" lon="-0.39574">
        <ele>258.664023</ele>
        <time>2014-08-20T09:25:19Z</time>
      </trkpt>
      <trkpt lat="46.73416" lon="-0.3958">
        <ele>258.727949</ele>
        <time>2014-08-20T09:25:21Z</time>
      </trkpt>
      <trkpt lat="46.73418" lon="-0.39586">
        <ele>258.634915</ele>
        <time>2014-08-20T09:25:23Z</time>
      </trkpt>
      <trkpt lat="46.73422" lon="-0.39592">
        <ele>258.476539</ele>
        <time>2014-08-20T09:25:25Z</time>
      </trkpt>
      <trkpt lat="46.73425" lon="-0.39598">
        <ele>258.308029</ele>
        <time>2014-08-20T09:25:27Z</time>
      </trkpt>
      <trkpt lat="46.73428" lon="-0.39603">
        <ele>258.105757</ele>
        <time>2014-08-20T09:25:29Z</time>
      </trkpt>
      <trkpt lat="46.73432" lon="-0.39609">
        <ele>257.858454</ele>
        <time>2014-08-20T09:25:31Z</time>
      </trkpt>
      <trkpt lat="46.73435" lon="-0.39615">
        <ele>257.598205</ele>
        <time>2014-08-20T09:25:33Z</time>
      </trkpt>
      <trkpt lat="46.73438" lon="-0.3962">
        <ele>257.278557</ele>
        <time>2014-08-20T09:25:35Z</time>
      </trkpt>
      <trkpt lat="46.73441" lon="-0.39626">
        <ele>257.022109</ele>
        <time>2014-08-20T09:25:37Z</time>
      </trkpt>
      <trkpt lat="46.73444" lon="-0.39633">
        <ele>256.840521</ele>
        <time>2014-08-20T09:25:39Z</time>
      </trkpt>
      <trkpt lat="46.73448" lon="-0.3964">
        <ele>256.659064</ele>
        <time>2014-08-20T09:25:41Z</time>
      </trkpt>
      <trkpt lat="46.73452" lon="-0.39646">
        <ele>256.473104</ele>
        <time>2014-08-20T09:25:43Z</time>
      </trkpt>
      <trkpt lat="46.73456" lon="-0.39651">
        <ele>256.285171</ele>
        <time>2014-08-20T09:25:45Z</time>
      </trkpt>
      <trkpt lat="46.73459" lon="-0.39657">
        <ele>256.134346</ele>
        <time>2014-08-20T09:25:47Z</time>
      </trkpt>
      <trkpt lat="46.73463" lon="-0.39663">
        <ele>255.969323</ele>
        <time>2014-08-20T09:25:49Z</time>
      </trkpt>
      <trkpt lat="46.73466" lon="-0.39669">
        <ele>255.883344</ele>
        <time>2014-08-20T09:25:51Z</time>
      </trkpt>
      <trkpt lat="46.73469" lon="-0.39674">
        <ele>255.747083</ele>
        <time>2014-08-20T09:25:53Z</time>
      </trkpt>
      <trkpt lat="46.73472" lon="-0.3968">
        <ele>255.585105</ele>
        <time>2014-08-20T09:25:55Z</time>
      </trkpt>
      <trkpt lat="46.73476" lon="-0.39687">
        <ele>255.461481</ele>
        <time>2014-08-20T09:25:57Z</time>
      </trkpt>
      <trkpt lat="46.7348" lon="-0.39693">
        <ele>255.446608</ele>
        <time>2014-08-20T09:25:59Z</time>
      </trkpt>
      <trkpt lat="46.73484" lon="-0.397">
        <ele>255.373221</ele>
        <time>2014-08-20T09:26:01Z</time>
      </trkpt>
      <trkpt lat="46.73488" lon="-0.39706">
        <ele>255.279915</ele>
        <time>2014-08-20T09:26:03Z</time>
      </trkpt>
      <trkpt lat="46.73491" lon="-0.39712">
        <ele>255.25467</ele>
        <time>2014-08-20T09:26:05Z</time>
      </trkpt>
      <trkpt lat="46.73495" lon="-0.39717">
        <ele>255.187269</ele>
        <time>2014-08-20T09:26:07Z</time>
      </trkpt>
      <trkpt lat="46.73501" lon="-0.39724">
        <ele>255.09337</ele>
        <time>2014-08-20T09:26:09Z</time>
      </trkpt>
      <trkpt lat="46.73506" lon="-0.39729">
        <ele>254.981707</ele>
        <time>2014-08-20T09:26:11Z</time>
      </trkpt>
      <trkpt lat="46.7351" lon="-0.39732">
        <ele>254.779227</ele>
        <time>2014-08-20T09:26:13Z</time>
      </trkpt>
      <trkpt lat="46.73515" lon="-0.39735">
        <ele>254.509141</ele>
        <time>2014-08-20T09:26:15Z</time>
      </trkpt>
      <trkpt lat="46.73521" lon="-0.39736">
        <ele>254.311237</ele>
        <time>2014-08-20T09:26:17Z</time>
      </trkpt>
      <trkpt lat="46.73526" lon="-0.39736">
        <ele>254.120229</ele>
        <time>2014-08-20T09:26:19Z</time>
      </trkpt>
      <trkpt lat="46.73531" lon="-0.39736">
        <ele>253.962949</ele>
        <time>2014-08-20T09:26:21Z</time>
      </trkpt>
      <trkpt lat="46.73537" lon="-0.39736">
        <ele>253.788614</ele>
        <time>2014-08-20T09:26:23Z</time>
      </trkpt>
      <trkpt lat="46.73543" lon="-0.39735">
        <ele>253.588507</ele>
        <time>2014-08-20T09:26:25Z</time>
      </trkpt>
      <trkpt lat="46.73549" lon="-0.39733">
        <ele>253.477756</ele>
        <time>2014-08-20T09:26:27Z</time>
      </trkpt>
      <trkpt lat="46.73553" lon="-0.39732">
        <ele>253.337314</ele>
        <time>2014-08-20T09:26:29Z</time>
      </trkpt>
      <trkpt lat="46.73558" lon="-0.39732">
        <ele>253.277078</ele>
        <time>2014-08-20T09:26:31Z</time>
      </trkpt>
      <trkpt lat="46.73564" lon="-0.39729">
        <ele>253.070043</ele>
        <time>2014-08-20T09:26:34Z</time>
      </trkpt>
      <trkpt lat="46.73569" lon="-0.39727">
        <ele>252.909403</ele>
        <time>2014-08-20T09:26:36Z</time>
      </trkpt>
      <trkpt lat="46.73574" lon="-0.39724">
        <ele>252.64866</ele>
        <time>2014-08-20T09:26:38Z</time>
      </trkpt>
      <trkpt lat="46.73579" lon="-0.39723">
        <ele>252.365652</ele>
        <time>2014-08-20T09:26:40Z</time>
      </trkpt>
      <trkpt lat="46.73585" lon="-0.3972">
        <ele>252.166741</ele>
        <time>2014-08-20T09:26:42Z</time>
      </trkpt>
      <trkpt lat="46.73589" lon="-0.39718">
        <ele>251.905771</ele>
        <time>2014-08-20T09:26:44Z</time>
      </trkpt>
      <trkpt lat="46.73594" lon="-0.39715">
        <ele>251.642968</ele>
        <time>2014-08-20T09:26:46Z</time>
      </trkpt>
      <trkpt lat="46.73601" lon="-0.39713">
        <ele>251.465025</ele>
        <time>2014-08-20T09:26:48Z</time>
      </trkpt>
      <trkpt lat="46.73607" lon="-0.39711">
        <ele>251.365384</ele>
        <time>2014-08-20T09:26:50Z</time>
      </trkpt>
      <trkpt lat="46.73611" lon="-0.39708">
        <ele>251.295618</ele>
        <time>2014-08-20T09:26:52Z</time>
      </trkpt>
      <trkpt lat="46.73616" lon="-0.39706">
        <ele>251.193676</ele>
        <time>2014-08-20T09:26:54Z</time>
      </trkpt>
      <trkpt lat="46.73621" lon="-0.39703">
        <ele>250.972038</ele>
        <time>2014-08-20T09:26:56Z</time>
      </trkpt>
      <trkpt lat="46.73626" lon="-0.39701">
        <ele>250.795731</ele>
        <time>2014-08-20T09:26:58Z</time>
      </trkpt>
      <trkpt lat="46.73631" lon="-0.39698">
        <ele>250.593499</ele>
        <time>2014-08-20T09:27:00Z</time>
      </trkpt>
      <trkpt lat="46.73635" lon="-0.39696">
        <ele>250.518913</ele>
        <time>2014-08-20T09:27:02Z</time>
      </trkpt>
      <trkpt lat="46.7364" lon="-0.39693">
        <ele>250.414612</ele>
        <time>2014-08-20T09:27:04Z</time>
      </trkpt>
      <trkpt lat="46.73645" lon="-0.3969">
        <ele>250.344407</ele>
        <time>2014-08-20T09:27:06Z</time>
      </trkpt>
      <trkpt lat="46.73651" lon="-0.39688">
        <ele>250.352847</ele>
        <time>2014-08-20T09:27:08Z</time>
      </trkpt>
      <trkpt lat="46.73656" lon="-0.39684">
        <ele>250.274108</ele>
        <time>2014-08-20T09:27:10Z</time>
      </trkpt>
      <trkpt lat="46.73662" lon="-0.39681">
        <ele>250.168562</ele>
        <time>2014-08-20T09:27:12Z</time>
      </trkpt>
      <trkpt lat="46.73667" lon="-0.3968">
        <ele>250.020354</ele>
        <time>2014-08-20T09:27:14Z</time>
      </trkpt>
      <trkpt lat="46.73673" lon="-0.39674">
        <ele>249.812228</ele>
        <time>2014-08-20T09:27:17Z</time>
      </trkpt>
      <trkpt lat="46.73678" lon="-0.39673">
        <ele>249.62852</ele>
        <time>2014-08-20T09:27:19Z</time>
      </trkpt>
      <trkpt lat="46.73683" lon="-0.3967">
        <ele>249.36655</ele>
        <time>2014-08-20T09:27:22Z</time>
      </trkpt>
      <trkpt lat="46.73688" lon="-0.39668">
        <ele>249.10465</ele>
        <time>2014-08-20T09:27:24Z</time>
      </trkpt>
      <trkpt lat="46.73692" lon="-0.39666">
        <ele>248.931329</ele>
        <time>2014-08-20T09:27:26Z</time>
      </trkpt>
      <trkpt lat="46.73697" lon="-0.39662">
        <ele>248.709716</ele>
        <time>2014-08-20T09:27:28Z</time>
      </trkpt>
      <trkpt lat="46.73703" lon="-0.3966">
        <ele>248.548159</ele>
        <time>2014-08-20T09:27:30Z</time>
      </trkpt>
      <trkpt lat="46.7371" lon="-0.39657">
        <ele>248.391609</ele>
        <time>2014-08-20T09:27:32Z</time>
      </trkpt>
      <trkpt lat="46.73715" lon="-0.39656">
        <ele>248.244991</ele>
        <time>2014-08-20T09:27:34Z</time>
      </trkpt>
      <trkpt lat="46.73721" lon="-0.39656">
        <ele>248.060141</ele>
        <time>2014-08-20T09:27:36Z</time>
      </trkpt>
      <trkpt lat="46.73726" lon="-0.39655">
        <ele>247.890013</ele>
        <time>2014-08-20T09:27:38Z</time>
      </trkpt>
      <trkpt lat="46.73732" lon="-0.39654">
        <ele>247.775757</ele>
        <time>2014-08-20T09:27:40Z</time>
      </trkpt>
      <trkpt lat="46.73738" lon="-0.39654">
        <ele>247.750258</ele>
        <time>2014-08-20T09:27:42Z</time>
      </trkpt>
      <trkpt lat="46.73743" lon="-0.39653">
        <ele>247.626857</ele>
        <time>2014-08-20T09:27:44Z</time>
      </trkpt>
      <trkpt lat="46.73749" lon="-0.39652">
        <ele>247.532919</ele>
        <time>2014-08-20T09:27:46Z</time>
      </trkpt>
      <trkpt lat="46.73755" lon="-0.39652">
        <ele>247.433191</ele>
        <time>2014-08-20T09:27:48Z</time>
      </trkpt>
      <trkpt lat="46.7376" lon="-0.39653">
        <ele>247.414778</ele>
        <time>2014-08-20T09:27:50Z</time>
      </trkpt>
      <trkpt lat="46.73766" lon="-0.39653">
        <ele>247.52193</ele>
        <time>2014-08-20T09:27:53Z</time>
      </trkpt>
      <trkpt lat="46.73771" lon="-0.39653">
        <ele>247.563079</ele>
        <time>2014-08-20T09:27:55Z</time>
      </trkpt>
      <trkpt lat="46.73777" lon="-0.39654">
        <ele>247.640541</ele>
        <time>2014-08-20T09:27:57Z</time>
      </trkpt>
      <trkpt lat="46.73781" lon="-0.39655">
        <ele>247.614478</ele>
        <time>2014-08-20T09:27:59Z</time>
      </trkpt>
      <trkpt lat="46.73787" lon="-0.39656">
        <ele>247.483066</ele>
        <time>2014-08-20T09:28:01Z</time>
      </trkpt>
      <trkpt lat="46.73792" lon="-0.39658">
        <ele>247.230235</ele>
        <time>2014-08-20T09:28:03Z</time>
      </trkpt>
      <trkpt lat="46.73796" lon="-0.39659">
        <ele>247.054351</ele>
        <time>2014-08-20T09:28:05Z</time>
      </trkpt>
      <trkpt lat="46.73801" lon="-0.39661">
        <ele>246.842994</ele>
        <time>2014-08-20T09:28:07Z</time>
      </trkpt>
      <trkpt lat="46.73806" lon="-0.39662">
        <ele>246.758133</ele>
        <time>2014-08-20T09:28:09Z</time>
      </trkpt>
      <trkpt lat="46.73812" lon="-0.39663">
        <ele>246.477597</ele>
        <time>2014-08-20T09:28:11Z</time>
      </trkpt>
      <trkpt lat="46.73818" lon="-0.39666">
        <ele>246.109106</ele>
        <time>2014-08-20T09:28:13Z</time>
      </trkpt>
      <trkpt lat="46.73823" lon="-0.39667">
        <ele>245.813482</ele>
        <time>2014-08-20T09:28:15Z</time>
      </trkpt>
      <trkpt lat="46.73829" lon="-0.39668">
        <ele>245.513641</ele>
        <time>2014-08-20T09:28:17Z</time>
      </trkpt>
      <trkpt lat="46.73834" lon="-0.3967">
        <ele>245.126817</ele>
        <time>2014-08-20T09:28:19Z</time>
      </trkpt>
      <trkpt lat="46.73839" lon="-0.39671">
        <ele>244.731538</ele>
        <time>2014-08-20T09:28:21Z</time>
      </trkpt>
      <trkpt lat="46.73843" lon="-0.39672">
        <ele>244.381347</ele>
        <time>2014-08-20T09:28:23Z</time>
      </trkpt>
      <trkpt lat="46.73848" lon="-0.39673">
        <ele>244.036742</ele>
        <time>2014-08-20T09:28:25Z</time>
      </trkpt>
      <trkpt lat="46.73854" lon="-0.39673">
        <ele>243.814947</ele>
        <time>2014-08-20T09:28:27Z</time>
      </trkpt>
      <trkpt lat="46.73859" lon="-0.39672">
        <ele>243.69543</ele>
        <time>2014-08-20T09:28:29Z</time>
      </trkpt>
      <trkpt lat="46.73866" lon="-0.39672">
        <ele>243.612054</ele>
        <time>2014-08-20T09:28:31Z</time>
      </trkpt>
      <trkpt lat="46.73871" lon="-0.39672">
        <ele>243.505676</ele>
        <time>2014-08-20T09:28:33Z</time>
      </trkpt>
      <trkpt lat="46.73876" lon="-0.39671">
        <ele>243.348762</ele>
        <time>2014-08-20T09:28:35Z</time>
      </trkpt>
      <trkpt lat="46.73882" lon="-0.3967">
        <ele>243.253585</ele>
        <time>2014-08-20T09:28:37Z</time>
      </trkpt>
      <trkpt lat="46.73887" lon="-0.39668">
        <ele>243.047258</ele>
        <time>2014-08-20T09:28:39Z</time>
      </trkpt>
      <trkpt lat="46.73893" lon="-0.39665">
        <ele>242.724937</ele>
        <time>2014-08-20T09:28:42Z</time>
      </trkpt>
      <trkpt lat="46.73899" lon="-0.39662">
        <ele>242.523613</ele>
        <time>2014-08-20T09:28:44Z</time>
      </trkpt>
      <trkpt lat="46.73905" lon="-0.3966">
        <ele>242.303844</ele>
        <time>2014-08-20T09:28:46Z</time>
      </trkpt>
      <trkpt lat="46.73909" lon="-0.39659">
        <ele>242.079901</ele>
        <time>2014-08-20T09:28:48Z</time>
      </trkpt>
      <trkpt lat="46.73914" lon="-0.39657">
        <ele>241.825247</ele>
        <time>2014-08-20T09:28:50Z</time>
      </trkpt>
      <trkpt lat="46.73919" lon="-0.39655">
        <ele>241.749635</ele>
        <time>2014-08-20T09:28:52Z</time>
      </trkpt>
      <trkpt lat="46.73925" lon="-0.39654">
        <ele>241.629417</ele>
        <time>2014-08-20T09:28:54Z</time>
      </trkpt>
      <trkpt lat="46.73929" lon="-0.39653">
        <ele>241.471605</ele>
        <time>2014-08-20T09:28:56Z</time>
      </trkpt>
      <trkpt lat="46.73936" lon="-0.39654">
        <ele>241.083576</ele>
        <time>2014-08-20T09:28:59Z</time>
      </trkpt>
      <trkpt lat="46.73941" lon="-0.39654">
        <ele>240.740943</ele>
        <time>2014-08-20T09:29:01Z</time>
      </trkpt>
      <trkpt lat="46.73946" lon="-0.39654">
        <ele>240.488477</ele>
        <time>2014-08-20T09:29:03Z</time>
      </trkpt>
      <trkpt lat="46.73952" lon="-0.39654">
        <ele>240.247563</ele>
        <time>2014-08-20T09:29:05Z</time>
      </trkpt>
      <trkpt lat="46.73957" lon="-0.39654">
        <ele>240.006375</ele>
        <time>2014-08-20T09:29:07Z</time>
      </trkpt>
      <trkpt lat="46.73963" lon="-0.39654">
        <ele>239.706179</ele>
        <time>2014-08-20T09:29:09Z</time>
      </trkpt>
      <trkpt lat="46.73969" lon="-0.39653">
        <ele>239.479201</ele>
        <time>2014-08-20T09:29:11Z</time>
      </trkpt>
      <trkpt lat="46.73974" lon="-0.39653">
        <ele>239.276784</ele>
        <time>2014-08-20T09:29:13Z</time>
      </trkpt>
      <trkpt lat="46.73979" lon="-0.39653">
        <ele>238.998586</ele>
        <time>2014-08-20T09:29:15Z</time>
      </trkpt>
      <trkpt lat="46.73983" lon="-0.39653">
        <ele>238.85876</ele>
        <time>2014-08-20T09:29:17Z</time>
      </trkpt>
      <trkpt lat="46.73991" lon="-0.39652">
        <ele>238.552097</ele>
        <time>2014-08-20T09:29:20Z</time>
      </trkpt>
      <trkpt lat="46.73996" lon="-0.39652">
        <ele>238.240102</ele>
        <time>2014-08-20T09:29:22Z</time>
      </trkpt>
      <trkpt lat="46.74001" lon="-0.39652">
        <ele>237.903864</ele>
        <time>2014-08-20T09:29:24Z</time>
      </trkpt>
      <trkpt lat="46.74007" lon="-0.39652">
        <ele>237.583304</ele>
        <time>2014-08-20T09:29:26Z</time>
      </trkpt>
      <trkpt lat="46.74013" lon="-0.39652">
        <ele>237.276033</ele>
        <time>2014-08-20T09:29:28Z</time>
      </trkpt>
      <trkpt lat="46.74018" lon="-0.39652">
        <ele>237.096324</ele>
        <time>2014-08-20T09:29:30Z</time>
      </trkpt>
      <trkpt lat="46.74023" lon="-0.39651">
        <ele>236.919654</ele>
        <time>2014-08-20T09:29:32Z</time>
      </trkpt>
      <trkpt lat="46.74028" lon="-0.3965">
        <ele>236.64798</ele>
        <time>2014-08-20T09:29:34Z</time>
      </trkpt>
      <trkpt lat="46.74033" lon="-0.39649">
        <ele>236.484568</ele>
        <time>2014-08-20T09:29:36Z</time>
      </trkpt>
      <trkpt lat="46.74038" lon="-0.39647">
        <ele>236.259858</ele>
        <time>2014-08-20T09:29:38Z</time>
      </trkpt>
      <trkpt lat="46.74043" lon="-0.39646">
        <ele>235.987967</ele>
        <time>2014-08-20T09:29:40Z</time>
      </trkpt>
      <trkpt lat="46.74049" lon="-0.39643">
        <ele>235.764517</ele>
        <time>2014-08-20T09:29:42Z</time>
      </trkpt>
      <trkpt lat="46.74054" lon="-0.39641">
        <ele>235.50323</ele>
        <time>2014-08-20T09:29:44Z</time>
      </trkpt>
      <trkpt lat="46.74059" lon="-0.39639">
        <ele>235.307768</ele>
        <time>2014-08-20T09:29:46Z</time>
      </trkpt>
      <trkpt lat="46.74064" lon="-0.39636">
        <ele>235.090663</ele>
        <time>2014-08-20T09:29:48Z</time>
      </trkpt>
      <trkpt lat="46.74069" lon="-0.39634">
        <ele>234.816109</ele>
        <time>2014-08-20T09:29:50Z</time>
      </trkpt>
      <trkpt lat="46.74076" lon="-0.39632">
        <ele>234.316743</ele>
        <time>2014-08-20T09:29:53Z</time>
      </trkpt>
      <trkpt lat="46.74081" lon="-0.39631">
        <ele>233.936643</ele>
        <time>2014-08-20T09:29:55Z</time>
      </trkpt>
      <trkpt lat="46.74087" lon="-0.3963">
        <ele>233.592486</ele>
        <time>2014-08-20T09:29:57Z</time>
      </trkpt>
      <trkpt lat="46.74092" lon="-0.3963">
        <ele>233.398091</ele>
        <time>2014-08-20T09:29:59Z</time>
      </trkpt>
      <trkpt lat="46.74097" lon="-0.39629">
        <ele>233.246902</ele>
        <time>2014-08-20T09:30:01Z</time>
      </trkpt>
      <trkpt lat="46.74102" lon="-0.39629">
        <ele>233.119376</ele>
        <time>2014-08-20T09:30:03Z</time>
      </trkpt>
      <trkpt lat="46.74106" lon="-0.39629">
        <ele>232.909532</ele>
        <time>2014-08-20T09:30:05Z</time>
      </trkpt>
      <trkpt lat="46.74112" lon="-0.3963">
        <ele>232.675254</ele>
        <time>2014-08-20T09:30:07Z</time>
      </trkpt>
      <trkpt lat="46.74117" lon="-0.3963">
        <ele>232.463201</ele>
        <time>2014-08-20T09:30:09Z</time>
      </trkpt>
      <trkpt lat="46.74122" lon="-0.39631">
        <ele>232.131257</ele>
        <time>2014-08-20T09:30:11Z</time>
      </trkpt>
      <trkpt lat="46.74127" lon="-0.39632">
        <ele>231.878254</ele>
        <time>2014-08-20T09:30:13Z</time>
      </trkpt>
      <trkpt lat="46.74131" lon="-0.39632">
        <ele>231.743711</ele>
        <time>2014-08-20T09:30:15Z</time>
      </trkpt>
      <trkpt lat="46.74137" lon="-0.39633">
        <ele>231.562778</ele>
        <time>2014-08-20T09:30:17Z</time>
      </trkpt>
      <trkpt lat="46.74141" lon="-0.39633">
        <ele>231.418245</ele>
        <time>2014-08-20T09:30:19Z</time>
      </trkpt>
      <trkpt lat="46.74148" lon="-0.39635">
        <ele>231.393728</ele>
        <time>2014-08-20T09:30:22Z</time>
      </trkpt>
      <trkpt lat="46.74154" lon="-0.39636">
        <ele>231.417792</ele>
        <time>2014-08-20T09:30:24Z</time>
      </trkpt>
      <trkpt lat="46.74159" lon="-0.39637">
        <ele>231.458944</ele>
        <time>2014-08-20T09:30:26Z</time>
      </trkpt>
      <trkpt lat="46.74164" lon="-0.39638">
        <ele>231.357193</ele>
        <time>2014-08-20T09:30:28Z</time>
      </trkpt>
      <trkpt lat="46.74169" lon="-0.39639">
        <ele>231.235293</ele>
        <time>2014-08-20T09:30:30Z</time>
      </trkpt>
      <trkpt lat="46.74174" lon="-0.3964">
        <ele>231.04326</ele>
        <time>2014-08-20T09:30:32Z</time>
      </trkpt>
      <trkpt lat="46.7418" lon="-0.39641">
        <ele>230.915813</ele>
        <time>2014-08-20T09:30:34Z</time>
      </trkpt>
      <trkpt lat="46.74186" lon="-0.39642">
        <ele>230.898399</ele>
        <time>2014-08-20T09:30:36Z</time>
      </trkpt>
      <trkpt lat="46.74191" lon="-0.39643">
        <ele>230.993495</ele>
        <time>2014-08-20T09:30:38Z</time>
      </trkpt>
      <trkpt lat="46.74196" lon="-0.39643">
        <ele>230.884535</ele>
        <time>2014-08-20T09:30:40Z</time>
      </trkpt>
      <trkpt lat="46.74201" lon="-0.39643">
        <ele>230.638783</ele>
        <time>2014-08-20T09:30:42Z</time>
      </trkpt>
      <trkpt lat="46.74206" lon="-0.39643">
        <ele>230.468389</ele>
        <time>2014-08-20T09:30:44Z</time>
      </trkpt>
      <trkpt lat="46.74213" lon="-0.39643">
        <ele>230.112827</ele>
        <time>2014-08-20T09:30:47Z</time>
      </trkpt>
      <trkpt lat="46.7422" lon="-0.3964">
        <ele>229.604269</ele>
        <time>2014-08-20T09:30:50Z</time>
      </trkpt>
      <trkpt lat="46.74224" lon="-0.39639">
        <ele>229.418627</ele>
        <time>2014-08-20T09:30:52Z</time>
      </trkpt>
      <trkpt lat="46.7423" lon="-0.39637">
        <ele>229.234769</ele>
        <time>2014-08-20T09:30:54Z</time>
      </trkpt>
      <trkpt lat="46.74235" lon="-0.39635">
        <ele>229.04254</ele>
        <time>2014-08-20T09:30:56Z</time>
      </trkpt>
      <trkpt lat="46.74241" lon="-0.39634">
        <ele>228.929388</ele>
        <time>2014-08-20T09:30:59Z</time>
      </trkpt>
      <trkpt lat="46.74248" lon="-0.39631">
        <ele>229.092848</ele>
        <time>2014-08-20T09:31:02Z</time>
      </trkpt>
      <trkpt lat="46.74255" lon="-0.39629">
        <ele>229.185639</ele>
        <time>2014-08-20T09:31:05Z</time>
      </trkpt>
      <trkpt lat="46.74259" lon="-0.39631">
        <ele>229.410056</ele>
        <time>2014-08-20T09:31:06Z</time>
      </trkpt>
      <trkpt lat="46.74266" lon="-0.3963">
        <ele>229.786515</ele>
        <time>2014-08-20T09:31:09Z</time>
      </trkpt>
      <trkpt lat="46.74272" lon="-0.39629">
        <ele>229.90721</ele>
        <time>2014-08-20T09:31:11Z</time>
      </trkpt>
      <trkpt lat="46.74278" lon="-0.39628">
        <ele>229.985662</ele>
        <time>2014-08-20T09:31:13Z</time>
      </trkpt>
      <trkpt lat="46.74283" lon="-0.39628">
        <ele>230.130989</ele>
        <time>2014-08-20T09:31:15Z</time>
      </trkpt>
      <trkpt lat="46.74288" lon="-0.39627">
        <ele>230.18456</ele>
        <time>2014-08-20T09:31:17Z</time>
      </trkpt>
      <trkpt lat="46.74294" lon="-0.39625">
        <ele>230.149129</ele>
        <time>2014-08-20T09:31:20Z</time>
      </trkpt>
      <trkpt lat="46.743" lon="-0.39623">
        <ele>230.444391</ele>
        <time>2014-08-20T09:31:23Z</time>
      </trkpt>
      <trkpt lat="46.74304" lon="-0.39621">
        <ele>230.606814</ele>
        <time>2014-08-20T09:31:25Z</time>
      </trkpt>
      <trkpt lat="46.74309" lon="-0.3962">
        <ele>230.84714</ele>
        <time>2014-08-20T09:31:27Z</time>
      </trkpt>
      <trkpt lat="46.74315" lon="-0.39618">
        <ele>231.141653</ele>
        <time>2014-08-20T09:31:30Z</time>
      </trkpt>
      <trkpt lat="46.7432" lon="-0.39618">
        <ele>231.28742</ele>
        <time>2014-08-20T09:31:32Z</time>
      </trkpt>
      <trkpt lat="46.74327" lon="-0.39616">
        <ele>231.475452</ele>
        <time>2014-08-20T09:31:35Z</time>
      </trkpt>
      <trkpt lat="46.74333" lon="-0.39615">
        <ele>231.65443</ele>
        <time>2014-08-20T09:31:38Z</time>
      </trkpt>
      <trkpt lat="46.74339" lon="-0.39613">
        <ele>231.647434</ele>
        <time>2014-08-20T09:31:41Z</time>
      </trkpt>
      <trkpt lat="46.74344" lon="-0.39612">
        <ele>231.795623</ele>
        <time>2014-08-20T09:31:43Z</time>
      </trkpt>
      <trkpt lat="46.7435" lon="-0.39612">
        <ele>232.00414</ele>
        <time>2014-08-20T09:31:45Z</time>
      </trkpt>
      <trkpt lat="46.74357" lon="-0.3961">
        <ele>232.25246</ele>
        <time>2014-08-20T09:31:47Z</time>
      </trkpt>
      <trkpt lat="46.74361" lon="-0.3961">
        <ele>232.487399</ele>
        <time>2014-08-20T09:31:49Z</time>
      </trkpt>
      <trkpt lat="46.74368" lon="-0.39607">
        <ele>232.681566</ele>
        <time>2014-08-20T09:31:52Z</time>
      </trkpt>
      <trkpt lat="46.74374" lon="-0.39605">
        <ele>232.886282</ele>
        <time>2014-08-20T09:31:55Z</time>
      </trkpt>
      <trkpt lat="46.7438" lon="-0.39603">
        <ele>233.114554</ele>
        <time>2014-08-20T09:31:58Z</time>
      </trkpt>
      <trkpt lat="46.74385" lon="-0.39602">
        <ele>233.265725</ele>
        <time>2014-08-20T09:32:00Z</time>
      </trkpt>
      <trkpt lat="46.74391" lon="-0.39601">
        <ele>233.500858</ele>
        <time>2014-08-20T09:32:03Z</time>
      </trkpt>
      <trkpt lat="46.74398" lon="-0.39601">
        <ele>233.608823</ele>
        <time>2014-08-20T09:32:05Z</time>
      </trkpt>
      <trkpt lat="46.74404" lon="-0.396">
        <ele>233.631614</ele>
        <time>2014-08-20T09:32:07Z</time>
      </trkpt>
      <trkpt lat="46.74408" lon="-0.396">
        <ele>233.652796</ele>
        <time>2014-08-20T09:32:09Z</time>
      </trkpt>
      <trkpt lat="46.74413" lon="-0.39599">
        <ele>233.741851</ele>
        <time>2014-08-20T09:32:11Z</time>
      </trkpt>
      <trkpt lat="46.74418" lon="-0.39598">
        <ele>233.734927</ele>
        <time>2014-08-20T09:32:13Z</time>
      </trkpt>
      <trkpt lat="46.74423" lon="-0.39598">
        <ele>233.653894</ele>
        <time>2014-08-20T09:32:15Z</time>
      </trkpt>
      <trkpt lat="46.74429" lon="-0.39597">
        <ele>233.715657</ele>
        <time>2014-08-20T09:32:18Z</time>
      </trkpt>
      <trkpt lat="46.74434" lon="-0.39595">
        <ele>233.661539</ele>
        <time>2014-08-20T09:32:20Z</time>
      </trkpt>
      <trkpt lat="46.74439" lon="-0.39593">
        <ele>233.563724</ele>
        <time>2014-08-20T09:32:22Z</time>
      </trkpt>
      <trkpt lat="46.74444" lon="-0.39592">
        <ele>233.489965</ele>
        <time>2014-08-20T09:32:24Z</time>
      </trkpt>
      <trkpt lat="46.74449" lon="-0.39591">
        <ele>233.371979</ele>
        <time>2014-08-20T09:32:26Z</time>
      </trkpt>
      <trkpt lat="46.74456" lon="-0.39589">
        <ele>233.250559</ele>
        <time>2014-08-20T09:32:28Z</time>
      </trkpt>
      <trkpt lat="46.7446" lon="-0.39588">
        <ele>233.163318</ele>
        <time>2014-08-20T09:32:30Z</time>
      </trkpt>
      <trkpt lat="46.74466" lon="-0.39587">
        <ele>233.112728</ele>
        <time>2014-08-20T09:32:32Z</time>
      </trkpt>
      <trkpt lat="46.74471" lon="-0.39586">
        <ele>232.951919</ele>
        <time>2014-08-20T09:32:34Z</time>
      </trkpt>
      <trkpt lat="46.74477" lon="-0.39587">
        <ele>232.916895</ele>
        <time>2014-08-20T09:32:36Z</time>
      </trkpt>
      <trkpt lat="46.74481" lon="-0.39587">
        <ele>233.024403</ele>
        <time>2014-08-20T09:32:38Z</time>
      </trkpt>
      <trkpt lat="46.74486" lon="-0.39587">
        <ele>233.138596</ele>
        <time>2014-08-20T09:32:40Z</time>
      </trkpt>
      <trkpt lat="46.74493" lon="-0.39587">
        <ele>233.084141</ele>
        <time>2014-08-20T09:32:43Z</time>
      </trkpt>
      <trkpt lat="46.745" lon="-0.39586">
        <ele>233.150412</ele>
        <time>2014-08-20T09:32:46Z</time>
      </trkpt>
      <trkpt lat="46.74505" lon="-0.39586">
        <ele>233.303199</ele>
        <time>2014-08-20T09:32:48Z</time>
      </trkpt>
      <trkpt lat="46.74512" lon="-0.39586">
        <ele>233.347485</ele>
        <time>2014-08-20T09:32:50Z</time>
      </trkpt>
      <trkpt lat="46.74519" lon="-0.39585">
        <ele>233.391296</ele>
        <time>2014-08-20T09:32:53Z</time>
      </trkpt>
      <trkpt lat="46.74524" lon="-0.39585">
        <ele>233.378861</ele>
        <time>2014-08-20T09:32:55Z</time>
      </trkpt>
      <trkpt lat="46.74529" lon="-0.39584">
        <ele>233.382075</ele>
        <time>2014-08-20T09:32:57Z</time>
      </trkpt>
      <trkpt lat="46.74534" lon="-0.39583">
        <ele>233.400127</ele>
        <time>2014-08-20T09:32:59Z</time>
      </trkpt>
      <trkpt lat="46.74538" lon="-0.39581">
        <ele>233.423099</ele>
        <time>2014-08-20T09:33:01Z</time>
      </trkpt>
      <trkpt lat="46.74542" lon="-0.39577">
        <ele>233.361564</ele>
        <time>2014-08-20T09:33:03Z</time>
      </trkpt>
      <trkpt lat="46.74547" lon="-0.39574">
        <ele>233.342792</ele>
        <time>2014-08-20T09:33:05Z</time>
      </trkpt>
      <trkpt lat="46.74552" lon="-0.39574">
        <ele>233.366631</ele>
        <time>2014-08-20T09:33:07Z</time>
      </trkpt>
      <trkpt lat="46.74557" lon="-0.39575">
        <ele>233.267227</ele>
        <time>2014-08-20T09:33:09Z</time>
      </trkpt>
      <trkpt lat="46.74562" lon="-0.39577">
        <ele>233.140661</ele>
        <time>2014-08-20T09:33:11Z</time>
      </trkpt>
      <trkpt lat="46.74568" lon="-0.39577">
        <ele>232.990602</ele>
        <time>2014-08-20T09:33:14Z</time>
      </trkpt>
      <trkpt lat="46.74573" lon="-0.39579">
        <ele>232.864918</ele>
        <time>2014-08-20T09:33:16Z</time>
      </trkpt>
      <trkpt lat="46.74578" lon="-0.39581">
        <ele>232.756981</ele>
        <time>2014-08-20T09:33:18Z</time>
      </trkpt>
      <trkpt lat="46.74584" lon="-0.39584">
        <ele>232.581378</ele>
        <time>2014-08-20T09:33:20Z</time>
      </trkpt>
      <trkpt lat="46.74588" lon="-0.39585">
        <ele>232.518154</ele>
        <time>2014-08-20T09:33:22Z</time>
      </trkpt>
      <trkpt lat="46.74594" lon="-0.39585">
        <ele>232.932831</ele>
        <time>2014-08-20T09:33:25Z</time>
      </trkpt>
      <trkpt lat="46.74599" lon="-0.39585">
        <ele>233.166761</ele>
        <time>2014-08-20T09:33:27Z</time>
      </trkpt>
      <trkpt lat="46.74604" lon="-0.39584">
        <ele>233.48709</ele>
        <time>2014-08-20T09:33:29Z</time>
      </trkpt>
      <trkpt lat="46.7461" lon="-0.39582">
        <ele>233.784903</ele>
        <time>2014-08-20T09:33:31Z</time>
      </trkpt>
      <trkpt lat="46.74616" lon="-0.39583">
        <ele>233.889221</ele>
        <time>2014-08-20T09:33:33Z</time>
      </trkpt>
      <trkpt lat="46.74623" lon="-0.39583">
        <ele>233.866275</ele>
        <time>2014-08-20T09:33:35Z</time>
      </trkpt>
      <trkpt lat="46.7463" lon="-0.39584">
        <ele>233.831128</ele>
        <time>2014-08-20T09:33:37Z</time>
      </trkpt>
      <trkpt lat="46.74635" lon="-0.39584">
        <ele>233.743553</ele>
        <time>2014-08-20T09:33:39Z</time>
      </trkpt>
      <trkpt lat="46.74642" lon="-0.39584">
        <ele>233.566909</ele>
        <time>2014-08-20T09:33:42Z</time>
      </trkpt>
      <trkpt lat="46.74647" lon="-0.39582">
        <ele>233.369321</ele>
        <time>2014-08-20T09:33:45Z</time>
      </trkpt>
      <trkpt lat="46.74652" lon="-0.39581">
        <ele>233.279825</ele>
        <time>2014-08-20T09:33:47Z</time>
      </trkpt>
      <trkpt lat="46.74657" lon="-0.39581">
        <ele>233.201239</ele>
        <time>2014-08-20T09:33:49Z</time>
      </trkpt>
      <trkpt lat="46.74662" lon="-0.39581">
        <ele>233.097982</ele>
        <time>2014-08-20T09:33:51Z</time>
      </trkpt>
      <trkpt lat="46.74668" lon="-0.3958">
        <ele>233.117998</ele>
        <time>2014-08-20T09:33:54Z</time>
      </trkpt>
      <trkpt lat="46.74673" lon="-0.39579">
        <ele>233.18265</ele>
        <time>2014-08-20T09:33:56Z</time>
      </trkpt>
      <trkpt lat="46.74679" lon="-0.39579">
        <ele>233.183151</ele>
        <time>2014-08-20T09:33:58Z</time>
      </trkpt>
      <trkpt lat="46.74685" lon="-0.39577">
        <ele>232.972388</ele>
        <time>2014-08-20T09:34:01Z</time>
      </trkpt>
      <trkpt lat="46.7469" lon="-0.39577">
        <ele>232.894251</ele>
        <time>2014-08-20T09:34:03Z</time>
      </trkpt>
      <trkpt lat="46.74696" lon="-0.39575">
        <ele>232.657072</ele>
        <time>2014-08-20T09:34:05Z</time>
      </trkpt>
      <trkpt lat="46.74701" lon="-0.3957">
        <ele>232.487078</ele>
        <time>2014-08-20T09:34:07Z</time>
      </trkpt>
      <trkpt lat="46.74705" lon="-0.39565">
        <ele>232.337954</ele>
        <time>2014-08-20T09:34:09Z</time>
      </trkpt>
      <trkpt lat="46.7471" lon="-0.3956">
        <ele>232.056054</ele>
        <time>2014-08-20T09:34:11Z</time>
      </trkpt>
      <trkpt lat="46.74716" lon="-0.39557">
        <ele>231.711501</ele>
        <time>2014-08-20T09:34:13Z</time>
      </trkpt>
      <trkpt lat="46.74721" lon="-0.39554">
        <ele>231.312773</ele>
        <time>2014-08-20T09:34:15Z</time>
      </trkpt>
      <trkpt lat="46.74727" lon="-0.39551">
        <ele>230.736212</ele>
        <time>2014-08-20T09:34:18Z</time>
      </trkpt>
      <trkpt lat="46.74733" lon="-0.39552">
        <ele>230.343235</ele>
        <time>2014-08-20T09:34:21Z</time>
      </trkpt>
      <trkpt lat="46.74737" lon="-0.39551">
        <ele>230.100624</ele>
        <time>2014-08-20T09:34:23Z</time>
      </trkpt>
      <trkpt lat="46.74743" lon="-0.39549">
        <ele>229.897263</ele>
        <time>2014-08-20T09:34:26Z</time>
      </trkpt>
      <trkpt lat="46.74751" lon="-0.39547">
        <ele>229.716845</ele>
        <time>2014-08-20T09:34:29Z</time>
      </trkpt>
      <trkpt lat="46.74757" lon="-0.39545">
        <ele>229.634968</ele>
        <time>2014-08-20T09:34:31Z</time>
      </trkpt>
      <trkpt lat="46.74766" lon="-0.39541">
        <ele>229.623563</ele>
        <time>2014-08-20T09:34:33Z</time>
      </trkpt>
      <trkpt lat="46.74774" lon="-0.39537">
        <ele>229.682434</ele>
        <time>2014-08-20T09:34:35Z</time>
      </trkpt>
      <trkpt lat="46.7478" lon="-0.39534">
        <ele>229.703434</ele>
        <time>2014-08-20T09:34:37Z</time>
      </trkpt>
      <trkpt lat="46.74786" lon="-0.39532">
        <ele>229.77779</ele>
        <time>2014-08-20T09:34:39Z</time>
      </trkpt>
      <trkpt lat="46.74791" lon="-0.39529">
        <ele>229.872871</ele>
        <time>2014-08-20T09:34:41Z</time>
      </trkpt>
      <trkpt lat="46.74796" lon="-0.39527">
        <ele>229.918906</ele>
        <time>2014-08-20T09:34:43Z</time>
      </trkpt>
      <trkpt lat="46.74801" lon="-0.39525">
        <ele>229.875462</ele>
        <time>2014-08-20T09:34:45Z</time>
      </trkpt>
      <trkpt lat="46.74806" lon="-0.39522">
        <ele>229.894563</ele>
        <time>2014-08-20T09:34:47Z</time>
      </trkpt>
      <trkpt lat="46.74812" lon="-0.39518">
        <ele>229.924802</ele>
        <time>2014-08-20T09:34:49Z</time>
      </trkpt>
      <trkpt lat="46.74819" lon="-0.39515">
        <ele>229.879897</ele>
        <time>2014-08-20T09:34:51Z</time>
      </trkpt>
      <trkpt lat="46.74825" lon="-0.39511">
        <ele>229.757477</ele>
        <time>2014-08-20T09:34:53Z</time>
      </trkpt>
      <trkpt lat="46.74832" lon="-0.39507">
        <ele>229.721392</ele>
        <time>2014-08-20T09:34:55Z</time>
      </trkpt>
      <trkpt lat="46.74838" lon="-0.39504">
        <ele>229.737558</ele>
        <time>2014-08-20T09:34:57Z</time>
      </trkpt>
      <trkpt lat="46.74844" lon="-0.39501">
        <ele>229.660396</ele>
        <time>2014-08-20T09:34:59Z</time>
      </trkpt>
      <trkpt lat="46.7485" lon="-0.39497">
        <ele>229.425925</ele>
        <time>2014-08-20T09:35:01Z</time>
      </trkpt>
      <trkpt lat="46.74854" lon="-0.39493">
        <ele>228.99764</ele>
        <time>2014-08-20T09:35:03Z</time>
      </trkpt>
      <trkpt lat="46.7486" lon="-0.3949">
        <ele>228.575012</ele>
        <time>2014-08-20T09:35:05Z</time>
      </trkpt>
      <trkpt lat="46.74866" lon="-0.39486">
        <ele>228.22152</ele>
        <time>2014-08-20T09:35:07Z</time>
      </trkpt>
      <trkpt lat="46.74871" lon="-0.39482">
        <ele>227.839447</ele>
        <time>2014-08-20T09:35:09Z</time>
      </trkpt>
      <trkpt lat="46.74875" lon="-0.3948">
        <ele>227.507099</ele>
        <time>2014-08-20T09:35:11Z</time>
      </trkpt>
      <trkpt lat="46.7488" lon="-0.39477">
        <ele>227.123025</ele>
        <time>2014-08-20T09:35:13Z</time>
      </trkpt>
      <trkpt lat="46.74886" lon="-0.39472">
        <ele>226.736506</ele>
        <time>2014-08-20T09:35:15Z</time>
      </trkpt>
      <trkpt lat="46.74892" lon="-0.39468">
        <ele>226.460551</ele>
        <time>2014-08-20T09:35:17Z</time>
      </trkpt>
      <trkpt lat="46.74896" lon="-0.39465">
        <ele>226.041624</ele>
        <time>2014-08-20T09:35:19Z</time>
      </trkpt>
      <trkpt lat="46.749" lon="-0.39457">
        <ele>225.475293</ele>
        <time>2014-08-20T09:35:22Z</time>
      </trkpt>
      <trkpt lat="46.74903" lon="-0.39451">
        <ele>225.171296</ele>
        <time>2014-08-20T09:35:24Z</time>
      </trkpt>
      <trkpt lat="46.74908" lon="-0.39445">
        <ele>224.8888</ele>
        <time>2014-08-20T09:35:26Z</time>
      </trkpt>
      <trkpt lat="46.74913" lon="-0.39441">
        <ele>224.627644</ele>
        <time>2014-08-20T09:35:28Z</time>
      </trkpt>
      <trkpt lat="46.74917" lon="-0.39436">
        <ele>224.412028</ele>
        <time>2014-08-20T09:35:30Z</time>
      </trkpt>
      <trkpt lat="46.74921" lon="-0.39431">
        <ele>224.171132</ele>
        <time>2014-08-20T09:35:32Z</time>
      </trkpt>
      <trkpt lat="46.74925" lon="-0.39425">
        <ele>223.961297</ele>
        <time>2014-08-20T09:35:34Z</time>
      </trkpt>
      <trkpt lat="46.74928" lon="-0.3942">
        <ele>223.770205</ele>
        <time>2014-08-20T09:35:36Z</time>
      </trkpt>
      <trkpt lat="46.74931" lon="-0.39414">
        <ele>223.409933</ele>
        <time>2014-08-20T09:35:38Z</time>
      </trkpt>
      <trkpt lat="46.74937" lon="-0.39408">
        <ele>223.039424</ele>
        <time>2014-08-20T09:35:40Z</time>
      </trkpt>
      <trkpt lat="46.7494" lon="-0.39402">
        <ele>222.69186</ele>
        <time>2014-08-20T09:35:42Z</time>
      </trkpt>
      <trkpt lat="46.74944" lon="-0.39396">
        <ele>222.293161</ele>
        <time>2014-08-20T09:35:44Z</time>
      </trkpt>
      <trkpt lat="46.74948" lon="-0.3939">
        <ele>222.006517</ele>
        <time>2014-08-20T09:35:46Z</time>
      </trkpt>
      <trkpt lat="46.74953" lon="-0.39384">
        <ele>221.707858</ele>
        <time>2014-08-20T09:35:48Z</time>
      </trkpt>
      <trkpt lat="46.74958" lon="-0.3938">
        <ele>221.425589</ele>
        <time>2014-08-20T09:35:50Z</time>
      </trkpt>
      <trkpt lat="46.74962" lon="-0.39376">
        <ele>221.202623</ele>
        <time>2014-08-20T09:35:52Z</time>
      </trkpt>
      <trkpt lat="46.74966" lon="-0.39374">
        <ele>220.930127</ele>
        <time>2014-08-20T09:35:54Z</time>
      </trkpt>
      <trkpt lat="46.74973" lon="-0.39371">
        <ele>220.579472</ele>
        <time>2014-08-20T09:35:57Z</time>
      </trkpt>
      <trkpt lat="46.74977" lon="-0.39369">
        <ele>220.400642</ele>
        <time>2014-08-20T09:35:59Z</time>
      </trkpt>
      <trkpt lat="46.74982" lon="-0.39367">
        <ele>220.244602</ele>
        <time>2014-08-20T09:36:01Z</time>
      </trkpt>
      <trkpt lat="46.74989" lon="-0.39364">
        <ele>220.094875</ele>
        <time>2014-08-20T09:36:04Z</time>
      </trkpt>
      <trkpt lat="46.74995" lon="-0.39362">
        <ele>219.892383</ele>
        <time>2014-08-20T09:36:06Z</time>
      </trkpt>
      <trkpt lat="46.75" lon="-0.39359">
        <ele>219.727228</ele>
        <time>2014-08-20T09:36:08Z</time>
      </trkpt>
      <trkpt lat="46.75005" lon="-0.39357">
        <ele>219.597921</ele>
        <time>2014-08-20T09:36:10Z</time>
      </trkpt>
      <trkpt lat="46.75011" lon="-0.39356">
        <ele>219.474567</ele>
        <time>2014-08-20T09:36:12Z</time>
      </trkpt>
      <trkpt lat="46.75016" lon="-0.39353">
        <ele>219.369706</ele>
        <time>2014-08-20T09:36:14Z</time>
      </trkpt>
      <trkpt lat="46.7502" lon="-0.39351">
        <ele>219.199967</ele>
        <time>2014-08-20T09:36:16Z</time>
      </trkpt>
      <trkpt lat="46.75026" lon="-0.39349">
        <ele>219.097901</ele>
        <time>2014-08-20T09:36:18Z</time>
      </trkpt>
      <trkpt lat="46.75031" lon="-0.39346">
        <ele>219.1015</ele>
        <time>2014-08-20T09:36:20Z</time>
      </trkpt>
      <trkpt lat="46.75036" lon="-0.39344">
        <ele>218.984304</ele>
        <time>2014-08-20T09:36:22Z</time>
      </trkpt>
      <trkpt lat="46.75042" lon="-0.39341">
        <ele>218.933063</ele>
        <time>2014-08-20T09:36:24Z</time>
      </trkpt>
      <trkpt lat="46.75049" lon="-0.39338">
        <ele>218.804593</ele>
        <time>2014-08-20T09:36:26Z</time>
      </trkpt>
      <trkpt lat="46.75054" lon="-0.39335">
        <ele>218.580645</ele>
        <time>2014-08-20T09:36:28Z</time>
      </trkpt>
      <trkpt lat="46.7506" lon="-0.39333">
        <ele>218.422701</ele>
        <time>2014-08-20T09:36:30Z</time>
      </trkpt>
      <trkpt lat="46.75064" lon="-0.3933">
        <ele>218.44028</ele>
        <time>2014-08-20T09:36:32Z</time>
      </trkpt>
      <trkpt lat="46.7507" lon="-0.39328">
        <ele>218.401347</ele>
        <time>2014-08-20T09:36:35Z</time>
      </trkpt>
      <trkpt lat="46.75076" lon="-0.39324">
        <ele>218.290736</ele>
        <time>2014-08-20T09:36:38Z</time>
      </trkpt>
      <trkpt lat="46.75081" lon="-0.39317">
        <ele>218.185473</ele>
        <time>2014-08-20T09:36:41Z</time>
      </trkpt>
      <trkpt lat="46.75085" lon="-0.39312">
        <ele>218.055465</ele>
        <time>2014-08-20T09:36:43Z</time>
      </trkpt>
      <trkpt lat="46.75088" lon="-0.39306">
        <ele>218.00028</ele>
        <time>2014-08-20T09:36:45Z</time>
      </trkpt>
      <trkpt lat="46.75093" lon="-0.39298">
        <ele>217.787519</ele>
        <time>2014-08-20T09:36:48Z</time>
      </trkpt>
      <trkpt lat="46.75098" lon="-0.39291">
        <ele>217.598355</ele>
        <time>2014-08-20T09:36:51Z</time>
      </trkpt>
      <trkpt lat="46.75102" lon="-0.39283">
        <ele>217.412891</ele>
        <time>2014-08-20T09:36:54Z</time>
      </trkpt>
      <trkpt lat="46.75106" lon="-0.39278">
        <ele>217.298539</ele>
        <time>2014-08-20T09:36:56Z</time>
      </trkpt>
      <trkpt lat="46.75109" lon="-0.39272">
        <ele>217.131376</ele>
        <time>2014-08-20T09:36:58Z</time>
      </trkpt>
      <trkpt lat="46.75112" lon="-0.39267">
        <ele>217.129472</ele>
        <time>2014-08-20T09:37:00Z</time>
      </trkpt>
      <trkpt lat="46.75116" lon="-0.3926">
        <ele>217.204312</ele>
        <time>2014-08-20T09:37:03Z</time>
      </trkpt>
      <trkpt lat="46.7512" lon="-0.39255">
        <ele>217.153058</ele>
        <time>2014-08-20T09:37:05Z</time>
      </trkpt>
      <trkpt lat="46.75123" lon="-0.3925">
        <ele>216.965538</ele>
        <time>2014-08-20T09:37:07Z</time>
      </trkpt>
      <trkpt lat="46.75126" lon="-0.39244">
        <ele>216.769317</ele>
        <time>2014-08-20T09:37:09Z</time>
      </trkpt>
      <trkpt lat="46.75128" lon="-0.39239">
        <ele>216.611978</ele>
        <time>2014-08-20T09:37:11Z</time>
      </trkpt>
      <trkpt lat="46.75131" lon="-0.39233">
        <ele>216.402669</ele>
        <time>2014-08-20T09:37:13Z</time>
      </trkpt>
      <trkpt lat="46.75134" lon="-0.39226">
        <ele>216.141387</ele>
        <time>2014-08-20T09:37:15Z</time>
      </trkpt>
      <trkpt lat="46.75137" lon="-0.3922">
        <ele>215.936803</ele>
        <time>2014-08-20T09:37:17Z</time>
      </trkpt>
      <trkpt lat="46.75139" lon="-0.39213">
        <ele>215.848797</ele>
        <time>2014-08-20T09:37:19Z</time>
      </trkpt>
      <trkpt lat="46.75141" lon="-0.39205">
        <ele>215.620009</ele>
        <time>2014-08-20T09:37:22Z</time>
      </trkpt>
      <trkpt lat="46.75145" lon="-0.39198">
        <ele>215.584269</ele>
        <time>2014-08-20T09:37:25Z</time>
      </trkpt>
      <trkpt lat="46.75149" lon="-0.39192">
        <ele>215.61477</ele>
        <time>2014-08-20T09:37:27Z</time>
      </trkpt>
      <trkpt lat="46.75151" lon="-0.39186">
        <ele>215.6443</ele>
        <time>2014-08-20T09:37:29Z</time>
      </trkpt>
      <trkpt lat="46.75155" lon="-0.39179">
        <ele>215.759238</ele>
        <time>2014-08-20T09:37:31Z</time>
      </trkpt>
      <trkpt lat="46.75158" lon="-0.39172">
        <ele>215.807955</ele>
        <time>2014-08-20T09:37:34Z</time>
      </trkpt>
      <trkpt lat="46.7516" lon="-0.39164">
        <ele>215.835781</ele>
        <time>2014-08-20T09:37:36Z</time>
      </trkpt>
      <trkpt lat="46.75162" lon="-0.39158">
        <ele>215.877536</ele>
        <time>2014-08-20T09:37:38Z</time>
      </trkpt>
      <trkpt lat="46.75164" lon="-0.39151">
        <ele>215.987352</ele>
        <time>2014-08-20T09:37:40Z</time>
      </trkpt>
      <trkpt lat="46.75166" lon="-0.39142">
        <ele>215.925852</ele>
        <time>2014-08-20T09:37:43Z</time>
      </trkpt>
      <trkpt lat="46.75168" lon="-0.39135">
        <ele>216.030171</ele>
        <time>2014-08-20T09:37:45Z</time>
      </trkpt>
      <trkpt lat="46.7517" lon="-0.39128">
        <ele>216.122125</ele>
        <time>2014-08-20T09:37:47Z</time>
      </trkpt>
      <trkpt lat="46.75172" lon="-0.39121">
        <ele>216.210954</ele>
        <time>2014-08-20T09:37:49Z</time>
      </trkpt>
      <trkpt lat="46.75173" lon="-0.39114">
        <ele>216.399891</ele>
        <time>2014-08-20T09:37:51Z</time>
      </trkpt>
      <trkpt lat="46.75174" lon="-0.39107">
        <ele>216.599077</ele>
        <time>2014-08-20T09:37:53Z</time>
      </trkpt>
      <trkpt lat="46.75175" lon="-0.391">
        <ele>216.803297</ele>
        <time>2014-08-20T09:37:55Z</time>
      </trkpt>
      <trkpt lat="46.75178" lon="-0.39092">
        <ele>217.12483</ele>
        <time>2014-08-20T09:37:58Z</time>
      </trkpt>
      <trkpt lat="46.75181" lon="-0.39084">
        <ele>217.310478</ele>
        <time>2014-08-20T09:38:00Z</time>
      </trkpt>
      <trkpt lat="46.75183" lon="-0.39078">
        <ele>217.278306</ele>
        <time>2014-08-20T09:38:02Z</time>
      </trkpt>
      <trkpt lat="46.75185" lon="-0.39071">
        <ele>217.216119</ele>
        <time>2014-08-20T09:38:04Z</time>
      </trkpt>
      <trkpt lat="46.75187" lon="-0.39064">
        <ele>217.256713</ele>
        <time>2014-08-20T09:38:06Z</time>
      </trkpt>
      <trkpt lat="46.75189" lon="-0.39058">
        <ele>217.375713</ele>
        <time>2014-08-20T09:38:08Z</time>
      </trkpt>
      <trkpt lat="46.75192" lon="-0.3905">
        <ele>217.53365</ele>
        <time>2014-08-20T09:38:10Z</time>
      </trkpt>
      <trkpt lat="46.75194" lon="-0.39043">
        <ele>217.776272</ele>
        <time>2014-08-20T09:38:12Z</time>
      </trkpt>
      <trkpt lat="46.75196" lon="-0.39036">
        <ele>218.202508</ele>
        <time>2014-08-20T09:38:14Z</time>
      </trkpt>
      <trkpt lat="46.75197" lon="-0.39028">
        <ele>218.504412</ele>
        <time>2014-08-20T09:38:16Z</time>
      </trkpt>
      <trkpt lat="46.75199" lon="-0.39019">
        <ele>218.940145</ele>
        <time>2014-08-20T09:38:19Z</time>
      </trkpt>
      <trkpt lat="46.75201" lon="-0.3901">
        <ele>219.313058</ele>
        <time>2014-08-20T09:38:22Z</time>
      </trkpt>
      <trkpt lat="46.75205" lon="-0.39003">
        <ele>219.605726</ele>
        <time>2014-08-20T09:38:24Z</time>
      </trkpt>
      <trkpt lat="46.75208" lon="-0.38995">
        <ele>219.808997</ele>
        <time>2014-08-20T09:38:26Z</time>
      </trkpt>
      <trkpt lat="46.75212" lon="-0.38986">
        <ele>219.97122</ele>
        <time>2014-08-20T09:38:28Z</time>
      </trkpt>
      <trkpt lat="46.75215" lon="-0.3898">
        <ele>220.175592</ele>
        <time>2014-08-20T09:38:30Z</time>
      </trkpt>
      <trkpt lat="46.75218" lon="-0.38974">
        <ele>220.213389</ele>
        <time>2014-08-20T09:38:32Z</time>
      </trkpt>
      <trkpt lat="46.75221" lon="-0.38968">
        <ele>220.134898</ele>
        <time>2014-08-20T09:38:34Z</time>
      </trkpt>
      <trkpt lat="46.75224" lon="-0.38961">
        <ele>220.13802</ele>
        <time>2014-08-20T09:38:36Z</time>
      </trkpt>
      <trkpt lat="46.7523" lon="-0.38958">
        <ele>220.0922</ele>
        <time>2014-08-20T09:38:39Z</time>
      </trkpt>
      <trkpt lat="46.75236" lon="-0.3896">
        <ele>220.047269</ele>
        <time>2014-08-20T09:38:41Z</time>
      </trkpt>
      <trkpt lat="46.7524" lon="-0.38963">
        <ele>219.786212</ele>
        <time>2014-08-20T09:38:43Z</time>
      </trkpt>
      <trkpt lat="46.75244" lon="-0.38966">
        <ele>219.675226</ele>
        <time>2014-08-20T09:38:45Z</time>
      </trkpt>
      <trkpt lat="46.75248" lon="-0.3897">
        <ele>219.565786</ele>
        <time>2014-08-20T09:38:47Z</time>
      </trkpt>
      <trkpt lat="46.75252" lon="-0.38976">
        <ele>219.464414</ele>
        <time>2014-08-20T09:38:49Z</time>
      </trkpt>
      <trkpt lat="46.75257" lon="-0.38981">
        <ele>219.423013</ele>
        <time>2014-08-20T09:38:51Z</time>
      </trkpt>
      <trkpt lat="46.7526" lon="-0.38986">
        <ele>219.443248</ele>
        <time>2014-08-20T09:38:53Z</time>
      </trkpt>
      <trkpt lat="46.75265" lon="-0.38992">
        <ele>219.327759</ele>
        <time>2014-08-20T09:38:55Z</time>
      </trkpt>
      <trkpt lat="46.75269" lon="-0.38998">
        <ele>219.27655</ele>
        <time>2014-08-20T09:38:57Z</time>
      </trkpt>
      <trkpt lat="46.75273" lon="-0.39003">
        <ele>219.334305</ele>
        <time>2014-08-20T09:38:59Z</time>
      </trkpt>
      <trkpt lat="46.75277" lon="-0.39006">
        <ele>219.411893</ele>
        <time>2014-08-20T09:39:01Z</time>
      </trkpt>
      <trkpt lat="46.75282" lon="-0.39007">
        <ele>219.630733</ele>
        <time>2014-08-20T09:39:04Z</time>
      </trkpt>
      <trkpt lat="46.75287" lon="-0.39006">
        <ele>219.864662</ele>
        <time>2014-08-20T09:39:06Z</time>
      </trkpt>
      <trkpt lat="46.75292" lon="-0.39005">
        <ele>220.191393</ele>
        <time>2014-08-20T09:39:08Z</time>
      </trkpt>
      <trkpt lat="46.75296" lon="-0.39005">
        <ele>220.468747</ele>
        <time>2014-08-20T09:39:10Z</time>
      </trkpt>
      <trkpt lat="46.75302" lon="-0.39005">
        <ele>220.821997</ele>
        <time>2014-08-20T09:39:13Z</time>
      </trkpt>
      <trkpt lat="46.75305" lon="-0.38999">
        <ele>220.935135</ele>
        <time>2014-08-20T09:39:17Z</time>
      </trkpt>
      <trkpt lat="46.75307" lon="-0.38992">
        <ele>220.762461</ele>
        <time>2014-08-20T09:39:22Z</time>
      </trkpt>
      <trkpt lat="46.75309" lon="-0.38987">
        <ele>221.963219</ele>
        <time>2014-08-20T09:39:44Z</time>
      </trkpt>
      <trkpt lat="46.75314" lon="-0.38988">
        <ele>222.272528</ele>
        <time>2014-08-20T09:39:57Z</time>
      </trkpt>
      <trkpt lat="46.75317" lon="-0.3899">
        <ele>222.328765</ele>
        <time>2014-08-20T09:40:02Z</time>
      </trkpt>
    </trkseg>
  </trk>
</gpx>